<?xml version="1.0" encoding="UTF-8" standalone="no" ?>
<gpx xmlns="http://www.topografix.com/GPX/1/1" xmlns:xsi="http://www.w3.org/2001/XMLSchema-instance" xsi:schemaLocation="http://www.topografix.com/GPX/1/1 http://www.topografix.com/GPX/1/1/gpx.xsd" version="1.1" creator="VisuGPX - https://www.visugpx.com">
  <metadata>
    <name>Champagnat Cyclisme sur route</name>
  </metadata>
  <trk>
    <name><![CDATA[Champagnat Cyclisme sur route_1]]></name>
    <trkseg>
      <trkpt lat="46.48264" lon="5.36824">
        <ele>268</ele>
        <time>2022-07-19T04:12:41Z</time>
      </trkpt>
      <trkpt lat="46.48254" lon="5.36812">
        <ele>267</ele>
        <time>2022-07-19T04:12:42Z</time>
      </trkpt>
      <trkpt lat="46.48242" lon="5.36803">
        <ele>266.4</ele>
        <time>2022-07-19T04:12:43Z</time>
      </trkpt>
      <trkpt lat="46.48231" lon="5.36794">
        <ele>265</ele>
        <time>2022-07-19T04:12:44Z</time>
      </trkpt>
      <trkpt lat="46.48209" lon="5.36776">
        <ele>263</ele>
        <time>2022-07-19T04:12:46Z</time>
      </trkpt>
      <trkpt lat="46.48197" lon="5.36768">
        <ele>262</ele>
        <time>2022-07-19T04:12:47Z</time>
      </trkpt>
      <trkpt lat="46.48175" lon="5.3675">
        <ele>261</ele>
        <time>2022-07-19T04:12:49Z</time>
      </trkpt>
      <trkpt lat="46.48164" lon="5.36742">
        <ele>260.8</ele>
        <time>2022-07-19T04:12:50Z</time>
      </trkpt>
      <trkpt lat="46.48144" lon="5.36725">
        <ele>259.6</ele>
        <time>2022-07-19T04:12:52Z</time>
      </trkpt>
      <trkpt lat="46.48134" lon="5.36719">
        <ele>258.6</ele>
        <time>2022-07-19T04:12:53Z</time>
      </trkpt>
      <trkpt lat="46.48126" lon="5.36714">
        <ele>258</ele>
        <time>2022-07-19T04:12:54Z</time>
      </trkpt>
      <trkpt lat="46.48119" lon="5.3671">
        <ele>256.8</ele>
        <time>2022-07-19T04:12:55Z</time>
      </trkpt>
      <trkpt lat="46.48111" lon="5.36695">
        <ele>255.8</ele>
        <time>2022-07-19T04:12:57Z</time>
      </trkpt>
      <trkpt lat="46.48113" lon="5.36686">
        <ele>255.6</ele>
        <time>2022-07-19T04:12:58Z</time>
      </trkpt>
      <trkpt lat="46.48116" lon="5.36677">
        <ele>255.4</ele>
        <time>2022-07-19T04:12:59Z</time>
      </trkpt>
      <trkpt lat="46.48133" lon="5.36657">
        <ele>255</ele>
        <time>2022-07-19T04:13:02Z</time>
      </trkpt>
      <trkpt lat="46.4815" lon="5.36639">
        <ele>254.2</ele>
        <time>2022-07-19T04:13:05Z</time>
      </trkpt>
      <trkpt lat="46.48157" lon="5.3664">
        <ele>253.8</ele>
        <time>2022-07-19T04:13:06Z</time>
      </trkpt>
      <trkpt lat="46.48164" lon="5.36628">
        <ele>253.4</ele>
        <time>2022-07-19T04:13:07Z</time>
      </trkpt>
      <trkpt lat="46.48173" lon="5.36619">
        <ele>253.2</ele>
        <time>2022-07-19T04:13:08Z</time>
      </trkpt>
      <trkpt lat="46.48181" lon="5.36612">
        <ele>252.8</ele>
        <time>2022-07-19T04:13:09Z</time>
      </trkpt>
      <trkpt lat="46.48189" lon="5.36607">
        <ele>252.6</ele>
        <time>2022-07-19T04:13:10Z</time>
      </trkpt>
      <trkpt lat="46.48205" lon="5.36601">
        <ele>252.4</ele>
        <time>2022-07-19T04:13:12Z</time>
      </trkpt>
      <trkpt lat="46.48218" lon="5.36588">
        <ele>252.2</ele>
        <time>2022-07-19T04:13:14Z</time>
      </trkpt>
      <trkpt lat="46.48222" lon="5.36578">
        <ele>252.2</ele>
        <time>2022-07-19T04:13:15Z</time>
      </trkpt>
      <trkpt lat="46.48229" lon="5.36558">
        <ele>251.8</ele>
        <time>2022-07-19T04:13:17Z</time>
      </trkpt>
      <trkpt lat="46.48248" lon="5.36535">
        <ele>251.6</ele>
        <time>2022-07-19T04:13:20Z</time>
      </trkpt>
      <trkpt lat="46.48275" lon="5.36506">
        <ele>251</ele>
        <time>2022-07-19T04:13:24Z</time>
      </trkpt>
      <trkpt lat="46.4831" lon="5.36468">
        <ele>250</ele>
        <time>2022-07-19T04:13:29Z</time>
      </trkpt>
      <trkpt lat="46.48317" lon="5.3646">
        <ele>249.4</ele>
        <time>2022-07-19T04:13:30Z</time>
      </trkpt>
      <trkpt lat="46.48346" lon="5.36428">
        <ele>248.4</ele>
        <time>2022-07-19T04:13:34Z</time>
      </trkpt>
      <trkpt lat="46.48375" lon="5.36397">
        <ele>247.2</ele>
        <time>2022-07-19T04:13:38Z</time>
      </trkpt>
      <trkpt lat="46.48383" lon="5.36389">
        <ele>247.2</ele>
        <time>2022-07-19T04:13:39Z</time>
      </trkpt>
      <trkpt lat="46.48413" lon="5.36361">
        <ele>246.2</ele>
        <time>2022-07-19T04:13:43Z</time>
      </trkpt>
      <trkpt lat="46.48421" lon="5.36356">
        <ele>246.2</ele>
        <time>2022-07-19T04:13:44Z</time>
      </trkpt>
      <trkpt lat="46.48454" lon="5.36346">
        <ele>245.8</ele>
        <time>2022-07-19T04:13:48Z</time>
      </trkpt>
      <trkpt lat="46.4851" lon="5.36337">
        <ele>245.6</ele>
        <time>2022-07-19T04:13:55Z</time>
      </trkpt>
      <trkpt lat="46.48526" lon="5.36335">
        <ele>245.6</ele>
        <time>2022-07-19T04:13:57Z</time>
      </trkpt>
      <trkpt lat="46.48581" lon="5.36325">
        <ele>245.4</ele>
        <time>2022-07-19T04:14:04Z</time>
      </trkpt>
      <trkpt lat="46.48598" lon="5.36323">
        <ele>245</ele>
        <time>2022-07-19T04:14:06Z</time>
      </trkpt>
      <trkpt lat="46.48607" lon="5.36322">
        <ele>244.4</ele>
        <time>2022-07-19T04:14:07Z</time>
      </trkpt>
      <trkpt lat="46.48615" lon="5.36319">
        <ele>244</ele>
        <time>2022-07-19T04:14:08Z</time>
      </trkpt>
      <trkpt lat="46.48622" lon="5.36312">
        <ele>244</ele>
        <time>2022-07-19T04:14:09Z</time>
      </trkpt>
      <trkpt lat="46.48629" lon="5.36304">
        <ele>243.6</ele>
        <time>2022-07-19T04:14:10Z</time>
      </trkpt>
      <trkpt lat="46.48632" lon="5.36291">
        <ele>243.4</ele>
        <time>2022-07-19T04:14:11Z</time>
      </trkpt>
      <trkpt lat="46.48639" lon="5.36251">
        <ele>242.4</ele>
        <time>2022-07-19T04:14:14Z</time>
      </trkpt>
      <trkpt lat="46.4864" lon="5.36237">
        <ele>241.2</ele>
        <time>2022-07-19T04:14:15Z</time>
      </trkpt>
      <trkpt lat="46.48641" lon="5.36223">
        <ele>240.8</ele>
        <time>2022-07-19T04:14:16Z</time>
      </trkpt>
      <trkpt lat="46.48642" lon="5.36209">
        <ele>240.2</ele>
        <time>2022-07-19T04:14:17Z</time>
      </trkpt>
      <trkpt lat="46.48645" lon="5.36182">
        <ele>239</ele>
        <time>2022-07-19T04:14:19Z</time>
      </trkpt>
      <trkpt lat="46.48653" lon="5.36117">
        <ele>238</ele>
        <time>2022-07-19T04:14:24Z</time>
      </trkpt>
      <trkpt lat="46.48661" lon="5.36081">
        <ele>237.8</ele>
        <time>2022-07-19T04:14:27Z</time>
      </trkpt>
      <trkpt lat="46.48669" lon="5.36047">
        <ele>237.8</ele>
        <time>2022-07-19T04:14:30Z</time>
      </trkpt>
      <trkpt lat="46.48676" lon="5.36007">
        <ele>238</ele>
        <time>2022-07-19T04:14:34Z</time>
      </trkpt>
      <trkpt lat="46.48677" lon="5.35999">
        <ele>238.4</ele>
        <time>2022-07-19T04:14:35Z</time>
      </trkpt>
      <trkpt lat="46.48682" lon="5.35984">
        <ele>239</ele>
        <time>2022-07-19T04:14:37Z</time>
      </trkpt>
      <trkpt lat="46.48683" lon="5.35975">
        <ele>239.2</ele>
        <time>2022-07-19T04:14:38Z</time>
      </trkpt>
      <trkpt lat="46.48686" lon="5.35954">
        <ele>239.4</ele>
        <time>2022-07-19T04:14:40Z</time>
      </trkpt>
      <trkpt lat="46.4869" lon="5.35923">
        <ele>239.8</ele>
        <time>2022-07-19T04:14:43Z</time>
      </trkpt>
      <trkpt lat="46.48696" lon="5.35903">
        <ele>239.8</ele>
        <time>2022-07-19T04:14:45Z</time>
      </trkpt>
      <trkpt lat="46.48723" lon="5.35834">
        <ele>239.2</ele>
        <time>2022-07-19T04:14:52Z</time>
      </trkpt>
      <trkpt lat="46.48731" lon="5.35814">
        <ele>239</ele>
        <time>2022-07-19T04:14:54Z</time>
      </trkpt>
      <trkpt lat="46.48764" lon="5.3574">
        <ele>238.2</ele>
        <time>2022-07-19T04:15:02Z</time>
      </trkpt>
      <trkpt lat="46.48767" lon="5.35731">
        <ele>238</ele>
        <time>2022-07-19T04:15:03Z</time>
      </trkpt>
      <trkpt lat="46.48798" lon="5.35662">
        <ele>237.6</ele>
        <time>2022-07-19T04:15:11Z</time>
      </trkpt>
      <trkpt lat="46.48816" lon="5.35621">
        <ele>237.8</ele>
        <time>2022-07-19T04:15:16Z</time>
      </trkpt>
      <trkpt lat="46.48842" lon="5.35558">
        <ele>238</ele>
        <time>2022-07-19T04:15:24Z</time>
      </trkpt>
      <trkpt lat="46.48849" lon="5.35543">
        <ele>238</ele>
        <time>2022-07-19T04:15:26Z</time>
      </trkpt>
      <trkpt lat="46.48881" lon="5.35471">
        <ele>238</ele>
        <time>2022-07-19T04:15:35Z</time>
      </trkpt>
      <trkpt lat="46.48914" lon="5.35397">
        <ele>237.6</ele>
        <time>2022-07-19T04:15:44Z</time>
      </trkpt>
      <trkpt lat="46.48921" lon="5.3538">
        <ele>237.4</ele>
        <time>2022-07-19T04:15:46Z</time>
      </trkpt>
      <trkpt lat="46.4894" lon="5.35337">
        <ele>237</ele>
        <time>2022-07-19T04:15:51Z</time>
      </trkpt>
      <trkpt lat="46.4895" lon="5.35312">
        <ele>236.6</ele>
        <time>2022-07-19T04:15:54Z</time>
      </trkpt>
      <trkpt lat="46.48954" lon="5.35305">
        <ele>236.6</ele>
        <time>2022-07-19T04:15:55Z</time>
      </trkpt>
      <trkpt lat="46.48981" lon="5.35243">
        <ele>236.6</ele>
        <time>2022-07-19T04:16:03Z</time>
      </trkpt>
      <trkpt lat="46.4901" lon="5.35177">
        <ele>237.8</ele>
        <time>2022-07-19T04:16:12Z</time>
      </trkpt>
      <trkpt lat="46.49013" lon="5.3517">
        <ele>238</ele>
        <time>2022-07-19T04:16:14Z</time>
      </trkpt>
      <trkpt lat="46.49033" lon="5.35124">
        <ele>238.6</ele>
        <time>2022-07-19T04:16:20Z</time>
      </trkpt>
      <trkpt lat="46.49038" lon="5.35107">
        <ele>238.8</ele>
        <time>2022-07-19T04:16:22Z</time>
      </trkpt>
      <trkpt lat="46.49052" lon="5.35043">
        <ele>238.6</ele>
        <time>2022-07-19T04:16:29Z</time>
      </trkpt>
      <trkpt lat="46.49069" lon="5.34962">
        <ele>237.6</ele>
        <time>2022-07-19T04:16:37Z</time>
      </trkpt>
      <trkpt lat="46.49074" lon="5.34929">
        <ele>237</ele>
        <time>2022-07-19T04:16:40Z</time>
      </trkpt>
      <trkpt lat="46.49084" lon="5.34875">
        <ele>235.6</ele>
        <time>2022-07-19T04:16:45Z</time>
      </trkpt>
      <trkpt lat="46.49086" lon="5.34864">
        <ele>235.4</ele>
        <time>2022-07-19T04:16:46Z</time>
      </trkpt>
      <trkpt lat="46.49088" lon="5.34853">
        <ele>235.2</ele>
        <time>2022-07-19T04:16:47Z</time>
      </trkpt>
      <trkpt lat="46.49097" lon="5.3481">
        <ele>234.6</ele>
        <time>2022-07-19T04:16:51Z</time>
      </trkpt>
      <trkpt lat="46.49104" lon="5.34777">
        <ele>233.8</ele>
        <time>2022-07-19T04:16:54Z</time>
      </trkpt>
      <trkpt lat="46.49111" lon="5.34743">
        <ele>233.4</ele>
        <time>2022-07-19T04:16:57Z</time>
      </trkpt>
      <trkpt lat="46.49125" lon="5.34665">
        <ele>232.4</ele>
        <time>2022-07-19T04:17:04Z</time>
      </trkpt>
      <trkpt lat="46.49137" lon="5.34607">
        <ele>232.2</ele>
        <time>2022-07-19T04:17:10Z</time>
      </trkpt>
      <trkpt lat="46.49142" lon="5.3458">
        <ele>232.6</ele>
        <time>2022-07-19T04:17:13Z</time>
      </trkpt>
      <trkpt lat="46.49147" lon="5.34551">
        <ele>233.2</ele>
        <time>2022-07-19T04:17:16Z</time>
      </trkpt>
      <trkpt lat="46.4916" lon="5.34488">
        <ele>232.6</ele>
        <time>2022-07-19T04:17:22Z</time>
      </trkpt>
      <trkpt lat="46.49175" lon="5.34405">
        <ele>231.8</ele>
        <time>2022-07-19T04:17:30Z</time>
      </trkpt>
      <trkpt lat="46.49181" lon="5.34378">
        <ele>231.6</ele>
        <time>2022-07-19T04:17:33Z</time>
      </trkpt>
      <trkpt lat="46.4919" lon="5.3433">
        <ele>232.4</ele>
        <time>2022-07-19T04:17:39Z</time>
      </trkpt>
      <trkpt lat="46.49193" lon="5.34313">
        <ele>233.2</ele>
        <time>2022-07-19T04:17:41Z</time>
      </trkpt>
      <trkpt lat="46.49201" lon="5.34266">
        <ele>233.6</ele>
        <time>2022-07-19T04:17:46Z</time>
      </trkpt>
      <trkpt lat="46.49215" lon="5.34195">
        <ele>232.4</ele>
        <time>2022-07-19T04:17:53Z</time>
      </trkpt>
      <trkpt lat="46.49219" lon="5.34176">
        <ele>232.2</ele>
        <time>2022-07-19T04:17:55Z</time>
      </trkpt>
      <trkpt lat="46.49232" lon="5.34114">
        <ele>232</ele>
        <time>2022-07-19T04:18:02Z</time>
      </trkpt>
      <trkpt lat="46.4924" lon="5.34073">
        <ele>232.8</ele>
        <time>2022-07-19T04:18:07Z</time>
      </trkpt>
      <trkpt lat="46.49244" lon="5.3406">
        <ele>233.2</ele>
        <time>2022-07-19T04:18:09Z</time>
      </trkpt>
      <trkpt lat="46.4925" lon="5.3403">
        <ele>234.4</ele>
        <time>2022-07-19T04:18:13Z</time>
      </trkpt>
      <trkpt lat="46.49259" lon="5.33978">
        <ele>235.2</ele>
        <time>2022-07-19T04:18:19Z</time>
      </trkpt>
      <trkpt lat="46.49274" lon="5.33899">
        <ele>235.4</ele>
        <time>2022-07-19T04:18:28Z</time>
      </trkpt>
      <trkpt lat="46.49285" lon="5.33837">
        <ele>235.2</ele>
        <time>2022-07-19T04:18:35Z</time>
      </trkpt>
      <trkpt lat="46.49298" lon="5.33769">
        <ele>235</ele>
        <time>2022-07-19T04:18:42Z</time>
      </trkpt>
      <trkpt lat="46.493" lon="5.33759">
        <ele>235</ele>
        <time>2022-07-19T04:18:43Z</time>
      </trkpt>
      <trkpt lat="46.49303" lon="5.33736">
        <ele>234.6</ele>
        <time>2022-07-19T04:18:46Z</time>
      </trkpt>
      <trkpt lat="46.49306" lon="5.33705">
        <ele>234.2</ele>
        <time>2022-07-19T04:18:49Z</time>
      </trkpt>
      <trkpt lat="46.49309" lon="5.3363">
        <ele>233.6</ele>
        <time>2022-07-19T04:18:56Z</time>
      </trkpt>
      <trkpt lat="46.49313" lon="5.33599">
        <ele>233.2</ele>
        <time>2022-07-19T04:18:59Z</time>
      </trkpt>
      <trkpt lat="46.49319" lon="5.3357">
        <ele>232.8</ele>
        <time>2022-07-19T04:19:02Z</time>
      </trkpt>
      <trkpt lat="46.49321" lon="5.3356">
        <ele>232.8</ele>
        <time>2022-07-19T04:19:03Z</time>
      </trkpt>
      <trkpt lat="46.49322" lon="5.33539">
        <ele>232.8</ele>
        <time>2022-07-19T04:19:05Z</time>
      </trkpt>
      <trkpt lat="46.49322" lon="5.33529">
        <ele>232.8</ele>
        <time>2022-07-19T04:19:06Z</time>
      </trkpt>
      <trkpt lat="46.49314" lon="5.33461">
        <ele>232.8</ele>
        <time>2022-07-19T04:19:13Z</time>
      </trkpt>
      <trkpt lat="46.49301" lon="5.33396">
        <ele>233.2</ele>
        <time>2022-07-19T04:19:20Z</time>
      </trkpt>
      <trkpt lat="46.49289" lon="5.33336">
        <ele>232.6</ele>
        <time>2022-07-19T04:19:26Z</time>
      </trkpt>
      <trkpt lat="46.49285" lon="5.33315">
        <ele>232.2</ele>
        <time>2022-07-19T04:19:28Z</time>
      </trkpt>
      <trkpt lat="46.49271" lon="5.33245">
        <ele>231</ele>
        <time>2022-07-19T04:19:35Z</time>
      </trkpt>
      <trkpt lat="46.49265" lon="5.33226">
        <ele>230.8</ele>
        <time>2022-07-19T04:19:37Z</time>
      </trkpt>
      <trkpt lat="46.49261" lon="5.33217">
        <ele>230.6</ele>
        <time>2022-07-19T04:19:38Z</time>
      </trkpt>
      <trkpt lat="46.49252" lon="5.332">
        <ele>230.4</ele>
        <time>2022-07-19T04:19:40Z</time>
      </trkpt>
      <trkpt lat="46.49246" lon="5.33192">
        <ele>230.2</ele>
        <time>2022-07-19T04:19:41Z</time>
      </trkpt>
      <trkpt lat="46.4924" lon="5.33186">
        <ele>230.2</ele>
        <time>2022-07-19T04:19:42Z</time>
      </trkpt>
      <trkpt lat="46.49219" lon="5.3317">
        <ele>230</ele>
        <time>2022-07-19T04:19:45Z</time>
      </trkpt>
      <trkpt lat="46.49212" lon="5.33165">
        <ele>229.8</ele>
        <time>2022-07-19T04:19:46Z</time>
      </trkpt>
      <trkpt lat="46.49185" lon="5.33142">
        <ele>228.6</ele>
        <time>2022-07-19T04:19:50Z</time>
      </trkpt>
      <trkpt lat="46.49173" lon="5.3313">
        <ele>228.2</ele>
        <time>2022-07-19T04:19:52Z</time>
      </trkpt>
      <trkpt lat="46.49161" lon="5.33115">
        <ele>227.8</ele>
        <time>2022-07-19T04:19:54Z</time>
      </trkpt>
      <trkpt lat="46.49153" lon="5.33097">
        <ele>227.8</ele>
        <time>2022-07-19T04:19:56Z</time>
      </trkpt>
      <trkpt lat="46.49139" lon="5.33041">
        <ele>227.8</ele>
        <time>2022-07-19T04:20:02Z</time>
      </trkpt>
      <trkpt lat="46.49128" lon="5.3296">
        <ele>227.6</ele>
        <time>2022-07-19T04:20:10Z</time>
      </trkpt>
      <trkpt lat="46.49128" lon="5.32949">
        <ele>227.6</ele>
        <time>2022-07-19T04:20:11Z</time>
      </trkpt>
      <trkpt lat="46.49127" lon="5.32938">
        <ele>227.6</ele>
        <time>2022-07-19T04:20:12Z</time>
      </trkpt>
      <trkpt lat="46.49128" lon="5.32906">
        <ele>226.6</ele>
        <time>2022-07-19T04:20:15Z</time>
      </trkpt>
      <trkpt lat="46.4913" lon="5.32885">
        <ele>226.2</ele>
        <time>2022-07-19T04:20:17Z</time>
      </trkpt>
      <trkpt lat="46.49143" lon="5.32836">
        <ele>226</ele>
        <time>2022-07-19T04:20:22Z</time>
      </trkpt>
      <trkpt lat="46.49146" lon="5.32817">
        <ele>226</ele>
        <time>2022-07-19T04:20:24Z</time>
      </trkpt>
      <trkpt lat="46.49146" lon="5.32797">
        <ele>226.2</ele>
        <time>2022-07-19T04:20:26Z</time>
      </trkpt>
      <trkpt lat="46.49138" lon="5.32754">
        <ele>226.8</ele>
        <time>2022-07-19T04:20:31Z</time>
      </trkpt>
      <trkpt lat="46.4913" lon="5.3272">
        <ele>227.4</ele>
        <time>2022-07-19T04:20:35Z</time>
      </trkpt>
      <trkpt lat="46.49126" lon="5.32712">
        <ele>227.4</ele>
        <time>2022-07-19T04:20:36Z</time>
      </trkpt>
      <trkpt lat="46.49122" lon="5.32705">
        <ele>227.4</ele>
        <time>2022-07-19T04:20:37Z</time>
      </trkpt>
      <trkpt lat="46.49109" lon="5.32696">
        <ele>227.4</ele>
        <time>2022-07-19T04:20:39Z</time>
      </trkpt>
      <trkpt lat="46.49095" lon="5.32694">
        <ele>227</ele>
        <time>2022-07-19T04:20:41Z</time>
      </trkpt>
      <trkpt lat="46.49087" lon="5.32695">
        <ele>226.8</ele>
        <time>2022-07-19T04:20:42Z</time>
      </trkpt>
      <trkpt lat="46.49047" lon="5.32703">
        <ele>225.4</ele>
        <time>2022-07-19T04:20:47Z</time>
      </trkpt>
      <trkpt lat="46.4902" lon="5.32708">
        <ele>223.8</ele>
        <time>2022-07-19T04:20:50Z</time>
      </trkpt>
      <trkpt lat="46.48991" lon="5.32709">
        <ele>222.8</ele>
        <time>2022-07-19T04:20:53Z</time>
      </trkpt>
      <trkpt lat="46.48971" lon="5.32707">
        <ele>221.2</ele>
        <time>2022-07-19T04:20:55Z</time>
      </trkpt>
      <trkpt lat="46.48961" lon="5.32704">
        <ele>220.8</ele>
        <time>2022-07-19T04:20:56Z</time>
      </trkpt>
      <trkpt lat="46.48952" lon="5.32698">
        <ele>220</ele>
        <time>2022-07-19T04:20:57Z</time>
      </trkpt>
      <trkpt lat="46.4894" lon="5.32689">
        <ele>219.6</ele>
        <time>2022-07-19T04:20:58Z</time>
      </trkpt>
      <trkpt lat="46.48934" lon="5.32681">
        <ele>218.8</ele>
        <time>2022-07-19T04:20:59Z</time>
      </trkpt>
      <trkpt lat="46.48926" lon="5.3267">
        <ele>218.6</ele>
        <time>2022-07-19T04:21:00Z</time>
      </trkpt>
      <trkpt lat="46.48918" lon="5.32642">
        <ele>217.2</ele>
        <time>2022-07-19T04:21:02Z</time>
      </trkpt>
      <trkpt lat="46.4892" lon="5.32611">
        <ele>215.6</ele>
        <time>2022-07-19T04:21:04Z</time>
      </trkpt>
      <trkpt lat="46.48925" lon="5.326">
        <ele>215.4</ele>
        <time>2022-07-19T04:21:05Z</time>
      </trkpt>
      <trkpt lat="46.48941" lon="5.32577">
        <ele>214</ele>
        <time>2022-07-19T04:21:07Z</time>
      </trkpt>
      <trkpt lat="46.48949" lon="5.32566">
        <ele>213.2</ele>
        <time>2022-07-19T04:21:08Z</time>
      </trkpt>
      <trkpt lat="46.48954" lon="5.32553">
        <ele>212.4</ele>
        <time>2022-07-19T04:21:09Z</time>
      </trkpt>
      <trkpt lat="46.48957" lon="5.32539">
        <ele>211.2</ele>
        <time>2022-07-19T04:21:10Z</time>
      </trkpt>
      <trkpt lat="46.48956" lon="5.32524">
        <ele>210.4</ele>
        <time>2022-07-19T04:21:11Z</time>
      </trkpt>
      <trkpt lat="46.48954" lon="5.3251">
        <ele>210</ele>
        <time>2022-07-19T04:21:12Z</time>
      </trkpt>
      <trkpt lat="46.48946" lon="5.32484">
        <ele>209.6</ele>
        <time>2022-07-19T04:21:14Z</time>
      </trkpt>
      <trkpt lat="46.48932" lon="5.32439">
        <ele>209</ele>
        <time>2022-07-19T04:21:18Z</time>
      </trkpt>
      <trkpt lat="46.48929" lon="5.32428">
        <ele>208.8</ele>
        <time>2022-07-19T04:21:19Z</time>
      </trkpt>
      <trkpt lat="46.48915" lon="5.32377">
        <ele>208.6</ele>
        <time>2022-07-19T04:21:24Z</time>
      </trkpt>
      <trkpt lat="46.48898" lon="5.3233">
        <ele>209</ele>
        <time>2022-07-19T04:21:29Z</time>
      </trkpt>
      <trkpt lat="46.4889" lon="5.32316">
        <ele>209.4</ele>
        <time>2022-07-19T04:21:31Z</time>
      </trkpt>
      <trkpt lat="46.48879" lon="5.323">
        <ele>210.2</ele>
        <time>2022-07-19T04:21:34Z</time>
      </trkpt>
      <trkpt lat="46.48865" lon="5.3228">
        <ele>212</ele>
        <time>2022-07-19T04:21:38Z</time>
      </trkpt>
      <trkpt lat="46.4886" lon="5.32272">
        <ele>213.2</ele>
        <time>2022-07-19T04:21:40Z</time>
      </trkpt>
      <trkpt lat="46.48857" lon="5.32268">
        <ele>214</ele>
        <time>2022-07-19T04:21:41Z</time>
      </trkpt>
      <trkpt lat="46.48854" lon="5.32265">
        <ele>214.2</ele>
        <time>2022-07-19T04:21:42Z</time>
      </trkpt>
      <trkpt lat="46.48846" lon="5.32253">
        <ele>215.6</ele>
        <time>2022-07-19T04:21:45Z</time>
      </trkpt>
      <trkpt lat="46.48842" lon="5.32243">
        <ele>216.2</ele>
        <time>2022-07-19T04:21:47Z</time>
      </trkpt>
      <trkpt lat="46.48837" lon="5.32232">
        <ele>216.6</ele>
        <time>2022-07-19T04:21:49Z</time>
      </trkpt>
      <trkpt lat="46.48832" lon="5.32212">
        <ele>217.2</ele>
        <time>2022-07-19T04:21:52Z</time>
      </trkpt>
      <trkpt lat="46.48831" lon="5.32204">
        <ele>217.2</ele>
        <time>2022-07-19T04:21:53Z</time>
      </trkpt>
      <trkpt lat="46.48826" lon="5.32149">
        <ele>216.8</ele>
        <time>2022-07-19T04:21:59Z</time>
      </trkpt>
      <trkpt lat="46.48826" lon="5.32139">
        <ele>216.8</ele>
        <time>2022-07-19T04:22:00Z</time>
      </trkpt>
      <trkpt lat="46.4883" lon="5.32108">
        <ele>216</ele>
        <time>2022-07-19T04:22:03Z</time>
      </trkpt>
      <trkpt lat="46.48832" lon="5.32097">
        <ele>215.6</ele>
        <time>2022-07-19T04:22:04Z</time>
      </trkpt>
      <trkpt lat="46.48843" lon="5.32037">
        <ele>214.2</ele>
        <time>2022-07-19T04:22:10Z</time>
      </trkpt>
      <trkpt lat="46.48848" lon="5.32005">
        <ele>213.6</ele>
        <time>2022-07-19T04:22:13Z</time>
      </trkpt>
      <trkpt lat="46.4885" lon="5.31963">
        <ele>213</ele>
        <time>2022-07-19T04:22:17Z</time>
      </trkpt>
      <trkpt lat="46.48849" lon="5.31941">
        <ele>212.6</ele>
        <time>2022-07-19T04:22:19Z</time>
      </trkpt>
      <trkpt lat="46.48842" lon="5.31886">
        <ele>212</ele>
        <time>2022-07-19T04:22:24Z</time>
      </trkpt>
      <trkpt lat="46.4884" lon="5.31876">
        <ele>211.8</ele>
        <time>2022-07-19T04:22:25Z</time>
      </trkpt>
      <trkpt lat="46.4883" lon="5.31859">
        <ele>211.4</ele>
        <time>2022-07-19T04:22:27Z</time>
      </trkpt>
      <trkpt lat="46.48823" lon="5.31853">
        <ele>211.2</ele>
        <time>2022-07-19T04:22:28Z</time>
      </trkpt>
      <trkpt lat="46.48816" lon="5.3185">
        <ele>211</ele>
        <time>2022-07-19T04:22:29Z</time>
      </trkpt>
      <trkpt lat="46.48795" lon="5.31838">
        <ele>210.8</ele>
        <time>2022-07-19T04:22:32Z</time>
      </trkpt>
      <trkpt lat="46.48786" lon="5.31822">
        <ele>210.6</ele>
        <time>2022-07-19T04:22:34Z</time>
      </trkpt>
      <trkpt lat="46.48784" lon="5.31803">
        <ele>210.6</ele>
        <time>2022-07-19T04:22:36Z</time>
      </trkpt>
      <trkpt lat="46.48783" lon="5.31793">
        <ele>210.6</ele>
        <time>2022-07-19T04:22:37Z</time>
      </trkpt>
      <trkpt lat="46.48781" lon="5.3174">
        <ele>210.8</ele>
        <time>2022-07-19T04:22:42Z</time>
      </trkpt>
      <trkpt lat="46.48779" lon="5.3173">
        <ele>210.8</ele>
        <time>2022-07-19T04:22:43Z</time>
      </trkpt>
      <trkpt lat="46.48776" lon="5.31718">
        <ele>210.8</ele>
        <time>2022-07-19T04:22:45Z</time>
      </trkpt>
      <trkpt lat="46.48772" lon="5.31711">
        <ele>210.8</ele>
        <time>2022-07-19T04:22:46Z</time>
      </trkpt>
      <trkpt lat="46.4875" lon="5.3168">
        <ele>211.2</ele>
        <time>2022-07-19T04:22:51Z</time>
      </trkpt>
      <trkpt lat="46.48722" lon="5.31645">
        <ele>211.8</ele>
        <time>2022-07-19T04:22:57Z</time>
      </trkpt>
      <trkpt lat="46.48717" lon="5.3164">
        <ele>211.8</ele>
        <time>2022-07-19T04:22:58Z</time>
      </trkpt>
      <trkpt lat="46.48702" lon="5.31622">
        <ele>212</ele>
        <time>2022-07-19T04:23:01Z</time>
      </trkpt>
      <trkpt lat="46.48692" lon="5.31609">
        <ele>212</ele>
        <time>2022-07-19T04:23:03Z</time>
      </trkpt>
      <trkpt lat="46.48688" lon="5.31603">
        <ele>212</ele>
        <time>2022-07-19T04:23:04Z</time>
      </trkpt>
      <trkpt lat="46.48677" lon="5.31589">
        <ele>211.8</ele>
        <time>2022-07-19T04:23:06Z</time>
      </trkpt>
      <trkpt lat="46.48666" lon="5.31572">
        <ele>211.8</ele>
        <time>2022-07-19T04:23:08Z</time>
      </trkpt>
      <trkpt lat="46.48654" lon="5.31556">
        <ele>211.8</ele>
        <time>2022-07-19T04:23:11Z</time>
      </trkpt>
      <trkpt lat="46.48651" lon="5.31552">
        <ele>211.8</ele>
        <time>2022-07-19T04:23:12Z</time>
      </trkpt>
      <trkpt lat="46.48648" lon="5.31547">
        <ele>212</ele>
        <time>2022-07-19T04:23:13Z</time>
      </trkpt>
      <trkpt lat="46.48639" lon="5.31538">
        <ele>212</ele>
        <time>2022-07-19T04:23:15Z</time>
      </trkpt>
      <trkpt lat="46.48634" lon="5.31532">
        <ele>212</ele>
        <time>2022-07-19T04:23:16Z</time>
      </trkpt>
      <trkpt lat="46.48621" lon="5.31517">
        <ele>211.8</ele>
        <time>2022-07-19T04:23:19Z</time>
      </trkpt>
      <trkpt lat="46.48619" lon="5.31512">
        <ele>211.8</ele>
        <time>2022-07-19T04:23:20Z</time>
      </trkpt>
      <trkpt lat="46.48611" lon="5.31499">
        <ele>211.6</ele>
        <time>2022-07-19T04:23:22Z</time>
      </trkpt>
      <trkpt lat="46.48608" lon="5.31482">
        <ele>211.4</ele>
        <time>2022-07-19T04:23:24Z</time>
      </trkpt>
      <trkpt lat="46.48608" lon="5.31452">
        <ele>211.2</ele>
        <time>2022-07-19T04:23:27Z</time>
      </trkpt>
      <trkpt lat="46.48606" lon="5.31441">
        <ele>211.2</ele>
        <time>2022-07-19T04:23:28Z</time>
      </trkpt>
      <trkpt lat="46.48601" lon="5.31423">
        <ele>211.2</ele>
        <time>2022-07-19T04:23:30Z</time>
      </trkpt>
      <trkpt lat="46.48584" lon="5.31392">
        <ele>212.4</ele>
        <time>2022-07-19T04:23:35Z</time>
      </trkpt>
      <trkpt lat="46.48577" lon="5.31383">
        <ele>213</ele>
        <time>2022-07-19T04:23:37Z</time>
      </trkpt>
      <trkpt lat="46.48567" lon="5.31367">
        <ele>214</ele>
        <time>2022-07-19T04:23:40Z</time>
      </trkpt>
      <trkpt lat="46.48565" lon="5.31361">
        <ele>214</ele>
        <time>2022-07-19T04:23:41Z</time>
      </trkpt>
      <trkpt lat="46.48563" lon="5.31355">
        <ele>214.2</ele>
        <time>2022-07-19T04:23:42Z</time>
      </trkpt>
      <trkpt lat="46.48559" lon="5.31339">
        <ele>215</ele>
        <time>2022-07-19T04:23:45Z</time>
      </trkpt>
      <trkpt lat="46.48556" lon="5.31325">
        <ele>216</ele>
        <time>2022-07-19T04:23:47Z</time>
      </trkpt>
      <trkpt lat="46.48556" lon="5.3132">
        <ele>216.2</ele>
        <time>2022-07-19T04:23:48Z</time>
      </trkpt>
      <trkpt lat="46.48555" lon="5.31301">
        <ele>217.2</ele>
        <time>2022-07-19T04:23:51Z</time>
      </trkpt>
      <trkpt lat="46.48553" lon="5.31274">
        <ele>217.8</ele>
        <time>2022-07-19T04:23:55Z</time>
      </trkpt>
      <trkpt lat="46.48552" lon="5.31253">
        <ele>218</ele>
        <time>2022-07-19T04:23:58Z</time>
      </trkpt>
      <trkpt lat="46.48554" lon="5.31238">
        <ele>218.2</ele>
        <time>2022-07-19T04:24:00Z</time>
      </trkpt>
      <trkpt lat="46.48555" lon="5.31231">
        <ele>218.4</ele>
        <time>2022-07-19T04:24:01Z</time>
      </trkpt>
      <trkpt lat="46.48573" lon="5.3119">
        <ele>219.2</ele>
        <time>2022-07-19T04:24:08Z</time>
      </trkpt>
      <trkpt lat="46.48576" lon="5.31185">
        <ele>219.4</ele>
        <time>2022-07-19T04:24:09Z</time>
      </trkpt>
      <trkpt lat="46.48596" lon="5.31146">
        <ele>220.6</ele>
        <time>2022-07-19T04:24:16Z</time>
      </trkpt>
      <trkpt lat="46.48598" lon="5.31141">
        <ele>220.6</ele>
        <time>2022-07-19T04:24:17Z</time>
      </trkpt>
      <trkpt lat="46.48621" lon="5.31098">
        <ele>221.6</ele>
        <time>2022-07-19T04:24:25Z</time>
      </trkpt>
      <trkpt lat="46.48626" lon="5.31087">
        <ele>221.8</ele>
        <time>2022-07-19T04:24:27Z</time>
      </trkpt>
      <trkpt lat="46.4864" lon="5.31059">
        <ele>222.6</ele>
        <time>2022-07-19T04:24:32Z</time>
      </trkpt>
      <trkpt lat="46.48651" lon="5.31037">
        <ele>223</ele>
        <time>2022-07-19T04:24:36Z</time>
      </trkpt>
      <trkpt lat="46.48664" lon="5.31009">
        <ele>223.8</ele>
        <time>2022-07-19T04:24:41Z</time>
      </trkpt>
      <trkpt lat="46.48678" lon="5.3098">
        <ele>224.4</ele>
        <time>2022-07-19T04:24:46Z</time>
      </trkpt>
      <trkpt lat="46.48681" lon="5.30974">
        <ele>224.4</ele>
        <time>2022-07-19T04:24:47Z</time>
      </trkpt>
      <trkpt lat="46.48698" lon="5.30939">
        <ele>224.4</ele>
        <time>2022-07-19T04:24:52Z</time>
      </trkpt>
      <trkpt lat="46.48706" lon="5.30925">
        <ele>224.4</ele>
        <time>2022-07-19T04:24:54Z</time>
      </trkpt>
      <trkpt lat="46.48716" lon="5.30912">
        <ele>223.8</ele>
        <time>2022-07-19T04:24:56Z</time>
      </trkpt>
      <trkpt lat="46.48721" lon="5.30903">
        <ele>224</ele>
        <time>2022-07-19T04:24:57Z</time>
      </trkpt>
      <trkpt lat="46.48723" lon="5.30893">
        <ele>223.6</ele>
        <time>2022-07-19T04:24:58Z</time>
      </trkpt>
      <trkpt lat="46.48723" lon="5.30882">
        <ele>223.4</ele>
        <time>2022-07-19T04:24:59Z</time>
      </trkpt>
      <trkpt lat="46.48721" lon="5.30872">
        <ele>223</ele>
        <time>2022-07-19T04:25:00Z</time>
      </trkpt>
      <trkpt lat="46.48718" lon="5.30862">
        <ele>222.8</ele>
        <time>2022-07-19T04:25:01Z</time>
      </trkpt>
      <trkpt lat="46.48713" lon="5.30854">
        <ele>222.2</ele>
        <time>2022-07-19T04:25:02Z</time>
      </trkpt>
      <trkpt lat="46.48702" lon="5.30841">
        <ele>221.2</ele>
        <time>2022-07-19T04:25:04Z</time>
      </trkpt>
      <trkpt lat="46.48689" lon="5.30831">
        <ele>220.8</ele>
        <time>2022-07-19T04:25:06Z</time>
      </trkpt>
      <trkpt lat="46.48666" lon="5.30818">
        <ele>220.2</ele>
        <time>2022-07-19T04:25:09Z</time>
      </trkpt>
      <trkpt lat="46.48643" lon="5.30803">
        <ele>219.6</ele>
        <time>2022-07-19T04:25:12Z</time>
      </trkpt>
      <trkpt lat="46.4862" lon="5.30788">
        <ele>219</ele>
        <time>2022-07-19T04:25:15Z</time>
      </trkpt>
      <trkpt lat="46.48594" lon="5.30768">
        <ele>218.6</ele>
        <time>2022-07-19T04:25:19Z</time>
      </trkpt>
      <trkpt lat="46.48564" lon="5.30736">
        <ele>219.2</ele>
        <time>2022-07-19T04:25:25Z</time>
      </trkpt>
      <trkpt lat="46.48561" lon="5.30729">
        <ele>219.4</ele>
        <time>2022-07-19T04:25:26Z</time>
      </trkpt>
      <trkpt lat="46.48555" lon="5.30716">
        <ele>220.2</ele>
        <time>2022-07-19T04:25:28Z</time>
      </trkpt>
      <trkpt lat="46.4855" lon="5.30701">
        <ele>220.8</ele>
        <time>2022-07-19T04:25:30Z</time>
      </trkpt>
      <trkpt lat="46.48549" lon="5.30694">
        <ele>221</ele>
        <time>2022-07-19T04:25:31Z</time>
      </trkpt>
      <trkpt lat="46.48545" lon="5.30674">
        <ele>221.2</ele>
        <time>2022-07-19T04:25:34Z</time>
      </trkpt>
      <trkpt lat="46.48545" lon="5.30668">
        <ele>221.4</ele>
        <time>2022-07-19T04:25:35Z</time>
      </trkpt>
      <trkpt lat="46.48545" lon="5.30655">
        <ele>222</ele>
        <time>2022-07-19T04:25:37Z</time>
      </trkpt>
      <trkpt lat="46.48546" lon="5.30641">
        <ele>222.4</ele>
        <time>2022-07-19T04:25:39Z</time>
      </trkpt>
      <trkpt lat="46.48548" lon="5.30628">
        <ele>223</ele>
        <time>2022-07-19T04:25:41Z</time>
      </trkpt>
      <trkpt lat="46.48551" lon="5.30607">
        <ele>223.8</ele>
        <time>2022-07-19T04:25:44Z</time>
      </trkpt>
      <trkpt lat="46.48554" lon="5.30587">
        <ele>224.4</ele>
        <time>2022-07-19T04:25:47Z</time>
      </trkpt>
      <trkpt lat="46.48554" lon="5.30581">
        <ele>224.6</ele>
        <time>2022-07-19T04:25:48Z</time>
      </trkpt>
      <trkpt lat="46.48555" lon="5.30567">
        <ele>224.8</ele>
        <time>2022-07-19T04:25:50Z</time>
      </trkpt>
      <trkpt lat="46.48561" lon="5.3052">
        <ele>225.8</ele>
        <time>2022-07-19T04:25:57Z</time>
      </trkpt>
      <trkpt lat="46.48561" lon="5.30509">
        <ele>226.2</ele>
        <time>2022-07-19T04:25:59Z</time>
      </trkpt>
      <trkpt lat="46.48561" lon="5.30504">
        <ele>226.4</ele>
        <time>2022-07-19T04:26:00Z</time>
      </trkpt>
      <trkpt lat="46.48556" lon="5.30497">
        <ele>226.4</ele>
        <time>2022-07-19T04:26:02Z</time>
      </trkpt>
      <trkpt lat="46.48541" lon="5.30495">
        <ele>226.6</ele>
        <time>2022-07-19T04:26:06Z</time>
      </trkpt>
      <trkpt lat="46.48537" lon="5.30497">
        <ele>226.6</ele>
        <time>2022-07-19T04:26:07Z</time>
      </trkpt>
      <trkpt lat="46.48522" lon="5.30508">
        <ele>226.8</ele>
        <time>2022-07-19T04:26:10Z</time>
      </trkpt>
      <trkpt lat="46.48506" lon="5.30521">
        <ele>226.8</ele>
        <time>2022-07-19T04:26:13Z</time>
      </trkpt>
      <trkpt lat="46.48487" lon="5.30539">
        <ele>227</ele>
        <time>2022-07-19T04:26:17Z</time>
      </trkpt>
      <trkpt lat="46.48446" lon="5.30574">
        <ele>226.4</ele>
        <time>2022-07-19T04:26:24Z</time>
      </trkpt>
      <trkpt lat="46.48441" lon="5.3058">
        <ele>226.2</ele>
        <time>2022-07-19T04:26:25Z</time>
      </trkpt>
      <trkpt lat="46.48418" lon="5.30601">
        <ele>225.8</ele>
        <time>2022-07-19T04:26:29Z</time>
      </trkpt>
      <trkpt lat="46.48412" lon="5.30606">
        <ele>225.6</ele>
        <time>2022-07-19T04:26:30Z</time>
      </trkpt>
      <trkpt lat="46.48365" lon="5.30653">
        <ele>225</ele>
        <time>2022-07-19T04:26:38Z</time>
      </trkpt>
      <trkpt lat="46.48352" lon="5.30665">
        <ele>224.8</ele>
        <time>2022-07-19T04:26:40Z</time>
      </trkpt>
      <trkpt lat="46.48331" lon="5.30684">
        <ele>224.6</ele>
        <time>2022-07-19T04:26:43Z</time>
      </trkpt>
      <trkpt lat="46.48315" lon="5.30693">
        <ele>224.4</ele>
        <time>2022-07-19T04:26:46Z</time>
      </trkpt>
      <trkpt lat="46.48295" lon="5.30697">
        <ele>224.2</ele>
        <time>2022-07-19T04:26:49Z</time>
      </trkpt>
      <trkpt lat="46.48287" lon="5.30697">
        <ele>224.2</ele>
        <time>2022-07-19T04:26:50Z</time>
      </trkpt>
      <trkpt lat="46.48251" lon="5.30688">
        <ele>224.6</ele>
        <time>2022-07-19T04:26:56Z</time>
      </trkpt>
      <trkpt lat="46.48221" lon="5.30683">
        <ele>225.4</ele>
        <time>2022-07-19T04:27:01Z</time>
      </trkpt>
      <trkpt lat="46.4821" lon="5.30685">
        <ele>225.6</ele>
        <time>2022-07-19T04:27:03Z</time>
      </trkpt>
      <trkpt lat="46.48204" lon="5.30687">
        <ele>225.8</ele>
        <time>2022-07-19T04:27:04Z</time>
      </trkpt>
      <trkpt lat="46.48171" lon="5.30701">
        <ele>226.8</ele>
        <time>2022-07-19T04:27:10Z</time>
      </trkpt>
      <trkpt lat="46.48145" lon="5.30715">
        <ele>227.8</ele>
        <time>2022-07-19T04:27:15Z</time>
      </trkpt>
      <trkpt lat="46.48124" lon="5.30727">
        <ele>228.6</ele>
        <time>2022-07-19T04:27:19Z</time>
      </trkpt>
      <trkpt lat="46.48093" lon="5.30744">
        <ele>229.2</ele>
        <time>2022-07-19T04:27:25Z</time>
      </trkpt>
      <trkpt lat="46.48048" lon="5.30769">
        <ele>229.6</ele>
        <time>2022-07-19T04:27:33Z</time>
      </trkpt>
      <trkpt lat="46.47995" lon="5.30799">
        <ele>228.4</ele>
        <time>2022-07-19T04:27:41Z</time>
      </trkpt>
      <trkpt lat="46.47976" lon="5.30809">
        <ele>228.2</ele>
        <time>2022-07-19T04:27:44Z</time>
      </trkpt>
      <trkpt lat="46.47966" lon="5.30813">
        <ele>227.6</ele>
        <time>2022-07-19T04:27:45Z</time>
      </trkpt>
      <trkpt lat="46.47951" lon="5.30816">
        <ele>227.4</ele>
        <time>2022-07-19T04:27:47Z</time>
      </trkpt>
      <trkpt lat="46.47924" lon="5.30815">
        <ele>227</ele>
        <time>2022-07-19T04:27:51Z</time>
      </trkpt>
      <trkpt lat="46.47891" lon="5.30804">
        <ele>228.4</ele>
        <time>2022-07-19T04:27:57Z</time>
      </trkpt>
      <trkpt lat="46.47877" lon="5.30801">
        <ele>229.6</ele>
        <time>2022-07-19T04:28:00Z</time>
      </trkpt>
      <trkpt lat="46.47864" lon="5.30797">
        <ele>230.8</ele>
        <time>2022-07-19T04:28:03Z</time>
      </trkpt>
      <trkpt lat="46.47852" lon="5.30794">
        <ele>231.6</ele>
        <time>2022-07-19T04:28:06Z</time>
      </trkpt>
      <trkpt lat="46.47847" lon="5.30791">
        <ele>231.8</ele>
        <time>2022-07-19T04:28:07Z</time>
      </trkpt>
      <trkpt lat="46.47844" lon="5.30787">
        <ele>232</ele>
        <time>2022-07-19T04:28:08Z</time>
      </trkpt>
      <trkpt lat="46.4783" lon="5.30774">
        <ele>232.4</ele>
        <time>2022-07-19T04:28:11Z</time>
      </trkpt>
      <trkpt lat="46.47824" lon="5.30771">
        <ele>232.4</ele>
        <time>2022-07-19T04:28:12Z</time>
      </trkpt>
      <trkpt lat="46.47817" lon="5.3077">
        <ele>232.4</ele>
        <time>2022-07-19T04:28:13Z</time>
      </trkpt>
      <trkpt lat="46.47795" lon="5.30769">
        <ele>232.2</ele>
        <time>2022-07-19T04:28:16Z</time>
      </trkpt>
      <trkpt lat="46.47757" lon="5.30774">
        <ele>230.8</ele>
        <time>2022-07-19T04:28:21Z</time>
      </trkpt>
      <trkpt lat="46.47736" lon="5.30778">
        <ele>230.4</ele>
        <time>2022-07-19T04:28:24Z</time>
      </trkpt>
      <trkpt lat="46.47683" lon="5.30786">
        <ele>230.4</ele>
        <time>2022-07-19T04:28:32Z</time>
      </trkpt>
      <trkpt lat="46.47627" lon="5.30795">
        <ele>231</ele>
        <time>2022-07-19T04:28:41Z</time>
      </trkpt>
      <trkpt lat="46.47617" lon="5.30797">
        <ele>231</ele>
        <time>2022-07-19T04:28:42Z</time>
      </trkpt>
      <trkpt lat="46.47562" lon="5.30805">
        <ele>231.2</ele>
        <time>2022-07-19T04:28:51Z</time>
      </trkpt>
      <trkpt lat="46.47556" lon="5.30806">
        <ele>231.2</ele>
        <time>2022-07-19T04:28:52Z</time>
      </trkpt>
      <trkpt lat="46.47499" lon="5.30825">
        <ele>231.2</ele>
        <time>2022-07-19T04:29:01Z</time>
      </trkpt>
      <trkpt lat="46.47453" lon="5.30849">
        <ele>230.2</ele>
        <time>2022-07-19T04:29:08Z</time>
      </trkpt>
      <trkpt lat="46.47401" lon="5.30876">
        <ele>230</ele>
        <time>2022-07-19T04:29:16Z</time>
      </trkpt>
      <trkpt lat="46.47388" lon="5.30881">
        <ele>230</ele>
        <time>2022-07-19T04:29:18Z</time>
      </trkpt>
      <trkpt lat="46.47345" lon="5.30895">
        <ele>230.2</ele>
        <time>2022-07-19T04:29:25Z</time>
      </trkpt>
      <trkpt lat="46.47334" lon="5.30888">
        <ele>230.2</ele>
        <time>2022-07-19T04:29:27Z</time>
      </trkpt>
      <trkpt lat="46.47331" lon="5.30882">
        <ele>230.2</ele>
        <time>2022-07-19T04:29:28Z</time>
      </trkpt>
      <trkpt lat="46.47329" lon="5.30873">
        <ele>230.2</ele>
        <time>2022-07-19T04:29:29Z</time>
      </trkpt>
      <trkpt lat="46.47325" lon="5.30846">
        <ele>230.2</ele>
        <time>2022-07-19T04:29:32Z</time>
      </trkpt>
      <trkpt lat="46.47321" lon="5.30795">
        <ele>229.6</ele>
        <time>2022-07-19T04:29:37Z</time>
      </trkpt>
      <trkpt lat="46.47319" lon="5.30775">
        <ele>229.6</ele>
        <time>2022-07-19T04:29:39Z</time>
      </trkpt>
      <trkpt lat="46.47317" lon="5.30728">
        <ele>229.8</ele>
        <time>2022-07-19T04:29:44Z</time>
      </trkpt>
      <trkpt lat="46.47314" lon="5.3066">
        <ele>230.2</ele>
        <time>2022-07-19T04:29:51Z</time>
      </trkpt>
      <trkpt lat="46.47308" lon="5.30643">
        <ele>230.2</ele>
        <time>2022-07-19T04:29:53Z</time>
      </trkpt>
      <trkpt lat="46.47304" lon="5.30636">
        <ele>230.2</ele>
        <time>2022-07-19T04:29:54Z</time>
      </trkpt>
      <trkpt lat="46.473" lon="5.30629">
        <ele>230.4</ele>
        <time>2022-07-19T04:29:55Z</time>
      </trkpt>
      <trkpt lat="46.4728" lon="5.30606">
        <ele>230.4</ele>
        <time>2022-07-19T04:29:59Z</time>
      </trkpt>
      <trkpt lat="46.47256" lon="5.30576">
        <ele>230.6</ele>
        <time>2022-07-19T04:30:04Z</time>
      </trkpt>
      <trkpt lat="46.47244" lon="5.30567">
        <ele>230.6</ele>
        <time>2022-07-19T04:30:06Z</time>
      </trkpt>
      <trkpt lat="46.47219" lon="5.30556">
        <ele>230.4</ele>
        <time>2022-07-19T04:30:10Z</time>
      </trkpt>
      <trkpt lat="46.47213" lon="5.30555">
        <ele>230.4</ele>
        <time>2022-07-19T04:30:11Z</time>
      </trkpt>
      <trkpt lat="46.47206" lon="5.30555">
        <ele>230.4</ele>
        <time>2022-07-19T04:30:12Z</time>
      </trkpt>
      <trkpt lat="46.47175" lon="5.30558">
        <ele>230</ele>
        <time>2022-07-19T04:30:17Z</time>
      </trkpt>
      <trkpt lat="46.47145" lon="5.30552">
        <ele>230.8</ele>
        <time>2022-07-19T04:30:22Z</time>
      </trkpt>
      <trkpt lat="46.47134" lon="5.30547">
        <ele>231</ele>
        <time>2022-07-19T04:30:24Z</time>
      </trkpt>
      <trkpt lat="46.47093" lon="5.30523">
        <ele>231.2</ele>
        <time>2022-07-19T04:30:31Z</time>
      </trkpt>
      <trkpt lat="46.47042" lon="5.3048">
        <ele>231</ele>
        <time>2022-07-19T04:30:40Z</time>
      </trkpt>
      <trkpt lat="46.46994" lon="5.30438">
        <ele>230.4</ele>
        <time>2022-07-19T04:30:48Z</time>
      </trkpt>
      <trkpt lat="46.46977" lon="5.30423">
        <ele>230</ele>
        <time>2022-07-19T04:30:51Z</time>
      </trkpt>
      <trkpt lat="46.46932" lon="5.30396">
        <ele>229.6</ele>
        <time>2022-07-19T04:30:58Z</time>
      </trkpt>
      <trkpt lat="46.46877" lon="5.30371">
        <ele>229.8</ele>
        <time>2022-07-19T04:31:07Z</time>
      </trkpt>
      <trkpt lat="46.46845" lon="5.30341">
        <ele>230.2</ele>
        <time>2022-07-19T04:31:13Z</time>
      </trkpt>
      <trkpt lat="46.46803" lon="5.30288">
        <ele>230.2</ele>
        <time>2022-07-19T04:31:22Z</time>
      </trkpt>
      <trkpt lat="46.46788" lon="5.30271">
        <ele>230.2</ele>
        <time>2022-07-19T04:31:25Z</time>
      </trkpt>
      <trkpt lat="46.46746" lon="5.30218">
        <ele>230.6</ele>
        <time>2022-07-19T04:31:34Z</time>
      </trkpt>
      <trkpt lat="46.46742" lon="5.30211">
        <ele>230.4</ele>
        <time>2022-07-19T04:31:35Z</time>
      </trkpt>
      <trkpt lat="46.46738" lon="5.30202">
        <ele>230.4</ele>
        <time>2022-07-19T04:31:36Z</time>
      </trkpt>
      <trkpt lat="46.46727" lon="5.30167">
        <ele>230</ele>
        <time>2022-07-19T04:31:40Z</time>
      </trkpt>
      <trkpt lat="46.46709" lon="5.30091">
        <ele>229.2</ele>
        <time>2022-07-19T04:31:48Z</time>
      </trkpt>
      <trkpt lat="46.46704" lon="5.30072">
        <ele>229</ele>
        <time>2022-07-19T04:31:50Z</time>
      </trkpt>
      <trkpt lat="46.46686" lon="5.3001">
        <ele>228.8</ele>
        <time>2022-07-19T04:31:57Z</time>
      </trkpt>
      <trkpt lat="46.46677" lon="5.29972">
        <ele>229.2</ele>
        <time>2022-07-19T04:32:02Z</time>
      </trkpt>
      <trkpt lat="46.46665" lon="5.29923">
        <ele>230.2</ele>
        <time>2022-07-19T04:32:08Z</time>
      </trkpt>
      <trkpt lat="46.46657" lon="5.29886">
        <ele>230.6</ele>
        <time>2022-07-19T04:32:12Z</time>
      </trkpt>
      <trkpt lat="46.46655" lon="5.29878">
        <ele>230.8</ele>
        <time>2022-07-19T04:32:13Z</time>
      </trkpt>
      <trkpt lat="46.46653" lon="5.2987">
        <ele>231</ele>
        <time>2022-07-19T04:32:15Z</time>
      </trkpt>
      <trkpt lat="46.46645" lon="5.29835">
        <ele>231.4</ele>
        <time>2022-07-19T04:32:19Z</time>
      </trkpt>
      <trkpt lat="46.46641" lon="5.29818">
        <ele>231.4</ele>
        <time>2022-07-19T04:32:21Z</time>
      </trkpt>
      <trkpt lat="46.46628" lon="5.29774">
        <ele>231.4</ele>
        <time>2022-07-19T04:32:26Z</time>
      </trkpt>
      <trkpt lat="46.46611" lon="5.29716">
        <ele>230.8</ele>
        <time>2022-07-19T04:32:32Z</time>
      </trkpt>
      <trkpt lat="46.46589" lon="5.29636">
        <ele>230.2</ele>
        <time>2022-07-19T04:32:40Z</time>
      </trkpt>
      <trkpt lat="46.46576" lon="5.29585">
        <ele>229.6</ele>
        <time>2022-07-19T04:32:45Z</time>
      </trkpt>
      <trkpt lat="46.46568" lon="5.2955">
        <ele>229</ele>
        <time>2022-07-19T04:32:48Z</time>
      </trkpt>
      <trkpt lat="46.46562" lon="5.2953">
        <ele>228.4</ele>
        <time>2022-07-19T04:32:50Z</time>
      </trkpt>
      <trkpt lat="46.46553" lon="5.29496">
        <ele>227.8</ele>
        <time>2022-07-19T04:32:53Z</time>
      </trkpt>
      <trkpt lat="46.46543" lon="5.29455">
        <ele>227.4</ele>
        <time>2022-07-19T04:32:57Z</time>
      </trkpt>
      <trkpt lat="46.46537" lon="5.29426">
        <ele>227.6</ele>
        <time>2022-07-19T04:33:00Z</time>
      </trkpt>
      <trkpt lat="46.46532" lon="5.29406">
        <ele>228</ele>
        <time>2022-07-19T04:33:02Z</time>
      </trkpt>
      <trkpt lat="46.46519" lon="5.29349">
        <ele>228.4</ele>
        <time>2022-07-19T04:33:08Z</time>
      </trkpt>
      <trkpt lat="46.46517" lon="5.29339">
        <ele>228.4</ele>
        <time>2022-07-19T04:33:09Z</time>
      </trkpt>
      <trkpt lat="46.465" lon="5.29263">
        <ele>228.6</ele>
        <time>2022-07-19T04:33:17Z</time>
      </trkpt>
      <trkpt lat="46.46497" lon="5.29245">
        <ele>228.6</ele>
        <time>2022-07-19T04:33:19Z</time>
      </trkpt>
      <trkpt lat="46.46485" lon="5.29191">
        <ele>229.6</ele>
        <time>2022-07-19T04:33:25Z</time>
      </trkpt>
      <trkpt lat="46.46484" lon="5.29183">
        <ele>229.6</ele>
        <time>2022-07-19T04:33:26Z</time>
      </trkpt>
      <trkpt lat="46.46467" lon="5.29102">
        <ele>230.4</ele>
        <time>2022-07-19T04:33:35Z</time>
      </trkpt>
      <trkpt lat="46.4645" lon="5.29023">
        <ele>230.6</ele>
        <time>2022-07-19T04:33:43Z</time>
      </trkpt>
      <trkpt lat="46.46448" lon="5.29014">
        <ele>230.6</ele>
        <time>2022-07-19T04:33:44Z</time>
      </trkpt>
      <trkpt lat="46.4643" lon="5.28933">
        <ele>230.2</ele>
        <time>2022-07-19T04:33:53Z</time>
      </trkpt>
      <trkpt lat="46.46428" lon="5.28923">
        <ele>230.2</ele>
        <time>2022-07-19T04:33:54Z</time>
      </trkpt>
      <trkpt lat="46.4641" lon="5.28855">
        <ele>229.4</ele>
        <time>2022-07-19T04:34:01Z</time>
      </trkpt>
      <trkpt lat="46.4639" lon="5.28813">
        <ele>229.2</ele>
        <time>2022-07-19T04:34:06Z</time>
      </trkpt>
      <trkpt lat="46.46385" lon="5.28806">
        <ele>229</ele>
        <time>2022-07-19T04:34:07Z</time>
      </trkpt>
      <trkpt lat="46.4635" lon="5.28774">
        <ele>228.4</ele>
        <time>2022-07-19T04:34:13Z</time>
      </trkpt>
      <trkpt lat="46.463" lon="5.28741">
        <ele>227.4</ele>
        <time>2022-07-19T04:34:20Z</time>
      </trkpt>
      <trkpt lat="46.46293" lon="5.28736">
        <ele>227.2</ele>
        <time>2022-07-19T04:34:21Z</time>
      </trkpt>
      <trkpt lat="46.46271" lon="5.28721">
        <ele>226</ele>
        <time>2022-07-19T04:34:24Z</time>
      </trkpt>
      <trkpt lat="46.46245" lon="5.28703">
        <ele>225.2</ele>
        <time>2022-07-19T04:34:28Z</time>
      </trkpt>
      <trkpt lat="46.4624" lon="5.28698">
        <ele>224.8</ele>
        <time>2022-07-19T04:34:29Z</time>
      </trkpt>
      <trkpt lat="46.46231" lon="5.28687">
        <ele>224.2</ele>
        <time>2022-07-19T04:34:31Z</time>
      </trkpt>
      <trkpt lat="46.46228" lon="5.2868">
        <ele>224</ele>
        <time>2022-07-19T04:34:32Z</time>
      </trkpt>
      <trkpt lat="46.46225" lon="5.28671">
        <ele>223.8</ele>
        <time>2022-07-19T04:34:33Z</time>
      </trkpt>
      <trkpt lat="46.46224" lon="5.28661">
        <ele>223</ele>
        <time>2022-07-19T04:34:34Z</time>
      </trkpt>
      <trkpt lat="46.46222" lon="5.2865">
        <ele>222.8</ele>
        <time>2022-07-19T04:34:35Z</time>
      </trkpt>
      <trkpt lat="46.4622" lon="5.28638">
        <ele>222</ele>
        <time>2022-07-19T04:34:36Z</time>
      </trkpt>
      <trkpt lat="46.46214" lon="5.28588">
        <ele>220.8</ele>
        <time>2022-07-19T04:34:40Z</time>
      </trkpt>
      <trkpt lat="46.46208" lon="5.28547">
        <ele>218.8</ele>
        <time>2022-07-19T04:34:43Z</time>
      </trkpt>
      <trkpt lat="46.46204" lon="5.28519">
        <ele>217.2</ele>
        <time>2022-07-19T04:34:45Z</time>
      </trkpt>
      <trkpt lat="46.462" lon="5.2849">
        <ele>216</ele>
        <time>2022-07-19T04:34:47Z</time>
      </trkpt>
      <trkpt lat="46.46193" lon="5.28445">
        <ele>214.4</ele>
        <time>2022-07-19T04:34:50Z</time>
      </trkpt>
      <trkpt lat="46.46186" lon="5.284">
        <ele>212.8</ele>
        <time>2022-07-19T04:34:53Z</time>
      </trkpt>
      <trkpt lat="46.46183" lon="5.28385">
        <ele>212.4</ele>
        <time>2022-07-19T04:34:54Z</time>
      </trkpt>
      <trkpt lat="46.46181" lon="5.28371">
        <ele>211.8</ele>
        <time>2022-07-19T04:34:55Z</time>
      </trkpt>
      <trkpt lat="46.46172" lon="5.28308">
        <ele>211.2</ele>
        <time>2022-07-19T04:35:00Z</time>
      </trkpt>
      <trkpt lat="46.46168" lon="5.28267">
        <ele>211.8</ele>
        <time>2022-07-19T04:35:04Z</time>
      </trkpt>
      <trkpt lat="46.46168" lon="5.28258">
        <ele>211.8</ele>
        <time>2022-07-19T04:35:05Z</time>
      </trkpt>
      <trkpt lat="46.46172" lon="5.28227">
        <ele>212.8</ele>
        <time>2022-07-19T04:35:08Z</time>
      </trkpt>
      <trkpt lat="46.46173" lon="5.28219">
        <ele>213.4</ele>
        <time>2022-07-19T04:35:10Z</time>
      </trkpt>
      <trkpt lat="46.46175" lon="5.28211">
        <ele>214</ele>
        <time>2022-07-19T04:35:11Z</time>
      </trkpt>
      <trkpt lat="46.46176" lon="5.282">
        <ele>214.2</ele>
        <time>2022-07-19T04:35:12Z</time>
      </trkpt>
      <trkpt lat="46.4618" lon="5.28177">
        <ele>215</ele>
        <time>2022-07-19T04:35:15Z</time>
      </trkpt>
      <trkpt lat="46.4618" lon="5.28168">
        <ele>215.2</ele>
        <time>2022-07-19T04:35:16Z</time>
      </trkpt>
      <trkpt lat="46.46188" lon="5.28116">
        <ele>216</ele>
        <time>2022-07-19T04:35:22Z</time>
      </trkpt>
      <trkpt lat="46.46194" lon="5.28041">
        <ele>215.6</ele>
        <time>2022-07-19T04:35:30Z</time>
      </trkpt>
      <trkpt lat="46.46196" lon="5.28016">
        <ele>215.6</ele>
        <time>2022-07-19T04:35:33Z</time>
      </trkpt>
      <trkpt lat="46.46195" lon="5.28008">
        <ele>215.8</ele>
        <time>2022-07-19T04:35:34Z</time>
      </trkpt>
      <trkpt lat="46.46192" lon="5.28002">
        <ele>215.8</ele>
        <time>2022-07-19T04:35:35Z</time>
      </trkpt>
      <trkpt lat="46.46182" lon="5.27994">
        <ele>216</ele>
        <time>2022-07-19T04:35:37Z</time>
      </trkpt>
      <trkpt lat="46.46149" lon="5.27969">
        <ele>215.8</ele>
        <time>2022-07-19T04:35:42Z</time>
      </trkpt>
      <trkpt lat="46.46134" lon="5.27951">
        <ele>215.2</ele>
        <time>2022-07-19T04:35:44Z</time>
      </trkpt>
      <trkpt lat="46.46129" lon="5.27939">
        <ele>214.4</ele>
        <time>2022-07-19T04:35:45Z</time>
      </trkpt>
      <trkpt lat="46.46126" lon="5.27924">
        <ele>213</ele>
        <time>2022-07-19T04:35:46Z</time>
      </trkpt>
      <trkpt lat="46.46124" lon="5.27891">
        <ele>211.6</ele>
        <time>2022-07-19T04:35:48Z</time>
      </trkpt>
      <trkpt lat="46.46123" lon="5.27858">
        <ele>209.8</ele>
        <time>2022-07-19T04:35:50Z</time>
      </trkpt>
      <trkpt lat="46.46122" lon="5.27825">
        <ele>207.8</ele>
        <time>2022-07-19T04:35:52Z</time>
      </trkpt>
      <trkpt lat="46.46122" lon="5.27793">
        <ele>206</ele>
        <time>2022-07-19T04:35:54Z</time>
      </trkpt>
      <trkpt lat="46.46123" lon="5.2776">
        <ele>204.6</ele>
        <time>2022-07-19T04:35:56Z</time>
      </trkpt>
      <trkpt lat="46.46124" lon="5.27728">
        <ele>203.4</ele>
        <time>2022-07-19T04:35:58Z</time>
      </trkpt>
      <trkpt lat="46.46125" lon="5.2768">
        <ele>202</ele>
        <time>2022-07-19T04:36:01Z</time>
      </trkpt>
      <trkpt lat="46.46126" lon="5.27618">
        <ele>201</ele>
        <time>2022-07-19T04:36:05Z</time>
      </trkpt>
      <trkpt lat="46.46127" lon="5.27589">
        <ele>200.4</ele>
        <time>2022-07-19T04:36:07Z</time>
      </trkpt>
      <trkpt lat="46.46129" lon="5.27508">
        <ele>200</ele>
        <time>2022-07-19T04:36:13Z</time>
      </trkpt>
      <trkpt lat="46.4613" lon="5.27495">
        <ele>200</ele>
        <time>2022-07-19T04:36:14Z</time>
      </trkpt>
      <trkpt lat="46.46133" lon="5.27409">
        <ele>200</ele>
        <time>2022-07-19T04:36:21Z</time>
      </trkpt>
      <trkpt lat="46.46135" lon="5.27329">
        <ele>200.6</ele>
        <time>2022-07-19T04:36:28Z</time>
      </trkpt>
      <trkpt lat="46.46136" lon="5.27307">
        <ele>200.6</ele>
        <time>2022-07-19T04:36:30Z</time>
      </trkpt>
      <trkpt lat="46.46139" lon="5.27219">
        <ele>200.4</ele>
        <time>2022-07-19T04:36:38Z</time>
      </trkpt>
      <trkpt lat="46.46139" lon="5.27208">
        <ele>200.4</ele>
        <time>2022-07-19T04:36:39Z</time>
      </trkpt>
      <trkpt lat="46.46141" lon="5.27128">
        <ele>200.8</ele>
        <time>2022-07-19T04:36:47Z</time>
      </trkpt>
      <trkpt lat="46.46142" lon="5.271">
        <ele>201.2</ele>
        <time>2022-07-19T04:36:50Z</time>
      </trkpt>
      <trkpt lat="46.46143" lon="5.27055">
        <ele>201.8</ele>
        <time>2022-07-19T04:36:55Z</time>
      </trkpt>
      <trkpt lat="46.46144" lon="5.27028">
        <ele>202.2</ele>
        <time>2022-07-19T04:36:58Z</time>
      </trkpt>
      <trkpt lat="46.46145" lon="5.26971">
        <ele>202.6</ele>
        <time>2022-07-19T04:37:04Z</time>
      </trkpt>
      <trkpt lat="46.46148" lon="5.2689">
        <ele>202</ele>
        <time>2022-07-19T04:37:12Z</time>
      </trkpt>
      <trkpt lat="46.46148" lon="5.2688">
        <ele>202</ele>
        <time>2022-07-19T04:37:13Z</time>
      </trkpt>
      <trkpt lat="46.46148" lon="5.2686">
        <ele>202</ele>
        <time>2022-07-19T04:37:15Z</time>
      </trkpt>
      <trkpt lat="46.4615" lon="5.26814">
        <ele>202</ele>
        <time>2022-07-19T04:37:20Z</time>
      </trkpt>
      <trkpt lat="46.46152" lon="5.26747">
        <ele>203.2</ele>
        <time>2022-07-19T04:37:28Z</time>
      </trkpt>
      <trkpt lat="46.46154" lon="5.26691">
        <ele>204.4</ele>
        <time>2022-07-19T04:37:35Z</time>
      </trkpt>
      <trkpt lat="46.46154" lon="5.2667">
        <ele>204.6</ele>
        <time>2022-07-19T04:37:38Z</time>
      </trkpt>
      <trkpt lat="46.46154" lon="5.26664">
        <ele>204.8</ele>
        <time>2022-07-19T04:37:39Z</time>
      </trkpt>
      <trkpt lat="46.46156" lon="5.26646">
        <ele>205.4</ele>
        <time>2022-07-19T04:37:42Z</time>
      </trkpt>
      <trkpt lat="46.46156" lon="5.26641">
        <ele>205.6</ele>
        <time>2022-07-19T04:37:43Z</time>
      </trkpt>
      <trkpt lat="46.46156" lon="5.2663">
        <ele>206.4</ele>
        <time>2022-07-19T04:37:45Z</time>
      </trkpt>
      <trkpt lat="46.46156" lon="5.26625">
        <ele>206.6</ele>
        <time>2022-07-19T04:37:46Z</time>
      </trkpt>
      <trkpt lat="46.46159" lon="5.26608">
        <ele>207.4</ele>
        <time>2022-07-19T04:37:49Z</time>
      </trkpt>
      <trkpt lat="46.46159" lon="5.26602">
        <ele>207.6</ele>
        <time>2022-07-19T04:37:50Z</time>
      </trkpt>
      <trkpt lat="46.4616" lon="5.26579">
        <ele>208.6</ele>
        <time>2022-07-19T04:37:54Z</time>
      </trkpt>
      <trkpt lat="46.46163" lon="5.26551">
        <ele>210</ele>
        <time>2022-07-19T04:37:59Z</time>
      </trkpt>
      <trkpt lat="46.46165" lon="5.26519">
        <ele>211</ele>
        <time>2022-07-19T04:38:05Z</time>
      </trkpt>
      <trkpt lat="46.46165" lon="5.26513">
        <ele>211.6</ele>
        <time>2022-07-19T04:38:06Z</time>
      </trkpt>
      <trkpt lat="46.46167" lon="5.26496">
        <ele>212.2</ele>
        <time>2022-07-19T04:38:09Z</time>
      </trkpt>
      <trkpt lat="46.46169" lon="5.26474">
        <ele>213.2</ele>
        <time>2022-07-19T04:38:13Z</time>
      </trkpt>
      <trkpt lat="46.46171" lon="5.26458">
        <ele>213.6</ele>
        <time>2022-07-19T04:38:16Z</time>
      </trkpt>
      <trkpt lat="46.46173" lon="5.26438">
        <ele>214.4</ele>
        <time>2022-07-19T04:38:20Z</time>
      </trkpt>
      <trkpt lat="46.46175" lon="5.26417">
        <ele>215.4</ele>
        <time>2022-07-19T04:38:24Z</time>
      </trkpt>
      <trkpt lat="46.46176" lon="5.26412">
        <ele>215.6</ele>
        <time>2022-07-19T04:38:25Z</time>
      </trkpt>
      <trkpt lat="46.46178" lon="5.26386">
        <ele>216.6</ele>
        <time>2022-07-19T04:38:30Z</time>
      </trkpt>
      <trkpt lat="46.46181" lon="5.26366">
        <ele>217.6</ele>
        <time>2022-07-19T04:38:34Z</time>
      </trkpt>
      <trkpt lat="46.46182" lon="5.26357">
        <ele>218</ele>
        <time>2022-07-19T04:38:36Z</time>
      </trkpt>
      <trkpt lat="46.46184" lon="5.26332">
        <ele>218.8</ele>
        <time>2022-07-19T04:38:41Z</time>
      </trkpt>
      <trkpt lat="46.46185" lon="5.26312">
        <ele>219.8</ele>
        <time>2022-07-19T04:38:45Z</time>
      </trkpt>
      <trkpt lat="46.46185" lon="5.26307">
        <ele>219.8</ele>
        <time>2022-07-19T04:38:46Z</time>
      </trkpt>
      <trkpt lat="46.46189" lon="5.26277">
        <ele>221.2</ele>
        <time>2022-07-19T04:38:52Z</time>
      </trkpt>
      <trkpt lat="46.46188" lon="5.26254">
        <ele>222</ele>
        <time>2022-07-19T04:38:57Z</time>
      </trkpt>
      <trkpt lat="46.46187" lon="5.2625">
        <ele>222.2</ele>
        <time>2022-07-19T04:38:58Z</time>
      </trkpt>
      <trkpt lat="46.46177" lon="5.26241">
        <ele>222.8</ele>
        <time>2022-07-19T04:39:01Z</time>
      </trkpt>
      <trkpt lat="46.4616" lon="5.26231">
        <ele>223.2</ele>
        <time>2022-07-19T04:39:05Z</time>
      </trkpt>
      <trkpt lat="46.46147" lon="5.26224">
        <ele>223.4</ele>
        <time>2022-07-19T04:39:08Z</time>
      </trkpt>
      <trkpt lat="46.46105" lon="5.26202">
        <ele>223.8</ele>
        <time>2022-07-19T04:39:17Z</time>
      </trkpt>
      <trkpt lat="46.46064" lon="5.26179">
        <ele>224.4</ele>
        <time>2022-07-19T04:39:26Z</time>
      </trkpt>
      <trkpt lat="46.46016" lon="5.26165">
        <ele>225.4</ele>
        <time>2022-07-19T04:39:36Z</time>
      </trkpt>
      <trkpt lat="46.45972" lon="5.26163">
        <ele>226.4</ele>
        <time>2022-07-19T04:39:44Z</time>
      </trkpt>
      <trkpt lat="46.4597" lon="5.26163">
        <ele>226.6</ele>
        <time>2022-07-19T04:39:45Z</time>
      </trkpt>
      <trkpt lat="46.45943" lon="5.26163">
        <ele>227.2</ele>
        <time>2022-07-19T04:39:50Z</time>
      </trkpt>
      <trkpt lat="46.45895" lon="5.26162">
        <ele>227.6</ele>
        <time>2022-07-19T04:39:59Z</time>
      </trkpt>
      <trkpt lat="46.45879" lon="5.26162">
        <ele>227.8</ele>
        <time>2022-07-19T04:40:02Z</time>
      </trkpt>
      <trkpt lat="46.45862" lon="5.26162">
        <ele>227.8</ele>
        <time>2022-07-19T04:40:05Z</time>
      </trkpt>
      <trkpt lat="46.45812" lon="5.26161">
        <ele>227.6</ele>
        <time>2022-07-19T04:40:13Z</time>
      </trkpt>
      <trkpt lat="46.45786" lon="5.26161">
        <ele>227.4</ele>
        <time>2022-07-19T04:40:17Z</time>
      </trkpt>
      <trkpt lat="46.45774" lon="5.26166">
        <ele>227.4</ele>
        <time>2022-07-19T04:40:19Z</time>
      </trkpt>
      <trkpt lat="46.45763" lon="5.26175">
        <ele>227.4</ele>
        <time>2022-07-19T04:40:21Z</time>
      </trkpt>
      <trkpt lat="46.45755" lon="5.2619">
        <ele>227.4</ele>
        <time>2022-07-19T04:40:23Z</time>
      </trkpt>
      <trkpt lat="46.45743" lon="5.26236">
        <ele>227</ele>
        <time>2022-07-19T04:40:28Z</time>
      </trkpt>
      <trkpt lat="46.45726" lon="5.26301">
        <ele>226.6</ele>
        <time>2022-07-19T04:40:35Z</time>
      </trkpt>
      <trkpt lat="46.45724" lon="5.26311">
        <ele>226.4</ele>
        <time>2022-07-19T04:40:36Z</time>
      </trkpt>
      <trkpt lat="46.45708" lon="5.26383">
        <ele>225.8</ele>
        <time>2022-07-19T04:40:43Z</time>
      </trkpt>
      <trkpt lat="46.45696" lon="5.26466">
        <ele>225.6</ele>
        <time>2022-07-19T04:40:51Z</time>
      </trkpt>
      <trkpt lat="46.45693" lon="5.26486">
        <ele>225.4</ele>
        <time>2022-07-19T04:40:53Z</time>
      </trkpt>
      <trkpt lat="46.45691" lon="5.26496">
        <ele>225.4</ele>
        <time>2022-07-19T04:40:54Z</time>
      </trkpt>
      <trkpt lat="46.45687" lon="5.26528">
        <ele>225.2</ele>
        <time>2022-07-19T04:40:57Z</time>
      </trkpt>
      <trkpt lat="46.45679" lon="5.26559">
        <ele>224.8</ele>
        <time>2022-07-19T04:41:00Z</time>
      </trkpt>
      <trkpt lat="46.45675" lon="5.26569">
        <ele>224.6</ele>
        <time>2022-07-19T04:41:01Z</time>
      </trkpt>
      <trkpt lat="46.45666" lon="5.26589">
        <ele>224</ele>
        <time>2022-07-19T04:41:03Z</time>
      </trkpt>
      <trkpt lat="46.45661" lon="5.26599">
        <ele>223.8</ele>
        <time>2022-07-19T04:41:04Z</time>
      </trkpt>
      <trkpt lat="46.45648" lon="5.26618">
        <ele>223.2</ele>
        <time>2022-07-19T04:41:06Z</time>
      </trkpt>
      <trkpt lat="46.45642" lon="5.26624">
        <ele>223</ele>
        <time>2022-07-19T04:41:07Z</time>
      </trkpt>
      <trkpt lat="46.45635" lon="5.2663">
        <ele>222.8</ele>
        <time>2022-07-19T04:41:08Z</time>
      </trkpt>
      <trkpt lat="46.45618" lon="5.26636">
        <ele>221.6</ele>
        <time>2022-07-19T04:41:10Z</time>
      </trkpt>
      <trkpt lat="46.45601" lon="5.26641">
        <ele>221</ele>
        <time>2022-07-19T04:41:12Z</time>
      </trkpt>
      <trkpt lat="46.45578" lon="5.26646">
        <ele>220.6</ele>
        <time>2022-07-19T04:41:15Z</time>
      </trkpt>
      <trkpt lat="46.4557" lon="5.26647">
        <ele>220.6</ele>
        <time>2022-07-19T04:41:16Z</time>
      </trkpt>
      <trkpt lat="46.45555" lon="5.26646">
        <ele>220.6</ele>
        <time>2022-07-19T04:41:18Z</time>
      </trkpt>
      <trkpt lat="46.45528" lon="5.26637">
        <ele>220.8</ele>
        <time>2022-07-19T04:41:22Z</time>
      </trkpt>
      <trkpt lat="46.4549" lon="5.26621">
        <ele>221.6</ele>
        <time>2022-07-19T04:41:28Z</time>
      </trkpt>
      <trkpt lat="46.45484" lon="5.26618">
        <ele>221.8</ele>
        <time>2022-07-19T04:41:29Z</time>
      </trkpt>
      <trkpt lat="46.45454" lon="5.26602">
        <ele>222.6</ele>
        <time>2022-07-19T04:41:34Z</time>
      </trkpt>
      <trkpt lat="46.45429" lon="5.26586">
        <ele>223</ele>
        <time>2022-07-19T04:41:37Z</time>
      </trkpt>
      <trkpt lat="46.45407" lon="5.26573">
        <ele>223.8</ele>
        <time>2022-07-19T04:41:42Z</time>
      </trkpt>
      <trkpt lat="46.45383" lon="5.26562">
        <ele>224.8</ele>
        <time>2022-07-19T04:41:46Z</time>
      </trkpt>
      <trkpt lat="46.45364" lon="5.26556">
        <ele>224.8</ele>
        <time>2022-07-19T04:41:49Z</time>
      </trkpt>
      <trkpt lat="46.45324" lon="5.26547">
        <ele>225.4</ele>
        <time>2022-07-19T04:41:55Z</time>
      </trkpt>
      <trkpt lat="46.4531" lon="5.26546">
        <ele>225.4</ele>
        <time>2022-07-19T04:41:57Z</time>
      </trkpt>
      <trkpt lat="46.45283" lon="5.26548">
        <ele>225.2</ele>
        <time>2022-07-19T04:42:01Z</time>
      </trkpt>
      <trkpt lat="46.45229" lon="5.26558">
        <ele>225</ele>
        <time>2022-07-19T04:42:09Z</time>
      </trkpt>
      <trkpt lat="46.45223" lon="5.26558">
        <ele>225</ele>
        <time>2022-07-19T04:42:10Z</time>
      </trkpt>
      <trkpt lat="46.45182" lon="5.26551">
        <ele>225</ele>
        <time>2022-07-19T04:42:16Z</time>
      </trkpt>
      <trkpt lat="46.45144" lon="5.26537">
        <ele>225</ele>
        <time>2022-07-19T04:42:22Z</time>
      </trkpt>
      <trkpt lat="46.4512" lon="5.26527">
        <ele>225.2</ele>
        <time>2022-07-19T04:42:26Z</time>
      </trkpt>
      <trkpt lat="46.4507" lon="5.26514">
        <ele>225.6</ele>
        <time>2022-07-19T04:42:34Z</time>
      </trkpt>
      <trkpt lat="46.45021" lon="5.26514">
        <ele>225.4</ele>
        <time>2022-07-19T04:42:41Z</time>
      </trkpt>
      <trkpt lat="46.44967" lon="5.26517">
        <ele>224.6</ele>
        <time>2022-07-19T04:42:48Z</time>
      </trkpt>
      <trkpt lat="46.44944" lon="5.26522">
        <ele>223.8</ele>
        <time>2022-07-19T04:42:51Z</time>
      </trkpt>
      <trkpt lat="46.44929" lon="5.2653">
        <ele>223.4</ele>
        <time>2022-07-19T04:42:53Z</time>
      </trkpt>
      <trkpt lat="46.44886" lon="5.26549">
        <ele>223</ele>
        <time>2022-07-19T04:42:59Z</time>
      </trkpt>
      <trkpt lat="46.44868" lon="5.26564">
        <ele>223.2</ele>
        <time>2022-07-19T04:43:02Z</time>
      </trkpt>
      <trkpt lat="46.44858" lon="5.26577">
        <ele>223.4</ele>
        <time>2022-07-19T04:43:04Z</time>
      </trkpt>
      <trkpt lat="46.44846" lon="5.26595">
        <ele>223.6</ele>
        <time>2022-07-19T04:43:07Z</time>
      </trkpt>
      <trkpt lat="46.44843" lon="5.26603">
        <ele>223.8</ele>
        <time>2022-07-19T04:43:08Z</time>
      </trkpt>
      <trkpt lat="46.44836" lon="5.26633">
        <ele>224.8</ele>
        <time>2022-07-19T04:43:12Z</time>
      </trkpt>
      <trkpt lat="46.44835" lon="5.26638">
        <ele>225</ele>
        <time>2022-07-19T04:43:13Z</time>
      </trkpt>
      <trkpt lat="46.44832" lon="5.26645">
        <ele>225.2</ele>
        <time>2022-07-19T04:43:14Z</time>
      </trkpt>
      <trkpt lat="46.44827" lon="5.26651">
        <ele>225.6</ele>
        <time>2022-07-19T04:43:15Z</time>
      </trkpt>
      <trkpt lat="46.44822" lon="5.26655">
        <ele>225.8</ele>
        <time>2022-07-19T04:43:16Z</time>
      </trkpt>
      <trkpt lat="46.44817" lon="5.26658">
        <ele>226</ele>
        <time>2022-07-19T04:43:17Z</time>
      </trkpt>
      <trkpt lat="46.44792" lon="5.26663">
        <ele>226.8</ele>
        <time>2022-07-19T04:43:21Z</time>
      </trkpt>
      <trkpt lat="46.44786" lon="5.26666">
        <ele>226.8</ele>
        <time>2022-07-19T04:43:22Z</time>
      </trkpt>
      <trkpt lat="46.4478" lon="5.26671">
        <ele>226.8</ele>
        <time>2022-07-19T04:43:23Z</time>
      </trkpt>
      <trkpt lat="46.4476" lon="5.26687">
        <ele>226.4</ele>
        <time>2022-07-19T04:43:26Z</time>
      </trkpt>
      <trkpt lat="46.44718" lon="5.26704">
        <ele>225.2</ele>
        <time>2022-07-19T04:43:31Z</time>
      </trkpt>
      <trkpt lat="46.44706" lon="5.26706">
        <ele>225</ele>
        <time>2022-07-19T04:43:32Z</time>
      </trkpt>
      <trkpt lat="46.44688" lon="5.26705">
        <ele>223.8</ele>
        <time>2022-07-19T04:43:34Z</time>
      </trkpt>
      <trkpt lat="46.44679" lon="5.26703">
        <ele>223.2</ele>
        <time>2022-07-19T04:43:35Z</time>
      </trkpt>
      <trkpt lat="46.44668" lon="5.26699">
        <ele>222.4</ele>
        <time>2022-07-19T04:43:36Z</time>
      </trkpt>
      <trkpt lat="46.44644" lon="5.26684">
        <ele>221.4</ele>
        <time>2022-07-19T04:43:39Z</time>
      </trkpt>
      <trkpt lat="46.44635" lon="5.26677">
        <ele>221.2</ele>
        <time>2022-07-19T04:43:40Z</time>
      </trkpt>
      <trkpt lat="46.44601" lon="5.26653">
        <ele>221.2</ele>
        <time>2022-07-19T04:43:45Z</time>
      </trkpt>
      <trkpt lat="46.44579" lon="5.26641">
        <ele>222.4</ele>
        <time>2022-07-19T04:43:49Z</time>
      </trkpt>
      <trkpt lat="46.44561" lon="5.26637">
        <ele>224</ele>
        <time>2022-07-19T04:43:52Z</time>
      </trkpt>
      <trkpt lat="46.44549" lon="5.26638">
        <ele>224.4</ele>
        <time>2022-07-19T04:43:54Z</time>
      </trkpt>
      <trkpt lat="46.44536" lon="5.26643">
        <ele>225.2</ele>
        <time>2022-07-19T04:43:56Z</time>
      </trkpt>
      <trkpt lat="46.44523" lon="5.2665">
        <ele>225.4</ele>
        <time>2022-07-19T04:43:58Z</time>
      </trkpt>
      <trkpt lat="46.44517" lon="5.26656">
        <ele>225.4</ele>
        <time>2022-07-19T04:43:59Z</time>
      </trkpt>
      <trkpt lat="46.44486" lon="5.26695">
        <ele>224.8</ele>
        <time>2022-07-19T04:44:04Z</time>
      </trkpt>
      <trkpt lat="46.44472" lon="5.26708">
        <ele>224.2</ele>
        <time>2022-07-19T04:44:06Z</time>
      </trkpt>
      <trkpt lat="46.44464" lon="5.26714">
        <ele>223.8</ele>
        <time>2022-07-19T04:44:07Z</time>
      </trkpt>
      <trkpt lat="46.44455" lon="5.26718">
        <ele>223</ele>
        <time>2022-07-19T04:44:08Z</time>
      </trkpt>
      <trkpt lat="46.44445" lon="5.26721">
        <ele>222.8</ele>
        <time>2022-07-19T04:44:09Z</time>
      </trkpt>
      <trkpt lat="46.44421" lon="5.26728">
        <ele>221.4</ele>
        <time>2022-07-19T04:44:11Z</time>
      </trkpt>
      <trkpt lat="46.44396" lon="5.26736">
        <ele>220.4</ele>
        <time>2022-07-19T04:44:15Z</time>
      </trkpt>
      <trkpt lat="46.44388" lon="5.26739">
        <ele>219.8</ele>
        <time>2022-07-19T04:44:16Z</time>
      </trkpt>
      <trkpt lat="46.44371" lon="5.26752">
        <ele>218.8</ele>
        <time>2022-07-19T04:44:18Z</time>
      </trkpt>
      <trkpt lat="46.44363" lon="5.26765">
        <ele>218.4</ele>
        <time>2022-07-19T04:44:19Z</time>
      </trkpt>
      <trkpt lat="46.44358" lon="5.26776">
        <ele>217.4</ele>
        <time>2022-07-19T04:44:20Z</time>
      </trkpt>
      <trkpt lat="46.44345" lon="5.26803">
        <ele>216.4</ele>
        <time>2022-07-19T04:44:22Z</time>
      </trkpt>
      <trkpt lat="46.44339" lon="5.2681">
        <ele>215.4</ele>
        <time>2022-07-19T04:44:23Z</time>
      </trkpt>
      <trkpt lat="46.4433" lon="5.26818">
        <ele>215.2</ele>
        <time>2022-07-19T04:44:24Z</time>
      </trkpt>
      <trkpt lat="46.44312" lon="5.26826">
        <ele>214.6</ele>
        <time>2022-07-19T04:44:26Z</time>
      </trkpt>
      <trkpt lat="46.44302" lon="5.26829">
        <ele>214</ele>
        <time>2022-07-19T04:44:27Z</time>
      </trkpt>
      <trkpt lat="46.44256" lon="5.26848">
        <ele>212.6</ele>
        <time>2022-07-19T04:44:32Z</time>
      </trkpt>
      <trkpt lat="46.44219" lon="5.26873">
        <ele>211.4</ele>
        <time>2022-07-19T04:44:36Z</time>
      </trkpt>
      <trkpt lat="46.44201" lon="5.26891">
        <ele>210.4</ele>
        <time>2022-07-19T04:44:38Z</time>
      </trkpt>
      <trkpt lat="46.44193" lon="5.26901">
        <ele>209.6</ele>
        <time>2022-07-19T04:44:39Z</time>
      </trkpt>
      <trkpt lat="46.44185" lon="5.26913">
        <ele>209</ele>
        <time>2022-07-19T04:44:40Z</time>
      </trkpt>
      <trkpt lat="46.44176" lon="5.26923">
        <ele>208.2</ele>
        <time>2022-07-19T04:44:41Z</time>
      </trkpt>
      <trkpt lat="46.44166" lon="5.2693">
        <ele>207.8</ele>
        <time>2022-07-19T04:44:42Z</time>
      </trkpt>
      <trkpt lat="46.44154" lon="5.26934">
        <ele>206.6</ele>
        <time>2022-07-19T04:44:43Z</time>
      </trkpt>
      <trkpt lat="46.44144" lon="5.26932">
        <ele>205.8</ele>
        <time>2022-07-19T04:44:44Z</time>
      </trkpt>
      <trkpt lat="46.44134" lon="5.26927">
        <ele>205.4</ele>
        <time>2022-07-19T04:44:45Z</time>
      </trkpt>
      <trkpt lat="46.44118" lon="5.26912">
        <ele>204.8</ele>
        <time>2022-07-19T04:44:47Z</time>
      </trkpt>
      <trkpt lat="46.44066" lon="5.26863">
        <ele>204.6</ele>
        <time>2022-07-19T04:44:54Z</time>
      </trkpt>
      <trkpt lat="46.44029" lon="5.26829">
        <ele>205.6</ele>
        <time>2022-07-19T04:45:00Z</time>
      </trkpt>
      <trkpt lat="46.44009" lon="5.26809">
        <ele>206.6</ele>
        <time>2022-07-19T04:45:04Z</time>
      </trkpt>
      <trkpt lat="46.43994" lon="5.26796">
        <ele>207.6</ele>
        <time>2022-07-19T04:45:07Z</time>
      </trkpt>
      <trkpt lat="46.43989" lon="5.26792">
        <ele>207.6</ele>
        <time>2022-07-19T04:45:08Z</time>
      </trkpt>
      <trkpt lat="46.43979" lon="5.26786">
        <ele>208</ele>
        <time>2022-07-19T04:45:10Z</time>
      </trkpt>
      <trkpt lat="46.43973" lon="5.26785">
        <ele>208.4</ele>
        <time>2022-07-19T04:45:11Z</time>
      </trkpt>
      <trkpt lat="46.43958" lon="5.26783">
        <ele>208.6</ele>
        <time>2022-07-19T04:45:13Z</time>
      </trkpt>
      <trkpt lat="46.43948" lon="5.26773">
        <ele>208.6</ele>
        <time>2022-07-19T04:45:15Z</time>
      </trkpt>
      <trkpt lat="46.43946" lon="5.26771">
        <ele>208.8</ele>
        <time>2022-07-19T04:45:16Z</time>
      </trkpt>
      <trkpt lat="46.43941" lon="5.26765">
        <ele>208.8</ele>
        <time>2022-07-19T04:45:17Z</time>
      </trkpt>
      <trkpt lat="46.4393" lon="5.2676">
        <ele>209</ele>
        <time>2022-07-19T04:45:19Z</time>
      </trkpt>
      <trkpt lat="46.43918" lon="5.26763">
        <ele>209</ele>
        <time>2022-07-19T04:45:21Z</time>
      </trkpt>
      <trkpt lat="46.43913" lon="5.26768">
        <ele>209</ele>
        <time>2022-07-19T04:45:22Z</time>
      </trkpt>
      <trkpt lat="46.43908" lon="5.26775">
        <ele>209</ele>
        <time>2022-07-19T04:45:23Z</time>
      </trkpt>
      <trkpt lat="46.43896" lon="5.26796">
        <ele>209</ele>
        <time>2022-07-19T04:45:26Z</time>
      </trkpt>
      <trkpt lat="46.43891" lon="5.26802">
        <ele>209</ele>
        <time>2022-07-19T04:45:27Z</time>
      </trkpt>
      <trkpt lat="46.43876" lon="5.26816">
        <ele>209</ele>
        <time>2022-07-19T04:45:30Z</time>
      </trkpt>
      <trkpt lat="46.43868" lon="5.26829">
        <ele>209</ele>
        <time>2022-07-19T04:45:32Z</time>
      </trkpt>
      <trkpt lat="46.43865" lon="5.26853">
        <ele>209.2</ele>
        <time>2022-07-19T04:45:35Z</time>
      </trkpt>
      <trkpt lat="46.43864" lon="5.26879">
        <ele>209.8</ele>
        <time>2022-07-19T04:45:38Z</time>
      </trkpt>
      <trkpt lat="46.43861" lon="5.26905">
        <ele>210.2</ele>
        <time>2022-07-19T04:45:41Z</time>
      </trkpt>
      <trkpt lat="46.43857" lon="5.26922">
        <ele>210.4</ele>
        <time>2022-07-19T04:45:43Z</time>
      </trkpt>
      <trkpt lat="46.43854" lon="5.2693">
        <ele>210.6</ele>
        <time>2022-07-19T04:45:44Z</time>
      </trkpt>
      <trkpt lat="46.43847" lon="5.26947">
        <ele>210.8</ele>
        <time>2022-07-19T04:45:46Z</time>
      </trkpt>
      <trkpt lat="46.43843" lon="5.26953">
        <ele>211</ele>
        <time>2022-07-19T04:45:47Z</time>
      </trkpt>
      <trkpt lat="46.43833" lon="5.26966">
        <ele>211</ele>
        <time>2022-07-19T04:45:49Z</time>
      </trkpt>
      <trkpt lat="46.43821" lon="5.26977">
        <ele>210.8</ele>
        <time>2022-07-19T04:45:51Z</time>
      </trkpt>
      <trkpt lat="46.43807" lon="5.26986">
        <ele>210.2</ele>
        <time>2022-07-19T04:45:53Z</time>
      </trkpt>
      <trkpt lat="46.43792" lon="5.2699">
        <ele>209.8</ele>
        <time>2022-07-19T04:45:55Z</time>
      </trkpt>
      <trkpt lat="46.43776" lon="5.2699">
        <ele>209.6</ele>
        <time>2022-07-19T04:45:57Z</time>
      </trkpt>
      <trkpt lat="46.43761" lon="5.26986">
        <ele>209.4</ele>
        <time>2022-07-19T04:45:59Z</time>
      </trkpt>
      <trkpt lat="46.43728" lon="5.26973">
        <ele>208.8</ele>
        <time>2022-07-19T04:46:04Z</time>
      </trkpt>
      <trkpt lat="46.43709" lon="5.26966">
        <ele>208.8</ele>
        <time>2022-07-19T04:46:07Z</time>
      </trkpt>
      <trkpt lat="46.43656" lon="5.26946">
        <ele>209.6</ele>
        <time>2022-07-19T04:46:16Z</time>
      </trkpt>
      <trkpt lat="46.43612" lon="5.26929">
        <ele>209.8</ele>
        <time>2022-07-19T04:46:23Z</time>
      </trkpt>
      <trkpt lat="46.43588" lon="5.26921">
        <ele>210.2</ele>
        <time>2022-07-19T04:46:27Z</time>
      </trkpt>
      <trkpt lat="46.43534" lon="5.26907">
        <ele>210.6</ele>
        <time>2022-07-19T04:46:36Z</time>
      </trkpt>
      <trkpt lat="46.43491" lon="5.269">
        <ele>210.8</ele>
        <time>2022-07-19T04:46:43Z</time>
      </trkpt>
      <trkpt lat="46.43485" lon="5.26899">
        <ele>210.8</ele>
        <time>2022-07-19T04:46:44Z</time>
      </trkpt>
      <trkpt lat="46.43433" lon="5.2689">
        <ele>211.4</ele>
        <time>2022-07-19T04:46:53Z</time>
      </trkpt>
      <trkpt lat="46.43417" lon="5.26887">
        <ele>212</ele>
        <time>2022-07-19T04:46:56Z</time>
      </trkpt>
      <trkpt lat="46.43397" lon="5.2688">
        <ele>212.6</ele>
        <time>2022-07-19T04:47:00Z</time>
      </trkpt>
      <trkpt lat="46.43381" lon="5.26877">
        <ele>213</ele>
        <time>2022-07-19T04:47:03Z</time>
      </trkpt>
      <trkpt lat="46.43354" lon="5.26874">
        <ele>213.6</ele>
        <time>2022-07-19T04:47:08Z</time>
      </trkpt>
      <trkpt lat="46.43323" lon="5.26872">
        <ele>214.2</ele>
        <time>2022-07-19T04:47:13Z</time>
      </trkpt>
      <trkpt lat="46.43292" lon="5.26871">
        <ele>214.2</ele>
        <time>2022-07-19T04:47:19Z</time>
      </trkpt>
      <trkpt lat="46.43239" lon="5.26872">
        <ele>214.2</ele>
        <time>2022-07-19T04:47:28Z</time>
      </trkpt>
      <trkpt lat="46.43182" lon="5.26864">
        <ele>214.6</ele>
        <time>2022-07-19T04:47:38Z</time>
      </trkpt>
      <trkpt lat="46.43158" lon="5.26858">
        <ele>215.4</ele>
        <time>2022-07-19T04:47:43Z</time>
      </trkpt>
      <trkpt lat="46.43154" lon="5.26856">
        <ele>215.6</ele>
        <time>2022-07-19T04:47:44Z</time>
      </trkpt>
      <trkpt lat="46.43137" lon="5.2685">
        <ele>216.6</ele>
        <time>2022-07-19T04:47:48Z</time>
      </trkpt>
      <trkpt lat="46.43125" lon="5.26847">
        <ele>218</ele>
        <time>2022-07-19T04:47:51Z</time>
      </trkpt>
      <trkpt lat="46.43104" lon="5.26842">
        <ele>219</ele>
        <time>2022-07-19T04:47:56Z</time>
      </trkpt>
      <trkpt lat="46.43091" lon="5.2684">
        <ele>220.2</ele>
        <time>2022-07-19T04:47:59Z</time>
      </trkpt>
      <trkpt lat="46.43087" lon="5.26839">
        <ele>220.6</ele>
        <time>2022-07-19T04:48:00Z</time>
      </trkpt>
      <trkpt lat="46.43071" lon="5.26837">
        <ele>221.2</ele>
        <time>2022-07-19T04:48:04Z</time>
      </trkpt>
      <trkpt lat="46.43055" lon="5.26837">
        <ele>222.2</ele>
        <time>2022-07-19T04:48:08Z</time>
      </trkpt>
      <trkpt lat="46.43051" lon="5.26837">
        <ele>222.6</ele>
        <time>2022-07-19T04:48:09Z</time>
      </trkpt>
      <trkpt lat="46.43032" lon="5.26836">
        <ele>223.6</ele>
        <time>2022-07-19T04:48:13Z</time>
      </trkpt>
      <trkpt lat="46.43028" lon="5.26837">
        <ele>224</ele>
        <time>2022-07-19T04:48:15Z</time>
      </trkpt>
      <trkpt lat="46.43005" lon="5.2684">
        <ele>225</ele>
        <time>2022-07-19T04:48:20Z</time>
      </trkpt>
      <trkpt lat="46.42991" lon="5.26842">
        <ele>225.4</ele>
        <time>2022-07-19T04:48:23Z</time>
      </trkpt>
      <trkpt lat="46.42982" lon="5.26843">
        <ele>226.2</ele>
        <time>2022-07-19T04:48:25Z</time>
      </trkpt>
      <trkpt lat="46.42945" lon="5.26847">
        <ele>226.8</ele>
        <time>2022-07-19T04:48:33Z</time>
      </trkpt>
      <trkpt lat="46.42919" lon="5.2685">
        <ele>227.2</ele>
        <time>2022-07-19T04:48:38Z</time>
      </trkpt>
      <trkpt lat="46.42887" lon="5.26854">
        <ele>227.6</ele>
        <time>2022-07-19T04:48:44Z</time>
      </trkpt>
      <trkpt lat="46.42838" lon="5.26855">
        <ele>227.6</ele>
        <time>2022-07-19T04:48:52Z</time>
      </trkpt>
      <trkpt lat="46.42788" lon="5.26846">
        <ele>226</ele>
        <time>2022-07-19T04:48:59Z</time>
      </trkpt>
      <trkpt lat="46.42772" lon="5.26842">
        <ele>224.8</ele>
        <time>2022-07-19T04:49:01Z</time>
      </trkpt>
      <trkpt lat="46.42747" lon="5.26836">
        <ele>223.4</ele>
        <time>2022-07-19T04:49:04Z</time>
      </trkpt>
      <trkpt lat="46.42738" lon="5.26834">
        <ele>223.2</ele>
        <time>2022-07-19T04:49:05Z</time>
      </trkpt>
      <trkpt lat="46.4272" lon="5.2683">
        <ele>222.4</ele>
        <time>2022-07-19T04:49:07Z</time>
      </trkpt>
      <trkpt lat="46.427" lon="5.26825">
        <ele>220.8</ele>
        <time>2022-07-19T04:49:09Z</time>
      </trkpt>
      <trkpt lat="46.42681" lon="5.2682">
        <ele>219.6</ele>
        <time>2022-07-19T04:49:11Z</time>
      </trkpt>
      <trkpt lat="46.42671" lon="5.26818">
        <ele>219.2</ele>
        <time>2022-07-19T04:49:12Z</time>
      </trkpt>
      <trkpt lat="46.42661" lon="5.26816">
        <ele>218.6</ele>
        <time>2022-07-19T04:49:13Z</time>
      </trkpt>
      <trkpt lat="46.4264" lon="5.26811">
        <ele>217.2</ele>
        <time>2022-07-19T04:49:15Z</time>
      </trkpt>
      <trkpt lat="46.42607" lon="5.26802">
        <ele>215.6</ele>
        <time>2022-07-19T04:49:18Z</time>
      </trkpt>
      <trkpt lat="46.42585" lon="5.26797">
        <ele>213.6</ele>
        <time>2022-07-19T04:49:20Z</time>
      </trkpt>
      <trkpt lat="46.42574" lon="5.26794">
        <ele>212.4</ele>
        <time>2022-07-19T04:49:21Z</time>
      </trkpt>
      <trkpt lat="46.42553" lon="5.26789">
        <ele>211.4</ele>
        <time>2022-07-19T04:49:23Z</time>
      </trkpt>
      <trkpt lat="46.42521" lon="5.26782">
        <ele>210</ele>
        <time>2022-07-19T04:49:26Z</time>
      </trkpt>
      <trkpt lat="46.42502" lon="5.26777">
        <ele>209.2</ele>
        <time>2022-07-19T04:49:28Z</time>
      </trkpt>
      <trkpt lat="46.42484" lon="5.26772">
        <ele>209</ele>
        <time>2022-07-19T04:49:30Z</time>
      </trkpt>
      <trkpt lat="46.42451" lon="5.26764">
        <ele>209</ele>
        <time>2022-07-19T04:49:34Z</time>
      </trkpt>
      <trkpt lat="46.42422" lon="5.26757">
        <ele>210</ele>
        <time>2022-07-19T04:49:38Z</time>
      </trkpt>
      <trkpt lat="46.42403" lon="5.26753">
        <ele>211.6</ele>
        <time>2022-07-19T04:49:41Z</time>
      </trkpt>
      <trkpt lat="46.42358" lon="5.26743">
        <ele>212.4</ele>
        <time>2022-07-19T04:49:48Z</time>
      </trkpt>
      <trkpt lat="46.42346" lon="5.26739">
        <ele>212.8</ele>
        <time>2022-07-19T04:49:50Z</time>
      </trkpt>
      <trkpt lat="46.42304" lon="5.26727">
        <ele>213.4</ele>
        <time>2022-07-19T04:49:57Z</time>
      </trkpt>
      <trkpt lat="46.42286" lon="5.26723">
        <ele>214.2</ele>
        <time>2022-07-19T04:50:00Z</time>
      </trkpt>
      <trkpt lat="46.42264" lon="5.26716">
        <ele>215.2</ele>
        <time>2022-07-19T04:50:04Z</time>
      </trkpt>
      <trkpt lat="46.42248" lon="5.26711">
        <ele>215.8</ele>
        <time>2022-07-19T04:50:07Z</time>
      </trkpt>
      <trkpt lat="46.42227" lon="5.26705">
        <ele>216.4</ele>
        <time>2022-07-19T04:50:11Z</time>
      </trkpt>
      <trkpt lat="46.42194" lon="5.26694">
        <ele>217.2</ele>
        <time>2022-07-19T04:50:17Z</time>
      </trkpt>
      <trkpt lat="46.42182" lon="5.2669">
        <ele>217.6</ele>
        <time>2022-07-19T04:50:19Z</time>
      </trkpt>
      <trkpt lat="46.42138" lon="5.26674">
        <ele>218</ele>
        <time>2022-07-19T04:50:26Z</time>
      </trkpt>
      <trkpt lat="46.42088" lon="5.26655">
        <ele>216.8</ele>
        <time>2022-07-19T04:50:33Z</time>
      </trkpt>
      <trkpt lat="46.42074" lon="5.2665">
        <ele>216.6</ele>
        <time>2022-07-19T04:50:35Z</time>
      </trkpt>
      <trkpt lat="46.42032" lon="5.26633">
        <ele>215.4</ele>
        <time>2022-07-19T04:50:41Z</time>
      </trkpt>
      <trkpt lat="46.42014" lon="5.26626">
        <ele>215.4</ele>
        <time>2022-07-19T04:50:43Z</time>
      </trkpt>
      <trkpt lat="46.41957" lon="5.26604">
        <ele>215.8</ele>
        <time>2022-07-19T04:50:52Z</time>
      </trkpt>
      <trkpt lat="46.41944" lon="5.26599">
        <ele>215.6</ele>
        <time>2022-07-19T04:50:54Z</time>
      </trkpt>
      <trkpt lat="46.4189" lon="5.26578">
        <ele>215.4</ele>
        <time>2022-07-19T04:51:02Z</time>
      </trkpt>
      <trkpt lat="46.41869" lon="5.26569">
        <ele>215</ele>
        <time>2022-07-19T04:51:05Z</time>
      </trkpt>
      <trkpt lat="46.41827" lon="5.26551">
        <ele>214.4</ele>
        <time>2022-07-19T04:51:11Z</time>
      </trkpt>
      <trkpt lat="46.41798" lon="5.26539">
        <ele>214.2</ele>
        <time>2022-07-19T04:51:15Z</time>
      </trkpt>
      <trkpt lat="46.41742" lon="5.26516">
        <ele>214</ele>
        <time>2022-07-19T04:51:23Z</time>
      </trkpt>
      <trkpt lat="46.41689" lon="5.26502">
        <ele>214</ele>
        <time>2022-07-19T04:51:31Z</time>
      </trkpt>
      <trkpt lat="46.4164" lon="5.26504">
        <ele>214.2</ele>
        <time>2022-07-19T04:51:38Z</time>
      </trkpt>
      <trkpt lat="46.41596" lon="5.26518">
        <ele>214</ele>
        <time>2022-07-19T04:51:45Z</time>
      </trkpt>
      <trkpt lat="46.41555" lon="5.26546">
        <ele>214</ele>
        <time>2022-07-19T04:51:51Z</time>
      </trkpt>
      <trkpt lat="46.41509" lon="5.26592">
        <ele>214.2</ele>
        <time>2022-07-19T04:51:59Z</time>
      </trkpt>
      <trkpt lat="46.41466" lon="5.26635">
        <ele>214.6</ele>
        <time>2022-07-19T04:52:07Z</time>
      </trkpt>
      <trkpt lat="46.41433" lon="5.2667">
        <ele>215.6</ele>
        <time>2022-07-19T04:52:14Z</time>
      </trkpt>
      <trkpt lat="46.41429" lon="5.26674">
        <ele>215.8</ele>
        <time>2022-07-19T04:52:15Z</time>
      </trkpt>
      <trkpt lat="46.41408" lon="5.26697">
        <ele>216.6</ele>
        <time>2022-07-19T04:52:20Z</time>
      </trkpt>
      <trkpt lat="46.41403" lon="5.267">
        <ele>216.8</ele>
        <time>2022-07-19T04:52:21Z</time>
      </trkpt>
      <trkpt lat="46.41395" lon="5.26708">
        <ele>217.6</ele>
        <time>2022-07-19T04:52:23Z</time>
      </trkpt>
      <trkpt lat="46.41376" lon="5.26727">
        <ele>218.4</ele>
        <time>2022-07-19T04:52:28Z</time>
      </trkpt>
      <trkpt lat="46.41369" lon="5.26734">
        <ele>219</ele>
        <time>2022-07-19T04:52:30Z</time>
      </trkpt>
      <trkpt lat="46.4135" lon="5.26752">
        <ele>220</ele>
        <time>2022-07-19T04:52:35Z</time>
      </trkpt>
      <trkpt lat="46.41339" lon="5.26762">
        <ele>220.4</ele>
        <time>2022-07-19T04:52:38Z</time>
      </trkpt>
      <trkpt lat="46.41328" lon="5.26773">
        <ele>221.2</ele>
        <time>2022-07-19T04:52:41Z</time>
      </trkpt>
      <trkpt lat="46.41316" lon="5.26785">
        <ele>222.4</ele>
        <time>2022-07-19T04:52:45Z</time>
      </trkpt>
      <trkpt lat="46.41309" lon="5.26792">
        <ele>222.8</ele>
        <time>2022-07-19T04:52:47Z</time>
      </trkpt>
      <trkpt lat="46.41299" lon="5.268">
        <ele>223.4</ele>
        <time>2022-07-19T04:52:50Z</time>
      </trkpt>
      <trkpt lat="46.41285" lon="5.26807">
        <ele>224.4</ele>
        <time>2022-07-19T04:52:54Z</time>
      </trkpt>
      <trkpt lat="46.4127" lon="5.26812">
        <ele>225.6</ele>
        <time>2022-07-19T04:52:58Z</time>
      </trkpt>
      <trkpt lat="46.4126" lon="5.26815">
        <ele>226.4</ele>
        <time>2022-07-19T04:53:01Z</time>
      </trkpt>
      <trkpt lat="46.41256" lon="5.26816">
        <ele>226.8</ele>
        <time>2022-07-19T04:53:02Z</time>
      </trkpt>
      <trkpt lat="46.41242" lon="5.26822">
        <ele>227.8</ele>
        <time>2022-07-19T04:53:06Z</time>
      </trkpt>
      <trkpt lat="46.41236" lon="5.26826">
        <ele>228.4</ele>
        <time>2022-07-19T04:53:08Z</time>
      </trkpt>
      <trkpt lat="46.41229" lon="5.26831">
        <ele>229</ele>
        <time>2022-07-19T04:53:10Z</time>
      </trkpt>
      <trkpt lat="46.41207" lon="5.26849">
        <ele>229.8</ele>
        <time>2022-07-19T04:53:16Z</time>
      </trkpt>
      <trkpt lat="46.41202" lon="5.2685">
        <ele>230</ele>
        <time>2022-07-19T04:53:17Z</time>
      </trkpt>
      <trkpt lat="46.41197" lon="5.26851">
        <ele>230</ele>
        <time>2022-07-19T04:53:18Z</time>
      </trkpt>
      <trkpt lat="46.41187" lon="5.26852">
        <ele>230.2</ele>
        <time>2022-07-19T04:53:20Z</time>
      </trkpt>
      <trkpt lat="46.41182" lon="5.26855">
        <ele>230.2</ele>
        <time>2022-07-19T04:53:21Z</time>
      </trkpt>
      <trkpt lat="46.41178" lon="5.26859">
        <ele>230.2</ele>
        <time>2022-07-19T04:53:22Z</time>
      </trkpt>
      <trkpt lat="46.41167" lon="5.26876">
        <ele>230.2</ele>
        <time>2022-07-19T04:53:25Z</time>
      </trkpt>
      <trkpt lat="46.4116" lon="5.26885">
        <ele>230.2</ele>
        <time>2022-07-19T04:53:27Z</time>
      </trkpt>
      <trkpt lat="46.41151" lon="5.2689">
        <ele>230.2</ele>
        <time>2022-07-19T04:53:29Z</time>
      </trkpt>
      <trkpt lat="46.41132" lon="5.26897">
        <ele>230.6</ele>
        <time>2022-07-19T04:53:33Z</time>
      </trkpt>
      <trkpt lat="46.41121" lon="5.269">
        <ele>230.6</ele>
        <time>2022-07-19T04:53:35Z</time>
      </trkpt>
      <trkpt lat="46.41086" lon="5.26905">
        <ele>230.8</ele>
        <time>2022-07-19T04:53:41Z</time>
      </trkpt>
      <trkpt lat="46.41056" lon="5.26903">
        <ele>230.2</ele>
        <time>2022-07-19T04:53:46Z</time>
      </trkpt>
      <trkpt lat="46.41026" lon="5.26903">
        <ele>229</ele>
        <time>2022-07-19T04:53:50Z</time>
      </trkpt>
      <trkpt lat="46.41004" lon="5.26906">
        <ele>228.6</ele>
        <time>2022-07-19T04:53:53Z</time>
      </trkpt>
      <trkpt lat="46.40943" lon="5.26917">
        <ele>227.8</ele>
        <time>2022-07-19T04:54:01Z</time>
      </trkpt>
      <trkpt lat="46.40906" lon="5.26928">
        <ele>226.8</ele>
        <time>2022-07-19T04:54:06Z</time>
      </trkpt>
      <trkpt lat="46.40877" lon="5.26941">
        <ele>226.4</ele>
        <time>2022-07-19T04:54:10Z</time>
      </trkpt>
      <trkpt lat="46.40835" lon="5.26963">
        <ele>225.8</ele>
        <time>2022-07-19T04:54:16Z</time>
      </trkpt>
      <trkpt lat="46.40814" lon="5.26974">
        <ele>225.4</ele>
        <time>2022-07-19T04:54:19Z</time>
      </trkpt>
      <trkpt lat="46.40807" lon="5.26978">
        <ele>225.2</ele>
        <time>2022-07-19T04:54:20Z</time>
      </trkpt>
      <trkpt lat="46.40784" lon="5.26981">
        <ele>224.8</ele>
        <time>2022-07-19T04:54:23Z</time>
      </trkpt>
      <trkpt lat="46.4074" lon="5.26976">
        <ele>224.8</ele>
        <time>2022-07-19T04:54:29Z</time>
      </trkpt>
      <trkpt lat="46.40708" lon="5.26969">
        <ele>225.2</ele>
        <time>2022-07-19T04:54:34Z</time>
      </trkpt>
      <trkpt lat="46.40661" lon="5.26958">
        <ele>226.6</ele>
        <time>2022-07-19T04:54:42Z</time>
      </trkpt>
      <trkpt lat="46.40651" lon="5.26954">
        <ele>226.8</ele>
        <time>2022-07-19T04:54:43Z</time>
      </trkpt>
      <trkpt lat="46.40617" lon="5.26935">
        <ele>227</ele>
        <time>2022-07-19T04:54:49Z</time>
      </trkpt>
      <trkpt lat="46.40571" lon="5.26911">
        <ele>226.4</ele>
        <time>2022-07-19T04:54:56Z</time>
      </trkpt>
      <trkpt lat="46.40527" lon="5.26893">
        <ele>225.8</ele>
        <time>2022-07-19T04:55:02Z</time>
      </trkpt>
      <trkpt lat="46.40476" lon="5.26884">
        <ele>225.4</ele>
        <time>2022-07-19T04:55:08Z</time>
      </trkpt>
      <trkpt lat="46.40429" lon="5.26879">
        <ele>226</ele>
        <time>2022-07-19T04:55:16Z</time>
      </trkpt>
      <trkpt lat="46.40381" lon="5.26877">
        <ele>226.4</ele>
        <time>2022-07-19T04:55:23Z</time>
      </trkpt>
      <trkpt lat="46.40327" lon="5.26888">
        <ele>226.4</ele>
        <time>2022-07-19T04:55:31Z</time>
      </trkpt>
      <trkpt lat="46.4032" lon="5.26888">
        <ele>226.4</ele>
        <time>2022-07-19T04:55:32Z</time>
      </trkpt>
      <trkpt lat="46.40279" lon="5.26889">
        <ele>226.8</ele>
        <time>2022-07-19T04:55:38Z</time>
      </trkpt>
      <trkpt lat="46.40266" lon="5.2689">
        <ele>226.8</ele>
        <time>2022-07-19T04:55:40Z</time>
      </trkpt>
      <trkpt lat="46.40222" lon="5.26893">
        <ele>227.4</ele>
        <time>2022-07-19T04:55:47Z</time>
      </trkpt>
      <trkpt lat="46.40185" lon="5.26896">
        <ele>227.8</ele>
        <time>2022-07-19T04:55:53Z</time>
      </trkpt>
      <trkpt lat="46.40179" lon="5.26896">
        <ele>228</ele>
        <time>2022-07-19T04:55:54Z</time>
      </trkpt>
      <trkpt lat="46.40127" lon="5.26899">
        <ele>229</ele>
        <time>2022-07-19T04:56:03Z</time>
      </trkpt>
      <trkpt lat="46.40121" lon="5.26899">
        <ele>229.2</ele>
        <time>2022-07-19T04:56:04Z</time>
      </trkpt>
      <trkpt lat="46.40098" lon="5.26898">
        <ele>229.8</ele>
        <time>2022-07-19T04:56:08Z</time>
      </trkpt>
      <trkpt lat="46.40081" lon="5.26894">
        <ele>230</ele>
        <time>2022-07-19T04:56:11Z</time>
      </trkpt>
      <trkpt lat="46.40069" lon="5.2689">
        <ele>230</ele>
        <time>2022-07-19T04:56:13Z</time>
      </trkpt>
      <trkpt lat="46.40036" lon="5.26877">
        <ele>230.4</ele>
        <time>2022-07-19T04:56:19Z</time>
      </trkpt>
      <trkpt lat="46.39995" lon="5.26859">
        <ele>231</ele>
        <time>2022-07-19T04:56:26Z</time>
      </trkpt>
      <trkpt lat="46.39989" lon="5.26856">
        <ele>231</ele>
        <time>2022-07-19T04:56:27Z</time>
      </trkpt>
      <trkpt lat="46.39943" lon="5.26836">
        <ele>230.8</ele>
        <time>2022-07-19T04:56:34Z</time>
      </trkpt>
      <trkpt lat="46.39921" lon="5.26826">
        <ele>229.8</ele>
        <time>2022-07-19T04:56:37Z</time>
      </trkpt>
      <trkpt lat="46.39898" lon="5.26815">
        <ele>229</ele>
        <time>2022-07-19T04:56:40Z</time>
      </trkpt>
      <trkpt lat="46.39889" lon="5.26811">
        <ele>228.6</ele>
        <time>2022-07-19T04:56:41Z</time>
      </trkpt>
      <trkpt lat="46.39867" lon="5.26808">
        <ele>227.8</ele>
        <time>2022-07-19T04:56:43Z</time>
      </trkpt>
      <trkpt lat="46.39858" lon="5.26808">
        <ele>227.6</ele>
        <time>2022-07-19T04:56:44Z</time>
      </trkpt>
      <trkpt lat="46.39849" lon="5.26809">
        <ele>227.2</ele>
        <time>2022-07-19T04:56:45Z</time>
      </trkpt>
      <trkpt lat="46.39818" lon="5.26811">
        <ele>226</ele>
        <time>2022-07-19T04:56:49Z</time>
      </trkpt>
      <trkpt lat="46.39793" lon="5.26815">
        <ele>225.2</ele>
        <time>2022-07-19T04:56:52Z</time>
      </trkpt>
      <trkpt lat="46.39742" lon="5.26833">
        <ele>225.6</ele>
        <time>2022-07-19T04:56:59Z</time>
      </trkpt>
      <trkpt lat="46.39699" lon="5.2684">
        <ele>226.6</ele>
        <time>2022-07-19T04:57:05Z</time>
      </trkpt>
      <trkpt lat="46.39676" lon="5.26839">
        <ele>227.2</ele>
        <time>2022-07-19T04:57:09Z</time>
      </trkpt>
      <trkpt lat="46.39659" lon="5.26837">
        <ele>228.4</ele>
        <time>2022-07-19T04:57:13Z</time>
      </trkpt>
      <trkpt lat="46.39647" lon="5.26835">
        <ele>228.6</ele>
        <time>2022-07-19T04:57:14Z</time>
      </trkpt>
      <trkpt lat="46.39636" lon="5.2683">
        <ele>228.8</ele>
        <time>2022-07-19T04:57:16Z</time>
      </trkpt>
      <trkpt lat="46.39631" lon="5.26829">
        <ele>229.2</ele>
        <time>2022-07-19T04:57:18Z</time>
      </trkpt>
      <trkpt lat="46.39619" lon="5.26827">
        <ele>229.4</ele>
        <time>2022-07-19T04:57:19Z</time>
      </trkpt>
      <trkpt lat="46.39608" lon="5.26829">
        <ele>229.8</ele>
        <time>2022-07-19T04:57:21Z</time>
      </trkpt>
      <trkpt lat="46.39603" lon="5.26832">
        <ele>229.8</ele>
        <time>2022-07-19T04:57:22Z</time>
      </trkpt>
      <trkpt lat="46.39593" lon="5.26841">
        <ele>230.2</ele>
        <time>2022-07-19T04:57:24Z</time>
      </trkpt>
      <trkpt lat="46.3959" lon="5.26847">
        <ele>230.4</ele>
        <time>2022-07-19T04:57:25Z</time>
      </trkpt>
      <trkpt lat="46.39587" lon="5.26854">
        <ele>230.4</ele>
        <time>2022-07-19T04:57:26Z</time>
      </trkpt>
      <trkpt lat="46.39581" lon="5.26873">
        <ele>230.8</ele>
        <time>2022-07-19T04:57:29Z</time>
      </trkpt>
      <trkpt lat="46.39561" lon="5.26897">
        <ele>231.4</ele>
        <time>2022-07-19T04:57:34Z</time>
      </trkpt>
      <trkpt lat="46.39556" lon="5.26901">
        <ele>231.6</ele>
        <time>2022-07-19T04:57:35Z</time>
      </trkpt>
      <trkpt lat="46.3954" lon="5.26912">
        <ele>232.4</ele>
        <time>2022-07-19T04:57:38Z</time>
      </trkpt>
      <trkpt lat="46.39523" lon="5.26919">
        <ele>232.4</ele>
        <time>2022-07-19T04:57:41Z</time>
      </trkpt>
      <trkpt lat="46.39505" lon="5.2693">
        <ele>232.4</ele>
        <time>2022-07-19T04:57:44Z</time>
      </trkpt>
      <trkpt lat="46.39494" lon="5.26942">
        <ele>232.4</ele>
        <time>2022-07-19T04:57:46Z</time>
      </trkpt>
      <trkpt lat="46.3947" lon="5.26991">
        <ele>232</ele>
        <time>2022-07-19T04:57:52Z</time>
      </trkpt>
      <trkpt lat="46.3945" lon="5.27049">
        <ele>230.6</ele>
        <time>2022-07-19T04:57:58Z</time>
      </trkpt>
      <trkpt lat="46.39447" lon="5.2706">
        <ele>230.4</ele>
        <time>2022-07-19T04:57:59Z</time>
      </trkpt>
      <trkpt lat="46.39444" lon="5.27071">
        <ele>230</ele>
        <time>2022-07-19T04:58:00Z</time>
      </trkpt>
      <trkpt lat="46.39437" lon="5.2709">
        <ele>229.8</ele>
        <time>2022-07-19T04:58:02Z</time>
      </trkpt>
      <trkpt lat="46.39432" lon="5.27099">
        <ele>229.6</ele>
        <time>2022-07-19T04:58:03Z</time>
      </trkpt>
      <trkpt lat="46.39427" lon="5.27106">
        <ele>229.6</ele>
        <time>2022-07-19T04:58:04Z</time>
      </trkpt>
      <trkpt lat="46.39421" lon="5.27112">
        <ele>229.6</ele>
        <time>2022-07-19T04:58:05Z</time>
      </trkpt>
      <trkpt lat="46.39414" lon="5.27117">
        <ele>229.6</ele>
        <time>2022-07-19T04:58:06Z</time>
      </trkpt>
      <trkpt lat="46.39362" lon="5.27154">
        <ele>230</ele>
        <time>2022-07-19T04:58:14Z</time>
      </trkpt>
      <trkpt lat="46.39356" lon="5.27159">
        <ele>230</ele>
        <time>2022-07-19T04:58:15Z</time>
      </trkpt>
      <trkpt lat="46.39324" lon="5.27176">
        <ele>230</ele>
        <time>2022-07-19T04:58:20Z</time>
      </trkpt>
      <trkpt lat="46.39281" lon="5.27198">
        <ele>230.6</ele>
        <time>2022-07-19T04:58:27Z</time>
      </trkpt>
      <trkpt lat="46.39242" lon="5.27223">
        <ele>231.4</ele>
        <time>2022-07-19T04:58:34Z</time>
      </trkpt>
      <trkpt lat="46.39237" lon="5.27228">
        <ele>231.6</ele>
        <time>2022-07-19T04:58:35Z</time>
      </trkpt>
      <trkpt lat="46.39232" lon="5.27235">
        <ele>231.6</ele>
        <time>2022-07-19T04:58:36Z</time>
      </trkpt>
      <trkpt lat="46.39223" lon="5.27248">
        <ele>232</ele>
        <time>2022-07-19T04:58:38Z</time>
      </trkpt>
      <trkpt lat="46.39216" lon="5.27262">
        <ele>232.2</ele>
        <time>2022-07-19T04:58:40Z</time>
      </trkpt>
      <trkpt lat="46.39205" lon="5.27301">
        <ele>232.6</ele>
        <time>2022-07-19T04:58:45Z</time>
      </trkpt>
      <trkpt lat="46.39199" lon="5.27324">
        <ele>232.8</ele>
        <time>2022-07-19T04:58:48Z</time>
      </trkpt>
      <trkpt lat="46.39189" lon="5.27362">
        <ele>233</ele>
        <time>2022-07-19T04:58:53Z</time>
      </trkpt>
      <trkpt lat="46.39186" lon="5.27369">
        <ele>233</ele>
        <time>2022-07-19T04:58:55Z</time>
      </trkpt>
      <trkpt lat="46.39178" lon="5.27384">
        <ele>233.2</ele>
        <time>2022-07-19T04:58:56Z</time>
      </trkpt>
      <trkpt lat="46.3917" lon="5.27397">
        <ele>233.2</ele>
        <time>2022-07-19T04:58:58Z</time>
      </trkpt>
      <trkpt lat="46.39165" lon="5.27403">
        <ele>233.2</ele>
        <time>2022-07-19T04:58:59Z</time>
      </trkpt>
      <trkpt lat="46.39125" lon="5.27435">
        <ele>233.2</ele>
        <time>2022-07-19T04:59:06Z</time>
      </trkpt>
      <trkpt lat="46.39073" lon="5.27471">
        <ele>233</ele>
        <time>2022-07-19T04:59:15Z</time>
      </trkpt>
      <trkpt lat="46.39033" lon="5.275">
        <ele>232.8</ele>
        <time>2022-07-19T04:59:22Z</time>
      </trkpt>
      <trkpt lat="46.38999" lon="5.27528">
        <ele>233.4</ele>
        <time>2022-07-19T04:59:29Z</time>
      </trkpt>
      <trkpt lat="46.38999" lon="5.27528">
        <ele>233.6</ele>
        <time>2022-07-19T04:59:30Z</time>
      </trkpt>
      <trkpt lat="46.38977" lon="5.27544">
        <ele>234.4</ele>
        <time>2022-07-19T04:59:34Z</time>
      </trkpt>
      <trkpt lat="46.38971" lon="5.27548">
        <ele>234.6</ele>
        <time>2022-07-19T04:59:35Z</time>
      </trkpt>
      <trkpt lat="46.3895" lon="5.27554">
        <ele>234.8</ele>
        <time>2022-07-19T04:59:38Z</time>
      </trkpt>
      <trkpt lat="46.38935" lon="5.27559">
        <ele>234.8</ele>
        <time>2022-07-19T04:59:40Z</time>
      </trkpt>
      <trkpt lat="46.38913" lon="5.27567">
        <ele>235.2</ele>
        <time>2022-07-19T04:59:43Z</time>
      </trkpt>
      <trkpt lat="46.38907" lon="5.27568">
        <ele>235</ele>
        <time>2022-07-19T04:59:44Z</time>
      </trkpt>
      <trkpt lat="46.389" lon="5.27566">
        <ele>235</ele>
        <time>2022-07-19T04:59:45Z</time>
      </trkpt>
      <trkpt lat="46.38888" lon="5.27559">
        <ele>235</ele>
        <time>2022-07-19T04:59:47Z</time>
      </trkpt>
      <trkpt lat="46.38841" lon="5.2753">
        <ele>234.8</ele>
        <time>2022-07-19T04:59:55Z</time>
      </trkpt>
      <trkpt lat="46.38806" lon="5.27512">
        <ele>235</ele>
        <time>2022-07-19T05:00:01Z</time>
      </trkpt>
      <trkpt lat="46.38788" lon="5.27502">
        <ele>235</ele>
        <time>2022-07-19T05:00:04Z</time>
      </trkpt>
      <trkpt lat="46.38764" lon="5.27491">
        <ele>235.2</ele>
        <time>2022-07-19T05:00:08Z</time>
      </trkpt>
      <trkpt lat="46.38721" lon="5.27462">
        <ele>235.6</ele>
        <time>2022-07-19T05:00:16Z</time>
      </trkpt>
      <trkpt lat="46.38716" lon="5.27458">
        <ele>235.6</ele>
        <time>2022-07-19T05:00:17Z</time>
      </trkpt>
      <trkpt lat="46.38679" lon="5.27429">
        <ele>235.8</ele>
        <time>2022-07-19T05:00:24Z</time>
      </trkpt>
      <trkpt lat="46.38648" lon="5.27405">
        <ele>236.2</ele>
        <time>2022-07-19T05:00:30Z</time>
      </trkpt>
      <trkpt lat="46.38636" lon="5.27404">
        <ele>236.2</ele>
        <time>2022-07-19T05:00:32Z</time>
      </trkpt>
      <trkpt lat="46.38626" lon="5.27413">
        <ele>236.4</ele>
        <time>2022-07-19T05:00:34Z</time>
      </trkpt>
      <trkpt lat="46.38604" lon="5.27449">
        <ele>236.4</ele>
        <time>2022-07-19T05:00:39Z</time>
      </trkpt>
      <trkpt lat="46.38598" lon="5.27457">
        <ele>236.4</ele>
        <time>2022-07-19T05:00:40Z</time>
      </trkpt>
      <trkpt lat="46.38585" lon="5.27471">
        <ele>235.8</ele>
        <time>2022-07-19T05:00:42Z</time>
      </trkpt>
      <trkpt lat="46.3857" lon="5.27483">
        <ele>235.2</ele>
        <time>2022-07-19T05:00:44Z</time>
      </trkpt>
      <trkpt lat="46.38543" lon="5.275">
        <ele>233.8</ele>
        <time>2022-07-19T05:00:47Z</time>
      </trkpt>
      <trkpt lat="46.38524" lon="5.27512">
        <ele>232.6</ele>
        <time>2022-07-19T05:00:49Z</time>
      </trkpt>
      <trkpt lat="46.38504" lon="5.27527">
        <ele>231.2</ele>
        <time>2022-07-19T05:00:51Z</time>
      </trkpt>
      <trkpt lat="46.38484" lon="5.27547">
        <ele>229.6</ele>
        <time>2022-07-19T05:00:53Z</time>
      </trkpt>
      <trkpt lat="46.38475" lon="5.27558">
        <ele>228.2</ele>
        <time>2022-07-19T05:00:54Z</time>
      </trkpt>
      <trkpt lat="46.38456" lon="5.2758">
        <ele>226.4</ele>
        <time>2022-07-19T05:00:56Z</time>
      </trkpt>
      <trkpt lat="46.38438" lon="5.27603">
        <ele>225</ele>
        <time>2022-07-19T05:00:58Z</time>
      </trkpt>
      <trkpt lat="46.38421" lon="5.27624">
        <ele>222.6</ele>
        <time>2022-07-19T05:01:00Z</time>
      </trkpt>
      <trkpt lat="46.38412" lon="5.27635">
        <ele>221.4</ele>
        <time>2022-07-19T05:01:01Z</time>
      </trkpt>
      <trkpt lat="46.38384" lon="5.27663">
        <ele>220.4</ele>
        <time>2022-07-19T05:01:04Z</time>
      </trkpt>
      <trkpt lat="46.38374" lon="5.2767">
        <ele>220</ele>
        <time>2022-07-19T05:01:05Z</time>
      </trkpt>
      <trkpt lat="46.38364" lon="5.27677">
        <ele>219.4</ele>
        <time>2022-07-19T05:01:06Z</time>
      </trkpt>
      <trkpt lat="46.38344" lon="5.27691">
        <ele>218.4</ele>
        <time>2022-07-19T05:01:08Z</time>
      </trkpt>
      <trkpt lat="46.38325" lon="5.27705">
        <ele>216.8</ele>
        <time>2022-07-19T05:01:10Z</time>
      </trkpt>
      <trkpt lat="46.3831" lon="5.27715">
        <ele>216.2</ele>
        <time>2022-07-19T05:01:12Z</time>
      </trkpt>
      <trkpt lat="46.38297" lon="5.27721">
        <ele>216.2</ele>
        <time>2022-07-19T05:01:13Z</time>
      </trkpt>
      <trkpt lat="46.38288" lon="5.27725">
        <ele>215.8</ele>
        <time>2022-07-19T05:01:14Z</time>
      </trkpt>
      <trkpt lat="46.38278" lon="5.27727">
        <ele>215.6</ele>
        <time>2022-07-19T05:01:15Z</time>
      </trkpt>
      <trkpt lat="46.38232" lon="5.27743">
        <ele>214.6</ele>
        <time>2022-07-19T05:01:20Z</time>
      </trkpt>
      <trkpt lat="46.38224" lon="5.27748">
        <ele>214.4</ele>
        <time>2022-07-19T05:01:21Z</time>
      </trkpt>
      <trkpt lat="46.38185" lon="5.2778">
        <ele>214</ele>
        <time>2022-07-19T05:01:26Z</time>
      </trkpt>
      <trkpt lat="46.38179" lon="5.2779">
        <ele>214</ele>
        <time>2022-07-19T05:01:27Z</time>
      </trkpt>
      <trkpt lat="46.38174" lon="5.278">
        <ele>214</ele>
        <time>2022-07-19T05:01:28Z</time>
      </trkpt>
      <trkpt lat="46.3817" lon="5.27823">
        <ele>213.8</ele>
        <time>2022-07-19T05:01:30Z</time>
      </trkpt>
      <trkpt lat="46.38169" lon="5.27835">
        <ele>213.6</ele>
        <time>2022-07-19T05:01:31Z</time>
      </trkpt>
      <trkpt lat="46.38162" lon="5.27916">
        <ele>213</ele>
        <time>2022-07-19T05:01:38Z</time>
      </trkpt>
      <trkpt lat="46.38152" lon="5.27978">
        <ele>213.8</ele>
        <time>2022-07-19T05:01:44Z</time>
      </trkpt>
      <trkpt lat="46.38146" lon="5.27994">
        <ele>214</ele>
        <time>2022-07-19T05:01:46Z</time>
      </trkpt>
      <trkpt lat="46.38137" lon="5.28008">
        <ele>214.4</ele>
        <time>2022-07-19T05:01:48Z</time>
      </trkpt>
      <trkpt lat="46.38133" lon="5.28015">
        <ele>214.6</ele>
        <time>2022-07-19T05:01:49Z</time>
      </trkpt>
      <trkpt lat="46.38119" lon="5.28036">
        <ele>214.8</ele>
        <time>2022-07-19T05:01:52Z</time>
      </trkpt>
      <trkpt lat="46.38109" lon="5.28049">
        <ele>215</ele>
        <time>2022-07-19T05:01:54Z</time>
      </trkpt>
      <trkpt lat="46.38104" lon="5.28055">
        <ele>215</ele>
        <time>2022-07-19T05:01:55Z</time>
      </trkpt>
      <trkpt lat="46.38088" lon="5.28083">
        <ele>215.4</ele>
        <time>2022-07-19T05:01:59Z</time>
      </trkpt>
      <trkpt lat="46.38071" lon="5.28109">
        <ele>215.8</ele>
        <time>2022-07-19T05:02:03Z</time>
      </trkpt>
      <trkpt lat="46.38055" lon="5.28134">
        <ele>216.2</ele>
        <time>2022-07-19T05:02:07Z</time>
      </trkpt>
      <trkpt lat="46.38043" lon="5.2815">
        <ele>216.8</ele>
        <time>2022-07-19T05:02:10Z</time>
      </trkpt>
      <trkpt lat="46.38034" lon="5.28162">
        <ele>217.2</ele>
        <time>2022-07-19T05:02:13Z</time>
      </trkpt>
      <trkpt lat="46.38022" lon="5.28176">
        <ele>218</ele>
        <time>2022-07-19T05:02:16Z</time>
      </trkpt>
      <trkpt lat="46.38015" lon="5.28182">
        <ele>218.6</ele>
        <time>2022-07-19T05:02:18Z</time>
      </trkpt>
      <trkpt lat="46.38004" lon="5.28189">
        <ele>219.6</ele>
        <time>2022-07-19T05:02:21Z</time>
      </trkpt>
      <trkpt lat="46.37993" lon="5.28196">
        <ele>221</ele>
        <time>2022-07-19T05:02:24Z</time>
      </trkpt>
      <trkpt lat="46.37989" lon="5.282">
        <ele>221.2</ele>
        <time>2022-07-19T05:02:25Z</time>
      </trkpt>
      <trkpt lat="46.37982" lon="5.28207">
        <ele>221.6</ele>
        <time>2022-07-19T05:02:27Z</time>
      </trkpt>
      <trkpt lat="46.37979" lon="5.2821">
        <ele>222</ele>
        <time>2022-07-19T05:02:28Z</time>
      </trkpt>
      <trkpt lat="46.37971" lon="5.28222">
        <ele>223</ele>
        <time>2022-07-19T05:02:31Z</time>
      </trkpt>
      <trkpt lat="46.37966" lon="5.28228">
        <ele>223.6</ele>
        <time>2022-07-19T05:02:33Z</time>
      </trkpt>
      <trkpt lat="46.37962" lon="5.28234">
        <ele>224.2</ele>
        <time>2022-07-19T05:02:35Z</time>
      </trkpt>
      <trkpt lat="46.37956" lon="5.28243">
        <ele>225.4</ele>
        <time>2022-07-19T05:02:38Z</time>
      </trkpt>
      <trkpt lat="46.37952" lon="5.28249">
        <ele>225.8</ele>
        <time>2022-07-19T05:02:40Z</time>
      </trkpt>
      <trkpt lat="46.37948" lon="5.28256">
        <ele>226.6</ele>
        <time>2022-07-19T05:02:42Z</time>
      </trkpt>
      <trkpt lat="46.37942" lon="5.28267">
        <ele>227.6</ele>
        <time>2022-07-19T05:02:45Z</time>
      </trkpt>
      <trkpt lat="46.37939" lon="5.28275">
        <ele>228</ele>
        <time>2022-07-19T05:02:47Z</time>
      </trkpt>
      <trkpt lat="46.37931" lon="5.28293">
        <ele>228.8</ele>
        <time>2022-07-19T05:02:51Z</time>
      </trkpt>
      <trkpt lat="46.37926" lon="5.28302">
        <ele>229.2</ele>
        <time>2022-07-19T05:02:53Z</time>
      </trkpt>
      <trkpt lat="46.37919" lon="5.28317">
        <ele>229.8</ele>
        <time>2022-07-19T05:02:56Z</time>
      </trkpt>
      <trkpt lat="46.37909" lon="5.28336">
        <ele>229.8</ele>
        <time>2022-07-19T05:02:59Z</time>
      </trkpt>
      <trkpt lat="46.37886" lon="5.28375">
        <ele>229</ele>
        <time>2022-07-19T05:03:04Z</time>
      </trkpt>
      <trkpt lat="46.37881" lon="5.28385">
        <ele>228.6</ele>
        <time>2022-07-19T05:03:05Z</time>
      </trkpt>
      <trkpt lat="46.37867" lon="5.28421">
        <ele>227.2</ele>
        <time>2022-07-19T05:03:08Z</time>
      </trkpt>
      <trkpt lat="46.37863" lon="5.28435">
        <ele>226.6</ele>
        <time>2022-07-19T05:03:09Z</time>
      </trkpt>
      <trkpt lat="46.37858" lon="5.28449">
        <ele>225.2</ele>
        <time>2022-07-19T05:03:10Z</time>
      </trkpt>
      <trkpt lat="46.37849" lon="5.28483">
        <ele>223.2</ele>
        <time>2022-07-19T05:03:12Z</time>
      </trkpt>
      <trkpt lat="46.37845" lon="5.28505">
        <ele>221.4</ele>
        <time>2022-07-19T05:03:14Z</time>
      </trkpt>
      <trkpt lat="46.37842" lon="5.28521">
        <ele>220.2</ele>
        <time>2022-07-19T05:03:15Z</time>
      </trkpt>
      <trkpt lat="46.37837" lon="5.2856">
        <ele>218.4</ele>
        <time>2022-07-19T05:03:17Z</time>
      </trkpt>
      <trkpt lat="46.37835" lon="5.28575">
        <ele>217.4</ele>
        <time>2022-07-19T05:03:18Z</time>
      </trkpt>
      <trkpt lat="46.37832" lon="5.2859">
        <ele>216.4</ele>
        <time>2022-07-19T05:03:19Z</time>
      </trkpt>
      <trkpt lat="46.37828" lon="5.28604">
        <ele>216</ele>
        <time>2022-07-19T05:03:20Z</time>
      </trkpt>
      <trkpt lat="46.37819" lon="5.28628">
        <ele>215.2</ele>
        <time>2022-07-19T05:03:22Z</time>
      </trkpt>
      <trkpt lat="46.37794" lon="5.28691">
        <ele>215</ele>
        <time>2022-07-19T05:03:28Z</time>
      </trkpt>
      <trkpt lat="46.37779" lon="5.28746">
        <ele>216</ele>
        <time>2022-07-19T05:03:34Z</time>
      </trkpt>
      <trkpt lat="46.37777" lon="5.28753">
        <ele>216.2</ele>
        <time>2022-07-19T05:03:35Z</time>
      </trkpt>
      <trkpt lat="46.37772" lon="5.28772">
        <ele>217.8</ele>
        <time>2022-07-19T05:03:38Z</time>
      </trkpt>
      <trkpt lat="46.3777" lon="5.28778">
        <ele>218.4</ele>
        <time>2022-07-19T05:03:39Z</time>
      </trkpt>
      <trkpt lat="46.3777" lon="5.28778">
        <ele>219.2</ele>
        <time>2022-07-19T05:03:40Z</time>
      </trkpt>
      <trkpt lat="46.37764" lon="5.28797">
        <ele>220.8</ele>
        <time>2022-07-19T05:03:43Z</time>
      </trkpt>
      <trkpt lat="46.37757" lon="5.28822">
        <ele>221.8</ele>
        <time>2022-07-19T05:03:46Z</time>
      </trkpt>
      <trkpt lat="46.37751" lon="5.28841">
        <ele>223</ele>
        <time>2022-07-19T05:03:49Z</time>
      </trkpt>
      <trkpt lat="46.37749" lon="5.28846">
        <ele>223.4</ele>
        <time>2022-07-19T05:03:50Z</time>
      </trkpt>
      <trkpt lat="46.37732" lon="5.28879">
        <ele>224</ele>
        <time>2022-07-19T05:03:56Z</time>
      </trkpt>
      <trkpt lat="46.37726" lon="5.28888">
        <ele>224.6</ele>
        <time>2022-07-19T05:03:58Z</time>
      </trkpt>
      <trkpt lat="46.37716" lon="5.28899">
        <ele>225.2</ele>
        <time>2022-07-19T05:04:01Z</time>
      </trkpt>
      <trkpt lat="46.37713" lon="5.28902">
        <ele>225.2</ele>
        <time>2022-07-19T05:04:02Z</time>
      </trkpt>
      <trkpt lat="46.37706" lon="5.28907">
        <ele>225.8</ele>
        <time>2022-07-19T05:04:04Z</time>
      </trkpt>
      <trkpt lat="46.37699" lon="5.28911">
        <ele>226.4</ele>
        <time>2022-07-19T05:04:06Z</time>
      </trkpt>
      <trkpt lat="46.37693" lon="5.28915">
        <ele>227.4</ele>
        <time>2022-07-19T05:04:08Z</time>
      </trkpt>
      <trkpt lat="46.37687" lon="5.28918">
        <ele>228.2</ele>
        <time>2022-07-19T05:04:10Z</time>
      </trkpt>
      <trkpt lat="46.37684" lon="5.28919">
        <ele>229.2</ele>
        <time>2022-07-19T05:04:12Z</time>
      </trkpt>
      <trkpt lat="46.3767" lon="5.28926">
        <ele>230.2</ele>
        <time>2022-07-19T05:04:16Z</time>
      </trkpt>
      <trkpt lat="46.37664" lon="5.28931">
        <ele>230.4</ele>
        <time>2022-07-19T05:04:17Z</time>
      </trkpt>
      <trkpt lat="46.37647" lon="5.28946">
        <ele>231.4</ele>
        <time>2022-07-19T05:04:22Z</time>
      </trkpt>
      <trkpt lat="46.37643" lon="5.2895">
        <ele>231.6</ele>
        <time>2022-07-19T05:04:23Z</time>
      </trkpt>
      <trkpt lat="46.3764" lon="5.28954">
        <ele>232</ele>
        <time>2022-07-19T05:04:24Z</time>
      </trkpt>
      <trkpt lat="46.37627" lon="5.28969">
        <ele>232.4</ele>
        <time>2022-07-19T05:04:27Z</time>
      </trkpt>
      <trkpt lat="46.37592" lon="5.29011">
        <ele>231.6</ele>
        <time>2022-07-19T05:04:34Z</time>
      </trkpt>
      <trkpt lat="46.37554" lon="5.29054">
        <ele>230.6</ele>
        <time>2022-07-19T05:04:41Z</time>
      </trkpt>
      <trkpt lat="46.37542" lon="5.29066">
        <ele>230.2</ele>
        <time>2022-07-19T05:04:43Z</time>
      </trkpt>
      <trkpt lat="46.37513" lon="5.291">
        <ele>229.6</ele>
        <time>2022-07-19T05:04:48Z</time>
      </trkpt>
      <trkpt lat="46.37502" lon="5.29115">
        <ele>229.2</ele>
        <time>2022-07-19T05:04:50Z</time>
      </trkpt>
      <trkpt lat="46.37485" lon="5.29147">
        <ele>229</ele>
        <time>2022-07-19T05:04:54Z</time>
      </trkpt>
      <trkpt lat="46.37476" lon="5.29181">
        <ele>229.2</ele>
        <time>2022-07-19T05:04:58Z</time>
      </trkpt>
      <trkpt lat="46.37466" lon="5.29226">
        <ele>230.2</ele>
        <time>2022-07-19T05:05:04Z</time>
      </trkpt>
      <trkpt lat="46.37463" lon="5.29239">
        <ele>230.4</ele>
        <time>2022-07-19T05:05:06Z</time>
      </trkpt>
      <trkpt lat="46.37463" lon="5.29245">
        <ele>230.6</ele>
        <time>2022-07-19T05:05:07Z</time>
      </trkpt>
      <trkpt lat="46.37462" lon="5.29251">
        <ele>231.2</ele>
        <time>2022-07-19T05:05:08Z</time>
      </trkpt>
      <trkpt lat="46.3746" lon="5.29257">
        <ele>231.6</ele>
        <time>2022-07-19T05:05:09Z</time>
      </trkpt>
      <trkpt lat="46.3746" lon="5.29257">
        <ele>232.4</ele>
        <time>2022-07-19T05:05:10Z</time>
      </trkpt>
      <trkpt lat="46.37457" lon="5.29267">
        <ele>232.8</ele>
        <time>2022-07-19T05:05:12Z</time>
      </trkpt>
      <trkpt lat="46.37449" lon="5.29275">
        <ele>233.2</ele>
        <time>2022-07-19T05:05:14Z</time>
      </trkpt>
      <trkpt lat="46.37445" lon="5.29275">
        <ele>233.6</ele>
        <time>2022-07-19T05:05:15Z</time>
      </trkpt>
      <trkpt lat="46.3744" lon="5.29271">
        <ele>234.4</ele>
        <time>2022-07-19T05:05:17Z</time>
      </trkpt>
      <trkpt lat="46.37427" lon="5.29251">
        <ele>235.2</ele>
        <time>2022-07-19T05:05:22Z</time>
      </trkpt>
      <trkpt lat="46.37416" lon="5.2923">
        <ele>235.2</ele>
        <time>2022-07-19T05:05:26Z</time>
      </trkpt>
      <trkpt lat="46.37411" lon="5.29216">
        <ele>235.4</ele>
        <time>2022-07-19T05:05:28Z</time>
      </trkpt>
      <trkpt lat="46.37397" lon="5.29172">
        <ele>235.4</ele>
        <time>2022-07-19T05:05:34Z</time>
      </trkpt>
      <trkpt lat="46.37389" lon="5.2916">
        <ele>235.4</ele>
        <time>2022-07-19T05:05:36Z</time>
      </trkpt>
      <trkpt lat="46.37373" lon="5.29137">
        <ele>235.6</ele>
        <time>2022-07-19T05:05:40Z</time>
      </trkpt>
      <trkpt lat="46.37363" lon="5.29119">
        <ele>235.4</ele>
        <time>2022-07-19T05:05:43Z</time>
      </trkpt>
      <trkpt lat="46.37357" lon="5.29099">
        <ele>236</ele>
        <time>2022-07-19T05:05:46Z</time>
      </trkpt>
      <trkpt lat="46.37351" lon="5.29074">
        <ele>236.4</ele>
        <time>2022-07-19T05:05:49Z</time>
      </trkpt>
      <trkpt lat="46.37345" lon="5.29061">
        <ele>236.6</ele>
        <time>2022-07-19T05:05:51Z</time>
      </trkpt>
      <trkpt lat="46.37337" lon="5.2905">
        <ele>236.6</ele>
        <time>2022-07-19T05:05:53Z</time>
      </trkpt>
      <trkpt lat="46.37327" lon="5.29043">
        <ele>236.6</ele>
        <time>2022-07-19T05:05:55Z</time>
      </trkpt>
      <trkpt lat="46.37312" lon="5.29035">
        <ele>236.6</ele>
        <time>2022-07-19T05:05:58Z</time>
      </trkpt>
      <trkpt lat="46.37291" lon="5.29028">
        <ele>237</ele>
        <time>2022-07-19T05:06:02Z</time>
      </trkpt>
      <trkpt lat="46.37286" lon="5.29028">
        <ele>237.2</ele>
        <time>2022-07-19T05:06:03Z</time>
      </trkpt>
      <trkpt lat="46.37275" lon="5.29029">
        <ele>237.6</ele>
        <time>2022-07-19T05:06:05Z</time>
      </trkpt>
      <trkpt lat="46.37264" lon="5.29033">
        <ele>237.8</ele>
        <time>2022-07-19T05:06:07Z</time>
      </trkpt>
      <trkpt lat="46.37241" lon="5.29055">
        <ele>238.4</ele>
        <time>2022-07-19T05:06:12Z</time>
      </trkpt>
      <trkpt lat="46.37232" lon="5.2906">
        <ele>238.6</ele>
        <time>2022-07-19T05:06:14Z</time>
      </trkpt>
      <trkpt lat="46.37227" lon="5.29061">
        <ele>238.6</ele>
        <time>2022-07-19T05:06:15Z</time>
      </trkpt>
      <trkpt lat="46.37213" lon="5.29063">
        <ele>238.6</ele>
        <time>2022-07-19T05:06:17Z</time>
      </trkpt>
      <trkpt lat="46.37174" lon="5.29062">
        <ele>239.6</ele>
        <time>2022-07-19T05:06:25Z</time>
      </trkpt>
      <trkpt lat="46.37165" lon="5.29055">
        <ele>239.6</ele>
        <time>2022-07-19T05:06:27Z</time>
      </trkpt>
      <trkpt lat="46.37162" lon="5.29049">
        <ele>239.8</ele>
        <time>2022-07-19T05:06:28Z</time>
      </trkpt>
      <trkpt lat="46.3716" lon="5.29041">
        <ele>239.6</ele>
        <time>2022-07-19T05:06:29Z</time>
      </trkpt>
      <trkpt lat="46.37157" lon="5.29027">
        <ele>239.6</ele>
        <time>2022-07-19T05:06:31Z</time>
      </trkpt>
      <trkpt lat="46.37151" lon="5.29016">
        <ele>239.8</ele>
        <time>2022-07-19T05:06:33Z</time>
      </trkpt>
      <trkpt lat="46.37141" lon="5.29009">
        <ele>239.6</ele>
        <time>2022-07-19T05:06:35Z</time>
      </trkpt>
      <trkpt lat="46.37131" lon="5.29007">
        <ele>239.6</ele>
        <time>2022-07-19T05:06:37Z</time>
      </trkpt>
      <trkpt lat="46.37102" lon="5.29009">
        <ele>239.8</ele>
        <time>2022-07-19T05:06:42Z</time>
      </trkpt>
      <trkpt lat="46.37097" lon="5.2901">
        <ele>239.8</ele>
        <time>2022-07-19T05:06:43Z</time>
      </trkpt>
      <trkpt lat="46.37047" lon="5.29017">
        <ele>239</ele>
        <time>2022-07-19T05:06:51Z</time>
      </trkpt>
      <trkpt lat="46.37036" lon="5.29024">
        <ele>239.2</ele>
        <time>2022-07-19T05:06:54Z</time>
      </trkpt>
      <trkpt lat="46.37032" lon="5.29039">
        <ele>239.4</ele>
        <time>2022-07-19T05:06:57Z</time>
      </trkpt>
      <trkpt lat="46.37032" lon="5.29046">
        <ele>239.4</ele>
        <time>2022-07-19T05:06:58Z</time>
      </trkpt>
      <trkpt lat="46.37032" lon="5.29053">
        <ele>239.6</ele>
        <time>2022-07-19T05:06:59Z</time>
      </trkpt>
      <trkpt lat="46.37037" lon="5.29077">
        <ele>239.4</ele>
        <time>2022-07-19T05:07:02Z</time>
      </trkpt>
      <trkpt lat="46.37047" lon="5.29127">
        <ele>239.2</ele>
        <time>2022-07-19T05:07:08Z</time>
      </trkpt>
      <trkpt lat="46.37049" lon="5.29144">
        <ele>239</ele>
        <time>2022-07-19T05:07:10Z</time>
      </trkpt>
      <trkpt lat="46.37044" lon="5.29159">
        <ele>238.8</ele>
        <time>2022-07-19T05:07:12Z</time>
      </trkpt>
      <trkpt lat="46.37033" lon="5.29163">
        <ele>238.8</ele>
        <time>2022-07-19T05:07:14Z</time>
      </trkpt>
      <trkpt lat="46.37027" lon="5.29163">
        <ele>238.8</ele>
        <time>2022-07-19T05:07:15Z</time>
      </trkpt>
      <trkpt lat="46.3697" lon="5.29164">
        <ele>238.6</ele>
        <time>2022-07-19T05:07:24Z</time>
      </trkpt>
      <trkpt lat="46.36962" lon="5.29163">
        <ele>238.6</ele>
        <time>2022-07-19T05:07:25Z</time>
      </trkpt>
      <trkpt lat="46.36942" lon="5.29154">
        <ele>238.4</ele>
        <time>2022-07-19T05:07:28Z</time>
      </trkpt>
      <trkpt lat="46.36929" lon="5.29144">
        <ele>238.2</ele>
        <time>2022-07-19T05:07:30Z</time>
      </trkpt>
      <trkpt lat="46.36898" lon="5.29104">
        <ele>237.8</ele>
        <time>2022-07-19T05:07:36Z</time>
      </trkpt>
      <trkpt lat="46.36892" lon="5.29099">
        <ele>237.8</ele>
        <time>2022-07-19T05:07:37Z</time>
      </trkpt>
      <trkpt lat="46.36867" lon="5.2908">
        <ele>238</ele>
        <time>2022-07-19T05:07:41Z</time>
      </trkpt>
      <trkpt lat="46.36861" lon="5.29076">
        <ele>237.8</ele>
        <time>2022-07-19T05:07:42Z</time>
      </trkpt>
      <trkpt lat="46.36842" lon="5.2907">
        <ele>237.6</ele>
        <time>2022-07-19T05:07:45Z</time>
      </trkpt>
      <trkpt lat="46.36836" lon="5.29069">
        <ele>237.4</ele>
        <time>2022-07-19T05:07:46Z</time>
      </trkpt>
      <trkpt lat="46.36829" lon="5.29069">
        <ele>237.4</ele>
        <time>2022-07-19T05:07:47Z</time>
      </trkpt>
      <trkpt lat="46.36803" lon="5.29069">
        <ele>237</ele>
        <time>2022-07-19T05:07:51Z</time>
      </trkpt>
      <trkpt lat="46.36792" lon="5.29072">
        <ele>236.8</ele>
        <time>2022-07-19T05:07:53Z</time>
      </trkpt>
      <trkpt lat="46.36779" lon="5.29077">
        <ele>236.8</ele>
        <time>2022-07-19T05:07:57Z</time>
      </trkpt>
      <trkpt lat="46.36767" lon="5.29071">
        <ele>236.6</ele>
        <time>2022-07-19T05:08:01Z</time>
      </trkpt>
      <trkpt lat="46.36753" lon="5.29052">
        <ele>236.6</ele>
        <time>2022-07-19T05:08:05Z</time>
      </trkpt>
      <trkpt lat="46.36736" lon="5.2903">
        <ele>236.4</ele>
        <time>2022-07-19T05:08:09Z</time>
      </trkpt>
      <trkpt lat="46.3673" lon="5.29025">
        <ele>236.4</ele>
        <time>2022-07-19T05:08:10Z</time>
      </trkpt>
      <trkpt lat="46.36724" lon="5.29021">
        <ele>236.4</ele>
        <time>2022-07-19T05:08:11Z</time>
      </trkpt>
      <trkpt lat="46.36711" lon="5.29017">
        <ele>236.4</ele>
        <time>2022-07-19T05:08:13Z</time>
      </trkpt>
      <trkpt lat="46.36703" lon="5.29017">
        <ele>236.2</ele>
        <time>2022-07-19T05:08:14Z</time>
      </trkpt>
      <trkpt lat="46.36658" lon="5.29021">
        <ele>235.2</ele>
        <time>2022-07-19T05:08:20Z</time>
      </trkpt>
      <trkpt lat="46.366" lon="5.29029">
        <ele>234.6</ele>
        <time>2022-07-19T05:08:28Z</time>
      </trkpt>
      <trkpt lat="46.36578" lon="5.29033">
        <ele>234.8</ele>
        <time>2022-07-19T05:08:31Z</time>
      </trkpt>
      <trkpt lat="46.36533" lon="5.29038">
        <ele>235</ele>
        <time>2022-07-19T05:08:37Z</time>
      </trkpt>
      <trkpt lat="46.36478" lon="5.29043">
        <ele>234.6</ele>
        <time>2022-07-19T05:08:45Z</time>
      </trkpt>
      <trkpt lat="46.36468" lon="5.29043">
        <ele>234.8</ele>
        <time>2022-07-19T05:08:46Z</time>
      </trkpt>
      <trkpt lat="46.36412" lon="5.29048">
        <ele>235</ele>
        <time>2022-07-19T05:08:54Z</time>
      </trkpt>
      <trkpt lat="46.36405" lon="5.29048">
        <ele>235.2</ele>
        <time>2022-07-19T05:08:55Z</time>
      </trkpt>
      <trkpt lat="46.36349" lon="5.29057">
        <ele>234.8</ele>
        <time>2022-07-19T05:09:03Z</time>
      </trkpt>
      <trkpt lat="46.36343" lon="5.29059">
        <ele>235.2</ele>
        <time>2022-07-19T05:09:04Z</time>
      </trkpt>
      <trkpt lat="46.36286" lon="5.2907">
        <ele>236</ele>
        <time>2022-07-19T05:09:13Z</time>
      </trkpt>
      <trkpt lat="46.36275" lon="5.29072">
        <ele>236.2</ele>
        <time>2022-07-19T05:09:15Z</time>
      </trkpt>
      <trkpt lat="46.36263" lon="5.29075">
        <ele>236.6</ele>
        <time>2022-07-19T05:09:17Z</time>
      </trkpt>
      <trkpt lat="46.36252" lon="5.29082">
        <ele>237</ele>
        <time>2022-07-19T05:09:19Z</time>
      </trkpt>
      <trkpt lat="46.36244" lon="5.29095">
        <ele>237</ele>
        <time>2022-07-19T05:09:21Z</time>
      </trkpt>
      <trkpt lat="46.36241" lon="5.29102">
        <ele>237.2</ele>
        <time>2022-07-19T05:09:22Z</time>
      </trkpt>
      <trkpt lat="46.36233" lon="5.29115">
        <ele>237.4</ele>
        <time>2022-07-19T05:09:24Z</time>
      </trkpt>
      <trkpt lat="46.36224" lon="5.29122">
        <ele>237.2</ele>
        <time>2022-07-19T05:09:26Z</time>
      </trkpt>
      <trkpt lat="46.36219" lon="5.29124">
        <ele>237.4</ele>
        <time>2022-07-19T05:09:27Z</time>
      </trkpt>
      <trkpt lat="46.36214" lon="5.29126">
        <ele>237.6</ele>
        <time>2022-07-19T05:09:28Z</time>
      </trkpt>
      <trkpt lat="46.36205" lon="5.29135">
        <ele>237.6</ele>
        <time>2022-07-19T05:09:30Z</time>
      </trkpt>
      <trkpt lat="46.362" lon="5.2915">
        <ele>237.8</ele>
        <time>2022-07-19T05:09:32Z</time>
      </trkpt>
      <trkpt lat="46.362" lon="5.29158">
        <ele>238</ele>
        <time>2022-07-19T05:09:33Z</time>
      </trkpt>
      <trkpt lat="46.36202" lon="5.29176">
        <ele>238</ele>
        <time>2022-07-19T05:09:35Z</time>
      </trkpt>
      <trkpt lat="46.36211" lon="5.29206">
        <ele>238.2</ele>
        <time>2022-07-19T05:09:38Z</time>
      </trkpt>
      <trkpt lat="46.36228" lon="5.29263">
        <ele>236.6</ele>
        <time>2022-07-19T05:09:43Z</time>
      </trkpt>
      <trkpt lat="46.36231" lon="5.29277">
        <ele>235.6</ele>
        <time>2022-07-19T05:09:44Z</time>
      </trkpt>
      <trkpt lat="46.36236" lon="5.29312">
        <ele>234</ele>
        <time>2022-07-19T05:09:46Z</time>
      </trkpt>
      <trkpt lat="46.36238" lon="5.2934">
        <ele>232.4</ele>
        <time>2022-07-19T05:09:48Z</time>
      </trkpt>
      <trkpt lat="46.36241" lon="5.29365">
        <ele>231</ele>
        <time>2022-07-19T05:09:50Z</time>
      </trkpt>
      <trkpt lat="46.36246" lon="5.294">
        <ele>230.4</ele>
        <time>2022-07-19T05:09:53Z</time>
      </trkpt>
      <trkpt lat="46.3625" lon="5.29452">
        <ele>231</ele>
        <time>2022-07-19T05:09:58Z</time>
      </trkpt>
      <trkpt lat="46.36249" lon="5.2946">
        <ele>231</ele>
        <time>2022-07-19T05:09:59Z</time>
      </trkpt>
      <trkpt lat="46.36246" lon="5.29466">
        <ele>231.4</ele>
        <time>2022-07-19T05:10:00Z</time>
      </trkpt>
      <trkpt lat="46.36242" lon="5.29469">
        <ele>231.4</ele>
        <time>2022-07-19T05:10:01Z</time>
      </trkpt>
      <trkpt lat="46.36237" lon="5.29472">
        <ele>231.8</ele>
        <time>2022-07-19T05:10:02Z</time>
      </trkpt>
      <trkpt lat="46.36232" lon="5.29474">
        <ele>232.2</ele>
        <time>2022-07-19T05:10:03Z</time>
      </trkpt>
      <trkpt lat="46.36222" lon="5.29479">
        <ele>233.2</ele>
        <time>2022-07-19T05:10:05Z</time>
      </trkpt>
      <trkpt lat="46.36218" lon="5.29482">
        <ele>233.6</ele>
        <time>2022-07-19T05:10:06Z</time>
      </trkpt>
      <trkpt lat="46.36213" lon="5.29486">
        <ele>234.6</ele>
        <time>2022-07-19T05:10:07Z</time>
      </trkpt>
      <trkpt lat="46.36209" lon="5.29491">
        <ele>234.8</ele>
        <time>2022-07-19T05:10:08Z</time>
      </trkpt>
      <trkpt lat="46.36196" lon="5.29503">
        <ele>236</ele>
        <time>2022-07-19T05:10:12Z</time>
      </trkpt>
      <trkpt lat="46.36188" lon="5.29511">
        <ele>236.2</ele>
        <time>2022-07-19T05:10:13Z</time>
      </trkpt>
      <trkpt lat="46.36169" lon="5.29524">
        <ele>237.2</ele>
        <time>2022-07-19T05:10:17Z</time>
      </trkpt>
      <trkpt lat="46.36163" lon="5.29527">
        <ele>237.2</ele>
        <time>2022-07-19T05:10:18Z</time>
      </trkpt>
      <trkpt lat="46.36135" lon="5.29532">
        <ele>237.4</ele>
        <time>2022-07-19T05:10:22Z</time>
      </trkpt>
      <trkpt lat="46.36087" lon="5.29537">
        <ele>236.6</ele>
        <time>2022-07-19T05:10:28Z</time>
      </trkpt>
      <trkpt lat="46.36071" lon="5.29539">
        <ele>236</ele>
        <time>2022-07-19T05:10:30Z</time>
      </trkpt>
      <trkpt lat="46.36024" lon="5.29544">
        <ele>235.2</ele>
        <time>2022-07-19T05:10:36Z</time>
      </trkpt>
      <trkpt lat="46.35967" lon="5.2955">
        <ele>235</ele>
        <time>2022-07-19T05:10:44Z</time>
      </trkpt>
      <trkpt lat="46.3595" lon="5.29552">
        <ele>235</ele>
        <time>2022-07-19T05:10:46Z</time>
      </trkpt>
      <trkpt lat="46.35896" lon="5.29552">
        <ele>235.6</ele>
        <time>2022-07-19T05:10:54Z</time>
      </trkpt>
      <trkpt lat="46.35861" lon="5.29546">
        <ele>236.4</ele>
        <time>2022-07-19T05:11:00Z</time>
      </trkpt>
      <trkpt lat="46.3585" lon="5.29543">
        <ele>236.6</ele>
        <time>2022-07-19T05:11:02Z</time>
      </trkpt>
      <trkpt lat="46.3584" lon="5.29543">
        <ele>237</ele>
        <time>2022-07-19T05:11:04Z</time>
      </trkpt>
      <trkpt lat="46.35834" lon="5.29543">
        <ele>237.6</ele>
        <time>2022-07-19T05:11:05Z</time>
      </trkpt>
      <trkpt lat="46.35816" lon="5.29541">
        <ele>238.4</ele>
        <time>2022-07-19T05:11:08Z</time>
      </trkpt>
      <trkpt lat="46.35792" lon="5.29541">
        <ele>239.2</ele>
        <time>2022-07-19T05:11:12Z</time>
      </trkpt>
      <trkpt lat="46.35772" lon="5.29541">
        <ele>239.6</ele>
        <time>2022-07-19T05:11:15Z</time>
      </trkpt>
      <trkpt lat="46.35767" lon="5.29541">
        <ele>239.6</ele>
        <time>2022-07-19T05:11:16Z</time>
      </trkpt>
      <trkpt lat="46.35756" lon="5.29541">
        <ele>239.8</ele>
        <time>2022-07-19T05:11:18Z</time>
      </trkpt>
      <trkpt lat="46.35724" lon="5.29541">
        <ele>240.4</ele>
        <time>2022-07-19T05:11:23Z</time>
      </trkpt>
      <trkpt lat="46.35719" lon="5.29542">
        <ele>240.6</ele>
        <time>2022-07-19T05:11:24Z</time>
      </trkpt>
      <trkpt lat="46.35708" lon="5.29546">
        <ele>240.8</ele>
        <time>2022-07-19T05:11:26Z</time>
      </trkpt>
      <trkpt lat="46.35697" lon="5.29551">
        <ele>240.8</ele>
        <time>2022-07-19T05:11:28Z</time>
      </trkpt>
      <trkpt lat="46.35674" lon="5.29572">
        <ele>241.6</ele>
        <time>2022-07-19T05:11:33Z</time>
      </trkpt>
      <trkpt lat="46.35641" lon="5.29601">
        <ele>242</ele>
        <time>2022-07-19T05:11:41Z</time>
      </trkpt>
      <trkpt lat="46.356" lon="5.29624">
        <ele>241.8</ele>
        <time>2022-07-19T05:11:48Z</time>
      </trkpt>
      <trkpt lat="46.35567" lon="5.29639">
        <ele>242</ele>
        <time>2022-07-19T05:11:54Z</time>
      </trkpt>
      <trkpt lat="46.35561" lon="5.29641">
        <ele>242</ele>
        <time>2022-07-19T05:11:55Z</time>
      </trkpt>
      <trkpt lat="46.35524" lon="5.29648">
        <ele>241.8</ele>
        <time>2022-07-19T05:12:01Z</time>
      </trkpt>
      <trkpt lat="46.35504" lon="5.29653">
        <ele>241.6</ele>
        <time>2022-07-19T05:12:04Z</time>
      </trkpt>
      <trkpt lat="46.35492" lon="5.29663">
        <ele>241.6</ele>
        <time>2022-07-19T05:12:06Z</time>
      </trkpt>
      <trkpt lat="46.35479" lon="5.29685">
        <ele>241</ele>
        <time>2022-07-19T05:12:09Z</time>
      </trkpt>
      <trkpt lat="46.35474" lon="5.29692">
        <ele>241</ele>
        <time>2022-07-19T05:12:10Z</time>
      </trkpt>
      <trkpt lat="46.35468" lon="5.29696">
        <ele>241</ele>
        <time>2022-07-19T05:12:11Z</time>
      </trkpt>
      <trkpt lat="46.35456" lon="5.29696">
        <ele>240.8</ele>
        <time>2022-07-19T05:12:13Z</time>
      </trkpt>
      <trkpt lat="46.35412" lon="5.29683">
        <ele>241.6</ele>
        <time>2022-07-19T05:12:20Z</time>
      </trkpt>
      <trkpt lat="46.35359" lon="5.29664">
        <ele>242.2</ele>
        <time>2022-07-19T05:12:28Z</time>
      </trkpt>
      <trkpt lat="46.35346" lon="5.2966">
        <ele>242.2</ele>
        <time>2022-07-19T05:12:30Z</time>
      </trkpt>
      <trkpt lat="46.35287" lon="5.29645">
        <ele>242.2</ele>
        <time>2022-07-19T05:12:39Z</time>
      </trkpt>
      <trkpt lat="46.3528" lon="5.29644">
        <ele>242.2</ele>
        <time>2022-07-19T05:12:40Z</time>
      </trkpt>
      <trkpt lat="46.35225" lon="5.29645">
        <ele>241.8</ele>
        <time>2022-07-19T05:12:48Z</time>
      </trkpt>
      <trkpt lat="46.35218" lon="5.29646">
        <ele>241.8</ele>
        <time>2022-07-19T05:12:49Z</time>
      </trkpt>
      <trkpt lat="46.35168" lon="5.29654">
        <ele>241.4</ele>
        <time>2022-07-19T05:12:56Z</time>
      </trkpt>
      <trkpt lat="46.35117" lon="5.2966">
        <ele>240.4</ele>
        <time>2022-07-19T05:13:02Z</time>
      </trkpt>
      <trkpt lat="46.35108" lon="5.29661">
        <ele>240</ele>
        <time>2022-07-19T05:13:03Z</time>
      </trkpt>
      <trkpt lat="46.35091" lon="5.29661">
        <ele>239.4</ele>
        <time>2022-07-19T05:13:05Z</time>
      </trkpt>
      <trkpt lat="46.35067" lon="5.29657">
        <ele>238.6</ele>
        <time>2022-07-19T05:13:08Z</time>
      </trkpt>
      <trkpt lat="46.35059" lon="5.29654">
        <ele>238.6</ele>
        <time>2022-07-19T05:13:09Z</time>
      </trkpt>
      <trkpt lat="46.35039" lon="5.29642">
        <ele>238.4</ele>
        <time>2022-07-19T05:13:12Z</time>
      </trkpt>
      <trkpt lat="46.35007" lon="5.29633">
        <ele>239.2</ele>
        <time>2022-07-19T05:13:17Z</time>
      </trkpt>
      <trkpt lat="46.34982" lon="5.29632">
        <ele>239.8</ele>
        <time>2022-07-19T05:13:21Z</time>
      </trkpt>
      <trkpt lat="46.34969" lon="5.29635">
        <ele>240.2</ele>
        <time>2022-07-19T05:13:23Z</time>
      </trkpt>
      <trkpt lat="46.34963" lon="5.29639">
        <ele>240.6</ele>
        <time>2022-07-19T05:13:24Z</time>
      </trkpt>
      <trkpt lat="46.34957" lon="5.29643">
        <ele>240.8</ele>
        <time>2022-07-19T05:13:25Z</time>
      </trkpt>
      <trkpt lat="46.34939" lon="5.2966">
        <ele>241.2</ele>
        <time>2022-07-19T05:13:28Z</time>
      </trkpt>
      <trkpt lat="46.34925" lon="5.29666">
        <ele>241.2</ele>
        <time>2022-07-19T05:13:30Z</time>
      </trkpt>
      <trkpt lat="46.34918" lon="5.29664">
        <ele>241.2</ele>
        <time>2022-07-19T05:13:31Z</time>
      </trkpt>
      <trkpt lat="46.34905" lon="5.29657">
        <ele>241</ele>
        <time>2022-07-19T05:13:33Z</time>
      </trkpt>
      <trkpt lat="46.34887" lon="5.29643">
        <ele>241</ele>
        <time>2022-07-19T05:13:36Z</time>
      </trkpt>
      <trkpt lat="46.34862" lon="5.29628">
        <ele>241.2</ele>
        <time>2022-07-19T05:13:41Z</time>
      </trkpt>
      <trkpt lat="46.34855" lon="5.29625">
        <ele>241.2</ele>
        <time>2022-07-19T05:13:42Z</time>
      </trkpt>
      <trkpt lat="46.34845" lon="5.29621">
        <ele>241.4</ele>
        <time>2022-07-19T05:13:43Z</time>
      </trkpt>
      <trkpt lat="46.34816" lon="5.29613">
        <ele>241.4</ele>
        <time>2022-07-19T05:13:47Z</time>
      </trkpt>
      <trkpt lat="46.34771" lon="5.29616">
        <ele>241.2</ele>
        <time>2022-07-19T05:13:54Z</time>
      </trkpt>
      <trkpt lat="46.3475" lon="5.29621">
        <ele>241</ele>
        <time>2022-07-19T05:13:57Z</time>
      </trkpt>
      <trkpt lat="46.34736" lon="5.29629">
        <ele>240.8</ele>
        <time>2022-07-19T05:13:59Z</time>
      </trkpt>
      <trkpt lat="46.34715" lon="5.29642">
        <ele>240.2</ele>
        <time>2022-07-19T05:14:02Z</time>
      </trkpt>
      <trkpt lat="46.34707" lon="5.29643">
        <ele>240</ele>
        <time>2022-07-19T05:14:03Z</time>
      </trkpt>
      <trkpt lat="46.34699" lon="5.29643">
        <ele>239.8</ele>
        <time>2022-07-19T05:14:04Z</time>
      </trkpt>
      <trkpt lat="46.34684" lon="5.2964">
        <ele>239.6</ele>
        <time>2022-07-19T05:14:06Z</time>
      </trkpt>
      <trkpt lat="46.34677" lon="5.29638">
        <ele>239.4</ele>
        <time>2022-07-19T05:14:07Z</time>
      </trkpt>
      <trkpt lat="46.34632" lon="5.2963">
        <ele>238.6</ele>
        <time>2022-07-19T05:14:13Z</time>
      </trkpt>
      <trkpt lat="46.34578" lon="5.29621">
        <ele>238.6</ele>
        <time>2022-07-19T05:14:20Z</time>
      </trkpt>
      <trkpt lat="46.3457" lon="5.2962">
        <ele>238.6</ele>
        <time>2022-07-19T05:14:21Z</time>
      </trkpt>
      <trkpt lat="46.34534" lon="5.29613">
        <ele>238</ele>
        <time>2022-07-19T05:14:26Z</time>
      </trkpt>
      <trkpt lat="46.34519" lon="5.29609">
        <ele>238</ele>
        <time>2022-07-19T05:14:28Z</time>
      </trkpt>
      <trkpt lat="46.34471" lon="5.29597">
        <ele>238.2</ele>
        <time>2022-07-19T05:14:35Z</time>
      </trkpt>
      <trkpt lat="46.34465" lon="5.29592">
        <ele>238.4</ele>
        <time>2022-07-19T05:14:36Z</time>
      </trkpt>
      <trkpt lat="46.3446" lon="5.29585">
        <ele>238.4</ele>
        <time>2022-07-19T05:14:37Z</time>
      </trkpt>
      <trkpt lat="46.34457" lon="5.29577">
        <ele>238.4</ele>
        <time>2022-07-19T05:14:38Z</time>
      </trkpt>
      <trkpt lat="46.34457" lon="5.29568">
        <ele>238.6</ele>
        <time>2022-07-19T05:14:39Z</time>
      </trkpt>
      <trkpt lat="46.34458" lon="5.29551">
        <ele>238.8</ele>
        <time>2022-07-19T05:14:41Z</time>
      </trkpt>
      <trkpt lat="46.34463" lon="5.29516">
        <ele>239.8</ele>
        <time>2022-07-19T05:14:45Z</time>
      </trkpt>
      <trkpt lat="46.34467" lon="5.29482">
        <ele>240.4</ele>
        <time>2022-07-19T05:14:49Z</time>
      </trkpt>
      <trkpt lat="46.34468" lon="5.29465">
        <ele>240.8</ele>
        <time>2022-07-19T05:14:51Z</time>
      </trkpt>
      <trkpt lat="46.34467" lon="5.29457">
        <ele>241</ele>
        <time>2022-07-19T05:14:52Z</time>
      </trkpt>
      <trkpt lat="46.34464" lon="5.2945">
        <ele>241</ele>
        <time>2022-07-19T05:14:53Z</time>
      </trkpt>
      <trkpt lat="46.34461" lon="5.29443">
        <ele>241.2</ele>
        <time>2022-07-19T05:14:54Z</time>
      </trkpt>
      <trkpt lat="46.34453" lon="5.29432">
        <ele>241.6</ele>
        <time>2022-07-19T05:14:56Z</time>
      </trkpt>
      <trkpt lat="46.34448" lon="5.29426">
        <ele>241.8</ele>
        <time>2022-07-19T05:14:57Z</time>
      </trkpt>
      <trkpt lat="46.34435" lon="5.29407">
        <ele>242</ele>
        <time>2022-07-19T05:15:00Z</time>
      </trkpt>
      <trkpt lat="46.34421" lon="5.29378">
        <ele>242.4</ele>
        <time>2022-07-19T05:15:04Z</time>
      </trkpt>
      <trkpt lat="46.34409" lon="5.29357">
        <ele>242.6</ele>
        <time>2022-07-19T05:15:07Z</time>
      </trkpt>
      <trkpt lat="46.34398" lon="5.29345">
        <ele>242.6</ele>
        <time>2022-07-19T05:15:09Z</time>
      </trkpt>
      <trkpt lat="46.34385" lon="5.29339">
        <ele>242.6</ele>
        <time>2022-07-19T05:15:12Z</time>
      </trkpt>
      <trkpt lat="46.34367" lon="5.29334">
        <ele>242.6</ele>
        <time>2022-07-19T05:15:14Z</time>
      </trkpt>
      <trkpt lat="46.34357" lon="5.29331">
        <ele>242.4</ele>
        <time>2022-07-19T05:15:15Z</time>
      </trkpt>
      <trkpt lat="46.34344" lon="5.29323">
        <ele>242.2</ele>
        <time>2022-07-19T05:15:17Z</time>
      </trkpt>
      <trkpt lat="46.34338" lon="5.29318">
        <ele>242</ele>
        <time>2022-07-19T05:15:18Z</time>
      </trkpt>
      <trkpt lat="46.34318" lon="5.29304">
        <ele>241.6</ele>
        <time>2022-07-19T05:15:21Z</time>
      </trkpt>
      <trkpt lat="46.34303" lon="5.29297">
        <ele>241.4</ele>
        <time>2022-07-19T05:15:23Z</time>
      </trkpt>
      <trkpt lat="46.34281" lon="5.2929">
        <ele>240.8</ele>
        <time>2022-07-19T05:15:26Z</time>
      </trkpt>
      <trkpt lat="46.34244" lon="5.2928">
        <ele>240.6</ele>
        <time>2022-07-19T05:15:31Z</time>
      </trkpt>
      <trkpt lat="46.34202" lon="5.29263">
        <ele>240.4</ele>
        <time>2022-07-19T05:15:37Z</time>
      </trkpt>
      <trkpt lat="46.34195" lon="5.2926">
        <ele>240.4</ele>
        <time>2022-07-19T05:15:38Z</time>
      </trkpt>
      <trkpt lat="46.34179" lon="5.2926">
        <ele>240.4</ele>
        <time>2022-07-19T05:15:40Z</time>
      </trkpt>
      <trkpt lat="46.3414" lon="5.29265">
        <ele>239.6</ele>
        <time>2022-07-19T05:15:45Z</time>
      </trkpt>
      <trkpt lat="46.34118" lon="5.29271">
        <ele>239</ele>
        <time>2022-07-19T05:15:48Z</time>
      </trkpt>
      <trkpt lat="46.34104" lon="5.2928">
        <ele>239</ele>
        <time>2022-07-19T05:15:50Z</time>
      </trkpt>
      <trkpt lat="46.34098" lon="5.29286">
        <ele>238.8</ele>
        <time>2022-07-19T05:15:51Z</time>
      </trkpt>
      <trkpt lat="46.34093" lon="5.29294">
        <ele>238.8</ele>
        <time>2022-07-19T05:15:52Z</time>
      </trkpt>
      <trkpt lat="46.34081" lon="5.29321">
        <ele>238.6</ele>
        <time>2022-07-19T05:15:55Z</time>
      </trkpt>
      <trkpt lat="46.34067" lon="5.29347">
        <ele>238.6</ele>
        <time>2022-07-19T05:15:58Z</time>
      </trkpt>
      <trkpt lat="46.34062" lon="5.29354">
        <ele>238.6</ele>
        <time>2022-07-19T05:15:59Z</time>
      </trkpt>
      <trkpt lat="46.34056" lon="5.2936">
        <ele>238.6</ele>
        <time>2022-07-19T05:16:00Z</time>
      </trkpt>
      <trkpt lat="46.34045" lon="5.29369">
        <ele>238.4</ele>
        <time>2022-07-19T05:16:02Z</time>
      </trkpt>
      <trkpt lat="46.34032" lon="5.29373">
        <ele>238.4</ele>
        <time>2022-07-19T05:16:04Z</time>
      </trkpt>
      <trkpt lat="46.34013" lon="5.29381">
        <ele>238.4</ele>
        <time>2022-07-19T05:16:07Z</time>
      </trkpt>
      <trkpt lat="46.34002" lon="5.29389">
        <ele>239.2</ele>
        <time>2022-07-19T05:16:09Z</time>
      </trkpt>
      <trkpt lat="46.33997" lon="5.29394">
        <ele>239.8</ele>
        <time>2022-07-19T05:16:11Z</time>
      </trkpt>
      <trkpt lat="46.33973" lon="5.29427">
        <ele>240.6</ele>
        <time>2022-07-19T05:16:15Z</time>
      </trkpt>
      <trkpt lat="46.3397" lon="5.29432">
        <ele>240.8</ele>
        <time>2022-07-19T05:16:16Z</time>
      </trkpt>
      <trkpt lat="46.33956" lon="5.2947">
        <ele>241.4</ele>
        <time>2022-07-19T05:16:21Z</time>
      </trkpt>
      <trkpt lat="46.33948" lon="5.29494">
        <ele>241.8</ele>
        <time>2022-07-19T05:16:24Z</time>
      </trkpt>
      <trkpt lat="46.33944" lon="5.29501">
        <ele>242</ele>
        <time>2022-07-19T05:16:25Z</time>
      </trkpt>
      <trkpt lat="46.33939" lon="5.29507">
        <ele>242</ele>
        <time>2022-07-19T05:16:26Z</time>
      </trkpt>
      <trkpt lat="46.33927" lon="5.29513">
        <ele>242.2</ele>
        <time>2022-07-19T05:16:28Z</time>
      </trkpt>
      <trkpt lat="46.33921" lon="5.29514">
        <ele>242.4</ele>
        <time>2022-07-19T05:16:29Z</time>
      </trkpt>
      <trkpt lat="46.33873" lon="5.29515">
        <ele>242.4</ele>
        <time>2022-07-19T05:16:36Z</time>
      </trkpt>
      <trkpt lat="46.33817" lon="5.29516">
        <ele>241.8</ele>
        <time>2022-07-19T05:16:44Z</time>
      </trkpt>
      <trkpt lat="46.3381" lon="5.29515">
        <ele>241.8</ele>
        <time>2022-07-19T05:16:45Z</time>
      </trkpt>
      <trkpt lat="46.33779" lon="5.29497">
        <ele>242</ele>
        <time>2022-07-19T05:16:50Z</time>
      </trkpt>
      <trkpt lat="46.3374" lon="5.29458">
        <ele>242.2</ele>
        <time>2022-07-19T05:16:57Z</time>
      </trkpt>
      <trkpt lat="46.33696" lon="5.29397">
        <ele>242.4</ele>
        <time>2022-07-19T05:17:06Z</time>
      </trkpt>
      <trkpt lat="46.33682" lon="5.29377">
        <ele>242.8</ele>
        <time>2022-07-19T05:17:09Z</time>
      </trkpt>
      <trkpt lat="46.33677" lon="5.29372">
        <ele>243</ele>
        <time>2022-07-19T05:17:11Z</time>
      </trkpt>
      <trkpt lat="46.33671" lon="5.29368">
        <ele>243</ele>
        <time>2022-07-19T05:17:12Z</time>
      </trkpt>
      <trkpt lat="46.33655" lon="5.29362">
        <ele>243.2</ele>
        <time>2022-07-19T05:17:14Z</time>
      </trkpt>
      <trkpt lat="46.33648" lon="5.29362">
        <ele>243.2</ele>
        <time>2022-07-19T05:17:15Z</time>
      </trkpt>
      <trkpt lat="46.33639" lon="5.29363">
        <ele>243.2</ele>
        <time>2022-07-19T05:17:16Z</time>
      </trkpt>
      <trkpt lat="46.3362" lon="5.29369">
        <ele>243.2</ele>
        <time>2022-07-19T05:17:19Z</time>
      </trkpt>
      <trkpt lat="46.33607" lon="5.2937">
        <ele>243.2</ele>
        <time>2022-07-19T05:17:21Z</time>
      </trkpt>
      <trkpt lat="46.33589" lon="5.29369">
        <ele>243.4</ele>
        <time>2022-07-19T05:17:24Z</time>
      </trkpt>
      <trkpt lat="46.33553" lon="5.29359">
        <ele>244</ele>
        <time>2022-07-19T05:17:30Z</time>
      </trkpt>
      <trkpt lat="46.33541" lon="5.29355">
        <ele>244.2</ele>
        <time>2022-07-19T05:17:32Z</time>
      </trkpt>
      <trkpt lat="46.3349" lon="5.29335">
        <ele>244.4</ele>
        <time>2022-07-19T05:17:40Z</time>
      </trkpt>
      <trkpt lat="46.33441" lon="5.29303">
        <ele>244</ele>
        <time>2022-07-19T05:17:48Z</time>
      </trkpt>
      <trkpt lat="46.33428" lon="5.29289">
        <ele>243.8</ele>
        <time>2022-07-19T05:17:51Z</time>
      </trkpt>
      <trkpt lat="46.33425" lon="5.29285">
        <ele>243.6</ele>
        <time>2022-07-19T05:17:52Z</time>
      </trkpt>
      <trkpt lat="46.33423" lon="5.29276">
        <ele>243.4</ele>
        <time>2022-07-19T05:17:54Z</time>
      </trkpt>
      <trkpt lat="46.33424" lon="5.29267">
        <ele>243.2</ele>
        <time>2022-07-19T05:17:56Z</time>
      </trkpt>
      <trkpt lat="46.33427" lon="5.29256">
        <ele>243.4</ele>
        <time>2022-07-19T05:17:59Z</time>
      </trkpt>
      <trkpt lat="46.33424" lon="5.29249">
        <ele>243.6</ele>
        <time>2022-07-19T05:18:01Z</time>
      </trkpt>
      <trkpt lat="46.33408" lon="5.29243">
        <ele>243.8</ele>
        <time>2022-07-19T05:18:04Z</time>
      </trkpt>
      <trkpt lat="46.33367" lon="5.29228">
        <ele>243</ele>
        <time>2022-07-19T05:18:10Z</time>
      </trkpt>
      <trkpt lat="46.33333" lon="5.29214">
        <ele>242.2</ele>
        <time>2022-07-19T05:18:15Z</time>
      </trkpt>
      <trkpt lat="46.3332" lon="5.29205">
        <ele>242.2</ele>
        <time>2022-07-19T05:18:17Z</time>
      </trkpt>
      <trkpt lat="46.33314" lon="5.29199">
        <ele>242</ele>
        <time>2022-07-19T05:18:18Z</time>
      </trkpt>
      <trkpt lat="46.33291" lon="5.29173">
        <ele>242</ele>
        <time>2022-07-19T05:18:22Z</time>
      </trkpt>
      <trkpt lat="46.33285" lon="5.29166">
        <ele>242</ele>
        <time>2022-07-19T05:18:23Z</time>
      </trkpt>
      <trkpt lat="46.33267" lon="5.29148">
        <ele>241.6</ele>
        <time>2022-07-19T05:18:26Z</time>
      </trkpt>
      <trkpt lat="46.33254" lon="5.29141">
        <ele>241.6</ele>
        <time>2022-07-19T05:18:28Z</time>
      </trkpt>
      <trkpt lat="46.33247" lon="5.29138">
        <ele>241.4</ele>
        <time>2022-07-19T05:18:29Z</time>
      </trkpt>
      <trkpt lat="46.33225" lon="5.29134">
        <ele>241.2</ele>
        <time>2022-07-19T05:18:32Z</time>
      </trkpt>
      <trkpt lat="46.33177" lon="5.29127">
        <ele>241.4</ele>
        <time>2022-07-19T05:18:39Z</time>
      </trkpt>
      <trkpt lat="46.33134" lon="5.29113">
        <ele>242</ele>
        <time>2022-07-19T05:18:46Z</time>
      </trkpt>
      <trkpt lat="46.33112" lon="5.291">
        <ele>243</ele>
        <time>2022-07-19T05:18:50Z</time>
      </trkpt>
      <trkpt lat="46.33095" lon="5.29088">
        <ele>243.6</ele>
        <time>2022-07-19T05:18:53Z</time>
      </trkpt>
      <trkpt lat="46.3304" lon="5.29051">
        <ele>243.6</ele>
        <time>2022-07-19T05:19:02Z</time>
      </trkpt>
      <trkpt lat="46.32985" lon="5.29015">
        <ele>243.4</ele>
        <time>2022-07-19T05:19:11Z</time>
      </trkpt>
      <trkpt lat="46.3296" lon="5.29001">
        <ele>242.8</ele>
        <time>2022-07-19T05:19:15Z</time>
      </trkpt>
      <trkpt lat="46.32903" lon="5.28972">
        <ele>242.8</ele>
        <time>2022-07-19T05:19:24Z</time>
      </trkpt>
      <trkpt lat="46.32897" lon="5.28968">
        <ele>242.8</ele>
        <time>2022-07-19T05:19:25Z</time>
      </trkpt>
      <trkpt lat="46.3284" lon="5.2894">
        <ele>242.2</ele>
        <time>2022-07-19T05:19:34Z</time>
      </trkpt>
      <trkpt lat="46.32802" lon="5.28921">
        <ele>241.8</ele>
        <time>2022-07-19T05:19:40Z</time>
      </trkpt>
      <trkpt lat="46.32786" lon="5.28912">
        <ele>241.8</ele>
        <time>2022-07-19T05:19:43Z</time>
      </trkpt>
      <trkpt lat="46.32745" lon="5.28894">
        <ele>241.4</ele>
        <time>2022-07-19T05:19:49Z</time>
      </trkpt>
      <trkpt lat="46.3269" lon="5.28874">
        <ele>241.4</ele>
        <time>2022-07-19T05:19:58Z</time>
      </trkpt>
      <trkpt lat="46.32684" lon="5.28872">
        <ele>241.4</ele>
        <time>2022-07-19T05:19:59Z</time>
      </trkpt>
      <trkpt lat="46.32626" lon="5.28847">
        <ele>241.6</ele>
        <time>2022-07-19T05:20:08Z</time>
      </trkpt>
      <trkpt lat="46.32569" lon="5.28823">
        <ele>240.8</ele>
        <time>2022-07-19T05:20:16Z</time>
      </trkpt>
      <trkpt lat="46.32535" lon="5.288">
        <ele>240.2</ele>
        <time>2022-07-19T05:20:21Z</time>
      </trkpt>
      <trkpt lat="46.3253" lon="5.28793">
        <ele>240.2</ele>
        <time>2022-07-19T05:20:22Z</time>
      </trkpt>
      <trkpt lat="46.32503" lon="5.2876">
        <ele>240.2</ele>
        <time>2022-07-19T05:20:27Z</time>
      </trkpt>
      <trkpt lat="46.32458" lon="5.28713">
        <ele>240.4</ele>
        <time>2022-07-19T05:20:35Z</time>
      </trkpt>
      <trkpt lat="46.32427" lon="5.28676">
        <ele>240.8</ele>
        <time>2022-07-19T05:20:42Z</time>
      </trkpt>
      <trkpt lat="46.32395" lon="5.28624">
        <ele>241</ele>
        <time>2022-07-19T05:20:48Z</time>
      </trkpt>
      <trkpt lat="46.32389" lon="5.28617">
        <ele>241</ele>
        <time>2022-07-19T05:20:49Z</time>
      </trkpt>
      <trkpt lat="46.32371" lon="5.28603">
        <ele>241</ele>
        <time>2022-07-19T05:20:52Z</time>
      </trkpt>
      <trkpt lat="46.32317" lon="5.28568">
        <ele>241</ele>
        <time>2022-07-19T05:21:01Z</time>
      </trkpt>
      <trkpt lat="46.32268" lon="5.28528">
        <ele>241.2</ele>
        <time>2022-07-19T05:21:09Z</time>
      </trkpt>
      <trkpt lat="46.32254" lon="5.2852">
        <ele>241</ele>
        <time>2022-07-19T05:21:11Z</time>
      </trkpt>
      <trkpt lat="46.32239" lon="5.28515">
        <ele>240.8</ele>
        <time>2022-07-19T05:21:13Z</time>
      </trkpt>
      <trkpt lat="46.3218" lon="5.28509">
        <ele>240.4</ele>
        <time>2022-07-19T05:21:21Z</time>
      </trkpt>
      <trkpt lat="46.32166" lon="5.28506">
        <ele>240.2</ele>
        <time>2022-07-19T05:21:23Z</time>
      </trkpt>
      <trkpt lat="46.32159" lon="5.28504">
        <ele>240.2</ele>
        <time>2022-07-19T05:21:24Z</time>
      </trkpt>
      <trkpt lat="46.32146" lon="5.28498">
        <ele>240</ele>
        <time>2022-07-19T05:21:26Z</time>
      </trkpt>
      <trkpt lat="46.32139" lon="5.28494">
        <ele>239.8</ele>
        <time>2022-07-19T05:21:27Z</time>
      </trkpt>
      <trkpt lat="46.32126" lon="5.28487">
        <ele>239.6</ele>
        <time>2022-07-19T05:21:29Z</time>
      </trkpt>
      <trkpt lat="46.3209" lon="5.28472">
        <ele>239.6</ele>
        <time>2022-07-19T05:21:34Z</time>
      </trkpt>
      <trkpt lat="46.3204" lon="5.28457">
        <ele>238.6</ele>
        <time>2022-07-19T05:21:41Z</time>
      </trkpt>
      <trkpt lat="46.32002" lon="5.28428">
        <ele>238.2</ele>
        <time>2022-07-19T05:21:47Z</time>
      </trkpt>
      <trkpt lat="46.31988" lon="5.28421">
        <ele>238</ele>
        <time>2022-07-19T05:21:49Z</time>
      </trkpt>
      <trkpt lat="46.31966" lon="5.28415">
        <ele>238</ele>
        <time>2022-07-19T05:21:52Z</time>
      </trkpt>
      <trkpt lat="46.31928" lon="5.28406">
        <ele>237.4</ele>
        <time>2022-07-19T05:21:57Z</time>
      </trkpt>
      <trkpt lat="46.31913" lon="5.284">
        <ele>236.8</ele>
        <time>2022-07-19T05:21:59Z</time>
      </trkpt>
      <trkpt lat="46.31883" lon="5.28388">
        <ele>236.2</ele>
        <time>2022-07-19T05:22:03Z</time>
      </trkpt>
      <trkpt lat="46.31855" lon="5.2838">
        <ele>235.6</ele>
        <time>2022-07-19T05:22:07Z</time>
      </trkpt>
      <trkpt lat="46.31803" lon="5.28375">
        <ele>234.8</ele>
        <time>2022-07-19T05:22:14Z</time>
      </trkpt>
      <trkpt lat="46.31795" lon="5.28375">
        <ele>234.6</ele>
        <time>2022-07-19T05:22:15Z</time>
      </trkpt>
      <trkpt lat="46.3178" lon="5.28381">
        <ele>234.6</ele>
        <time>2022-07-19T05:22:17Z</time>
      </trkpt>
      <trkpt lat="46.31773" lon="5.28385">
        <ele>234</ele>
        <time>2022-07-19T05:22:18Z</time>
      </trkpt>
      <trkpt lat="46.31766" lon="5.28387">
        <ele>233.6</ele>
        <time>2022-07-19T05:22:19Z</time>
      </trkpt>
      <trkpt lat="46.31749" lon="5.28385">
        <ele>233.2</ele>
        <time>2022-07-19T05:22:21Z</time>
      </trkpt>
      <trkpt lat="46.31732" lon="5.28378">
        <ele>232.6</ele>
        <time>2022-07-19T05:22:23Z</time>
      </trkpt>
      <trkpt lat="46.31713" lon="5.28372">
        <ele>231.4</ele>
        <time>2022-07-19T05:22:25Z</time>
      </trkpt>
      <trkpt lat="46.31703" lon="5.28369">
        <ele>230.8</ele>
        <time>2022-07-19T05:22:26Z</time>
      </trkpt>
      <trkpt lat="46.31694" lon="5.28366">
        <ele>229.6</ele>
        <time>2022-07-19T05:22:27Z</time>
      </trkpt>
      <trkpt lat="46.31675" lon="5.28358">
        <ele>228</ele>
        <time>2022-07-19T05:22:29Z</time>
      </trkpt>
      <trkpt lat="46.31646" lon="5.28344">
        <ele>226.8</ele>
        <time>2022-07-19T05:22:32Z</time>
      </trkpt>
      <trkpt lat="46.31636" lon="5.2834">
        <ele>226</ele>
        <time>2022-07-19T05:22:33Z</time>
      </trkpt>
      <trkpt lat="46.31627" lon="5.28336">
        <ele>225.6</ele>
        <time>2022-07-19T05:22:34Z</time>
      </trkpt>
      <trkpt lat="46.31598" lon="5.28324">
        <ele>224.6</ele>
        <time>2022-07-19T05:22:37Z</time>
      </trkpt>
      <trkpt lat="46.31567" lon="5.28313">
        <ele>223</ele>
        <time>2022-07-19T05:22:40Z</time>
      </trkpt>
      <trkpt lat="46.31557" lon="5.2831">
        <ele>222.6</ele>
        <time>2022-07-19T05:22:41Z</time>
      </trkpt>
      <trkpt lat="46.31536" lon="5.28301">
        <ele>221.8</ele>
        <time>2022-07-19T05:22:43Z</time>
      </trkpt>
      <trkpt lat="46.31516" lon="5.28291">
        <ele>220.6</ele>
        <time>2022-07-19T05:22:45Z</time>
      </trkpt>
      <trkpt lat="46.31497" lon="5.28281">
        <ele>219.4</ele>
        <time>2022-07-19T05:22:47Z</time>
      </trkpt>
      <trkpt lat="46.31479" lon="5.28272">
        <ele>218</ele>
        <time>2022-07-19T05:22:49Z</time>
      </trkpt>
      <trkpt lat="46.31452" lon="5.28261">
        <ele>217</ele>
        <time>2022-07-19T05:22:52Z</time>
      </trkpt>
      <trkpt lat="46.31442" lon="5.28259">
        <ele>217</ele>
        <time>2022-07-19T05:22:53Z</time>
      </trkpt>
      <trkpt lat="46.31433" lon="5.28258">
        <ele>217</ele>
        <time>2022-07-19T05:22:54Z</time>
      </trkpt>
      <trkpt lat="46.31416" lon="5.28259">
        <ele>216.8</ele>
        <time>2022-07-19T05:22:56Z</time>
      </trkpt>
      <trkpt lat="46.31385" lon="5.28263">
        <ele>217</ele>
        <time>2022-07-19T05:23:00Z</time>
      </trkpt>
      <trkpt lat="46.31377" lon="5.28265">
        <ele>217</ele>
        <time>2022-07-19T05:23:01Z</time>
      </trkpt>
      <trkpt lat="46.3137" lon="5.28268">
        <ele>217</ele>
        <time>2022-07-19T05:23:02Z</time>
      </trkpt>
      <trkpt lat="46.31357" lon="5.28276">
        <ele>217.4</ele>
        <time>2022-07-19T05:23:04Z</time>
      </trkpt>
      <trkpt lat="46.3135" lon="5.28278">
        <ele>217.4</ele>
        <time>2022-07-19T05:23:05Z</time>
      </trkpt>
      <trkpt lat="46.31343" lon="5.28277">
        <ele>217.6</ele>
        <time>2022-07-19T05:23:06Z</time>
      </trkpt>
      <trkpt lat="46.31338" lon="5.28271">
        <ele>217.6</ele>
        <time>2022-07-19T05:23:07Z</time>
      </trkpt>
      <trkpt lat="46.31332" lon="5.28264">
        <ele>217.6</ele>
        <time>2022-07-19T05:23:08Z</time>
      </trkpt>
      <trkpt lat="46.31321" lon="5.28251">
        <ele>217.8</ele>
        <time>2022-07-19T05:23:10Z</time>
      </trkpt>
      <trkpt lat="46.31303" lon="5.28249">
        <ele>218</ele>
        <time>2022-07-19T05:23:13Z</time>
      </trkpt>
      <trkpt lat="46.31259" lon="5.28256">
        <ele>218.2</ele>
        <time>2022-07-19T05:23:19Z</time>
      </trkpt>
      <trkpt lat="46.31239" lon="5.28258">
        <ele>218.2</ele>
        <time>2022-07-19T05:23:22Z</time>
      </trkpt>
      <trkpt lat="46.31193" lon="5.28262">
        <ele>218</ele>
        <time>2022-07-19T05:23:29Z</time>
      </trkpt>
      <trkpt lat="46.31145" lon="5.28266">
        <ele>219</ele>
        <time>2022-07-19T05:23:37Z</time>
      </trkpt>
      <trkpt lat="46.3114" lon="5.28267">
        <ele>219.2</ele>
        <time>2022-07-19T05:23:38Z</time>
      </trkpt>
      <trkpt lat="46.31107" lon="5.2827">
        <ele>220</ele>
        <time>2022-07-19T05:23:44Z</time>
      </trkpt>
      <trkpt lat="46.31102" lon="5.2827">
        <ele>220.2</ele>
        <time>2022-07-19T05:23:45Z</time>
      </trkpt>
      <trkpt lat="46.31077" lon="5.28273">
        <ele>221.4</ele>
        <time>2022-07-19T05:23:50Z</time>
      </trkpt>
      <trkpt lat="46.31068" lon="5.28273">
        <ele>222</ele>
        <time>2022-07-19T05:23:52Z</time>
      </trkpt>
      <trkpt lat="46.31051" lon="5.28276">
        <ele>222.6</ele>
        <time>2022-07-19T05:23:56Z</time>
      </trkpt>
      <trkpt lat="46.31047" lon="5.28276">
        <ele>223.2</ele>
        <time>2022-07-19T05:23:57Z</time>
      </trkpt>
      <trkpt lat="46.31035" lon="5.28277">
        <ele>223.8</ele>
        <time>2022-07-19T05:24:00Z</time>
      </trkpt>
      <trkpt lat="46.31027" lon="5.28278">
        <ele>224.4</ele>
        <time>2022-07-19T05:24:02Z</time>
      </trkpt>
      <trkpt lat="46.3102" lon="5.28278">
        <ele>225</ele>
        <time>2022-07-19T05:24:04Z</time>
      </trkpt>
      <trkpt lat="46.31012" lon="5.28279">
        <ele>225.4</ele>
        <time>2022-07-19T05:24:06Z</time>
      </trkpt>
      <trkpt lat="46.31002" lon="5.28281">
        <ele>226.2</ele>
        <time>2022-07-19T05:24:09Z</time>
      </trkpt>
      <trkpt lat="46.30993" lon="5.28282">
        <ele>226.8</ele>
        <time>2022-07-19T05:24:12Z</time>
      </trkpt>
      <trkpt lat="46.3099" lon="5.28281">
        <ele>227.4</ele>
        <time>2022-07-19T05:24:13Z</time>
      </trkpt>
      <trkpt lat="46.30979" lon="5.28279">
        <ele>228.4</ele>
        <time>2022-07-19T05:24:16Z</time>
      </trkpt>
      <trkpt lat="46.30968" lon="5.28279">
        <ele>228.8</ele>
        <time>2022-07-19T05:24:19Z</time>
      </trkpt>
      <trkpt lat="46.3096" lon="5.28278">
        <ele>229.4</ele>
        <time>2022-07-19T05:24:21Z</time>
      </trkpt>
      <trkpt lat="46.30945" lon="5.28275">
        <ele>230.8</ele>
        <time>2022-07-19T05:24:25Z</time>
      </trkpt>
      <trkpt lat="46.30938" lon="5.28273">
        <ele>231.4</ele>
        <time>2022-07-19T05:24:27Z</time>
      </trkpt>
      <trkpt lat="46.30931" lon="5.28272">
        <ele>231.8</ele>
        <time>2022-07-19T05:24:29Z</time>
      </trkpt>
      <trkpt lat="46.30916" lon="5.28271">
        <ele>232.8</ele>
        <time>2022-07-19T05:24:33Z</time>
      </trkpt>
      <trkpt lat="46.30913" lon="5.2827">
        <ele>233</ele>
        <time>2022-07-19T05:24:34Z</time>
      </trkpt>
      <trkpt lat="46.30899" lon="5.28267">
        <ele>234</ele>
        <time>2022-07-19T05:24:38Z</time>
      </trkpt>
      <trkpt lat="46.30889" lon="5.28264">
        <ele>234.6</ele>
        <time>2022-07-19T05:24:41Z</time>
      </trkpt>
      <trkpt lat="46.30883" lon="5.28264">
        <ele>235</ele>
        <time>2022-07-19T05:24:43Z</time>
      </trkpt>
      <trkpt lat="46.30854" lon="5.28259">
        <ele>235.8</ele>
        <time>2022-07-19T05:24:50Z</time>
      </trkpt>
      <trkpt lat="46.30845" lon="5.28257">
        <ele>236.4</ele>
        <time>2022-07-19T05:24:52Z</time>
      </trkpt>
      <trkpt lat="46.30817" lon="5.28253">
        <ele>237.4</ele>
        <time>2022-07-19T05:24:59Z</time>
      </trkpt>
      <trkpt lat="46.30779" lon="5.28247">
        <ele>238.4</ele>
        <time>2022-07-19T05:25:08Z</time>
      </trkpt>
      <trkpt lat="46.30775" lon="5.28246">
        <ele>238.6</ele>
        <time>2022-07-19T05:25:09Z</time>
      </trkpt>
      <trkpt lat="46.30742" lon="5.28241">
        <ele>239.8</ele>
        <time>2022-07-19T05:25:16Z</time>
      </trkpt>
      <trkpt lat="46.30737" lon="5.2824">
        <ele>240</ele>
        <time>2022-07-19T05:25:17Z</time>
      </trkpt>
      <trkpt lat="46.30687" lon="5.28231">
        <ele>240.8</ele>
        <time>2022-07-19T05:25:27Z</time>
      </trkpt>
      <trkpt lat="46.30682" lon="5.28231">
        <ele>241</ele>
        <time>2022-07-19T05:25:28Z</time>
      </trkpt>
      <trkpt lat="46.30641" lon="5.28224">
        <ele>241.6</ele>
        <time>2022-07-19T05:25:36Z</time>
      </trkpt>
      <trkpt lat="46.30636" lon="5.28223">
        <ele>241.6</ele>
        <time>2022-07-19T05:25:37Z</time>
      </trkpt>
      <trkpt lat="46.30615" lon="5.28222">
        <ele>242.2</ele>
        <time>2022-07-19T05:25:42Z</time>
      </trkpt>
      <trkpt lat="46.30587" lon="5.28226">
        <ele>242.2</ele>
        <time>2022-07-19T05:25:46Z</time>
      </trkpt>
      <trkpt lat="46.3054" lon="5.28239">
        <ele>242.4</ele>
        <time>2022-07-19T05:25:54Z</time>
      </trkpt>
      <trkpt lat="46.30485" lon="5.2826">
        <ele>242.4</ele>
        <time>2022-07-19T05:26:03Z</time>
      </trkpt>
      <trkpt lat="46.30479" lon="5.28261">
        <ele>242.4</ele>
        <time>2022-07-19T05:26:04Z</time>
      </trkpt>
      <trkpt lat="46.30425" lon="5.28268">
        <ele>243</ele>
        <time>2022-07-19T05:26:13Z</time>
      </trkpt>
      <trkpt lat="46.30418" lon="5.28268">
        <ele>243</ele>
        <time>2022-07-19T05:26:14Z</time>
      </trkpt>
      <trkpt lat="46.30376" lon="5.28263">
        <ele>243.2</ele>
        <time>2022-07-19T05:26:21Z</time>
      </trkpt>
      <trkpt lat="46.30369" lon="5.28261">
        <ele>243.2</ele>
        <time>2022-07-19T05:26:22Z</time>
      </trkpt>
      <trkpt lat="46.30326" lon="5.28238">
        <ele>242.6</ele>
        <time>2022-07-19T05:26:29Z</time>
      </trkpt>
      <trkpt lat="46.30312" lon="5.2823">
        <ele>241.8</ele>
        <time>2022-07-19T05:26:32Z</time>
      </trkpt>
      <trkpt lat="46.30307" lon="5.28228">
        <ele>241.8</ele>
        <time>2022-07-19T05:26:33Z</time>
      </trkpt>
      <trkpt lat="46.30301" lon="5.28236">
        <ele>241</ele>
        <time>2022-07-19T05:26:35Z</time>
      </trkpt>
      <trkpt lat="46.303" lon="5.28244">
        <ele>241</ele>
        <time>2022-07-19T05:26:36Z</time>
      </trkpt>
      <trkpt lat="46.303" lon="5.28253">
        <ele>240.8</ele>
        <time>2022-07-19T05:26:37Z</time>
      </trkpt>
      <trkpt lat="46.30298" lon="5.28274">
        <ele>240.8</ele>
        <time>2022-07-19T05:26:39Z</time>
      </trkpt>
      <trkpt lat="46.30295" lon="5.28297">
        <ele>239.2</ele>
        <time>2022-07-19T05:26:42Z</time>
      </trkpt>
      <trkpt lat="46.30288" lon="5.28331">
        <ele>238.2</ele>
        <time>2022-07-19T05:26:44Z</time>
      </trkpt>
      <trkpt lat="46.30283" lon="5.28354">
        <ele>238</ele>
        <time>2022-07-19T05:26:45Z</time>
      </trkpt>
      <trkpt lat="46.30276" lon="5.2838">
        <ele>236.4</ele>
        <time>2022-07-19T05:26:47Z</time>
      </trkpt>
      <trkpt lat="46.30269" lon="5.2841">
        <ele>235.2</ele>
        <time>2022-07-19T05:26:49Z</time>
      </trkpt>
      <trkpt lat="46.30265" lon="5.28426">
        <ele>233.4</ele>
        <time>2022-07-19T05:26:50Z</time>
      </trkpt>
      <trkpt lat="46.30261" lon="5.28441">
        <ele>232.4</ele>
        <time>2022-07-19T05:26:51Z</time>
      </trkpt>
      <trkpt lat="46.30253" lon="5.28473">
        <ele>230.8</ele>
        <time>2022-07-19T05:26:53Z</time>
      </trkpt>
      <trkpt lat="46.30245" lon="5.28505">
        <ele>228.6</ele>
        <time>2022-07-19T05:26:55Z</time>
      </trkpt>
      <trkpt lat="46.30237" lon="5.28536">
        <ele>227.2</ele>
        <time>2022-07-19T05:26:57Z</time>
      </trkpt>
      <trkpt lat="46.30233" lon="5.28551">
        <ele>226.4</ele>
        <time>2022-07-19T05:26:58Z</time>
      </trkpt>
      <trkpt lat="46.30229" lon="5.28567">
        <ele>226</ele>
        <time>2022-07-19T05:26:59Z</time>
      </trkpt>
      <trkpt lat="46.30225" lon="5.28582">
        <ele>225</ele>
        <time>2022-07-19T05:27:00Z</time>
      </trkpt>
      <trkpt lat="46.30217" lon="5.28612">
        <ele>224</ele>
        <time>2022-07-19T05:27:02Z</time>
      </trkpt>
      <trkpt lat="46.30206" lon="5.28656">
        <ele>222.6</ele>
        <time>2022-07-19T05:27:05Z</time>
      </trkpt>
      <trkpt lat="46.30202" lon="5.28669">
        <ele>222.6</ele>
        <time>2022-07-19T05:27:06Z</time>
      </trkpt>
      <trkpt lat="46.30198" lon="5.2868">
        <ele>222.4</ele>
        <time>2022-07-19T05:27:07Z</time>
      </trkpt>
      <trkpt lat="46.30189" lon="5.28701">
        <ele>221.8</ele>
        <time>2022-07-19T05:27:09Z</time>
      </trkpt>
      <trkpt lat="46.30169" lon="5.28743">
        <ele>221.6</ele>
        <time>2022-07-19T05:27:13Z</time>
      </trkpt>
      <trkpt lat="46.30163" lon="5.28754">
        <ele>221.6</ele>
        <time>2022-07-19T05:27:14Z</time>
      </trkpt>
      <trkpt lat="46.30139" lon="5.28805">
        <ele>222</ele>
        <time>2022-07-19T05:27:19Z</time>
      </trkpt>
      <trkpt lat="46.30136" lon="5.28816">
        <ele>222</ele>
        <time>2022-07-19T05:27:20Z</time>
      </trkpt>
      <trkpt lat="46.30128" lon="5.28871">
        <ele>221.8</ele>
        <time>2022-07-19T05:27:25Z</time>
      </trkpt>
      <trkpt lat="46.30126" lon="5.28881">
        <ele>221.8</ele>
        <time>2022-07-19T05:27:26Z</time>
      </trkpt>
      <trkpt lat="46.3012" lon="5.28896">
        <ele>221.8</ele>
        <time>2022-07-19T05:27:28Z</time>
      </trkpt>
      <trkpt lat="46.30113" lon="5.28909">
        <ele>222.4</ele>
        <time>2022-07-19T05:27:30Z</time>
      </trkpt>
      <trkpt lat="46.30108" lon="5.28914">
        <ele>222.6</ele>
        <time>2022-07-19T05:27:31Z</time>
      </trkpt>
      <trkpt lat="46.301" lon="5.28924">
        <ele>223.4</ele>
        <time>2022-07-19T05:27:33Z</time>
      </trkpt>
      <trkpt lat="46.30092" lon="5.28931">
        <ele>224.4</ele>
        <time>2022-07-19T05:27:35Z</time>
      </trkpt>
      <trkpt lat="46.30078" lon="5.28938">
        <ele>225.6</ele>
        <time>2022-07-19T05:27:38Z</time>
      </trkpt>
      <trkpt lat="46.30066" lon="5.28943">
        <ele>227</ele>
        <time>2022-07-19T05:27:42Z</time>
      </trkpt>
      <trkpt lat="46.30049" lon="5.28949">
        <ele>227.8</ele>
        <time>2022-07-19T05:27:45Z</time>
      </trkpt>
      <trkpt lat="46.30046" lon="5.2895">
        <ele>228</ele>
        <time>2022-07-19T05:27:46Z</time>
      </trkpt>
      <trkpt lat="46.30026" lon="5.28955">
        <ele>229.2</ele>
        <time>2022-07-19T05:27:51Z</time>
      </trkpt>
      <trkpt lat="46.30012" lon="5.28959">
        <ele>230</ele>
        <time>2022-07-19T05:27:55Z</time>
      </trkpt>
      <trkpt lat="46.30005" lon="5.2896">
        <ele>230.2</ele>
        <time>2022-07-19T05:27:57Z</time>
      </trkpt>
      <trkpt lat="46.29997" lon="5.28963">
        <ele>231.2</ele>
        <time>2022-07-19T05:28:01Z</time>
      </trkpt>
      <trkpt lat="46.29997" lon="5.28963">
        <ele>231.6</ele>
        <time>2022-07-19T05:28:02Z</time>
      </trkpt>
      <trkpt lat="46.29997" lon="5.28963">
        <ele>232</ele>
        <time>2022-07-19T05:28:04Z</time>
      </trkpt>
      <trkpt lat="46.29996" lon="5.28971">
        <ele>232.8</ele>
        <time>2022-07-19T05:28:50Z</time>
      </trkpt>
      <trkpt lat="46.29996" lon="5.28975">
        <ele>232.8</ele>
        <time>2022-07-19T05:28:51Z</time>
      </trkpt>
      <trkpt lat="46.29995" lon="5.28999">
        <ele>232.8</ele>
        <time>2022-07-19T05:28:56Z</time>
      </trkpt>
      <trkpt lat="46.29988" lon="5.2901">
        <ele>232.8</ele>
        <time>2022-07-19T05:28:58Z</time>
      </trkpt>
      <trkpt lat="46.29984" lon="5.29013">
        <ele>232.8</ele>
        <time>2022-07-19T05:28:59Z</time>
      </trkpt>
      <trkpt lat="46.29945" lon="5.29032">
        <ele>233.4</ele>
        <time>2022-07-19T05:29:07Z</time>
      </trkpt>
      <trkpt lat="46.29931" lon="5.29041">
        <ele>234</ele>
        <time>2022-07-19T05:29:10Z</time>
      </trkpt>
      <trkpt lat="46.29904" lon="5.29059">
        <ele>234.8</ele>
        <time>2022-07-19T05:29:16Z</time>
      </trkpt>
      <trkpt lat="46.29899" lon="5.29062">
        <ele>235.2</ele>
        <time>2022-07-19T05:29:17Z</time>
      </trkpt>
      <trkpt lat="46.29864" lon="5.29089">
        <ele>236</ele>
        <time>2022-07-19T05:29:25Z</time>
      </trkpt>
      <trkpt lat="46.29856" lon="5.29098">
        <ele>236.2</ele>
        <time>2022-07-19T05:29:27Z</time>
      </trkpt>
      <trkpt lat="46.29841" lon="5.29117">
        <ele>236.4</ele>
        <time>2022-07-19T05:29:31Z</time>
      </trkpt>
      <trkpt lat="46.29825" lon="5.29134">
        <ele>237.2</ele>
        <time>2022-07-19T05:29:35Z</time>
      </trkpt>
      <trkpt lat="46.29807" lon="5.29154">
        <ele>237.8</ele>
        <time>2022-07-19T05:29:39Z</time>
      </trkpt>
      <trkpt lat="46.29781" lon="5.29182">
        <ele>238</ele>
        <time>2022-07-19T05:29:45Z</time>
      </trkpt>
      <trkpt lat="46.29775" lon="5.29191">
        <ele>238</ele>
        <time>2022-07-19T05:29:46Z</time>
      </trkpt>
      <trkpt lat="46.29769" lon="5.29205">
        <ele>238</ele>
        <time>2022-07-19T05:29:48Z</time>
      </trkpt>
      <trkpt lat="46.29766" lon="5.29212">
        <ele>238.2</ele>
        <time>2022-07-19T05:29:49Z</time>
      </trkpt>
      <trkpt lat="46.29764" lon="5.2922">
        <ele>238.2</ele>
        <time>2022-07-19T05:29:50Z</time>
      </trkpt>
      <trkpt lat="46.29762" lon="5.29228">
        <ele>238.4</ele>
        <time>2022-07-19T05:29:51Z</time>
      </trkpt>
      <trkpt lat="46.29751" lon="5.2927">
        <ele>239.2</ele>
        <time>2022-07-19T05:29:57Z</time>
      </trkpt>
      <trkpt lat="46.29748" lon="5.29284">
        <ele>239.6</ele>
        <time>2022-07-19T05:29:59Z</time>
      </trkpt>
      <trkpt lat="46.29744" lon="5.29298">
        <ele>240.4</ele>
        <time>2022-07-19T05:30:01Z</time>
      </trkpt>
      <trkpt lat="46.2974" lon="5.29311">
        <ele>240.8</ele>
        <time>2022-07-19T05:30:03Z</time>
      </trkpt>
      <trkpt lat="46.29734" lon="5.29338">
        <ele>241.6</ele>
        <time>2022-07-19T05:30:07Z</time>
      </trkpt>
      <trkpt lat="46.29723" lon="5.29379">
        <ele>242.6</ele>
        <time>2022-07-19T05:30:13Z</time>
      </trkpt>
      <trkpt lat="46.29719" lon="5.29392">
        <ele>242.8</ele>
        <time>2022-07-19T05:30:15Z</time>
      </trkpt>
      <trkpt lat="46.29706" lon="5.29418">
        <ele>243.4</ele>
        <time>2022-07-19T05:30:19Z</time>
      </trkpt>
      <trkpt lat="46.29699" lon="5.2943">
        <ele>243.8</ele>
        <time>2022-07-19T05:30:21Z</time>
      </trkpt>
      <trkpt lat="46.29679" lon="5.29459">
        <ele>244.4</ele>
        <time>2022-07-19T05:30:26Z</time>
      </trkpt>
      <trkpt lat="46.2965" lon="5.29498">
        <ele>244.6</ele>
        <time>2022-07-19T05:30:33Z</time>
      </trkpt>
      <trkpt lat="46.29628" lon="5.29537">
        <ele>244.8</ele>
        <time>2022-07-19T05:30:39Z</time>
      </trkpt>
      <trkpt lat="46.29622" lon="5.2955">
        <ele>244.8</ele>
        <time>2022-07-19T05:30:41Z</time>
      </trkpt>
      <trkpt lat="46.29622" lon="5.2955">
        <ele>245</ele>
        <time>2022-07-19T05:30:42Z</time>
      </trkpt>
      <trkpt lat="46.29606" lon="5.29594">
        <ele>246</ele>
        <time>2022-07-19T05:30:47Z</time>
      </trkpt>
      <trkpt lat="46.29601" lon="5.2961">
        <ele>246.2</ele>
        <time>2022-07-19T05:30:49Z</time>
      </trkpt>
      <trkpt lat="46.29585" lon="5.29681">
        <ele>246.4</ele>
        <time>2022-07-19T05:30:57Z</time>
      </trkpt>
      <trkpt lat="46.2957" lon="5.29751">
        <ele>246.8</ele>
        <time>2022-07-19T05:31:05Z</time>
      </trkpt>
      <trkpt lat="46.29552" lon="5.29831">
        <ele>247</ele>
        <time>2022-07-19T05:31:14Z</time>
      </trkpt>
      <trkpt lat="46.29551" lon="5.2984">
        <ele>247.2</ele>
        <time>2022-07-19T05:31:15Z</time>
      </trkpt>
      <trkpt lat="46.29537" lon="5.299">
        <ele>247.4</ele>
        <time>2022-07-19T05:31:22Z</time>
      </trkpt>
      <trkpt lat="46.2952" lon="5.2996">
        <ele>247.4</ele>
        <time>2022-07-19T05:31:30Z</time>
      </trkpt>
      <trkpt lat="46.29518" lon="5.29965">
        <ele>247.6</ele>
        <time>2022-07-19T05:31:31Z</time>
      </trkpt>
      <trkpt lat="46.29513" lon="5.29972">
        <ele>247.8</ele>
        <time>2022-07-19T05:31:34Z</time>
      </trkpt>
      <trkpt lat="46.29513" lon="5.29972">
        <ele>248</ele>
        <time>2022-07-19T05:31:37Z</time>
      </trkpt>
      <trkpt lat="46.29509" lon="5.29972">
        <ele>249.2</ele>
        <time>2022-07-19T05:31:47Z</time>
      </trkpt>
      <trkpt lat="46.29498" lon="5.29969">
        <ele>249.4</ele>
        <time>2022-07-19T05:31:51Z</time>
      </trkpt>
      <trkpt lat="46.29493" lon="5.29968">
        <ele>249.4</ele>
        <time>2022-07-19T05:31:52Z</time>
      </trkpt>
      <trkpt lat="46.2947" lon="5.29961">
        <ele>249.4</ele>
        <time>2022-07-19T05:31:56Z</time>
      </trkpt>
      <trkpt lat="46.29458" lon="5.29956">
        <ele>249.4</ele>
        <time>2022-07-19T05:31:58Z</time>
      </trkpt>
      <trkpt lat="46.29445" lon="5.29956">
        <ele>249.4</ele>
        <time>2022-07-19T05:32:00Z</time>
      </trkpt>
      <trkpt lat="46.29432" lon="5.29963">
        <ele>249.2</ele>
        <time>2022-07-19T05:32:02Z</time>
      </trkpt>
      <trkpt lat="46.29419" lon="5.29975">
        <ele>249</ele>
        <time>2022-07-19T05:32:04Z</time>
      </trkpt>
      <trkpt lat="46.29379" lon="5.30019">
        <ele>248.4</ele>
        <time>2022-07-19T05:32:11Z</time>
      </trkpt>
      <trkpt lat="46.29342" lon="5.30058">
        <ele>248.4</ele>
        <time>2022-07-19T05:32:18Z</time>
      </trkpt>
      <trkpt lat="46.29297" lon="5.30106">
        <ele>249.4</ele>
        <time>2022-07-19T05:32:27Z</time>
      </trkpt>
      <trkpt lat="46.29287" lon="5.30117">
        <ele>249.4</ele>
        <time>2022-07-19T05:32:29Z</time>
      </trkpt>
      <trkpt lat="46.29256" lon="5.30149">
        <ele>250.2</ele>
        <time>2022-07-19T05:32:35Z</time>
      </trkpt>
      <trkpt lat="46.2923" lon="5.30177">
        <ele>250.4</ele>
        <time>2022-07-19T05:32:40Z</time>
      </trkpt>
      <trkpt lat="46.29197" lon="5.30213">
        <ele>250.4</ele>
        <time>2022-07-19T05:32:46Z</time>
      </trkpt>
      <trkpt lat="46.29165" lon="5.30246">
        <ele>250.2</ele>
        <time>2022-07-19T05:32:52Z</time>
      </trkpt>
      <trkpt lat="46.29161" lon="5.30252">
        <ele>250.2</ele>
        <time>2022-07-19T05:32:53Z</time>
      </trkpt>
      <trkpt lat="46.29151" lon="5.30263">
        <ele>250.2</ele>
        <time>2022-07-19T05:32:55Z</time>
      </trkpt>
      <trkpt lat="46.29139" lon="5.30273">
        <ele>250.2</ele>
        <time>2022-07-19T05:32:57Z</time>
      </trkpt>
      <trkpt lat="46.29101" lon="5.30315">
        <ele>250</ele>
        <time>2022-07-19T05:33:04Z</time>
      </trkpt>
      <trkpt lat="46.29079" lon="5.30337">
        <ele>249.8</ele>
        <time>2022-07-19T05:33:08Z</time>
      </trkpt>
      <trkpt lat="46.29058" lon="5.30357">
        <ele>249.8</ele>
        <time>2022-07-19T05:33:12Z</time>
      </trkpt>
      <trkpt lat="46.29047" lon="5.30367">
        <ele>249.8</ele>
        <time>2022-07-19T05:33:14Z</time>
      </trkpt>
      <trkpt lat="46.29029" lon="5.30376">
        <ele>249.8</ele>
        <time>2022-07-19T05:33:17Z</time>
      </trkpt>
      <trkpt lat="46.28993" lon="5.30385">
        <ele>250.2</ele>
        <time>2022-07-19T05:33:23Z</time>
      </trkpt>
      <trkpt lat="46.28954" lon="5.30394">
        <ele>251.4</ele>
        <time>2022-07-19T05:33:30Z</time>
      </trkpt>
      <trkpt lat="46.28933" lon="5.30399">
        <ele>252.4</ele>
        <time>2022-07-19T05:33:34Z</time>
      </trkpt>
      <trkpt lat="46.28911" lon="5.30405">
        <ele>253.2</ele>
        <time>2022-07-19T05:33:38Z</time>
      </trkpt>
      <trkpt lat="46.289" lon="5.30408">
        <ele>253.4</ele>
        <time>2022-07-19T05:33:40Z</time>
      </trkpt>
      <trkpt lat="46.28886" lon="5.30411">
        <ele>253.6</ele>
        <time>2022-07-19T05:33:43Z</time>
      </trkpt>
      <trkpt lat="46.2885" lon="5.30421">
        <ele>253.8</ele>
        <time>2022-07-19T05:33:49Z</time>
      </trkpt>
      <trkpt lat="46.28799" lon="5.30431">
        <ele>253.6</ele>
        <time>2022-07-19T05:33:57Z</time>
      </trkpt>
      <trkpt lat="46.28754" lon="5.30439">
        <ele>253.6</ele>
        <time>2022-07-19T05:34:04Z</time>
      </trkpt>
      <trkpt lat="46.28742" lon="5.30442">
        <ele>253.4</ele>
        <time>2022-07-19T05:34:06Z</time>
      </trkpt>
      <trkpt lat="46.2873" lon="5.30443">
        <ele>253.4</ele>
        <time>2022-07-19T05:34:08Z</time>
      </trkpt>
      <trkpt lat="46.28718" lon="5.30445">
        <ele>253.2</ele>
        <time>2022-07-19T05:34:10Z</time>
      </trkpt>
      <trkpt lat="46.28695" lon="5.30445">
        <ele>253.2</ele>
        <time>2022-07-19T05:34:15Z</time>
      </trkpt>
      <trkpt lat="46.2869" lon="5.30449">
        <ele>253.2</ele>
        <time>2022-07-19T05:34:17Z</time>
      </trkpt>
      <trkpt lat="46.28688" lon="5.30453">
        <ele>253.2</ele>
        <time>2022-07-19T05:34:18Z</time>
      </trkpt>
      <trkpt lat="46.28686" lon="5.30466">
        <ele>253.2</ele>
        <time>2022-07-19T05:34:20Z</time>
      </trkpt>
      <trkpt lat="46.28685" lon="5.30482">
        <ele>253.4</ele>
        <time>2022-07-19T05:34:22Z</time>
      </trkpt>
      <trkpt lat="46.28681" lon="5.30537">
        <ele>253.6</ele>
        <time>2022-07-19T05:34:28Z</time>
      </trkpt>
      <trkpt lat="46.28677" lon="5.30608">
        <ele>253.8</ele>
        <time>2022-07-19T05:34:35Z</time>
      </trkpt>
      <trkpt lat="46.28672" lon="5.30684">
        <ele>254.2</ele>
        <time>2022-07-19T05:34:43Z</time>
      </trkpt>
      <trkpt lat="46.28672" lon="5.30693">
        <ele>254.4</ele>
        <time>2022-07-19T05:34:44Z</time>
      </trkpt>
      <trkpt lat="46.28666" lon="5.30774">
        <ele>254.8</ele>
        <time>2022-07-19T05:34:52Z</time>
      </trkpt>
      <trkpt lat="46.28661" lon="5.30848">
        <ele>255.4</ele>
        <time>2022-07-19T05:35:00Z</time>
      </trkpt>
      <trkpt lat="46.28661" lon="5.30857">
        <ele>255.6</ele>
        <time>2022-07-19T05:35:01Z</time>
      </trkpt>
      <trkpt lat="46.2866" lon="5.30885">
        <ele>256</ele>
        <time>2022-07-19T05:35:04Z</time>
      </trkpt>
      <trkpt lat="46.28658" lon="5.30912">
        <ele>256.4</ele>
        <time>2022-07-19T05:35:07Z</time>
      </trkpt>
      <trkpt lat="46.28656" lon="5.30949">
        <ele>257</ele>
        <time>2022-07-19T05:35:11Z</time>
      </trkpt>
      <trkpt lat="46.28653" lon="5.31005">
        <ele>257.6</ele>
        <time>2022-07-19T05:35:17Z</time>
      </trkpt>
      <trkpt lat="46.28651" lon="5.31033">
        <ele>257.6</ele>
        <time>2022-07-19T05:35:20Z</time>
      </trkpt>
      <trkpt lat="46.2865" lon="5.31102">
        <ele>258</ele>
        <time>2022-07-19T05:35:27Z</time>
      </trkpt>
      <trkpt lat="46.28649" lon="5.31161">
        <ele>258</ele>
        <time>2022-07-19T05:35:33Z</time>
      </trkpt>
      <trkpt lat="46.28648" lon="5.31226">
        <ele>257.6</ele>
        <time>2022-07-19T05:35:39Z</time>
      </trkpt>
      <trkpt lat="46.28646" lon="5.31301">
        <ele>257.2</ele>
        <time>2022-07-19T05:35:46Z</time>
      </trkpt>
      <trkpt lat="46.28643" lon="5.31348">
        <ele>257.4</ele>
        <time>2022-07-19T05:35:51Z</time>
      </trkpt>
      <trkpt lat="46.2864" lon="5.31366">
        <ele>257.8</ele>
        <time>2022-07-19T05:35:53Z</time>
      </trkpt>
      <trkpt lat="46.28633" lon="5.31391">
        <ele>258.4</ele>
        <time>2022-07-19T05:35:56Z</time>
      </trkpt>
      <trkpt lat="46.2863" lon="5.314">
        <ele>258.6</ele>
        <time>2022-07-19T05:35:57Z</time>
      </trkpt>
      <trkpt lat="46.28624" lon="5.31416">
        <ele>258.8</ele>
        <time>2022-07-19T05:35:59Z</time>
      </trkpt>
      <trkpt lat="46.28617" lon="5.31432">
        <ele>259</ele>
        <time>2022-07-19T05:36:01Z</time>
      </trkpt>
      <trkpt lat="46.28612" lon="5.3144">
        <ele>259</ele>
        <time>2022-07-19T05:36:02Z</time>
      </trkpt>
      <trkpt lat="46.28571" lon="5.31496">
        <ele>259.6</ele>
        <time>2022-07-19T05:36:10Z</time>
      </trkpt>
      <trkpt lat="46.28547" lon="5.31535">
        <ele>259.8</ele>
        <time>2022-07-19T05:36:15Z</time>
      </trkpt>
      <trkpt lat="46.28543" lon="5.31543">
        <ele>259.8</ele>
        <time>2022-07-19T05:36:16Z</time>
      </trkpt>
      <trkpt lat="46.28534" lon="5.31558">
        <ele>259.8</ele>
        <time>2022-07-19T05:36:18Z</time>
      </trkpt>
      <trkpt lat="46.28526" lon="5.31573">
        <ele>259.8</ele>
        <time>2022-07-19T05:36:20Z</time>
      </trkpt>
      <trkpt lat="46.2851" lon="5.31607">
        <ele>259.8</ele>
        <time>2022-07-19T05:36:24Z</time>
      </trkpt>
      <trkpt lat="46.28505" lon="5.31615">
        <ele>259.8</ele>
        <time>2022-07-19T05:36:25Z</time>
      </trkpt>
      <trkpt lat="46.28501" lon="5.31623">
        <ele>259.8</ele>
        <time>2022-07-19T05:36:26Z</time>
      </trkpt>
      <trkpt lat="46.2849" lon="5.3165">
        <ele>259.8</ele>
        <time>2022-07-19T05:36:29Z</time>
      </trkpt>
      <trkpt lat="46.28462" lon="5.31712">
        <ele>260</ele>
        <time>2022-07-19T05:36:36Z</time>
      </trkpt>
      <trkpt lat="46.28432" lon="5.3178">
        <ele>260</ele>
        <time>2022-07-19T05:36:44Z</time>
      </trkpt>
      <trkpt lat="46.28428" lon="5.31788">
        <ele>260</ele>
        <time>2022-07-19T05:36:45Z</time>
      </trkpt>
      <trkpt lat="46.28407" lon="5.31839">
        <ele>260.4</ele>
        <time>2022-07-19T05:36:51Z</time>
      </trkpt>
      <trkpt lat="46.28399" lon="5.31855">
        <ele>260.6</ele>
        <time>2022-07-19T05:36:53Z</time>
      </trkpt>
      <trkpt lat="46.2838" lon="5.31908">
        <ele>260.8</ele>
        <time>2022-07-19T05:36:59Z</time>
      </trkpt>
      <trkpt lat="46.28353" lon="5.31981">
        <ele>260.8</ele>
        <time>2022-07-19T05:37:07Z</time>
      </trkpt>
      <trkpt lat="46.28323" lon="5.32061">
        <ele>260</ele>
        <time>2022-07-19T05:37:15Z</time>
      </trkpt>
      <trkpt lat="46.28311" lon="5.32094">
        <ele>259.4</ele>
        <time>2022-07-19T05:37:18Z</time>
      </trkpt>
      <trkpt lat="46.28303" lon="5.32118">
        <ele>258.8</ele>
        <time>2022-07-19T05:37:20Z</time>
      </trkpt>
      <trkpt lat="46.28292" lon="5.32156">
        <ele>258.2</ele>
        <time>2022-07-19T05:37:23Z</time>
      </trkpt>
      <trkpt lat="46.28284" lon="5.32182">
        <ele>257</ele>
        <time>2022-07-19T05:37:25Z</time>
      </trkpt>
      <trkpt lat="46.28278" lon="5.32208">
        <ele>255.8</ele>
        <time>2022-07-19T05:37:27Z</time>
      </trkpt>
      <trkpt lat="46.28268" lon="5.32271">
        <ele>254.8</ele>
        <time>2022-07-19T05:37:32Z</time>
      </trkpt>
      <trkpt lat="46.28267" lon="5.32283">
        <ele>254.8</ele>
        <time>2022-07-19T05:37:33Z</time>
      </trkpt>
      <trkpt lat="46.28262" lon="5.32351">
        <ele>255</ele>
        <time>2022-07-19T05:37:39Z</time>
      </trkpt>
      <trkpt lat="46.28259" lon="5.32434">
        <ele>255</ele>
        <time>2022-07-19T05:37:46Z</time>
      </trkpt>
      <trkpt lat="46.28258" lon="5.3247">
        <ele>254.8</ele>
        <time>2022-07-19T05:37:49Z</time>
      </trkpt>
      <trkpt lat="46.28252" lon="5.32549">
        <ele>254</ele>
        <time>2022-07-19T05:37:56Z</time>
      </trkpt>
      <trkpt lat="46.2825" lon="5.3256">
        <ele>254</ele>
        <time>2022-07-19T05:37:57Z</time>
      </trkpt>
      <trkpt lat="46.28238" lon="5.32638">
        <ele>254.2</ele>
        <time>2022-07-19T05:38:04Z</time>
      </trkpt>
      <trkpt lat="46.28236" lon="5.32649">
        <ele>254.2</ele>
        <time>2022-07-19T05:38:05Z</time>
      </trkpt>
      <trkpt lat="46.2822" lon="5.32726">
        <ele>254.2</ele>
        <time>2022-07-19T05:38:13Z</time>
      </trkpt>
      <trkpt lat="46.28206" lon="5.32787">
        <ele>255.8</ele>
        <time>2022-07-19T05:38:20Z</time>
      </trkpt>
      <trkpt lat="46.28201" lon="5.32809">
        <ele>257</ele>
        <time>2022-07-19T05:38:23Z</time>
      </trkpt>
      <trkpt lat="46.28194" lon="5.32839">
        <ele>258.2</ele>
        <time>2022-07-19T05:38:27Z</time>
      </trkpt>
      <trkpt lat="46.28192" lon="5.32847">
        <ele>258.4</ele>
        <time>2022-07-19T05:38:28Z</time>
      </trkpt>
      <trkpt lat="46.28188" lon="5.32869">
        <ele>259.2</ele>
        <time>2022-07-19T05:38:31Z</time>
      </trkpt>
      <trkpt lat="46.28183" lon="5.32897">
        <ele>260.2</ele>
        <time>2022-07-19T05:38:35Z</time>
      </trkpt>
      <trkpt lat="46.28181" lon="5.32911">
        <ele>260.6</ele>
        <time>2022-07-19T05:38:37Z</time>
      </trkpt>
      <trkpt lat="46.2818" lon="5.32926">
        <ele>261.4</ele>
        <time>2022-07-19T05:38:39Z</time>
      </trkpt>
      <trkpt lat="46.28176" lon="5.32972">
        <ele>262.4</ele>
        <time>2022-07-19T05:38:45Z</time>
      </trkpt>
      <trkpt lat="46.28175" lon="5.32995">
        <ele>262.8</ele>
        <time>2022-07-19T05:38:48Z</time>
      </trkpt>
      <trkpt lat="46.28169" lon="5.3305">
        <ele>263.4</ele>
        <time>2022-07-19T05:38:55Z</time>
      </trkpt>
      <trkpt lat="46.28167" lon="5.33074">
        <ele>263.6</ele>
        <time>2022-07-19T05:38:58Z</time>
      </trkpt>
      <trkpt lat="46.28159" lon="5.33151">
        <ele>264.4</ele>
        <time>2022-07-19T05:39:07Z</time>
      </trkpt>
      <trkpt lat="46.28158" lon="5.3316">
        <ele>264.4</ele>
        <time>2022-07-19T05:39:08Z</time>
      </trkpt>
      <trkpt lat="46.28157" lon="5.33169">
        <ele>264.4</ele>
        <time>2022-07-19T05:39:09Z</time>
      </trkpt>
      <trkpt lat="46.28151" lon="5.33255">
        <ele>264.6</ele>
        <time>2022-07-19T05:39:18Z</time>
      </trkpt>
      <trkpt lat="46.28152" lon="5.33302">
        <ele>264.6</ele>
        <time>2022-07-19T05:39:23Z</time>
      </trkpt>
      <trkpt lat="46.28153" lon="5.33358">
        <ele>264.8</ele>
        <time>2022-07-19T05:39:29Z</time>
      </trkpt>
      <trkpt lat="46.28157" lon="5.33439">
        <ele>265.4</ele>
        <time>2022-07-19T05:39:38Z</time>
      </trkpt>
      <trkpt lat="46.28158" lon="5.33448">
        <ele>265.4</ele>
        <time>2022-07-19T05:39:39Z</time>
      </trkpt>
      <trkpt lat="46.28162" lon="5.33529">
        <ele>266.4</ele>
        <time>2022-07-19T05:39:48Z</time>
      </trkpt>
      <trkpt lat="46.28163" lon="5.33557">
        <ele>266.6</ele>
        <time>2022-07-19T05:39:51Z</time>
      </trkpt>
      <trkpt lat="46.28166" lon="5.33584">
        <ele>266.8</ele>
        <time>2022-07-19T05:39:54Z</time>
      </trkpt>
      <trkpt lat="46.28166" lon="5.33603">
        <ele>267</ele>
        <time>2022-07-19T05:39:56Z</time>
      </trkpt>
      <trkpt lat="46.28173" lon="5.33675">
        <ele>267.2</ele>
        <time>2022-07-19T05:40:04Z</time>
      </trkpt>
      <trkpt lat="46.28169" lon="5.33689">
        <ele>267.2</ele>
        <time>2022-07-19T05:40:06Z</time>
      </trkpt>
      <trkpt lat="46.28164" lon="5.33693">
        <ele>267.4</ele>
        <time>2022-07-19T05:40:07Z</time>
      </trkpt>
      <trkpt lat="46.28158" lon="5.33695">
        <ele>267.4</ele>
        <time>2022-07-19T05:40:08Z</time>
      </trkpt>
      <trkpt lat="46.28145" lon="5.33691">
        <ele>267.4</ele>
        <time>2022-07-19T05:40:10Z</time>
      </trkpt>
      <trkpt lat="46.28139" lon="5.33687">
        <ele>267.4</ele>
        <time>2022-07-19T05:40:11Z</time>
      </trkpt>
      <trkpt lat="46.28114" lon="5.33674">
        <ele>267</ele>
        <time>2022-07-19T05:40:15Z</time>
      </trkpt>
      <trkpt lat="46.28058" lon="5.33646">
        <ele>266.8</ele>
        <time>2022-07-19T05:40:22Z</time>
      </trkpt>
      <trkpt lat="46.28052" lon="5.33643">
        <ele>266.6</ele>
        <time>2022-07-19T05:40:23Z</time>
      </trkpt>
      <trkpt lat="46.28" lon="5.33619">
        <ele>265.8</ele>
        <time>2022-07-19T05:40:30Z</time>
      </trkpt>
      <trkpt lat="46.27985" lon="5.33613">
        <ele>265.6</ele>
        <time>2022-07-19T05:40:32Z</time>
      </trkpt>
      <trkpt lat="46.27929" lon="5.33583">
        <ele>266</ele>
        <time>2022-07-19T05:40:40Z</time>
      </trkpt>
      <trkpt lat="46.27878" lon="5.33561">
        <ele>265.6</ele>
        <time>2022-07-19T05:40:47Z</time>
      </trkpt>
      <trkpt lat="46.27829" lon="5.33537">
        <ele>265.4</ele>
        <time>2022-07-19T05:40:54Z</time>
      </trkpt>
      <trkpt lat="46.27815" lon="5.3353">
        <ele>265.2</ele>
        <time>2022-07-19T05:40:56Z</time>
      </trkpt>
      <trkpt lat="46.27808" lon="5.33526">
        <ele>265.2</ele>
        <time>2022-07-19T05:40:57Z</time>
      </trkpt>
      <trkpt lat="46.27796" lon="5.33513">
        <ele>265.2</ele>
        <time>2022-07-19T05:40:59Z</time>
      </trkpt>
      <trkpt lat="46.27756" lon="5.3345">
        <ele>264.8</ele>
        <time>2022-07-19T05:41:07Z</time>
      </trkpt>
      <trkpt lat="46.27751" lon="5.33443">
        <ele>264.8</ele>
        <time>2022-07-19T05:41:08Z</time>
      </trkpt>
      <trkpt lat="46.27713" lon="5.33391">
        <ele>264.6</ele>
        <time>2022-07-19T05:41:15Z</time>
      </trkpt>
      <trkpt lat="46.2768" lon="5.33368">
        <ele>264.8</ele>
        <time>2022-07-19T05:41:20Z</time>
      </trkpt>
      <trkpt lat="46.27639" lon="5.3335">
        <ele>264.6</ele>
        <time>2022-07-19T05:41:26Z</time>
      </trkpt>
      <trkpt lat="46.27605" lon="5.33332">
        <ele>264.4</ele>
        <time>2022-07-19T05:41:31Z</time>
      </trkpt>
      <trkpt lat="46.27561" lon="5.33284">
        <ele>264.4</ele>
        <time>2022-07-19T05:41:39Z</time>
      </trkpt>
      <trkpt lat="46.27522" lon="5.33236">
        <ele>264.4</ele>
        <time>2022-07-19T05:41:46Z</time>
      </trkpt>
      <trkpt lat="46.27506" lon="5.33215">
        <ele>264.4</ele>
        <time>2022-07-19T05:41:49Z</time>
      </trkpt>
      <trkpt lat="46.27484" lon="5.33175">
        <ele>264.2</ele>
        <time>2022-07-19T05:41:54Z</time>
      </trkpt>
      <trkpt lat="46.2748" lon="5.33166">
        <ele>264.2</ele>
        <time>2022-07-19T05:41:55Z</time>
      </trkpt>
      <trkpt lat="46.27446" lon="5.33094">
        <ele>264</ele>
        <time>2022-07-19T05:42:03Z</time>
      </trkpt>
      <trkpt lat="46.27442" lon="5.33085">
        <ele>264</ele>
        <time>2022-07-19T05:42:04Z</time>
      </trkpt>
      <trkpt lat="46.2741" lon="5.33019">
        <ele>263.4</ele>
        <time>2022-07-19T05:42:11Z</time>
      </trkpt>
      <trkpt lat="46.27406" lon="5.33012">
        <ele>263.2</ele>
        <time>2022-07-19T05:42:12Z</time>
      </trkpt>
      <trkpt lat="46.27397" lon="5.32992">
        <ele>263</ele>
        <time>2022-07-19T05:42:14Z</time>
      </trkpt>
      <trkpt lat="46.27391" lon="5.32973">
        <ele>262.6</ele>
        <time>2022-07-19T05:42:16Z</time>
      </trkpt>
      <trkpt lat="46.27389" lon="5.32963">
        <ele>262.4</ele>
        <time>2022-07-19T05:42:17Z</time>
      </trkpt>
      <trkpt lat="46.27384" lon="5.32942">
        <ele>262.2</ele>
        <time>2022-07-19T05:42:19Z</time>
      </trkpt>
      <trkpt lat="46.27373" lon="5.32904">
        <ele>262</ele>
        <time>2022-07-19T05:42:23Z</time>
      </trkpt>
      <trkpt lat="46.27366" lon="5.32888">
        <ele>261.6</ele>
        <time>2022-07-19T05:42:25Z</time>
      </trkpt>
      <trkpt lat="46.27355" lon="5.32875">
        <ele>261.4</ele>
        <time>2022-07-19T05:42:27Z</time>
      </trkpt>
      <trkpt lat="46.27334" lon="5.32866">
        <ele>261</ele>
        <time>2022-07-19T05:42:30Z</time>
      </trkpt>
      <trkpt lat="46.27294" lon="5.32857">
        <ele>260</ele>
        <time>2022-07-19T05:42:35Z</time>
      </trkpt>
      <trkpt lat="46.27287" lon="5.32856">
        <ele>259.8</ele>
        <time>2022-07-19T05:42:36Z</time>
      </trkpt>
      <trkpt lat="46.27279" lon="5.32854">
        <ele>259.6</ele>
        <time>2022-07-19T05:42:37Z</time>
      </trkpt>
      <trkpt lat="46.27248" lon="5.32854">
        <ele>259</ele>
        <time>2022-07-19T05:42:41Z</time>
      </trkpt>
      <trkpt lat="46.27248" lon="5.32854">
        <ele>258.8</ele>
        <time>2022-07-19T05:42:42Z</time>
      </trkpt>
      <trkpt lat="46.27236" lon="5.3286">
        <ele>258.8</ele>
        <time>2022-07-19T05:42:43Z</time>
      </trkpt>
      <trkpt lat="46.27229" lon="5.32867">
        <ele>258.4</ele>
        <time>2022-07-19T05:42:44Z</time>
      </trkpt>
      <trkpt lat="46.27223" lon="5.32875">
        <ele>258.4</ele>
        <time>2022-07-19T05:42:45Z</time>
      </trkpt>
      <trkpt lat="46.27209" lon="5.32896">
        <ele>257.8</ele>
        <time>2022-07-19T05:42:47Z</time>
      </trkpt>
      <trkpt lat="46.27203" lon="5.32904">
        <ele>257.8</ele>
        <time>2022-07-19T05:42:48Z</time>
      </trkpt>
      <trkpt lat="46.27185" lon="5.32928">
        <ele>257.2</ele>
        <time>2022-07-19T05:42:51Z</time>
      </trkpt>
      <trkpt lat="46.27175" lon="5.32945">
        <ele>257.2</ele>
        <time>2022-07-19T05:42:53Z</time>
      </trkpt>
      <trkpt lat="46.2716" lon="5.32974">
        <ele>256.8</ele>
        <time>2022-07-19T05:42:56Z</time>
      </trkpt>
      <trkpt lat="46.27134" lon="5.33024">
        <ele>256.2</ele>
        <time>2022-07-19T05:43:01Z</time>
      </trkpt>
      <trkpt lat="46.27124" lon="5.33046">
        <ele>255.6</ele>
        <time>2022-07-19T05:43:03Z</time>
      </trkpt>
      <trkpt lat="46.27106" lon="5.33081">
        <ele>254.8</ele>
        <time>2022-07-19T05:43:06Z</time>
      </trkpt>
      <trkpt lat="46.271" lon="5.33093">
        <ele>254.4</ele>
        <time>2022-07-19T05:43:07Z</time>
      </trkpt>
      <trkpt lat="46.27088" lon="5.33117">
        <ele>253.2</ele>
        <time>2022-07-19T05:43:09Z</time>
      </trkpt>
      <trkpt lat="46.27076" lon="5.33142">
        <ele>251.8</ele>
        <time>2022-07-19T05:43:11Z</time>
      </trkpt>
      <trkpt lat="46.27069" lon="5.33153">
        <ele>251</ele>
        <time>2022-07-19T05:43:12Z</time>
      </trkpt>
      <trkpt lat="46.27061" lon="5.33164">
        <ele>250.6</ele>
        <time>2022-07-19T05:43:13Z</time>
      </trkpt>
      <trkpt lat="46.27052" lon="5.33171">
        <ele>250</ele>
        <time>2022-07-19T05:43:14Z</time>
      </trkpt>
      <trkpt lat="46.27041" lon="5.33176">
        <ele>249.8</ele>
        <time>2022-07-19T05:43:15Z</time>
      </trkpt>
      <trkpt lat="46.2703" lon="5.3318">
        <ele>249</ele>
        <time>2022-07-19T05:43:16Z</time>
      </trkpt>
      <trkpt lat="46.27009" lon="5.33188">
        <ele>247.6</ele>
        <time>2022-07-19T05:43:18Z</time>
      </trkpt>
      <trkpt lat="46.26988" lon="5.33195">
        <ele>246.4</ele>
        <time>2022-07-19T05:43:20Z</time>
      </trkpt>
      <trkpt lat="46.26968" lon="5.33203">
        <ele>245.6</ele>
        <time>2022-07-19T05:43:22Z</time>
      </trkpt>
      <trkpt lat="46.26959" lon="5.33207">
        <ele>245.2</ele>
        <time>2022-07-19T05:43:23Z</time>
      </trkpt>
      <trkpt lat="46.26922" lon="5.33221">
        <ele>244.8</ele>
        <time>2022-07-19T05:43:27Z</time>
      </trkpt>
      <trkpt lat="46.26862" lon="5.33245">
        <ele>245</ele>
        <time>2022-07-19T05:43:34Z</time>
      </trkpt>
      <trkpt lat="46.26828" lon="5.33258">
        <ele>246</ele>
        <time>2022-07-19T05:43:39Z</time>
      </trkpt>
      <trkpt lat="46.26821" lon="5.33261">
        <ele>246.6</ele>
        <time>2022-07-19T05:43:40Z</time>
      </trkpt>
      <trkpt lat="46.26801" lon="5.33268">
        <ele>247.6</ele>
        <time>2022-07-19T05:43:43Z</time>
      </trkpt>
      <trkpt lat="46.26783" lon="5.33276">
        <ele>248.6</ele>
        <time>2022-07-19T05:43:46Z</time>
      </trkpt>
      <trkpt lat="46.26776" lon="5.33279">
        <ele>248.8</ele>
        <time>2022-07-19T05:43:47Z</time>
      </trkpt>
      <trkpt lat="46.26746" lon="5.3329">
        <ele>249.8</ele>
        <time>2022-07-19T05:43:52Z</time>
      </trkpt>
      <trkpt lat="46.26734" lon="5.33294">
        <ele>250.4</ele>
        <time>2022-07-19T05:43:54Z</time>
      </trkpt>
      <trkpt lat="46.26717" lon="5.333">
        <ele>250.8</ele>
        <time>2022-07-19T05:43:57Z</time>
      </trkpt>
      <trkpt lat="46.26703" lon="5.33306">
        <ele>251.8</ele>
        <time>2022-07-19T05:44:00Z</time>
      </trkpt>
      <trkpt lat="46.267" lon="5.33308">
        <ele>252.2</ele>
        <time>2022-07-19T05:44:01Z</time>
      </trkpt>
      <trkpt lat="46.26696" lon="5.33306">
        <ele>252.4</ele>
        <time>2022-07-19T05:44:02Z</time>
      </trkpt>
      <trkpt lat="46.26694" lon="5.33301">
        <ele>252.6</ele>
        <time>2022-07-19T05:44:03Z</time>
      </trkpt>
      <trkpt lat="46.26686" lon="5.3328">
        <ele>253</ele>
        <time>2022-07-19T05:44:06Z</time>
      </trkpt>
      <trkpt lat="46.26682" lon="5.33274">
        <ele>253</ele>
        <time>2022-07-19T05:44:07Z</time>
      </trkpt>
      <trkpt lat="46.26662" lon="5.33243">
        <ele>252.8</ele>
        <time>2022-07-19T05:44:11Z</time>
      </trkpt>
      <trkpt lat="46.2665" lon="5.33229">
        <ele>252.4</ele>
        <time>2022-07-19T05:44:13Z</time>
      </trkpt>
      <trkpt lat="46.26636" lon="5.33221">
        <ele>252</ele>
        <time>2022-07-19T05:44:15Z</time>
      </trkpt>
      <trkpt lat="46.26605" lon="5.33212">
        <ele>251</ele>
        <time>2022-07-19T05:44:19Z</time>
      </trkpt>
      <trkpt lat="46.26597" lon="5.33211">
        <ele>250.8</ele>
        <time>2022-07-19T05:44:20Z</time>
      </trkpt>
      <trkpt lat="46.26548" lon="5.33206">
        <ele>249.6</ele>
        <time>2022-07-19T05:44:26Z</time>
      </trkpt>
      <trkpt lat="46.26531" lon="5.33208">
        <ele>249.2</ele>
        <time>2022-07-19T05:44:28Z</time>
      </trkpt>
      <trkpt lat="46.26523" lon="5.33207">
        <ele>248.8</ele>
        <time>2022-07-19T05:44:29Z</time>
      </trkpt>
      <trkpt lat="46.26505" lon="5.33199">
        <ele>248.4</ele>
        <time>2022-07-19T05:44:31Z</time>
      </trkpt>
      <trkpt lat="46.26492" lon="5.33182">
        <ele>247.8</ele>
        <time>2022-07-19T05:44:33Z</time>
      </trkpt>
      <trkpt lat="46.26483" lon="5.33158">
        <ele>247.2</ele>
        <time>2022-07-19T05:44:35Z</time>
      </trkpt>
      <trkpt lat="46.26472" lon="5.33125">
        <ele>246.6</ele>
        <time>2022-07-19T05:44:38Z</time>
      </trkpt>
      <trkpt lat="46.26445" lon="5.33056">
        <ele>246.4</ele>
        <time>2022-07-19T05:44:45Z</time>
      </trkpt>
      <trkpt lat="46.26443" lon="5.33048">
        <ele>246.4</ele>
        <time>2022-07-19T05:44:46Z</time>
      </trkpt>
      <trkpt lat="46.26436" lon="5.33018">
        <ele>246.6</ele>
        <time>2022-07-19T05:44:49Z</time>
      </trkpt>
      <trkpt lat="46.26436" lon="5.33009">
        <ele>246.8</ele>
        <time>2022-07-19T05:44:50Z</time>
      </trkpt>
      <trkpt lat="46.26432" lon="5.32968">
        <ele>247.4</ele>
        <time>2022-07-19T05:44:55Z</time>
      </trkpt>
      <trkpt lat="46.26427" lon="5.32947">
        <ele>249</ele>
        <time>2022-07-19T05:44:58Z</time>
      </trkpt>
      <trkpt lat="46.26421" lon="5.32935">
        <ele>249.8</ele>
        <time>2022-07-19T05:45:00Z</time>
      </trkpt>
      <trkpt lat="46.26418" lon="5.32931">
        <ele>250</ele>
        <time>2022-07-19T05:45:01Z</time>
      </trkpt>
      <trkpt lat="46.26408" lon="5.32913">
        <ele>251.2</ele>
        <time>2022-07-19T05:45:04Z</time>
      </trkpt>
      <trkpt lat="46.26399" lon="5.32898">
        <ele>252.2</ele>
        <time>2022-07-19T05:45:07Z</time>
      </trkpt>
      <trkpt lat="46.26397" lon="5.32893">
        <ele>252.4</ele>
        <time>2022-07-19T05:45:08Z</time>
      </trkpt>
      <trkpt lat="46.26392" lon="5.32878">
        <ele>253</ele>
        <time>2022-07-19T05:45:11Z</time>
      </trkpt>
      <trkpt lat="46.26391" lon="5.32871">
        <ele>253.4</ele>
        <time>2022-07-19T05:45:12Z</time>
      </trkpt>
      <trkpt lat="46.26389" lon="5.32866">
        <ele>253.8</ele>
        <time>2022-07-19T05:45:13Z</time>
      </trkpt>
      <trkpt lat="46.26386" lon="5.32856">
        <ele>254.8</ele>
        <time>2022-07-19T05:45:15Z</time>
      </trkpt>
      <trkpt lat="46.26384" lon="5.32852">
        <ele>254.8</ele>
        <time>2022-07-19T05:45:16Z</time>
      </trkpt>
      <trkpt lat="46.26378" lon="5.32836">
        <ele>256.2</ele>
        <time>2022-07-19T05:45:19Z</time>
      </trkpt>
      <trkpt lat="46.26371" lon="5.32814">
        <ele>257</ele>
        <time>2022-07-19T05:45:23Z</time>
      </trkpt>
      <trkpt lat="46.26369" lon="5.32809">
        <ele>257.4</ele>
        <time>2022-07-19T05:45:24Z</time>
      </trkpt>
      <trkpt lat="46.26366" lon="5.32803">
        <ele>257.4</ele>
        <time>2022-07-19T05:45:25Z</time>
      </trkpt>
      <trkpt lat="46.26352" lon="5.32776">
        <ele>258</ele>
        <time>2022-07-19T05:45:30Z</time>
      </trkpt>
      <trkpt lat="46.26346" lon="5.32767">
        <ele>258.4</ele>
        <time>2022-07-19T05:45:32Z</time>
      </trkpt>
      <trkpt lat="46.26324" lon="5.32739">
        <ele>259.6</ele>
        <time>2022-07-19T05:45:38Z</time>
      </trkpt>
      <trkpt lat="46.26317" lon="5.32733">
        <ele>260</ele>
        <time>2022-07-19T05:45:40Z</time>
      </trkpt>
      <trkpt lat="46.26312" lon="5.32731">
        <ele>260.2</ele>
        <time>2022-07-19T05:45:42Z</time>
      </trkpt>
      <trkpt lat="46.26306" lon="5.32732">
        <ele>260.4</ele>
        <time>2022-07-19T05:45:43Z</time>
      </trkpt>
      <trkpt lat="46.26286" lon="5.32738">
        <ele>260.4</ele>
        <time>2022-07-19T05:45:46Z</time>
      </trkpt>
      <trkpt lat="46.26248" lon="5.32738">
        <ele>260.6</ele>
        <time>2022-07-19T05:45:53Z</time>
      </trkpt>
      <trkpt lat="46.26243" lon="5.32738">
        <ele>260.6</ele>
        <time>2022-07-19T05:45:54Z</time>
      </trkpt>
      <trkpt lat="46.26208" lon="5.32738">
        <ele>261</ele>
        <time>2022-07-19T05:46:00Z</time>
      </trkpt>
      <trkpt lat="46.26172" lon="5.32742">
        <ele>261.8</ele>
        <time>2022-07-19T05:46:06Z</time>
      </trkpt>
      <trkpt lat="46.26148" lon="5.32745">
        <ele>261.8</ele>
        <time>2022-07-19T05:46:10Z</time>
      </trkpt>
      <trkpt lat="46.26101" lon="5.32752">
        <ele>261.6</ele>
        <time>2022-07-19T05:46:18Z</time>
      </trkpt>
      <trkpt lat="46.26089" lon="5.32756">
        <ele>261.6</ele>
        <time>2022-07-19T05:46:20Z</time>
      </trkpt>
      <trkpt lat="46.26049" lon="5.32767">
        <ele>261.8</ele>
        <time>2022-07-19T05:46:27Z</time>
      </trkpt>
      <trkpt lat="46.26012" lon="5.32787">
        <ele>262.6</ele>
        <time>2022-07-19T05:46:34Z</time>
      </trkpt>
      <trkpt lat="46.26001" lon="5.32793">
        <ele>262.8</ele>
        <time>2022-07-19T05:46:36Z</time>
      </trkpt>
      <trkpt lat="46.25969" lon="5.32813">
        <ele>263</ele>
        <time>2022-07-19T05:46:43Z</time>
      </trkpt>
      <trkpt lat="46.25925" lon="5.32843">
        <ele>263</ele>
        <time>2022-07-19T05:46:51Z</time>
      </trkpt>
      <trkpt lat="46.25917" lon="5.32848">
        <ele>263</ele>
        <time>2022-07-19T05:46:53Z</time>
      </trkpt>
      <trkpt lat="46.2591" lon="5.32851">
        <ele>263</ele>
        <time>2022-07-19T05:46:55Z</time>
      </trkpt>
      <trkpt lat="46.25907" lon="5.32854">
        <ele>263</ele>
        <time>2022-07-19T05:46:56Z</time>
      </trkpt>
      <trkpt lat="46.259" lon="5.32864">
        <ele>263</ele>
        <time>2022-07-19T05:46:58Z</time>
      </trkpt>
      <trkpt lat="46.25876" lon="5.32885">
        <ele>263</ele>
        <time>2022-07-19T05:47:03Z</time>
      </trkpt>
      <trkpt lat="46.25867" lon="5.32894">
        <ele>263</ele>
        <time>2022-07-19T05:47:05Z</time>
      </trkpt>
      <trkpt lat="46.25857" lon="5.32905">
        <ele>263</ele>
        <time>2022-07-19T05:47:07Z</time>
      </trkpt>
      <trkpt lat="46.25851" lon="5.32918">
        <ele>263</ele>
        <time>2022-07-19T05:47:09Z</time>
      </trkpt>
      <trkpt lat="46.25849" lon="5.32926">
        <ele>263</ele>
        <time>2022-07-19T05:47:10Z</time>
      </trkpt>
      <trkpt lat="46.25849" lon="5.32932">
        <ele>263.2</ele>
        <time>2022-07-19T05:47:11Z</time>
      </trkpt>
      <trkpt lat="46.2585" lon="5.32949">
        <ele>263.4</ele>
        <time>2022-07-19T05:47:13Z</time>
      </trkpt>
      <trkpt lat="46.2585" lon="5.32955">
        <ele>263.4</ele>
        <time>2022-07-19T05:47:14Z</time>
      </trkpt>
      <trkpt lat="46.25854" lon="5.32989">
        <ele>263.8</ele>
        <time>2022-07-19T05:47:18Z</time>
      </trkpt>
      <trkpt lat="46.25855" lon="5.33006">
        <ele>263.8</ele>
        <time>2022-07-19T05:47:20Z</time>
      </trkpt>
      <trkpt lat="46.25858" lon="5.33055">
        <ele>264.6</ele>
        <time>2022-07-19T05:47:26Z</time>
      </trkpt>
      <trkpt lat="46.25861" lon="5.33096">
        <ele>265.2</ele>
        <time>2022-07-19T05:47:31Z</time>
      </trkpt>
      <trkpt lat="46.25868" lon="5.33157">
        <ele>265.4</ele>
        <time>2022-07-19T05:47:38Z</time>
      </trkpt>
      <trkpt lat="46.25872" lon="5.33187">
        <ele>265.4</ele>
        <time>2022-07-19T05:47:41Z</time>
      </trkpt>
      <trkpt lat="46.25871" lon="5.33202">
        <ele>265.4</ele>
        <time>2022-07-19T05:47:43Z</time>
      </trkpt>
      <trkpt lat="46.25867" lon="5.3323">
        <ele>265.2</ele>
        <time>2022-07-19T05:47:45Z</time>
      </trkpt>
      <trkpt lat="46.25866" lon="5.33254">
        <ele>264.6</ele>
        <time>2022-07-19T05:47:47Z</time>
      </trkpt>
      <trkpt lat="46.25867" lon="5.33278">
        <ele>263.6</ele>
        <time>2022-07-19T05:47:49Z</time>
      </trkpt>
      <trkpt lat="46.25868" lon="5.33291">
        <ele>262.4</ele>
        <time>2022-07-19T05:47:50Z</time>
      </trkpt>
      <trkpt lat="46.25869" lon="5.33317">
        <ele>261.4</ele>
        <time>2022-07-19T05:47:52Z</time>
      </trkpt>
      <trkpt lat="46.25866" lon="5.33344">
        <ele>260.2</ele>
        <time>2022-07-19T05:47:54Z</time>
      </trkpt>
      <trkpt lat="46.25861" lon="5.33356">
        <ele>259.4</ele>
        <time>2022-07-19T05:47:55Z</time>
      </trkpt>
      <trkpt lat="46.25854" lon="5.33366">
        <ele>259</ele>
        <time>2022-07-19T05:47:56Z</time>
      </trkpt>
      <trkpt lat="46.25838" lon="5.33381">
        <ele>258.4</ele>
        <time>2022-07-19T05:47:58Z</time>
      </trkpt>
      <trkpt lat="46.25822" lon="5.33396">
        <ele>257.8</ele>
        <time>2022-07-19T05:48:00Z</time>
      </trkpt>
      <trkpt lat="46.258" lon="5.33414">
        <ele>256.6</ele>
        <time>2022-07-19T05:48:03Z</time>
      </trkpt>
      <trkpt lat="46.25793" lon="5.33421">
        <ele>256.2</ele>
        <time>2022-07-19T05:48:04Z</time>
      </trkpt>
      <trkpt lat="46.25757" lon="5.33456">
        <ele>255.6</ele>
        <time>2022-07-19T05:48:09Z</time>
      </trkpt>
      <trkpt lat="46.25743" lon="5.33471">
        <ele>255.4</ele>
        <time>2022-07-19T05:48:11Z</time>
      </trkpt>
      <trkpt lat="46.25706" lon="5.33512">
        <ele>254.4</ele>
        <time>2022-07-19T05:48:16Z</time>
      </trkpt>
      <trkpt lat="46.2569" lon="5.33528">
        <ele>254</ele>
        <time>2022-07-19T05:48:18Z</time>
      </trkpt>
      <trkpt lat="46.25682" lon="5.33535">
        <ele>253.8</ele>
        <time>2022-07-19T05:48:19Z</time>
      </trkpt>
      <trkpt lat="46.25673" lon="5.33541">
        <ele>253.4</ele>
        <time>2022-07-19T05:48:20Z</time>
      </trkpt>
      <trkpt lat="46.25656" lon="5.33551">
        <ele>252.8</ele>
        <time>2022-07-19T05:48:22Z</time>
      </trkpt>
      <trkpt lat="46.25648" lon="5.33556">
        <ele>252.2</ele>
        <time>2022-07-19T05:48:23Z</time>
      </trkpt>
      <trkpt lat="46.25607" lon="5.33583">
        <ele>251.2</ele>
        <time>2022-07-19T05:48:28Z</time>
      </trkpt>
      <trkpt lat="46.25599" lon="5.33588">
        <ele>251</ele>
        <time>2022-07-19T05:48:29Z</time>
      </trkpt>
      <trkpt lat="46.25561" lon="5.33608">
        <ele>250.8</ele>
        <time>2022-07-19T05:48:34Z</time>
      </trkpt>
      <trkpt lat="46.2551" lon="5.33634">
        <ele>251.4</ele>
        <time>2022-07-19T05:48:41Z</time>
      </trkpt>
      <trkpt lat="46.25501" lon="5.3364">
        <ele>251.4</ele>
        <time>2022-07-19T05:48:42Z</time>
      </trkpt>
      <trkpt lat="46.25469" lon="5.33658">
        <ele>251.8</ele>
        <time>2022-07-19T05:48:47Z</time>
      </trkpt>
      <trkpt lat="46.2542" lon="5.3368">
        <ele>252.2</ele>
        <time>2022-07-19T05:48:54Z</time>
      </trkpt>
      <trkpt lat="46.25406" lon="5.33688">
        <ele>252.2</ele>
        <time>2022-07-19T05:48:56Z</time>
      </trkpt>
      <trkpt lat="46.25364" lon="5.3371">
        <ele>252</ele>
        <time>2022-07-19T05:49:02Z</time>
      </trkpt>
      <trkpt lat="46.25331" lon="5.33724">
        <ele>252.2</ele>
        <time>2022-07-19T05:49:07Z</time>
      </trkpt>
      <trkpt lat="46.25325" lon="5.33727">
        <ele>252.2</ele>
        <time>2022-07-19T05:49:08Z</time>
      </trkpt>
      <trkpt lat="46.25302" lon="5.33749">
        <ele>252.6</ele>
        <time>2022-07-19T05:49:12Z</time>
      </trkpt>
      <trkpt lat="46.25297" lon="5.33756">
        <ele>252.8</ele>
        <time>2022-07-19T05:49:13Z</time>
      </trkpt>
      <trkpt lat="46.25283" lon="5.33778">
        <ele>253</ele>
        <time>2022-07-19T05:49:16Z</time>
      </trkpt>
      <trkpt lat="46.25262" lon="5.33818">
        <ele>253.4</ele>
        <time>2022-07-19T05:49:21Z</time>
      </trkpt>
      <trkpt lat="46.25238" lon="5.33872">
        <ele>253.8</ele>
        <time>2022-07-19T05:49:28Z</time>
      </trkpt>
      <trkpt lat="46.25228" lon="5.33893">
        <ele>254</ele>
        <time>2022-07-19T05:49:31Z</time>
      </trkpt>
      <trkpt lat="46.2521" lon="5.33927">
        <ele>254.4</ele>
        <time>2022-07-19T05:49:36Z</time>
      </trkpt>
      <trkpt lat="46.252" lon="5.33956">
        <ele>255</ele>
        <time>2022-07-19T05:49:40Z</time>
      </trkpt>
      <trkpt lat="46.25198" lon="5.33967">
        <ele>255.2</ele>
        <time>2022-07-19T05:49:41Z</time>
      </trkpt>
      <trkpt lat="46.25191" lon="5.33987">
        <ele>255.8</ele>
        <time>2022-07-19T05:49:44Z</time>
      </trkpt>
      <trkpt lat="46.25187" lon="5.33995">
        <ele>255.8</ele>
        <time>2022-07-19T05:49:45Z</time>
      </trkpt>
      <trkpt lat="46.2518" lon="5.34004">
        <ele>255.8</ele>
        <time>2022-07-19T05:49:46Z</time>
      </trkpt>
      <trkpt lat="46.25167" lon="5.34014">
        <ele>255.8</ele>
        <time>2022-07-19T05:49:48Z</time>
      </trkpt>
      <trkpt lat="46.25162" lon="5.34018">
        <ele>255.8</ele>
        <time>2022-07-19T05:49:49Z</time>
      </trkpt>
      <trkpt lat="46.25156" lon="5.34023">
        <ele>255.8</ele>
        <time>2022-07-19T05:49:50Z</time>
      </trkpt>
      <trkpt lat="46.25146" lon="5.34036">
        <ele>255.8</ele>
        <time>2022-07-19T05:49:52Z</time>
      </trkpt>
      <trkpt lat="46.25142" lon="5.34043">
        <ele>255.8</ele>
        <time>2022-07-19T05:49:53Z</time>
      </trkpt>
      <trkpt lat="46.25137" lon="5.34052">
        <ele>255.8</ele>
        <time>2022-07-19T05:49:54Z</time>
      </trkpt>
      <trkpt lat="46.2513" lon="5.34077">
        <ele>255.8</ele>
        <time>2022-07-19T05:49:57Z</time>
      </trkpt>
      <trkpt lat="46.2511" lon="5.34142">
        <ele>256</ele>
        <time>2022-07-19T05:50:04Z</time>
      </trkpt>
      <trkpt lat="46.25093" lon="5.34182">
        <ele>256.2</ele>
        <time>2022-07-19T05:50:09Z</time>
      </trkpt>
      <trkpt lat="46.25081" lon="5.34213">
        <ele>256.4</ele>
        <time>2022-07-19T05:50:13Z</time>
      </trkpt>
      <trkpt lat="46.25058" lon="5.34278">
        <ele>256.8</ele>
        <time>2022-07-19T05:50:21Z</time>
      </trkpt>
      <trkpt lat="46.25042" lon="5.34317">
        <ele>257.4</ele>
        <time>2022-07-19T05:50:26Z</time>
      </trkpt>
      <trkpt lat="46.25031" lon="5.34345">
        <ele>257.6</ele>
        <time>2022-07-19T05:50:30Z</time>
      </trkpt>
      <trkpt lat="46.25009" lon="5.34395">
        <ele>258.2</ele>
        <time>2022-07-19T05:50:37Z</time>
      </trkpt>
      <trkpt lat="46.25004" lon="5.344">
        <ele>258.4</ele>
        <time>2022-07-19T05:50:38Z</time>
      </trkpt>
      <trkpt lat="46.24999" lon="5.34404">
        <ele>258.4</ele>
        <time>2022-07-19T05:50:39Z</time>
      </trkpt>
      <trkpt lat="46.24987" lon="5.34406">
        <ele>258.6</ele>
        <time>2022-07-19T05:50:41Z</time>
      </trkpt>
      <trkpt lat="46.24967" lon="5.34397">
        <ele>258.8</ele>
        <time>2022-07-19T05:50:45Z</time>
      </trkpt>
      <trkpt lat="46.24954" lon="5.34398">
        <ele>259</ele>
        <time>2022-07-19T05:50:47Z</time>
      </trkpt>
      <trkpt lat="46.24948" lon="5.34402">
        <ele>259.2</ele>
        <time>2022-07-19T05:50:48Z</time>
      </trkpt>
      <trkpt lat="46.24944" lon="5.34405">
        <ele>259.4</ele>
        <time>2022-07-19T05:50:49Z</time>
      </trkpt>
      <trkpt lat="46.2494" lon="5.34409">
        <ele>259.6</ele>
        <time>2022-07-19T05:50:50Z</time>
      </trkpt>
      <trkpt lat="46.24927" lon="5.34425">
        <ele>260</ele>
        <time>2022-07-19T05:50:53Z</time>
      </trkpt>
      <trkpt lat="46.24913" lon="5.3444">
        <ele>260.6</ele>
        <time>2022-07-19T05:50:56Z</time>
      </trkpt>
      <trkpt lat="46.24905" lon="5.34451">
        <ele>260.6</ele>
        <time>2022-07-19T05:50:58Z</time>
      </trkpt>
      <trkpt lat="46.24897" lon="5.34461">
        <ele>260.8</ele>
        <time>2022-07-19T05:51:00Z</time>
      </trkpt>
      <trkpt lat="46.2487" lon="5.34495">
        <ele>261.6</ele>
        <time>2022-07-19T05:51:07Z</time>
      </trkpt>
      <trkpt lat="46.24866" lon="5.34498">
        <ele>261.8</ele>
        <time>2022-07-19T05:51:08Z</time>
      </trkpt>
      <trkpt lat="46.24861" lon="5.345">
        <ele>261.8</ele>
        <time>2022-07-19T05:51:09Z</time>
      </trkpt>
      <trkpt lat="46.24852" lon="5.34501">
        <ele>262</ele>
        <time>2022-07-19T05:51:11Z</time>
      </trkpt>
      <trkpt lat="46.24842" lon="5.34497">
        <ele>262.4</ele>
        <time>2022-07-19T05:51:13Z</time>
      </trkpt>
      <trkpt lat="46.24838" lon="5.34495">
        <ele>262.8</ele>
        <time>2022-07-19T05:51:14Z</time>
      </trkpt>
      <trkpt lat="46.24828" lon="5.3449">
        <ele>263.4</ele>
        <time>2022-07-19T05:51:16Z</time>
      </trkpt>
      <trkpt lat="46.24819" lon="5.34487">
        <ele>263.6</ele>
        <time>2022-07-19T05:51:18Z</time>
      </trkpt>
      <trkpt lat="46.24815" lon="5.34487">
        <ele>263.8</ele>
        <time>2022-07-19T05:51:19Z</time>
      </trkpt>
      <trkpt lat="46.2481" lon="5.34487">
        <ele>264</ele>
        <time>2022-07-19T05:51:20Z</time>
      </trkpt>
      <trkpt lat="46.24806" lon="5.34488">
        <ele>264.2</ele>
        <time>2022-07-19T05:51:21Z</time>
      </trkpt>
      <trkpt lat="46.24802" lon="5.34491">
        <ele>264.4</ele>
        <time>2022-07-19T05:51:22Z</time>
      </trkpt>
      <trkpt lat="46.2479" lon="5.345">
        <ele>265</ele>
        <time>2022-07-19T05:51:25Z</time>
      </trkpt>
      <trkpt lat="46.24781" lon="5.34506">
        <ele>265.4</ele>
        <time>2022-07-19T05:51:27Z</time>
      </trkpt>
      <trkpt lat="46.24771" lon="5.34511">
        <ele>265.8</ele>
        <time>2022-07-19T05:51:29Z</time>
      </trkpt>
      <trkpt lat="46.24766" lon="5.34512">
        <ele>266</ele>
        <time>2022-07-19T05:51:30Z</time>
      </trkpt>
      <trkpt lat="46.24762" lon="5.34511">
        <ele>266</ele>
        <time>2022-07-19T05:51:31Z</time>
      </trkpt>
      <trkpt lat="46.24757" lon="5.34509">
        <ele>266.2</ele>
        <time>2022-07-19T05:51:32Z</time>
      </trkpt>
      <trkpt lat="46.24754" lon="5.34506">
        <ele>266.4</ele>
        <time>2022-07-19T05:51:33Z</time>
      </trkpt>
      <trkpt lat="46.24748" lon="5.34501">
        <ele>266.6</ele>
        <time>2022-07-19T05:51:35Z</time>
      </trkpt>
      <trkpt lat="46.24745" lon="5.34501">
        <ele>266.6</ele>
        <time>2022-07-19T05:51:36Z</time>
      </trkpt>
      <trkpt lat="46.24738" lon="5.34505">
        <ele>267.2</ele>
        <time>2022-07-19T05:51:38Z</time>
      </trkpt>
      <trkpt lat="46.24735" lon="5.34509">
        <ele>267.2</ele>
        <time>2022-07-19T05:51:39Z</time>
      </trkpt>
      <trkpt lat="46.24733" lon="5.34515">
        <ele>267.4</ele>
        <time>2022-07-19T05:51:40Z</time>
      </trkpt>
      <trkpt lat="46.2472" lon="5.34552">
        <ele>267.4</ele>
        <time>2022-07-19T05:51:45Z</time>
      </trkpt>
      <trkpt lat="46.24701" lon="5.34601">
        <ele>267</ele>
        <time>2022-07-19T05:51:51Z</time>
      </trkpt>
      <trkpt lat="46.24676" lon="5.34658">
        <ele>267.2</ele>
        <time>2022-07-19T05:51:59Z</time>
      </trkpt>
      <trkpt lat="46.24667" lon="5.3468">
        <ele>267</ele>
        <time>2022-07-19T05:52:02Z</time>
      </trkpt>
      <trkpt lat="46.24657" lon="5.34712">
        <ele>266.6</ele>
        <time>2022-07-19T05:52:06Z</time>
      </trkpt>
      <trkpt lat="46.24647" lon="5.34768">
        <ele>266.8</ele>
        <time>2022-07-19T05:52:13Z</time>
      </trkpt>
      <trkpt lat="46.24643" lon="5.34809">
        <ele>266.8</ele>
        <time>2022-07-19T05:52:18Z</time>
      </trkpt>
      <trkpt lat="46.24639" lon="5.34822">
        <ele>267</ele>
        <time>2022-07-19T05:52:20Z</time>
      </trkpt>
      <trkpt lat="46.24623" lon="5.34878">
        <ele>268</ele>
        <time>2022-07-19T05:52:28Z</time>
      </trkpt>
      <trkpt lat="46.2461" lon="5.34916">
        <ele>268.4</ele>
        <time>2022-07-19T05:52:34Z</time>
      </trkpt>
      <trkpt lat="46.24609" lon="5.34923">
        <ele>268.6</ele>
        <time>2022-07-19T05:52:35Z</time>
      </trkpt>
      <trkpt lat="46.24604" lon="5.34944">
        <ele>269.6</ele>
        <time>2022-07-19T05:52:38Z</time>
      </trkpt>
      <trkpt lat="46.24597" lon="5.34971">
        <ele>270</ele>
        <time>2022-07-19T05:52:42Z</time>
      </trkpt>
      <trkpt lat="46.24578" lon="5.35021">
        <ele>270.6</ele>
        <time>2022-07-19T05:52:49Z</time>
      </trkpt>
      <trkpt lat="46.24551" lon="5.35069">
        <ele>270.4</ele>
        <time>2022-07-19T05:52:56Z</time>
      </trkpt>
      <trkpt lat="46.2454" lon="5.35073">
        <ele>270.4</ele>
        <time>2022-07-19T05:52:58Z</time>
      </trkpt>
      <trkpt lat="46.24534" lon="5.35071">
        <ele>270.2</ele>
        <time>2022-07-19T05:52:59Z</time>
      </trkpt>
      <trkpt lat="46.24498" lon="5.35041">
        <ele>270</ele>
        <time>2022-07-19T05:53:06Z</time>
      </trkpt>
      <trkpt lat="46.24467" lon="5.35014">
        <ele>270.6</ele>
        <time>2022-07-19T05:53:12Z</time>
      </trkpt>
      <trkpt lat="46.2445" lon="5.35">
        <ele>271.2</ele>
        <time>2022-07-19T05:53:16Z</time>
      </trkpt>
      <trkpt lat="46.24446" lon="5.34996">
        <ele>271.2</ele>
        <time>2022-07-19T05:53:17Z</time>
      </trkpt>
      <trkpt lat="46.24432" lon="5.34984">
        <ele>271.8</ele>
        <time>2022-07-19T05:53:20Z</time>
      </trkpt>
      <trkpt lat="46.24426" lon="5.34981">
        <ele>272</ele>
        <time>2022-07-19T05:53:21Z</time>
      </trkpt>
      <trkpt lat="46.24418" lon="5.34979">
        <ele>272.4</ele>
        <time>2022-07-19T05:53:23Z</time>
      </trkpt>
      <trkpt lat="46.24407" lon="5.34977">
        <ele>273</ele>
        <time>2022-07-19T05:53:25Z</time>
      </trkpt>
      <trkpt lat="46.24387" lon="5.34978">
        <ele>273.8</ele>
        <time>2022-07-19T05:53:29Z</time>
      </trkpt>
      <trkpt lat="46.24378" lon="5.34979">
        <ele>274.2</ele>
        <time>2022-07-19T05:53:31Z</time>
      </trkpt>
      <trkpt lat="46.24358" lon="5.34978">
        <ele>275</ele>
        <time>2022-07-19T05:53:35Z</time>
      </trkpt>
      <trkpt lat="46.24355" lon="5.34978">
        <ele>275.4</ele>
        <time>2022-07-19T05:53:36Z</time>
      </trkpt>
      <trkpt lat="46.24345" lon="5.34977">
        <ele>276</ele>
        <time>2022-07-19T05:53:38Z</time>
      </trkpt>
      <trkpt lat="46.24325" lon="5.34975">
        <ele>277</ele>
        <time>2022-07-19T05:53:43Z</time>
      </trkpt>
      <trkpt lat="46.24303" lon="5.34972">
        <ele>277.4</ele>
        <time>2022-07-19T05:53:47Z</time>
      </trkpt>
      <trkpt lat="46.24268" lon="5.34967">
        <ele>278</ele>
        <time>2022-07-19T05:53:54Z</time>
      </trkpt>
      <trkpt lat="46.24232" lon="5.34953">
        <ele>278.2</ele>
        <time>2022-07-19T05:54:01Z</time>
      </trkpt>
      <trkpt lat="46.24222" lon="5.34948">
        <ele>278.2</ele>
        <time>2022-07-19T05:54:03Z</time>
      </trkpt>
      <trkpt lat="46.24213" lon="5.3494">
        <ele>278.2</ele>
        <time>2022-07-19T05:54:05Z</time>
      </trkpt>
      <trkpt lat="46.24209" lon="5.34938">
        <ele>278.2</ele>
        <time>2022-07-19T05:54:06Z</time>
      </trkpt>
      <trkpt lat="46.24204" lon="5.34936">
        <ele>278.2</ele>
        <time>2022-07-19T05:54:07Z</time>
      </trkpt>
      <trkpt lat="46.24195" lon="5.34943">
        <ele>278.4</ele>
        <time>2022-07-19T05:54:09Z</time>
      </trkpt>
      <trkpt lat="46.24193" lon="5.34948">
        <ele>278.6</ele>
        <time>2022-07-19T05:54:10Z</time>
      </trkpt>
      <trkpt lat="46.24188" lon="5.34972">
        <ele>278.8</ele>
        <time>2022-07-19T05:54:13Z</time>
      </trkpt>
      <trkpt lat="46.24183" lon="5.35">
        <ele>279.2</ele>
        <time>2022-07-19T05:54:17Z</time>
      </trkpt>
      <trkpt lat="46.24177" lon="5.35035">
        <ele>280.2</ele>
        <time>2022-07-19T05:54:22Z</time>
      </trkpt>
      <trkpt lat="46.24173" lon="5.35046">
        <ele>280.8</ele>
        <time>2022-07-19T05:54:24Z</time>
      </trkpt>
      <trkpt lat="46.24166" lon="5.35054">
        <ele>281</ele>
        <time>2022-07-19T05:54:26Z</time>
      </trkpt>
      <trkpt lat="46.24152" lon="5.3506">
        <ele>281.6</ele>
        <time>2022-07-19T05:54:29Z</time>
      </trkpt>
      <trkpt lat="46.24143" lon="5.35063">
        <ele>282.2</ele>
        <time>2022-07-19T05:54:31Z</time>
      </trkpt>
      <trkpt lat="46.24139" lon="5.35064">
        <ele>282.4</ele>
        <time>2022-07-19T05:54:32Z</time>
      </trkpt>
      <trkpt lat="46.24128" lon="5.35066">
        <ele>282.8</ele>
        <time>2022-07-19T05:54:34Z</time>
      </trkpt>
      <trkpt lat="46.24106" lon="5.35076">
        <ele>283.8</ele>
        <time>2022-07-19T05:54:39Z</time>
      </trkpt>
      <trkpt lat="46.24099" lon="5.35082">
        <ele>284.2</ele>
        <time>2022-07-19T05:54:41Z</time>
      </trkpt>
      <trkpt lat="46.24093" lon="5.35091">
        <ele>284.4</ele>
        <time>2022-07-19T05:54:43Z</time>
      </trkpt>
      <trkpt lat="46.24088" lon="5.35101">
        <ele>284.8</ele>
        <time>2022-07-19T05:54:45Z</time>
      </trkpt>
      <trkpt lat="46.24086" lon="5.35104">
        <ele>285</ele>
        <time>2022-07-19T05:54:46Z</time>
      </trkpt>
      <trkpt lat="46.24075" lon="5.3512">
        <ele>286.4</ele>
        <time>2022-07-19T05:54:50Z</time>
      </trkpt>
      <trkpt lat="46.24063" lon="5.35136">
        <ele>287.8</ele>
        <time>2022-07-19T05:54:55Z</time>
      </trkpt>
      <trkpt lat="46.24061" lon="5.35138">
        <ele>288</ele>
        <time>2022-07-19T05:54:56Z</time>
      </trkpt>
      <trkpt lat="46.2406" lon="5.35139">
        <ele>288.8</ele>
        <time>2022-07-19T05:54:59Z</time>
      </trkpt>
      <trkpt lat="46.2406" lon="5.35149">
        <ele>290</ele>
        <time>2022-07-19T05:55:11Z</time>
      </trkpt>
      <trkpt lat="46.24046" lon="5.35165">
        <ele>289.8</ele>
        <time>2022-07-19T05:55:16Z</time>
      </trkpt>
      <trkpt lat="46.24023" lon="5.35197">
        <ele>290.8</ele>
        <time>2022-07-19T05:55:23Z</time>
      </trkpt>
      <trkpt lat="46.24019" lon="5.35201">
        <ele>291</ele>
        <time>2022-07-19T05:55:24Z</time>
      </trkpt>
      <trkpt lat="46.24016" lon="5.35204">
        <ele>291.4</ele>
        <time>2022-07-19T05:55:25Z</time>
      </trkpt>
      <trkpt lat="46.24007" lon="5.35212">
        <ele>291.6</ele>
        <time>2022-07-19T05:55:27Z</time>
      </trkpt>
      <trkpt lat="46.24002" lon="5.35216">
        <ele>291.8</ele>
        <time>2022-07-19T05:55:28Z</time>
      </trkpt>
      <trkpt lat="46.23999" lon="5.3522">
        <ele>292</ele>
        <time>2022-07-19T05:55:29Z</time>
      </trkpt>
      <trkpt lat="46.2398" lon="5.35241">
        <ele>292.2</ele>
        <time>2022-07-19T05:55:33Z</time>
      </trkpt>
      <trkpt lat="46.23965" lon="5.35253">
        <ele>292.2</ele>
        <time>2022-07-19T05:55:36Z</time>
      </trkpt>
      <trkpt lat="46.23949" lon="5.35258">
        <ele>291.8</ele>
        <time>2022-07-19T05:55:39Z</time>
      </trkpt>
      <trkpt lat="46.23907" lon="5.35265">
        <ele>291.6</ele>
        <time>2022-07-19T05:55:46Z</time>
      </trkpt>
      <trkpt lat="46.23854" lon="5.35277">
        <ele>291</ele>
        <time>2022-07-19T05:55:54Z</time>
      </trkpt>
      <trkpt lat="46.23847" lon="5.35281">
        <ele>290.8</ele>
        <time>2022-07-19T05:55:55Z</time>
      </trkpt>
      <trkpt lat="46.23821" lon="5.35294">
        <ele>290.2</ele>
        <time>2022-07-19T05:55:59Z</time>
      </trkpt>
      <trkpt lat="46.23816" lon="5.35299">
        <ele>290</ele>
        <time>2022-07-19T05:56:00Z</time>
      </trkpt>
      <trkpt lat="46.23812" lon="5.35307">
        <ele>290</ele>
        <time>2022-07-19T05:56:01Z</time>
      </trkpt>
      <trkpt lat="46.23811" lon="5.35327">
        <ele>289.6</ele>
        <time>2022-07-19T05:56:03Z</time>
      </trkpt>
      <trkpt lat="46.23811" lon="5.35335">
        <ele>289.6</ele>
        <time>2022-07-19T05:56:04Z</time>
      </trkpt>
      <trkpt lat="46.2381" lon="5.35345">
        <ele>290</ele>
        <time>2022-07-19T05:56:05Z</time>
      </trkpt>
      <trkpt lat="46.23807" lon="5.35365">
        <ele>290.2</ele>
        <time>2022-07-19T05:56:07Z</time>
      </trkpt>
      <trkpt lat="46.23804" lon="5.35374">
        <ele>290.2</ele>
        <time>2022-07-19T05:56:08Z</time>
      </trkpt>
      <trkpt lat="46.238" lon="5.35381">
        <ele>290.2</ele>
        <time>2022-07-19T05:56:09Z</time>
      </trkpt>
      <trkpt lat="46.23787" lon="5.35401">
        <ele>290.8</ele>
        <time>2022-07-19T05:56:13Z</time>
      </trkpt>
      <trkpt lat="46.23767" lon="5.35432">
        <ele>291</ele>
        <time>2022-07-19T05:56:17Z</time>
      </trkpt>
      <trkpt lat="46.2376" lon="5.35442">
        <ele>291.6</ele>
        <time>2022-07-19T05:56:19Z</time>
      </trkpt>
      <trkpt lat="46.23753" lon="5.35453">
        <ele>292.2</ele>
        <time>2022-07-19T05:56:21Z</time>
      </trkpt>
      <trkpt lat="46.23739" lon="5.35472">
        <ele>292.8</ele>
        <time>2022-07-19T05:56:25Z</time>
      </trkpt>
      <trkpt lat="46.23735" lon="5.35477">
        <ele>293.4</ele>
        <time>2022-07-19T05:56:26Z</time>
      </trkpt>
      <trkpt lat="46.23716" lon="5.355">
        <ele>294.2</ele>
        <time>2022-07-19T05:56:31Z</time>
      </trkpt>
      <trkpt lat="46.23707" lon="5.35512">
        <ele>294.2</ele>
        <time>2022-07-19T05:56:33Z</time>
      </trkpt>
      <trkpt lat="46.23696" lon="5.35528">
        <ele>294.4</ele>
        <time>2022-07-19T05:56:36Z</time>
      </trkpt>
      <trkpt lat="46.23679" lon="5.35558">
        <ele>294.6</ele>
        <time>2022-07-19T05:56:41Z</time>
      </trkpt>
      <trkpt lat="46.23676" lon="5.35564">
        <ele>294.8</ele>
        <time>2022-07-19T05:56:42Z</time>
      </trkpt>
      <trkpt lat="46.23675" lon="5.35571">
        <ele>294.8</ele>
        <time>2022-07-19T05:56:43Z</time>
      </trkpt>
      <trkpt lat="46.23672" lon="5.35593">
        <ele>295</ele>
        <time>2022-07-19T05:56:46Z</time>
      </trkpt>
      <trkpt lat="46.23674" lon="5.35609">
        <ele>295</ele>
        <time>2022-07-19T05:56:48Z</time>
      </trkpt>
      <trkpt lat="46.23675" lon="5.35616">
        <ele>295.2</ele>
        <time>2022-07-19T05:56:49Z</time>
      </trkpt>
      <trkpt lat="46.23683" lon="5.35662">
        <ele>295.6</ele>
        <time>2022-07-19T05:56:55Z</time>
      </trkpt>
      <trkpt lat="46.23691" lon="5.3571">
        <ele>296.4</ele>
        <time>2022-07-19T05:57:01Z</time>
      </trkpt>
      <trkpt lat="46.23693" lon="5.35717">
        <ele>296.4</ele>
        <time>2022-07-19T05:57:02Z</time>
      </trkpt>
      <trkpt lat="46.23695" lon="5.35723">
        <ele>296.4</ele>
        <time>2022-07-19T05:57:03Z</time>
      </trkpt>
      <trkpt lat="46.23713" lon="5.35768">
        <ele>297.4</ele>
        <time>2022-07-19T05:57:10Z</time>
      </trkpt>
      <trkpt lat="46.2372" lon="5.35782">
        <ele>297.6</ele>
        <time>2022-07-19T05:57:12Z</time>
      </trkpt>
      <trkpt lat="46.23743" lon="5.35824">
        <ele>298.6</ele>
        <time>2022-07-19T05:57:19Z</time>
      </trkpt>
      <trkpt lat="46.23746" lon="5.35829">
        <ele>298.8</ele>
        <time>2022-07-19T05:57:20Z</time>
      </trkpt>
      <trkpt lat="46.23752" lon="5.35838">
        <ele>299</ele>
        <time>2022-07-19T05:57:22Z</time>
      </trkpt>
      <trkpt lat="46.23758" lon="5.35847">
        <ele>299</ele>
        <time>2022-07-19T05:57:24Z</time>
      </trkpt>
      <trkpt lat="46.23762" lon="5.35852">
        <ele>299.2</ele>
        <time>2022-07-19T05:57:25Z</time>
      </trkpt>
      <trkpt lat="46.23765" lon="5.35856">
        <ele>299.6</ele>
        <time>2022-07-19T05:57:26Z</time>
      </trkpt>
      <trkpt lat="46.23785" lon="5.35878">
        <ele>300.6</ele>
        <time>2022-07-19T05:57:31Z</time>
      </trkpt>
      <trkpt lat="46.23789" lon="5.35881">
        <ele>300.8</ele>
        <time>2022-07-19T05:57:32Z</time>
      </trkpt>
      <trkpt lat="46.23798" lon="5.35887">
        <ele>301</ele>
        <time>2022-07-19T05:57:34Z</time>
      </trkpt>
      <trkpt lat="46.23804" lon="5.35895">
        <ele>301.2</ele>
        <time>2022-07-19T05:57:36Z</time>
      </trkpt>
      <trkpt lat="46.23808" lon="5.35899">
        <ele>301.4</ele>
        <time>2022-07-19T05:57:37Z</time>
      </trkpt>
      <trkpt lat="46.23812" lon="5.35902">
        <ele>301.6</ele>
        <time>2022-07-19T05:57:38Z</time>
      </trkpt>
      <trkpt lat="46.23816" lon="5.35905">
        <ele>301.8</ele>
        <time>2022-07-19T05:57:39Z</time>
      </trkpt>
      <trkpt lat="46.23825" lon="5.35909">
        <ele>302.4</ele>
        <time>2022-07-19T05:57:41Z</time>
      </trkpt>
      <trkpt lat="46.23837" lon="5.35912">
        <ele>302.8</ele>
        <time>2022-07-19T05:57:43Z</time>
      </trkpt>
      <trkpt lat="46.23853" lon="5.35913">
        <ele>303.6</ele>
        <time>2022-07-19T05:57:46Z</time>
      </trkpt>
      <trkpt lat="46.23868" lon="5.35915">
        <ele>304</ele>
        <time>2022-07-19T05:57:49Z</time>
      </trkpt>
      <trkpt lat="46.23892" lon="5.35921">
        <ele>304.4</ele>
        <time>2022-07-19T05:57:54Z</time>
      </trkpt>
      <trkpt lat="46.23897" lon="5.35923">
        <ele>304.8</ele>
        <time>2022-07-19T05:57:55Z</time>
      </trkpt>
      <trkpt lat="46.23901" lon="5.35926">
        <ele>304.8</ele>
        <time>2022-07-19T05:57:56Z</time>
      </trkpt>
      <trkpt lat="46.23907" lon="5.3593">
        <ele>305</ele>
        <time>2022-07-19T05:57:57Z</time>
      </trkpt>
      <trkpt lat="46.23915" lon="5.35936">
        <ele>305.4</ele>
        <time>2022-07-19T05:57:59Z</time>
      </trkpt>
      <trkpt lat="46.23919" lon="5.3594">
        <ele>305.4</ele>
        <time>2022-07-19T05:58:00Z</time>
      </trkpt>
      <trkpt lat="46.23944" lon="5.35964">
        <ele>306</ele>
        <time>2022-07-19T05:58:06Z</time>
      </trkpt>
      <trkpt lat="46.23947" lon="5.35967">
        <ele>306</ele>
        <time>2022-07-19T05:58:07Z</time>
      </trkpt>
      <trkpt lat="46.23958" lon="5.3598">
        <ele>306.4</ele>
        <time>2022-07-19T05:58:10Z</time>
      </trkpt>
      <trkpt lat="46.23971" lon="5.35992">
        <ele>306.8</ele>
        <time>2022-07-19T05:58:13Z</time>
      </trkpt>
      <trkpt lat="46.23978" lon="5.35999">
        <ele>307</ele>
        <time>2022-07-19T05:58:15Z</time>
      </trkpt>
      <trkpt lat="46.23989" lon="5.36012">
        <ele>307.4</ele>
        <time>2022-07-19T05:58:18Z</time>
      </trkpt>
      <trkpt lat="46.23991" lon="5.36017">
        <ele>307.6</ele>
        <time>2022-07-19T05:58:19Z</time>
      </trkpt>
      <trkpt lat="46.23992" lon="5.36024">
        <ele>307.8</ele>
        <time>2022-07-19T05:58:20Z</time>
      </trkpt>
      <trkpt lat="46.2399" lon="5.36038">
        <ele>308.2</ele>
        <time>2022-07-19T05:58:22Z</time>
      </trkpt>
      <trkpt lat="46.23983" lon="5.36049">
        <ele>308.6</ele>
        <time>2022-07-19T05:58:24Z</time>
      </trkpt>
      <trkpt lat="46.23975" lon="5.36056">
        <ele>308.6</ele>
        <time>2022-07-19T05:58:26Z</time>
      </trkpt>
      <trkpt lat="46.23971" lon="5.36058">
        <ele>308.8</ele>
        <time>2022-07-19T05:58:27Z</time>
      </trkpt>
      <trkpt lat="46.23965" lon="5.3606">
        <ele>308.8</ele>
        <time>2022-07-19T05:58:28Z</time>
      </trkpt>
      <trkpt lat="46.23957" lon="5.3606">
        <ele>309</ele>
        <time>2022-07-19T05:58:30Z</time>
      </trkpt>
      <trkpt lat="46.2395" lon="5.36058">
        <ele>309.4</ele>
        <time>2022-07-19T05:58:32Z</time>
      </trkpt>
      <trkpt lat="46.2394" lon="5.36053">
        <ele>310.6</ele>
        <time>2022-07-19T05:58:35Z</time>
      </trkpt>
      <trkpt lat="46.23933" lon="5.36049">
        <ele>311.6</ele>
        <time>2022-07-19T05:58:37Z</time>
      </trkpt>
      <trkpt lat="46.2393" lon="5.36046">
        <ele>312</ele>
        <time>2022-07-19T05:58:38Z</time>
      </trkpt>
      <trkpt lat="46.23916" lon="5.3604">
        <ele>313.2</ele>
        <time>2022-07-19T05:58:43Z</time>
      </trkpt>
      <trkpt lat="46.23908" lon="5.36036">
        <ele>313.2</ele>
        <time>2022-07-19T05:58:45Z</time>
      </trkpt>
      <trkpt lat="46.23889" lon="5.36027">
        <ele>314.4</ele>
        <time>2022-07-19T05:58:50Z</time>
      </trkpt>
      <trkpt lat="46.23872" lon="5.36019">
        <ele>315</ele>
        <time>2022-07-19T05:58:55Z</time>
      </trkpt>
      <trkpt lat="46.23866" lon="5.36016">
        <ele>315.6</ele>
        <time>2022-07-19T05:58:57Z</time>
      </trkpt>
      <trkpt lat="46.23849" lon="5.36008">
        <ele>316.8</ele>
        <time>2022-07-19T05:59:02Z</time>
      </trkpt>
      <trkpt lat="46.23843" lon="5.36006">
        <ele>317.2</ele>
        <time>2022-07-19T05:59:04Z</time>
      </trkpt>
      <trkpt lat="46.23836" lon="5.36003">
        <ele>317.8</ele>
        <time>2022-07-19T05:59:06Z</time>
      </trkpt>
      <trkpt lat="46.23833" lon="5.36002">
        <ele>318</ele>
        <time>2022-07-19T05:59:07Z</time>
      </trkpt>
      <trkpt lat="46.23815" lon="5.35996">
        <ele>318.8</ele>
        <time>2022-07-19T05:59:12Z</time>
      </trkpt>
      <trkpt lat="46.23812" lon="5.35994">
        <ele>319.2</ele>
        <time>2022-07-19T05:59:13Z</time>
      </trkpt>
      <trkpt lat="46.23795" lon="5.35987">
        <ele>320.4</ele>
        <time>2022-07-19T05:59:18Z</time>
      </trkpt>
      <trkpt lat="46.23781" lon="5.3598">
        <ele>321.4</ele>
        <time>2022-07-19T05:59:22Z</time>
      </trkpt>
      <trkpt lat="46.23759" lon="5.35977">
        <ele>322</ele>
        <time>2022-07-19T05:59:28Z</time>
      </trkpt>
      <trkpt lat="46.23756" lon="5.35978">
        <ele>322.4</ele>
        <time>2022-07-19T05:59:29Z</time>
      </trkpt>
      <trkpt lat="46.2374" lon="5.35987">
        <ele>323.4</ele>
        <time>2022-07-19T05:59:34Z</time>
      </trkpt>
      <trkpt lat="46.23736" lon="5.35989">
        <ele>323.4</ele>
        <time>2022-07-19T05:59:35Z</time>
      </trkpt>
      <trkpt lat="46.23727" lon="5.35989">
        <ele>324.6</ele>
        <time>2022-07-19T05:59:38Z</time>
      </trkpt>
      <trkpt lat="46.23717" lon="5.35985">
        <ele>325.2</ele>
        <time>2022-07-19T05:59:41Z</time>
      </trkpt>
      <trkpt lat="46.23711" lon="5.35981">
        <ele>325.6</ele>
        <time>2022-07-19T05:59:43Z</time>
      </trkpt>
      <trkpt lat="46.23695" lon="5.35968">
        <ele>326.6</ele>
        <time>2022-07-19T05:59:48Z</time>
      </trkpt>
      <trkpt lat="46.23691" lon="5.35966">
        <ele>326.8</ele>
        <time>2022-07-19T05:59:49Z</time>
      </trkpt>
      <trkpt lat="46.23677" lon="5.35953">
        <ele>327.6</ele>
        <time>2022-07-19T05:59:54Z</time>
      </trkpt>
      <trkpt lat="46.23661" lon="5.35939">
        <ele>328.8</ele>
        <time>2022-07-19T05:59:59Z</time>
      </trkpt>
      <trkpt lat="46.23655" lon="5.35932">
        <ele>329.2</ele>
        <time>2022-07-19T06:00:01Z</time>
      </trkpt>
      <trkpt lat="46.23646" lon="5.35925">
        <ele>330</ele>
        <time>2022-07-19T06:00:04Z</time>
      </trkpt>
      <trkpt lat="46.23634" lon="5.35913">
        <ele>330.6</ele>
        <time>2022-07-19T06:00:08Z</time>
      </trkpt>
      <trkpt lat="46.23633" lon="5.35912">
        <ele>331</ele>
        <time>2022-07-19T06:00:09Z</time>
      </trkpt>
      <trkpt lat="46.23618" lon="5.35894">
        <ele>332.2</ele>
        <time>2022-07-19T06:00:14Z</time>
      </trkpt>
      <trkpt lat="46.2361" lon="5.35882">
        <ele>333</ele>
        <time>2022-07-19T06:00:17Z</time>
      </trkpt>
      <trkpt lat="46.23607" lon="5.35879">
        <ele>333.2</ele>
        <time>2022-07-19T06:00:18Z</time>
      </trkpt>
      <trkpt lat="46.23592" lon="5.35858">
        <ele>334.4</ele>
        <time>2022-07-19T06:00:24Z</time>
      </trkpt>
      <trkpt lat="46.23587" lon="5.35852">
        <ele>334.6</ele>
        <time>2022-07-19T06:00:26Z</time>
      </trkpt>
      <trkpt lat="46.23576" lon="5.35841">
        <ele>335.4</ele>
        <time>2022-07-19T06:00:30Z</time>
      </trkpt>
      <trkpt lat="46.23565" lon="5.3583">
        <ele>336.6</ele>
        <time>2022-07-19T06:00:34Z</time>
      </trkpt>
      <trkpt lat="46.23561" lon="5.35826">
        <ele>337</ele>
        <time>2022-07-19T06:00:36Z</time>
      </trkpt>
      <trkpt lat="46.23555" lon="5.35822">
        <ele>337.6</ele>
        <time>2022-07-19T06:00:38Z</time>
      </trkpt>
      <trkpt lat="46.23546" lon="5.35817">
        <ele>338.6</ele>
        <time>2022-07-19T06:00:41Z</time>
      </trkpt>
      <trkpt lat="46.23544" lon="5.35815">
        <ele>338.6</ele>
        <time>2022-07-19T06:00:42Z</time>
      </trkpt>
      <trkpt lat="46.23528" lon="5.35809">
        <ele>339.6</ele>
        <time>2022-07-19T06:00:47Z</time>
      </trkpt>
      <trkpt lat="46.2351" lon="5.358">
        <ele>340.8</ele>
        <time>2022-07-19T06:00:52Z</time>
      </trkpt>
      <trkpt lat="46.23506" lon="5.35798">
        <ele>341</ele>
        <time>2022-07-19T06:00:53Z</time>
      </trkpt>
      <trkpt lat="46.23495" lon="5.35788">
        <ele>341.8</ele>
        <time>2022-07-19T06:00:56Z</time>
      </trkpt>
      <trkpt lat="46.23482" lon="5.35776">
        <ele>342.8</ele>
        <time>2022-07-19T06:01:00Z</time>
      </trkpt>
      <trkpt lat="46.23479" lon="5.35773">
        <ele>343.2</ele>
        <time>2022-07-19T06:01:01Z</time>
      </trkpt>
      <trkpt lat="46.23461" lon="5.35761">
        <ele>344.2</ele>
        <time>2022-07-19T06:01:06Z</time>
      </trkpt>
      <trkpt lat="46.23457" lon="5.35758">
        <ele>344.4</ele>
        <time>2022-07-19T06:01:07Z</time>
      </trkpt>
      <trkpt lat="46.23444" lon="5.35747">
        <ele>345.4</ele>
        <time>2022-07-19T06:01:11Z</time>
      </trkpt>
      <trkpt lat="46.23438" lon="5.35743">
        <ele>345.8</ele>
        <time>2022-07-19T06:01:13Z</time>
      </trkpt>
      <trkpt lat="46.23432" lon="5.35739">
        <ele>346.4</ele>
        <time>2022-07-19T06:01:15Z</time>
      </trkpt>
      <trkpt lat="46.23418" lon="5.35733">
        <ele>347.4</ele>
        <time>2022-07-19T06:01:19Z</time>
      </trkpt>
      <trkpt lat="46.23396" lon="5.35726">
        <ele>348.8</ele>
        <time>2022-07-19T06:01:25Z</time>
      </trkpt>
      <trkpt lat="46.2338" lon="5.3572">
        <ele>349.8</ele>
        <time>2022-07-19T06:01:29Z</time>
      </trkpt>
      <trkpt lat="46.23362" lon="5.35712">
        <ele>350.8</ele>
        <time>2022-07-19T06:01:34Z</time>
      </trkpt>
      <trkpt lat="46.23344" lon="5.35707">
        <ele>352.4</ele>
        <time>2022-07-19T06:01:39Z</time>
      </trkpt>
      <trkpt lat="46.23341" lon="5.35707">
        <ele>352.4</ele>
        <time>2022-07-19T06:01:40Z</time>
      </trkpt>
      <trkpt lat="46.23323" lon="5.35702">
        <ele>353.6</ele>
        <time>2022-07-19T06:01:45Z</time>
      </trkpt>
      <trkpt lat="46.23317" lon="5.35702">
        <ele>354</ele>
        <time>2022-07-19T06:01:47Z</time>
      </trkpt>
      <trkpt lat="46.2331" lon="5.35701">
        <ele>354.6</ele>
        <time>2022-07-19T06:01:49Z</time>
      </trkpt>
      <trkpt lat="46.23297" lon="5.35701">
        <ele>355.4</ele>
        <time>2022-07-19T06:01:53Z</time>
      </trkpt>
      <trkpt lat="46.23291" lon="5.35704">
        <ele>356</ele>
        <time>2022-07-19T06:01:55Z</time>
      </trkpt>
      <trkpt lat="46.2328" lon="5.35716">
        <ele>356.8</ele>
        <time>2022-07-19T06:01:59Z</time>
      </trkpt>
      <trkpt lat="46.23262" lon="5.35737">
        <ele>357.8</ele>
        <time>2022-07-19T06:02:05Z</time>
      </trkpt>
      <trkpt lat="46.23259" lon="5.3574">
        <ele>358</ele>
        <time>2022-07-19T06:02:06Z</time>
      </trkpt>
      <trkpt lat="46.23247" lon="5.35743">
        <ele>359</ele>
        <time>2022-07-19T06:02:10Z</time>
      </trkpt>
      <trkpt lat="46.23244" lon="5.35743">
        <ele>359.6</ele>
        <time>2022-07-19T06:02:11Z</time>
      </trkpt>
      <trkpt lat="46.23239" lon="5.35744">
        <ele>360.2</ele>
        <time>2022-07-19T06:02:13Z</time>
      </trkpt>
      <trkpt lat="46.23228" lon="5.35746">
        <ele>361.2</ele>
        <time>2022-07-19T06:02:17Z</time>
      </trkpt>
      <trkpt lat="46.23225" lon="5.35748">
        <ele>361.6</ele>
        <time>2022-07-19T06:02:18Z</time>
      </trkpt>
      <trkpt lat="46.23214" lon="5.35752">
        <ele>362.6</ele>
        <time>2022-07-19T06:02:22Z</time>
      </trkpt>
      <trkpt lat="46.23205" lon="5.35756">
        <ele>363.4</ele>
        <time>2022-07-19T06:02:25Z</time>
      </trkpt>
      <trkpt lat="46.23202" lon="5.35757">
        <ele>363.6</ele>
        <time>2022-07-19T06:02:26Z</time>
      </trkpt>
      <trkpt lat="46.23191" lon="5.35763">
        <ele>364.8</ele>
        <time>2022-07-19T06:02:30Z</time>
      </trkpt>
      <trkpt lat="46.2318" lon="5.35773">
        <ele>365.6</ele>
        <time>2022-07-19T06:02:34Z</time>
      </trkpt>
      <trkpt lat="46.23175" lon="5.35779">
        <ele>366</ele>
        <time>2022-07-19T06:02:36Z</time>
      </trkpt>
      <trkpt lat="46.23167" lon="5.35785">
        <ele>367</ele>
        <time>2022-07-19T06:02:39Z</time>
      </trkpt>
      <trkpt lat="46.23162" lon="5.35787">
        <ele>367.2</ele>
        <time>2022-07-19T06:02:41Z</time>
      </trkpt>
      <trkpt lat="46.23156" lon="5.35786">
        <ele>367.4</ele>
        <time>2022-07-19T06:02:44Z</time>
      </trkpt>
      <trkpt lat="46.23152" lon="5.35783">
        <ele>367.8</ele>
        <time>2022-07-19T06:02:46Z</time>
      </trkpt>
      <trkpt lat="46.23145" lon="5.35784">
        <ele>367.8</ele>
        <time>2022-07-19T06:02:48Z</time>
      </trkpt>
      <trkpt lat="46.23138" lon="5.35787">
        <ele>367.8</ele>
        <time>2022-07-19T06:02:50Z</time>
      </trkpt>
      <trkpt lat="46.23135" lon="5.35793">
        <ele>367.8</ele>
        <time>2022-07-19T06:02:51Z</time>
      </trkpt>
      <trkpt lat="46.23132" lon="5.358">
        <ele>367.8</ele>
        <time>2022-07-19T06:02:52Z</time>
      </trkpt>
      <trkpt lat="46.23123" lon="5.35832">
        <ele>366.6</ele>
        <time>2022-07-19T06:02:56Z</time>
      </trkpt>
      <trkpt lat="46.23115" lon="5.35859">
        <ele>365.8</ele>
        <time>2022-07-19T06:02:59Z</time>
      </trkpt>
      <trkpt lat="46.23101" lon="5.35906">
        <ele>364.6</ele>
        <time>2022-07-19T06:03:04Z</time>
      </trkpt>
      <trkpt lat="46.23095" lon="5.35926">
        <ele>363.2</ele>
        <time>2022-07-19T06:03:06Z</time>
      </trkpt>
      <trkpt lat="46.23089" lon="5.35946">
        <ele>362.2</ele>
        <time>2022-07-19T06:03:08Z</time>
      </trkpt>
      <trkpt lat="46.23079" lon="5.35977">
        <ele>361</ele>
        <time>2022-07-19T06:03:11Z</time>
      </trkpt>
      <trkpt lat="46.23068" lon="5.36007">
        <ele>359.8</ele>
        <time>2022-07-19T06:03:14Z</time>
      </trkpt>
      <trkpt lat="46.23055" lon="5.36048">
        <ele>358.2</ele>
        <time>2022-07-19T06:03:18Z</time>
      </trkpt>
      <trkpt lat="46.23048" lon="5.36069">
        <ele>357.4</ele>
        <time>2022-07-19T06:03:20Z</time>
      </trkpt>
      <trkpt lat="46.23041" lon="5.3609">
        <ele>356.8</ele>
        <time>2022-07-19T06:03:22Z</time>
      </trkpt>
      <trkpt lat="46.23031" lon="5.36122">
        <ele>355.8</ele>
        <time>2022-07-19T06:03:25Z</time>
      </trkpt>
      <trkpt lat="46.23018" lon="5.36168">
        <ele>355</ele>
        <time>2022-07-19T06:03:29Z</time>
      </trkpt>
      <trkpt lat="46.23014" lon="5.3618">
        <ele>354.6</ele>
        <time>2022-07-19T06:03:30Z</time>
      </trkpt>
      <trkpt lat="46.23002" lon="5.36215">
        <ele>353.4</ele>
        <time>2022-07-19T06:03:33Z</time>
      </trkpt>
      <trkpt lat="46.22998" lon="5.36227">
        <ele>352.6</ele>
        <time>2022-07-19T06:03:34Z</time>
      </trkpt>
      <trkpt lat="46.22994" lon="5.36239">
        <ele>352.4</ele>
        <time>2022-07-19T06:03:35Z</time>
      </trkpt>
      <trkpt lat="46.22986" lon="5.36264">
        <ele>350.6</ele>
        <time>2022-07-19T06:03:37Z</time>
      </trkpt>
      <trkpt lat="46.22978" lon="5.36289">
        <ele>349.2</ele>
        <time>2022-07-19T06:03:39Z</time>
      </trkpt>
      <trkpt lat="46.22964" lon="5.36331">
        <ele>348.2</ele>
        <time>2022-07-19T06:03:42Z</time>
      </trkpt>
      <trkpt lat="46.22963" lon="5.36336">
        <ele>347.2</ele>
        <time>2022-07-19T06:03:43Z</time>
      </trkpt>
      <trkpt lat="46.22949" lon="5.36381">
        <ele>345.6</ele>
        <time>2022-07-19T06:03:46Z</time>
      </trkpt>
      <trkpt lat="46.22936" lon="5.3642">
        <ele>344.4</ele>
        <time>2022-07-19T06:03:49Z</time>
      </trkpt>
      <trkpt lat="46.22932" lon="5.36432">
        <ele>343</ele>
        <time>2022-07-19T06:03:50Z</time>
      </trkpt>
      <trkpt lat="46.22924" lon="5.36458">
        <ele>342</ele>
        <time>2022-07-19T06:03:52Z</time>
      </trkpt>
      <trkpt lat="46.22919" lon="5.3647">
        <ele>341.8</ele>
        <time>2022-07-19T06:03:53Z</time>
      </trkpt>
      <trkpt lat="46.22908" lon="5.36507">
        <ele>340.8</ele>
        <time>2022-07-19T06:03:56Z</time>
      </trkpt>
      <trkpt lat="46.22893" lon="5.36555">
        <ele>339.6</ele>
        <time>2022-07-19T06:04:00Z</time>
      </trkpt>
      <trkpt lat="46.22885" lon="5.36579">
        <ele>338.6</ele>
        <time>2022-07-19T06:04:02Z</time>
      </trkpt>
      <trkpt lat="46.22869" lon="5.36629">
        <ele>337.6</ele>
        <time>2022-07-19T06:04:06Z</time>
      </trkpt>
      <trkpt lat="46.22853" lon="5.36678">
        <ele>336.6</ele>
        <time>2022-07-19T06:04:10Z</time>
      </trkpt>
      <trkpt lat="46.22849" lon="5.36691">
        <ele>336</ele>
        <time>2022-07-19T06:04:11Z</time>
      </trkpt>
      <trkpt lat="46.22837" lon="5.36727">
        <ele>334.6</ele>
        <time>2022-07-19T06:04:14Z</time>
      </trkpt>
      <trkpt lat="46.22813" lon="5.36798">
        <ele>334</ele>
        <time>2022-07-19T06:04:20Z</time>
      </trkpt>
      <trkpt lat="46.22802" lon="5.36832">
        <ele>333.6</ele>
        <time>2022-07-19T06:04:23Z</time>
      </trkpt>
      <trkpt lat="46.22783" lon="5.36889">
        <ele>332.6</ele>
        <time>2022-07-19T06:04:28Z</time>
      </trkpt>
      <trkpt lat="46.22779" lon="5.369">
        <ele>332.4</ele>
        <time>2022-07-19T06:04:29Z</time>
      </trkpt>
      <trkpt lat="46.22758" lon="5.36961">
        <ele>331.2</ele>
        <time>2022-07-19T06:04:34Z</time>
      </trkpt>
      <trkpt lat="46.2275" lon="5.36986">
        <ele>330.2</ele>
        <time>2022-07-19T06:04:36Z</time>
      </trkpt>
      <trkpt lat="46.22746" lon="5.36999">
        <ele>330</ele>
        <time>2022-07-19T06:04:37Z</time>
      </trkpt>
      <trkpt lat="46.2273" lon="5.37053">
        <ele>328.6</ele>
        <time>2022-07-19T06:04:41Z</time>
      </trkpt>
      <trkpt lat="46.22723" lon="5.37075">
        <ele>327.2</ele>
        <time>2022-07-19T06:04:43Z</time>
      </trkpt>
      <trkpt lat="46.22719" lon="5.37089">
        <ele>326.8</ele>
        <time>2022-07-19T06:04:44Z</time>
      </trkpt>
      <trkpt lat="46.2271" lon="5.37122">
        <ele>325.2</ele>
        <time>2022-07-19T06:04:46Z</time>
      </trkpt>
      <trkpt lat="46.22698" lon="5.3716">
        <ele>324.2</ele>
        <time>2022-07-19T06:04:49Z</time>
      </trkpt>
      <trkpt lat="46.22686" lon="5.37196">
        <ele>323.6</ele>
        <time>2022-07-19T06:04:52Z</time>
      </trkpt>
      <trkpt lat="46.22684" lon="5.37208">
        <ele>323.2</ele>
        <time>2022-07-19T06:04:53Z</time>
      </trkpt>
      <trkpt lat="46.22683" lon="5.37232">
        <ele>322.8</ele>
        <time>2022-07-19T06:04:55Z</time>
      </trkpt>
      <trkpt lat="46.22693" lon="5.37251">
        <ele>322.6</ele>
        <time>2022-07-19T06:04:57Z</time>
      </trkpt>
      <trkpt lat="46.22706" lon="5.37262">
        <ele>322.6</ele>
        <time>2022-07-19T06:04:59Z</time>
      </trkpt>
      <trkpt lat="46.22719" lon="5.37272">
        <ele>322.6</ele>
        <time>2022-07-19T06:05:01Z</time>
      </trkpt>
      <trkpt lat="46.22767" lon="5.37302">
        <ele>324.2</ele>
        <time>2022-07-19T06:05:08Z</time>
      </trkpt>
      <trkpt lat="46.22774" lon="5.37306">
        <ele>324.4</ele>
        <time>2022-07-19T06:05:09Z</time>
      </trkpt>
      <trkpt lat="46.2282" lon="5.37331">
        <ele>324</ele>
        <time>2022-07-19T06:05:15Z</time>
      </trkpt>
      <trkpt lat="46.22828" lon="5.37336">
        <ele>324.2</ele>
        <time>2022-07-19T06:05:16Z</time>
      </trkpt>
      <trkpt lat="46.22883" lon="5.37369">
        <ele>323.8</ele>
        <time>2022-07-19T06:05:23Z</time>
      </trkpt>
      <trkpt lat="46.22925" lon="5.37393">
        <ele>323</ele>
        <time>2022-07-19T06:05:29Z</time>
      </trkpt>
      <trkpt lat="46.22932" lon="5.37397">
        <ele>323</ele>
        <time>2022-07-19T06:05:30Z</time>
      </trkpt>
      <trkpt lat="46.22977" lon="5.37424">
        <ele>323.4</ele>
        <time>2022-07-19T06:05:37Z</time>
      </trkpt>
      <trkpt lat="46.23009" lon="5.37442">
        <ele>324.2</ele>
        <time>2022-07-19T06:05:42Z</time>
      </trkpt>
      <trkpt lat="46.23025" lon="5.37452">
        <ele>324.6</ele>
        <time>2022-07-19T06:05:45Z</time>
      </trkpt>
      <trkpt lat="46.23064" lon="5.37475">
        <ele>324.6</ele>
        <time>2022-07-19T06:05:50Z</time>
      </trkpt>
      <trkpt lat="46.23119" lon="5.37506">
        <ele>323.2</ele>
        <time>2022-07-19T06:05:57Z</time>
      </trkpt>
      <trkpt lat="46.23126" lon="5.37511">
        <ele>323</ele>
        <time>2022-07-19T06:05:58Z</time>
      </trkpt>
      <trkpt lat="46.23169" lon="5.37537">
        <ele>322.6</ele>
        <time>2022-07-19T06:06:04Z</time>
      </trkpt>
      <trkpt lat="46.23219" lon="5.37567">
        <ele>322.6</ele>
        <time>2022-07-19T06:06:11Z</time>
      </trkpt>
      <trkpt lat="46.23226" lon="5.37571">
        <ele>322.6</ele>
        <time>2022-07-19T06:06:12Z</time>
      </trkpt>
      <trkpt lat="46.23279" lon="5.37603">
        <ele>323.2</ele>
        <time>2022-07-19T06:06:20Z</time>
      </trkpt>
      <trkpt lat="46.23285" lon="5.37607">
        <ele>323.4</ele>
        <time>2022-07-19T06:06:21Z</time>
      </trkpt>
      <trkpt lat="46.2331" lon="5.37623">
        <ele>324</ele>
        <time>2022-07-19T06:06:25Z</time>
      </trkpt>
      <trkpt lat="46.23328" lon="5.37635">
        <ele>324.8</ele>
        <time>2022-07-19T06:06:28Z</time>
      </trkpt>
      <trkpt lat="46.23381" lon="5.37665">
        <ele>324.8</ele>
        <time>2022-07-19T06:06:36Z</time>
      </trkpt>
      <trkpt lat="46.23388" lon="5.37669">
        <ele>324.8</ele>
        <time>2022-07-19T06:06:37Z</time>
      </trkpt>
      <trkpt lat="46.2344" lon="5.377">
        <ele>324.4</ele>
        <time>2022-07-19T06:06:44Z</time>
      </trkpt>
      <trkpt lat="46.23497" lon="5.37734">
        <ele>323.6</ele>
        <time>2022-07-19T06:06:52Z</time>
      </trkpt>
      <trkpt lat="46.23539" lon="5.37759">
        <ele>324.4</ele>
        <time>2022-07-19T06:06:59Z</time>
      </trkpt>
      <trkpt lat="46.2355" lon="5.37765">
        <ele>325</ele>
        <time>2022-07-19T06:07:01Z</time>
      </trkpt>
      <trkpt lat="46.23581" lon="5.37783">
        <ele>326</ele>
        <time>2022-07-19T06:07:06Z</time>
      </trkpt>
      <trkpt lat="46.23624" lon="5.37809">
        <ele>325.6</ele>
        <time>2022-07-19T06:07:13Z</time>
      </trkpt>
      <trkpt lat="46.23676" lon="5.37839">
        <ele>325.6</ele>
        <time>2022-07-19T06:07:21Z</time>
      </trkpt>
      <trkpt lat="46.23688" lon="5.37846">
        <ele>326.2</ele>
        <time>2022-07-19T06:07:23Z</time>
      </trkpt>
      <trkpt lat="46.2372" lon="5.37866">
        <ele>327</ele>
        <time>2022-07-19T06:07:28Z</time>
      </trkpt>
      <trkpt lat="46.23726" lon="5.3787">
        <ele>327</ele>
        <time>2022-07-19T06:07:29Z</time>
      </trkpt>
      <trkpt lat="46.23776" lon="5.379">
        <ele>326.6</ele>
        <time>2022-07-19T06:07:37Z</time>
      </trkpt>
      <trkpt lat="46.23787" lon="5.37906">
        <ele>327</ele>
        <time>2022-07-19T06:07:39Z</time>
      </trkpt>
      <trkpt lat="46.23816" lon="5.37924">
        <ele>327.2</ele>
        <time>2022-07-19T06:07:44Z</time>
      </trkpt>
      <trkpt lat="46.23827" lon="5.37931">
        <ele>327.4</ele>
        <time>2022-07-19T06:07:46Z</time>
      </trkpt>
      <trkpt lat="46.23833" lon="5.37934">
        <ele>327.4</ele>
        <time>2022-07-19T06:07:47Z</time>
      </trkpt>
      <trkpt lat="46.23852" lon="5.37947">
        <ele>327.6</ele>
        <time>2022-07-19T06:07:51Z</time>
      </trkpt>
      <trkpt lat="46.2387" lon="5.37956">
        <ele>328.4</ele>
        <time>2022-07-19T06:07:55Z</time>
      </trkpt>
      <trkpt lat="46.23877" lon="5.37961">
        <ele>328.8</ele>
        <time>2022-07-19T06:07:57Z</time>
      </trkpt>
      <trkpt lat="46.23896" lon="5.37971">
        <ele>329.2</ele>
        <time>2022-07-19T06:08:01Z</time>
      </trkpt>
      <trkpt lat="46.23908" lon="5.37979">
        <ele>329.4</ele>
        <time>2022-07-19T06:08:03Z</time>
      </trkpt>
      <trkpt lat="46.23947" lon="5.38002">
        <ele>329.8</ele>
        <time>2022-07-19T06:08:09Z</time>
      </trkpt>
      <trkpt lat="46.23994" lon="5.38031">
        <ele>329.6</ele>
        <time>2022-07-19T06:08:16Z</time>
      </trkpt>
      <trkpt lat="46.24046" lon="5.38061">
        <ele>329.4</ele>
        <time>2022-07-19T06:08:23Z</time>
      </trkpt>
      <trkpt lat="46.24052" lon="5.38066">
        <ele>329.4</ele>
        <time>2022-07-19T06:08:24Z</time>
      </trkpt>
      <trkpt lat="46.24083" lon="5.38084">
        <ele>329.8</ele>
        <time>2022-07-19T06:08:29Z</time>
      </trkpt>
      <trkpt lat="46.24091" lon="5.38088">
        <ele>330.4</ele>
        <time>2022-07-19T06:08:30Z</time>
      </trkpt>
      <trkpt lat="46.24122" lon="5.38107">
        <ele>331.4</ele>
        <time>2022-07-19T06:08:35Z</time>
      </trkpt>
      <trkpt lat="46.2414" lon="5.38117">
        <ele>331.8</ele>
        <time>2022-07-19T06:08:38Z</time>
      </trkpt>
      <trkpt lat="46.24173" lon="5.38137">
        <ele>332.4</ele>
        <time>2022-07-19T06:08:44Z</time>
      </trkpt>
      <trkpt lat="46.24187" lon="5.38146">
        <ele>332.6</ele>
        <time>2022-07-19T06:08:46Z</time>
      </trkpt>
      <trkpt lat="46.24216" lon="5.38165">
        <ele>333.8</ele>
        <time>2022-07-19T06:08:51Z</time>
      </trkpt>
      <trkpt lat="46.24228" lon="5.38172">
        <ele>334</ele>
        <time>2022-07-19T06:08:53Z</time>
      </trkpt>
      <trkpt lat="46.24267" lon="5.38193">
        <ele>334.8</ele>
        <time>2022-07-19T06:09:00Z</time>
      </trkpt>
      <trkpt lat="46.24272" lon="5.38196">
        <ele>334.8</ele>
        <time>2022-07-19T06:09:01Z</time>
      </trkpt>
      <trkpt lat="46.24303" lon="5.38214">
        <ele>335.8</ele>
        <time>2022-07-19T06:09:07Z</time>
      </trkpt>
      <trkpt lat="46.24313" lon="5.3822">
        <ele>336.4</ele>
        <time>2022-07-19T06:09:09Z</time>
      </trkpt>
      <trkpt lat="46.24328" lon="5.38229">
        <ele>337</ele>
        <time>2022-07-19T06:09:12Z</time>
      </trkpt>
      <trkpt lat="46.24351" lon="5.38245">
        <ele>337.6</ele>
        <time>2022-07-19T06:09:17Z</time>
      </trkpt>
      <trkpt lat="46.24361" lon="5.38251">
        <ele>338</ele>
        <time>2022-07-19T06:09:19Z</time>
      </trkpt>
      <trkpt lat="46.24376" lon="5.38258">
        <ele>338.4</ele>
        <time>2022-07-19T06:09:22Z</time>
      </trkpt>
      <trkpt lat="46.24381" lon="5.3826">
        <ele>338.8</ele>
        <time>2022-07-19T06:09:23Z</time>
      </trkpt>
      <trkpt lat="46.24386" lon="5.38263">
        <ele>339</ele>
        <time>2022-07-19T06:09:24Z</time>
      </trkpt>
      <trkpt lat="46.24415" lon="5.38281">
        <ele>340</ele>
        <time>2022-07-19T06:09:30Z</time>
      </trkpt>
      <trkpt lat="46.2442" lon="5.38284">
        <ele>340.2</ele>
        <time>2022-07-19T06:09:31Z</time>
      </trkpt>
      <trkpt lat="46.24443" lon="5.38298">
        <ele>341.2</ele>
        <time>2022-07-19T06:09:36Z</time>
      </trkpt>
      <trkpt lat="46.24452" lon="5.38304">
        <ele>341.6</ele>
        <time>2022-07-19T06:09:38Z</time>
      </trkpt>
      <trkpt lat="46.24462" lon="5.3831">
        <ele>342.2</ele>
        <time>2022-07-19T06:09:40Z</time>
      </trkpt>
      <trkpt lat="46.24465" lon="5.38313">
        <ele>342.4</ele>
        <time>2022-07-19T06:09:41Z</time>
      </trkpt>
      <trkpt lat="46.24481" lon="5.38325">
        <ele>343.4</ele>
        <time>2022-07-19T06:09:45Z</time>
      </trkpt>
      <trkpt lat="46.24486" lon="5.3833">
        <ele>343.8</ele>
        <time>2022-07-19T06:09:46Z</time>
      </trkpt>
      <trkpt lat="46.24498" lon="5.38342">
        <ele>344.6</ele>
        <time>2022-07-19T06:09:49Z</time>
      </trkpt>
      <trkpt lat="46.24521" lon="5.38368">
        <ele>345.6</ele>
        <time>2022-07-19T06:09:55Z</time>
      </trkpt>
      <trkpt lat="46.24541" lon="5.38401">
        <ele>346.8</ele>
        <time>2022-07-19T06:10:01Z</time>
      </trkpt>
      <trkpt lat="46.24546" lon="5.38412">
        <ele>347.2</ele>
        <time>2022-07-19T06:10:03Z</time>
      </trkpt>
      <trkpt lat="46.24554" lon="5.38431">
        <ele>347.8</ele>
        <time>2022-07-19T06:10:06Z</time>
      </trkpt>
      <trkpt lat="46.24567" lon="5.38463">
        <ele>348.6</ele>
        <time>2022-07-19T06:10:11Z</time>
      </trkpt>
      <trkpt lat="46.24572" lon="5.38483">
        <ele>349</ele>
        <time>2022-07-19T06:10:14Z</time>
      </trkpt>
      <trkpt lat="46.2458" lon="5.38517">
        <ele>350.2</ele>
        <time>2022-07-19T06:10:19Z</time>
      </trkpt>
      <trkpt lat="46.24582" lon="5.38522">
        <ele>350.2</ele>
        <time>2022-07-19T06:10:20Z</time>
      </trkpt>
      <trkpt lat="46.24587" lon="5.3856">
        <ele>351.2</ele>
        <time>2022-07-19T06:10:25Z</time>
      </trkpt>
      <trkpt lat="46.24588" lon="5.38575">
        <ele>351.6</ele>
        <time>2022-07-19T06:10:27Z</time>
      </trkpt>
      <trkpt lat="46.24589" lon="5.38596">
        <ele>352.4</ele>
        <time>2022-07-19T06:10:30Z</time>
      </trkpt>
      <trkpt lat="46.24589" lon="5.38623">
        <ele>353.4</ele>
        <time>2022-07-19T06:10:34Z</time>
      </trkpt>
      <trkpt lat="46.24589" lon="5.38644">
        <ele>354</ele>
        <time>2022-07-19T06:10:37Z</time>
      </trkpt>
      <trkpt lat="46.24588" lon="5.38666">
        <ele>354.6</ele>
        <time>2022-07-19T06:10:40Z</time>
      </trkpt>
      <trkpt lat="46.24589" lon="5.38696">
        <ele>355.8</ele>
        <time>2022-07-19T06:10:45Z</time>
      </trkpt>
      <trkpt lat="46.24589" lon="5.38713">
        <ele>356</ele>
        <time>2022-07-19T06:10:47Z</time>
      </trkpt>
      <trkpt lat="46.24591" lon="5.38741">
        <ele>356.6</ele>
        <time>2022-07-19T06:10:51Z</time>
      </trkpt>
      <trkpt lat="46.24597" lon="5.38768">
        <ele>357.6</ele>
        <time>2022-07-19T06:10:55Z</time>
      </trkpt>
      <trkpt lat="46.24598" lon="5.38773">
        <ele>357.6</ele>
        <time>2022-07-19T06:10:56Z</time>
      </trkpt>
      <trkpt lat="46.24612" lon="5.38812">
        <ele>358.8</ele>
        <time>2022-07-19T06:11:02Z</time>
      </trkpt>
      <trkpt lat="46.24615" lon="5.38818">
        <ele>359</ele>
        <time>2022-07-19T06:11:03Z</time>
      </trkpt>
      <trkpt lat="46.24625" lon="5.38834">
        <ele>359.8</ele>
        <time>2022-07-19T06:11:06Z</time>
      </trkpt>
      <trkpt lat="46.24641" lon="5.38857">
        <ele>360.8</ele>
        <time>2022-07-19T06:11:11Z</time>
      </trkpt>
      <trkpt lat="46.24652" lon="5.38868">
        <ele>361.8</ele>
        <time>2022-07-19T06:11:14Z</time>
      </trkpt>
      <trkpt lat="46.24657" lon="5.38871">
        <ele>362</ele>
        <time>2022-07-19T06:11:15Z</time>
      </trkpt>
      <trkpt lat="46.24665" lon="5.38877">
        <ele>362.4</ele>
        <time>2022-07-19T06:11:17Z</time>
      </trkpt>
      <trkpt lat="46.24679" lon="5.38888">
        <ele>363</ele>
        <time>2022-07-19T06:11:20Z</time>
      </trkpt>
      <trkpt lat="46.24706" lon="5.38908">
        <ele>364</ele>
        <time>2022-07-19T06:11:26Z</time>
      </trkpt>
      <trkpt lat="46.24728" lon="5.38927">
        <ele>365.2</ele>
        <time>2022-07-19T06:11:31Z</time>
      </trkpt>
      <trkpt lat="46.24741" lon="5.38939">
        <ele>365.8</ele>
        <time>2022-07-19T06:11:34Z</time>
      </trkpt>
      <trkpt lat="46.24749" lon="5.38947">
        <ele>366.2</ele>
        <time>2022-07-19T06:11:36Z</time>
      </trkpt>
      <trkpt lat="46.24767" lon="5.38971">
        <ele>367.2</ele>
        <time>2022-07-19T06:11:41Z</time>
      </trkpt>
      <trkpt lat="46.24771" lon="5.38977">
        <ele>367.4</ele>
        <time>2022-07-19T06:11:42Z</time>
      </trkpt>
      <trkpt lat="46.2478" lon="5.38993">
        <ele>368.2</ele>
        <time>2022-07-19T06:11:45Z</time>
      </trkpt>
      <trkpt lat="46.24785" lon="5.39005">
        <ele>368.6</ele>
        <time>2022-07-19T06:11:47Z</time>
      </trkpt>
      <trkpt lat="46.24787" lon="5.39011">
        <ele>368.6</ele>
        <time>2022-07-19T06:11:48Z</time>
      </trkpt>
      <trkpt lat="46.24797" lon="5.39035">
        <ele>369.8</ele>
        <time>2022-07-19T06:11:52Z</time>
      </trkpt>
      <trkpt lat="46.24808" lon="5.39062">
        <ele>370.6</ele>
        <time>2022-07-19T06:11:56Z</time>
      </trkpt>
      <trkpt lat="46.24815" lon="5.39081">
        <ele>370.8</ele>
        <time>2022-07-19T06:11:59Z</time>
      </trkpt>
      <trkpt lat="46.2484" lon="5.3914">
        <ele>371.8</ele>
        <time>2022-07-19T06:12:08Z</time>
      </trkpt>
      <trkpt lat="46.24868" lon="5.39203">
        <ele>371.6</ele>
        <time>2022-07-19T06:12:16Z</time>
      </trkpt>
      <trkpt lat="46.24886" lon="5.39252">
        <ele>371.2</ele>
        <time>2022-07-19T06:12:22Z</time>
      </trkpt>
      <trkpt lat="46.24889" lon="5.39261">
        <ele>371.2</ele>
        <time>2022-07-19T06:12:23Z</time>
      </trkpt>
      <trkpt lat="46.24896" lon="5.39285">
        <ele>371</ele>
        <time>2022-07-19T06:12:26Z</time>
      </trkpt>
      <trkpt lat="46.24913" lon="5.39337">
        <ele>370</ele>
        <time>2022-07-19T06:12:31Z</time>
      </trkpt>
      <trkpt lat="46.24919" lon="5.39358">
        <ele>369.4</ele>
        <time>2022-07-19T06:12:33Z</time>
      </trkpt>
      <trkpt lat="46.24924" lon="5.39387">
        <ele>368.8</ele>
        <time>2022-07-19T06:12:35Z</time>
      </trkpt>
      <trkpt lat="46.24928" lon="5.39414">
        <ele>367.8</ele>
        <time>2022-07-19T06:12:37Z</time>
      </trkpt>
      <trkpt lat="46.24932" lon="5.39441">
        <ele>366.8</ele>
        <time>2022-07-19T06:12:39Z</time>
      </trkpt>
      <trkpt lat="46.24935" lon="5.39469">
        <ele>365.6</ele>
        <time>2022-07-19T06:12:41Z</time>
      </trkpt>
      <trkpt lat="46.24936" lon="5.39483">
        <ele>365</ele>
        <time>2022-07-19T06:12:42Z</time>
      </trkpt>
      <trkpt lat="46.24941" lon="5.39525">
        <ele>363.8</ele>
        <time>2022-07-19T06:12:45Z</time>
      </trkpt>
      <trkpt lat="46.24946" lon="5.39567">
        <ele>362.6</ele>
        <time>2022-07-19T06:12:48Z</time>
      </trkpt>
      <trkpt lat="46.24948" lon="5.39593">
        <ele>361.6</ele>
        <time>2022-07-19T06:12:50Z</time>
      </trkpt>
      <trkpt lat="46.2495" lon="5.39607">
        <ele>361</ele>
        <time>2022-07-19T06:12:51Z</time>
      </trkpt>
      <trkpt lat="46.24951" lon="5.39622">
        <ele>360.4</ele>
        <time>2022-07-19T06:12:52Z</time>
      </trkpt>
      <trkpt lat="46.24954" lon="5.39653">
        <ele>359.4</ele>
        <time>2022-07-19T06:12:54Z</time>
      </trkpt>
      <trkpt lat="46.24957" lon="5.39696">
        <ele>358</ele>
        <time>2022-07-19T06:12:57Z</time>
      </trkpt>
      <trkpt lat="46.2496" lon="5.39724">
        <ele>357</ele>
        <time>2022-07-19T06:12:59Z</time>
      </trkpt>
      <trkpt lat="46.24962" lon="5.39735">
        <ele>356.6</ele>
        <time>2022-07-19T06:13:00Z</time>
      </trkpt>
      <trkpt lat="46.24963" lon="5.39753">
        <ele>355.8</ele>
        <time>2022-07-19T06:13:01Z</time>
      </trkpt>
      <trkpt lat="46.24971" lon="5.39808">
        <ele>354.4</ele>
        <time>2022-07-19T06:13:05Z</time>
      </trkpt>
      <trkpt lat="46.24974" lon="5.39821">
        <ele>353.8</ele>
        <time>2022-07-19T06:13:06Z</time>
      </trkpt>
      <trkpt lat="46.24979" lon="5.39834">
        <ele>353.4</ele>
        <time>2022-07-19T06:13:07Z</time>
      </trkpt>
      <trkpt lat="46.24996" lon="5.39871">
        <ele>352.2</ele>
        <time>2022-07-19T06:13:10Z</time>
      </trkpt>
      <trkpt lat="46.25022" lon="5.3992">
        <ele>350.6</ele>
        <time>2022-07-19T06:13:14Z</time>
      </trkpt>
      <trkpt lat="46.2504" lon="5.39953">
        <ele>349.2</ele>
        <time>2022-07-19T06:13:17Z</time>
      </trkpt>
      <trkpt lat="46.25049" lon="5.39966">
        <ele>348.8</ele>
        <time>2022-07-19T06:13:18Z</time>
      </trkpt>
      <trkpt lat="46.25076" lon="5.39993">
        <ele>347.8</ele>
        <time>2022-07-19T06:13:21Z</time>
      </trkpt>
      <trkpt lat="46.25104" lon="5.40017">
        <ele>346.4</ele>
        <time>2022-07-19T06:13:24Z</time>
      </trkpt>
      <trkpt lat="46.25134" lon="5.40039">
        <ele>345.4</ele>
        <time>2022-07-19T06:13:27Z</time>
      </trkpt>
      <trkpt lat="46.25144" lon="5.40046">
        <ele>345</ele>
        <time>2022-07-19T06:13:28Z</time>
      </trkpt>
      <trkpt lat="46.25154" lon="5.40051">
        <ele>344.4</ele>
        <time>2022-07-19T06:13:29Z</time>
      </trkpt>
      <trkpt lat="46.25175" lon="5.40061">
        <ele>343.2</ele>
        <time>2022-07-19T06:13:31Z</time>
      </trkpt>
      <trkpt lat="46.25207" lon="5.40073">
        <ele>341.8</ele>
        <time>2022-07-19T06:13:34Z</time>
      </trkpt>
      <trkpt lat="46.25228" lon="5.40077">
        <ele>340.6</ele>
        <time>2022-07-19T06:13:36Z</time>
      </trkpt>
      <trkpt lat="46.2525" lon="5.40076">
        <ele>340</ele>
        <time>2022-07-19T06:13:38Z</time>
      </trkpt>
      <trkpt lat="46.25261" lon="5.40076">
        <ele>339.6</ele>
        <time>2022-07-19T06:13:39Z</time>
      </trkpt>
      <trkpt lat="46.25292" lon="5.40072">
        <ele>338.2</ele>
        <time>2022-07-19T06:13:42Z</time>
      </trkpt>
      <trkpt lat="46.25304" lon="5.40073">
        <ele>337.4</ele>
        <time>2022-07-19T06:13:43Z</time>
      </trkpt>
      <trkpt lat="46.25317" lon="5.40075">
        <ele>336.8</ele>
        <time>2022-07-19T06:13:44Z</time>
      </trkpt>
      <trkpt lat="46.25338" lon="5.40083">
        <ele>335.8</ele>
        <time>2022-07-19T06:13:46Z</time>
      </trkpt>
      <trkpt lat="46.25348" lon="5.40091">
        <ele>335.2</ele>
        <time>2022-07-19T06:13:47Z</time>
      </trkpt>
      <trkpt lat="46.25381" lon="5.4012">
        <ele>334</ele>
        <time>2022-07-19T06:13:50Z</time>
      </trkpt>
      <trkpt lat="46.25399" lon="5.40137">
        <ele>332.8</ele>
        <time>2022-07-19T06:13:52Z</time>
      </trkpt>
      <trkpt lat="46.25418" lon="5.40154">
        <ele>331.8</ele>
        <time>2022-07-19T06:13:54Z</time>
      </trkpt>
      <trkpt lat="46.2545" lon="5.40185">
        <ele>330.4</ele>
        <time>2022-07-19T06:13:57Z</time>
      </trkpt>
      <trkpt lat="46.25459" lon="5.40194">
        <ele>330</ele>
        <time>2022-07-19T06:13:58Z</time>
      </trkpt>
      <trkpt lat="46.25468" lon="5.40202">
        <ele>329.2</ele>
        <time>2022-07-19T06:13:59Z</time>
      </trkpt>
      <trkpt lat="46.25487" lon="5.40219">
        <ele>328.2</ele>
        <time>2022-07-19T06:14:01Z</time>
      </trkpt>
      <trkpt lat="46.25505" lon="5.40236">
        <ele>327</ele>
        <time>2022-07-19T06:14:03Z</time>
      </trkpt>
      <trkpt lat="46.25523" lon="5.40254">
        <ele>326.2</ele>
        <time>2022-07-19T06:14:05Z</time>
      </trkpt>
      <trkpt lat="46.2553" lon="5.40265">
        <ele>325.8</ele>
        <time>2022-07-19T06:14:06Z</time>
      </trkpt>
      <trkpt lat="46.25537" lon="5.40277">
        <ele>325.6</ele>
        <time>2022-07-19T06:14:07Z</time>
      </trkpt>
      <trkpt lat="46.25542" lon="5.40289">
        <ele>325</ele>
        <time>2022-07-19T06:14:08Z</time>
      </trkpt>
      <trkpt lat="46.25547" lon="5.40303">
        <ele>324.6</ele>
        <time>2022-07-19T06:14:09Z</time>
      </trkpt>
      <trkpt lat="46.25555" lon="5.40337">
        <ele>323.2</ele>
        <time>2022-07-19T06:14:12Z</time>
      </trkpt>
      <trkpt lat="46.25556" lon="5.40352">
        <ele>322.8</ele>
        <time>2022-07-19T06:14:13Z</time>
      </trkpt>
      <trkpt lat="46.25556" lon="5.40388">
        <ele>322.2</ele>
        <time>2022-07-19T06:14:15Z</time>
      </trkpt>
      <trkpt lat="46.25553" lon="5.40405">
        <ele>322</ele>
        <time>2022-07-19T06:14:16Z</time>
      </trkpt>
      <trkpt lat="46.25545" lon="5.40429">
        <ele>321.2</ele>
        <time>2022-07-19T06:14:18Z</time>
      </trkpt>
      <trkpt lat="46.25537" lon="5.40457">
        <ele>320.8</ele>
        <time>2022-07-19T06:14:20Z</time>
      </trkpt>
      <trkpt lat="46.25533" lon="5.40473">
        <ele>319.8</ele>
        <time>2022-07-19T06:14:21Z</time>
      </trkpt>
      <trkpt lat="46.25521" lon="5.40514">
        <ele>318.2</ele>
        <time>2022-07-19T06:14:24Z</time>
      </trkpt>
      <trkpt lat="46.25507" lon="5.40562">
        <ele>317</ele>
        <time>2022-07-19T06:14:28Z</time>
      </trkpt>
      <trkpt lat="46.25497" lon="5.40602">
        <ele>316.4</ele>
        <time>2022-07-19T06:14:31Z</time>
      </trkpt>
      <trkpt lat="46.25475" lon="5.40684">
        <ele>316.4</ele>
        <time>2022-07-19T06:14:38Z</time>
      </trkpt>
      <trkpt lat="46.25455" lon="5.4076">
        <ele>317.2</ele>
        <time>2022-07-19T06:14:45Z</time>
      </trkpt>
      <trkpt lat="46.2545" lon="5.4078">
        <ele>317.4</ele>
        <time>2022-07-19T06:14:47Z</time>
      </trkpt>
      <trkpt lat="46.2543" lon="5.40853">
        <ele>317.2</ele>
        <time>2022-07-19T06:14:54Z</time>
      </trkpt>
      <trkpt lat="46.25408" lon="5.40935">
        <ele>316.4</ele>
        <time>2022-07-19T06:15:02Z</time>
      </trkpt>
      <trkpt lat="46.25405" lon="5.40946">
        <ele>316.4</ele>
        <time>2022-07-19T06:15:03Z</time>
      </trkpt>
      <trkpt lat="46.25385" lon="5.41022">
        <ele>316.2</ele>
        <time>2022-07-19T06:15:10Z</time>
      </trkpt>
      <trkpt lat="46.25382" lon="5.41033">
        <ele>316</ele>
        <time>2022-07-19T06:15:11Z</time>
      </trkpt>
      <trkpt lat="46.25378" lon="5.41048">
        <ele>315.8</ele>
        <time>2022-07-19T06:15:13Z</time>
      </trkpt>
      <trkpt lat="46.25355" lon="5.41132">
        <ele>314.8</ele>
        <time>2022-07-19T06:15:20Z</time>
      </trkpt>
      <trkpt lat="46.25352" lon="5.41143">
        <ele>314.6</ele>
        <time>2022-07-19T06:15:21Z</time>
      </trkpt>
      <trkpt lat="46.25331" lon="5.41219">
        <ele>314.2</ele>
        <time>2022-07-19T06:15:28Z</time>
      </trkpt>
      <trkpt lat="46.25325" lon="5.41241">
        <ele>314</ele>
        <time>2022-07-19T06:15:30Z</time>
      </trkpt>
      <trkpt lat="46.2531" lon="5.41293">
        <ele>313.8</ele>
        <time>2022-07-19T06:15:35Z</time>
      </trkpt>
      <trkpt lat="46.25303" lon="5.41311">
        <ele>313.8</ele>
        <time>2022-07-19T06:15:37Z</time>
      </trkpt>
      <trkpt lat="46.25287" lon="5.41341">
        <ele>313.8</ele>
        <time>2022-07-19T06:15:41Z</time>
      </trkpt>
      <trkpt lat="46.25275" lon="5.41358">
        <ele>314.4</ele>
        <time>2022-07-19T06:15:44Z</time>
      </trkpt>
      <trkpt lat="46.25268" lon="5.4137">
        <ele>315</ele>
        <time>2022-07-19T06:15:46Z</time>
      </trkpt>
      <trkpt lat="46.25256" lon="5.41386">
        <ele>316.4</ele>
        <time>2022-07-19T06:15:49Z</time>
      </trkpt>
      <trkpt lat="46.25249" lon="5.41396">
        <ele>317.4</ele>
        <time>2022-07-19T06:15:51Z</time>
      </trkpt>
      <trkpt lat="46.25243" lon="5.41402">
        <ele>317.8</ele>
        <time>2022-07-19T06:15:52Z</time>
      </trkpt>
      <trkpt lat="46.25225" lon="5.41426">
        <ele>318.6</ele>
        <time>2022-07-19T06:15:57Z</time>
      </trkpt>
      <trkpt lat="46.25218" lon="5.41436">
        <ele>319.4</ele>
        <time>2022-07-19T06:15:59Z</time>
      </trkpt>
      <trkpt lat="46.25215" lon="5.41441">
        <ele>319.6</ele>
        <time>2022-07-19T06:16:00Z</time>
      </trkpt>
      <trkpt lat="46.25199" lon="5.41459">
        <ele>320.8</ele>
        <time>2022-07-19T06:16:04Z</time>
      </trkpt>
      <trkpt lat="46.25195" lon="5.41464">
        <ele>321</ele>
        <time>2022-07-19T06:16:05Z</time>
      </trkpt>
      <trkpt lat="46.25187" lon="5.41472">
        <ele>321.4</ele>
        <time>2022-07-19T06:16:07Z</time>
      </trkpt>
      <trkpt lat="46.25174" lon="5.41482">
        <ele>322</ele>
        <time>2022-07-19T06:16:10Z</time>
      </trkpt>
      <trkpt lat="46.25169" lon="5.41484">
        <ele>322.2</ele>
        <time>2022-07-19T06:16:11Z</time>
      </trkpt>
      <trkpt lat="46.25163" lon="5.41486">
        <ele>322.4</ele>
        <time>2022-07-19T06:16:12Z</time>
      </trkpt>
      <trkpt lat="46.25152" lon="5.41491">
        <ele>323.4</ele>
        <time>2022-07-19T06:16:15Z</time>
      </trkpt>
      <trkpt lat="46.25132" lon="5.41501">
        <ele>324.4</ele>
        <time>2022-07-19T06:16:19Z</time>
      </trkpt>
      <trkpt lat="46.25127" lon="5.41503">
        <ele>324.6</ele>
        <time>2022-07-19T06:16:20Z</time>
      </trkpt>
      <trkpt lat="46.25105" lon="5.41513">
        <ele>325.4</ele>
        <time>2022-07-19T06:16:25Z</time>
      </trkpt>
      <trkpt lat="46.25101" lon="5.41515">
        <ele>325.6</ele>
        <time>2022-07-19T06:16:26Z</time>
      </trkpt>
      <trkpt lat="46.2507" lon="5.41528">
        <ele>326.8</ele>
        <time>2022-07-19T06:16:33Z</time>
      </trkpt>
      <trkpt lat="46.25065" lon="5.4153">
        <ele>327</ele>
        <time>2022-07-19T06:16:34Z</time>
      </trkpt>
      <trkpt lat="46.25056" lon="5.41535">
        <ele>327.8</ele>
        <time>2022-07-19T06:16:36Z</time>
      </trkpt>
      <trkpt lat="46.25035" lon="5.41551">
        <ele>328.8</ele>
        <time>2022-07-19T06:16:41Z</time>
      </trkpt>
      <trkpt lat="46.25031" lon="5.41555">
        <ele>329</ele>
        <time>2022-07-19T06:16:42Z</time>
      </trkpt>
      <trkpt lat="46.25012" lon="5.41575">
        <ele>330</ele>
        <time>2022-07-19T06:16:47Z</time>
      </trkpt>
      <trkpt lat="46.25008" lon="5.4158">
        <ele>330</ele>
        <time>2022-07-19T06:16:48Z</time>
      </trkpt>
      <trkpt lat="46.24993" lon="5.41597">
        <ele>331</ele>
        <time>2022-07-19T06:16:52Z</time>
      </trkpt>
      <trkpt lat="46.24979" lon="5.41614">
        <ele>331.4</ele>
        <time>2022-07-19T06:16:56Z</time>
      </trkpt>
      <trkpt lat="46.24973" lon="5.41623">
        <ele>332</ele>
        <time>2022-07-19T06:16:58Z</time>
      </trkpt>
      <trkpt lat="46.2497" lon="5.41628">
        <ele>332.2</ele>
        <time>2022-07-19T06:16:59Z</time>
      </trkpt>
      <trkpt lat="46.24962" lon="5.41644">
        <ele>332.6</ele>
        <time>2022-07-19T06:17:02Z</time>
      </trkpt>
      <trkpt lat="46.24954" lon="5.41661">
        <ele>333.2</ele>
        <time>2022-07-19T06:17:05Z</time>
      </trkpt>
      <trkpt lat="46.24946" lon="5.41693">
        <ele>334.2</ele>
        <time>2022-07-19T06:17:10Z</time>
      </trkpt>
      <trkpt lat="46.2494" lon="5.41745">
        <ele>335.2</ele>
        <time>2022-07-19T06:17:17Z</time>
      </trkpt>
      <trkpt lat="46.24939" lon="5.41753">
        <ele>335.2</ele>
        <time>2022-07-19T06:17:18Z</time>
      </trkpt>
      <trkpt lat="46.24937" lon="5.4182">
        <ele>335.4</ele>
        <time>2022-07-19T06:17:26Z</time>
      </trkpt>
      <trkpt lat="46.24934" lon="5.41905">
        <ele>334.8</ele>
        <time>2022-07-19T06:17:35Z</time>
      </trkpt>
      <trkpt lat="46.24931" lon="5.41937">
        <ele>334</ele>
        <time>2022-07-19T06:17:38Z</time>
      </trkpt>
      <trkpt lat="46.24927" lon="5.41959">
        <ele>333.4</ele>
        <time>2022-07-19T06:17:40Z</time>
      </trkpt>
      <trkpt lat="46.24921" lon="5.41981">
        <ele>333.2</ele>
        <time>2022-07-19T06:17:42Z</time>
      </trkpt>
      <trkpt lat="46.24911" lon="5.42002">
        <ele>332.6</ele>
        <time>2022-07-19T06:17:44Z</time>
      </trkpt>
      <trkpt lat="46.249" lon="5.4202">
        <ele>331.4</ele>
        <time>2022-07-19T06:17:46Z</time>
      </trkpt>
      <trkpt lat="46.24893" lon="5.42028">
        <ele>330.8</ele>
        <time>2022-07-19T06:17:47Z</time>
      </trkpt>
      <trkpt lat="46.24886" lon="5.42035">
        <ele>330.2</ele>
        <time>2022-07-19T06:17:48Z</time>
      </trkpt>
      <trkpt lat="46.24855" lon="5.42062">
        <ele>329</ele>
        <time>2022-07-19T06:17:52Z</time>
      </trkpt>
      <trkpt lat="46.2483" lon="5.4208">
        <ele>328</ele>
        <time>2022-07-19T06:17:55Z</time>
      </trkpt>
      <trkpt lat="46.24821" lon="5.42087">
        <ele>328</ele>
        <time>2022-07-19T06:17:56Z</time>
      </trkpt>
      <trkpt lat="46.24804" lon="5.42099">
        <ele>326.6</ele>
        <time>2022-07-19T06:17:58Z</time>
      </trkpt>
      <trkpt lat="46.24795" lon="5.42106">
        <ele>325.2</ele>
        <time>2022-07-19T06:17:59Z</time>
      </trkpt>
      <trkpt lat="46.24777" lon="5.42118">
        <ele>323.8</ele>
        <time>2022-07-19T06:18:01Z</time>
      </trkpt>
      <trkpt lat="46.24759" lon="5.42131">
        <ele>323</ele>
        <time>2022-07-19T06:18:03Z</time>
      </trkpt>
      <trkpt lat="46.24741" lon="5.42144">
        <ele>322.6</ele>
        <time>2022-07-19T06:18:05Z</time>
      </trkpt>
      <trkpt lat="46.24703" lon="5.42171">
        <ele>321.4</ele>
        <time>2022-07-19T06:18:09Z</time>
      </trkpt>
      <trkpt lat="46.24682" lon="5.42189">
        <ele>319.8</ele>
        <time>2022-07-19T06:18:11Z</time>
      </trkpt>
      <trkpt lat="46.24663" lon="5.42217">
        <ele>319</ele>
        <time>2022-07-19T06:18:14Z</time>
      </trkpt>
      <trkpt lat="46.24657" lon="5.4223">
        <ele>318</ele>
        <time>2022-07-19T06:18:15Z</time>
      </trkpt>
      <trkpt lat="46.24649" lon="5.4225">
        <ele>317.6</ele>
        <time>2022-07-19T06:18:16Z</time>
      </trkpt>
      <trkpt lat="46.24646" lon="5.42265">
        <ele>316.6</ele>
        <time>2022-07-19T06:18:17Z</time>
      </trkpt>
      <trkpt lat="46.24644" lon="5.4228">
        <ele>316</ele>
        <time>2022-07-19T06:18:18Z</time>
      </trkpt>
      <trkpt lat="46.24643" lon="5.4231">
        <ele>314.6</ele>
        <time>2022-07-19T06:18:20Z</time>
      </trkpt>
      <trkpt lat="46.24643" lon="5.42319">
        <ele>314.2</ele>
        <time>2022-07-19T06:18:21Z</time>
      </trkpt>
      <trkpt lat="46.24645" lon="5.42329">
        <ele>313.6</ele>
        <time>2022-07-19T06:18:22Z</time>
      </trkpt>
      <trkpt lat="46.24649" lon="5.42337">
        <ele>313.2</ele>
        <time>2022-07-19T06:18:23Z</time>
      </trkpt>
      <trkpt lat="46.24661" lon="5.42346">
        <ele>312.6</ele>
        <time>2022-07-19T06:18:25Z</time>
      </trkpt>
      <trkpt lat="46.24668" lon="5.42347">
        <ele>312.6</ele>
        <time>2022-07-19T06:18:26Z</time>
      </trkpt>
      <trkpt lat="46.24708" lon="5.42353">
        <ele>311.4</ele>
        <time>2022-07-19T06:18:31Z</time>
      </trkpt>
      <trkpt lat="46.24716" lon="5.42354">
        <ele>311.2</ele>
        <time>2022-07-19T06:18:32Z</time>
      </trkpt>
      <trkpt lat="46.24771" lon="5.42358">
        <ele>310.6</ele>
        <time>2022-07-19T06:18:39Z</time>
      </trkpt>
      <trkpt lat="46.24794" lon="5.42361">
        <ele>310.8</ele>
        <time>2022-07-19T06:18:42Z</time>
      </trkpt>
      <trkpt lat="46.24817" lon="5.42364">
        <ele>310.8</ele>
        <time>2022-07-19T06:18:45Z</time>
      </trkpt>
      <trkpt lat="46.24878" lon="5.42369">
        <ele>311.2</ele>
        <time>2022-07-19T06:18:53Z</time>
      </trkpt>
      <trkpt lat="46.24886" lon="5.4237">
        <ele>311.4</ele>
        <time>2022-07-19T06:18:54Z</time>
      </trkpt>
      <trkpt lat="46.24946" lon="5.42377">
        <ele>311.6</ele>
        <time>2022-07-19T06:19:02Z</time>
      </trkpt>
      <trkpt lat="46.24961" lon="5.42379">
        <ele>311.6</ele>
        <time>2022-07-19T06:19:04Z</time>
      </trkpt>
      <trkpt lat="46.2502" lon="5.42385">
        <ele>311.6</ele>
        <time>2022-07-19T06:19:12Z</time>
      </trkpt>
      <trkpt lat="46.25035" lon="5.42387">
        <ele>311.4</ele>
        <time>2022-07-19T06:19:14Z</time>
      </trkpt>
      <trkpt lat="46.25092" lon="5.42394">
        <ele>311.2</ele>
        <time>2022-07-19T06:19:22Z</time>
      </trkpt>
      <trkpt lat="46.25148" lon="5.42402">
        <ele>311.6</ele>
        <time>2022-07-19T06:19:30Z</time>
      </trkpt>
      <trkpt lat="46.25155" lon="5.42403">
        <ele>311.6</ele>
        <time>2022-07-19T06:19:31Z</time>
      </trkpt>
      <trkpt lat="46.25205" lon="5.42409">
        <ele>312</ele>
        <time>2022-07-19T06:19:38Z</time>
      </trkpt>
      <trkpt lat="46.25248" lon="5.42415">
        <ele>312</ele>
        <time>2022-07-19T06:19:45Z</time>
      </trkpt>
      <trkpt lat="46.25254" lon="5.42415">
        <ele>312.2</ele>
        <time>2022-07-19T06:19:46Z</time>
      </trkpt>
      <trkpt lat="46.25283" lon="5.42421">
        <ele>312.4</ele>
        <time>2022-07-19T06:19:51Z</time>
      </trkpt>
      <trkpt lat="46.25296" lon="5.42423">
        <ele>312.6</ele>
        <time>2022-07-19T06:19:53Z</time>
      </trkpt>
      <trkpt lat="46.25333" lon="5.42429">
        <ele>311.6</ele>
        <time>2022-07-19T06:19:58Z</time>
      </trkpt>
      <trkpt lat="46.2539" lon="5.42438">
        <ele>311.4</ele>
        <time>2022-07-19T06:20:06Z</time>
      </trkpt>
      <trkpt lat="46.25404" lon="5.42441">
        <ele>311.4</ele>
        <time>2022-07-19T06:20:08Z</time>
      </trkpt>
      <trkpt lat="46.2546" lon="5.42451">
        <ele>311.4</ele>
        <time>2022-07-19T06:20:16Z</time>
      </trkpt>
      <trkpt lat="46.2548" lon="5.42454">
        <ele>311.6</ele>
        <time>2022-07-19T06:20:19Z</time>
      </trkpt>
      <trkpt lat="46.25535" lon="5.42463">
        <ele>311.6</ele>
        <time>2022-07-19T06:20:27Z</time>
      </trkpt>
      <trkpt lat="46.25595" lon="5.42472">
        <ele>311.8</ele>
        <time>2022-07-19T06:20:36Z</time>
      </trkpt>
      <trkpt lat="46.25616" lon="5.42475">
        <ele>311.8</ele>
        <time>2022-07-19T06:20:39Z</time>
      </trkpt>
      <trkpt lat="46.25676" lon="5.42484">
        <ele>311.6</ele>
        <time>2022-07-19T06:20:48Z</time>
      </trkpt>
      <trkpt lat="46.25683" lon="5.42486">
        <ele>311.6</ele>
        <time>2022-07-19T06:20:49Z</time>
      </trkpt>
      <trkpt lat="46.25739" lon="5.42494">
        <ele>311.4</ele>
        <time>2022-07-19T06:20:58Z</time>
      </trkpt>
      <trkpt lat="46.25751" lon="5.42497">
        <ele>311.4</ele>
        <time>2022-07-19T06:21:00Z</time>
      </trkpt>
      <trkpt lat="46.25809" lon="5.42506">
        <ele>312</ele>
        <time>2022-07-19T06:21:09Z</time>
      </trkpt>
      <trkpt lat="46.25822" lon="5.42507">
        <ele>312.2</ele>
        <time>2022-07-19T06:21:11Z</time>
      </trkpt>
      <trkpt lat="46.2588" lon="5.42517">
        <ele>312.6</ele>
        <time>2022-07-19T06:21:20Z</time>
      </trkpt>
      <trkpt lat="46.25938" lon="5.42525">
        <ele>313.2</ele>
        <time>2022-07-19T06:21:29Z</time>
      </trkpt>
      <trkpt lat="46.25945" lon="5.42526">
        <ele>313.2</ele>
        <time>2022-07-19T06:21:30Z</time>
      </trkpt>
      <trkpt lat="46.25958" lon="5.42528">
        <ele>313.4</ele>
        <time>2022-07-19T06:21:32Z</time>
      </trkpt>
      <trkpt lat="46.26012" lon="5.42537">
        <ele>313.2</ele>
        <time>2022-07-19T06:21:40Z</time>
      </trkpt>
      <trkpt lat="46.26019" lon="5.42539">
        <ele>313.2</ele>
        <time>2022-07-19T06:21:41Z</time>
      </trkpt>
      <trkpt lat="46.26019" lon="5.42539">
        <ele>313.2</ele>
        <time>2022-07-19T06:21:42Z</time>
      </trkpt>
      <trkpt lat="46.26078" lon="5.42547">
        <ele>313.4</ele>
        <time>2022-07-19T06:21:50Z</time>
      </trkpt>
      <trkpt lat="46.26084" lon="5.42549">
        <ele>313.4</ele>
        <time>2022-07-19T06:21:51Z</time>
      </trkpt>
      <trkpt lat="46.26133" lon="5.42556">
        <ele>313</ele>
        <time>2022-07-19T06:21:59Z</time>
      </trkpt>
      <trkpt lat="46.26189" lon="5.42564">
        <ele>313</ele>
        <time>2022-07-19T06:22:08Z</time>
      </trkpt>
      <trkpt lat="46.2624" lon="5.42571">
        <ele>313.2</ele>
        <time>2022-07-19T06:22:16Z</time>
      </trkpt>
      <trkpt lat="46.26296" lon="5.42577">
        <ele>313.6</ele>
        <time>2022-07-19T06:22:25Z</time>
      </trkpt>
      <trkpt lat="46.26337" lon="5.42582">
        <ele>314</ele>
        <time>2022-07-19T06:22:32Z</time>
      </trkpt>
      <trkpt lat="46.26349" lon="5.42583">
        <ele>314</ele>
        <time>2022-07-19T06:22:34Z</time>
      </trkpt>
      <trkpt lat="46.26361" lon="5.42585">
        <ele>314</ele>
        <time>2022-07-19T06:22:36Z</time>
      </trkpt>
      <trkpt lat="46.26373" lon="5.42587">
        <ele>314.2</ele>
        <time>2022-07-19T06:22:38Z</time>
      </trkpt>
      <trkpt lat="46.26392" lon="5.42591">
        <ele>314.2</ele>
        <time>2022-07-19T06:22:41Z</time>
      </trkpt>
      <trkpt lat="46.26431" lon="5.42598">
        <ele>314.2</ele>
        <time>2022-07-19T06:22:47Z</time>
      </trkpt>
      <trkpt lat="46.2645" lon="5.42602">
        <ele>314.2</ele>
        <time>2022-07-19T06:22:50Z</time>
      </trkpt>
      <trkpt lat="46.26469" lon="5.42607">
        <ele>314.6</ele>
        <time>2022-07-19T06:22:53Z</time>
      </trkpt>
      <trkpt lat="46.26475" lon="5.42608">
        <ele>314.6</ele>
        <time>2022-07-19T06:22:54Z</time>
      </trkpt>
      <trkpt lat="46.26481" lon="5.4261">
        <ele>314.6</ele>
        <time>2022-07-19T06:22:55Z</time>
      </trkpt>
      <trkpt lat="46.26498" lon="5.42616">
        <ele>314.8</ele>
        <time>2022-07-19T06:22:58Z</time>
      </trkpt>
      <trkpt lat="46.26516" lon="5.42621">
        <ele>314.8</ele>
        <time>2022-07-19T06:23:01Z</time>
      </trkpt>
      <trkpt lat="46.26541" lon="5.42624">
        <ele>315.2</ele>
        <time>2022-07-19T06:23:05Z</time>
      </trkpt>
      <trkpt lat="46.26588" lon="5.42632">
        <ele>315.4</ele>
        <time>2022-07-19T06:23:12Z</time>
      </trkpt>
      <trkpt lat="46.26647" lon="5.42647">
        <ele>315.2</ele>
        <time>2022-07-19T06:23:21Z</time>
      </trkpt>
      <trkpt lat="46.26685" lon="5.42656">
        <ele>315.6</ele>
        <time>2022-07-19T06:23:27Z</time>
      </trkpt>
      <trkpt lat="46.26697" lon="5.4266">
        <ele>315.8</ele>
        <time>2022-07-19T06:23:29Z</time>
      </trkpt>
      <trkpt lat="46.26755" lon="5.42675">
        <ele>316</ele>
        <time>2022-07-19T06:23:38Z</time>
      </trkpt>
      <trkpt lat="46.26762" lon="5.42677">
        <ele>316</ele>
        <time>2022-07-19T06:23:39Z</time>
      </trkpt>
      <trkpt lat="46.26812" lon="5.4269">
        <ele>316</ele>
        <time>2022-07-19T06:23:47Z</time>
      </trkpt>
      <trkpt lat="46.26851" lon="5.42703">
        <ele>316</ele>
        <time>2022-07-19T06:23:53Z</time>
      </trkpt>
      <trkpt lat="46.26897" lon="5.42722">
        <ele>316.4</ele>
        <time>2022-07-19T06:24:01Z</time>
      </trkpt>
      <trkpt lat="46.26903" lon="5.42725">
        <ele>316.6</ele>
        <time>2022-07-19T06:24:02Z</time>
      </trkpt>
      <trkpt lat="46.26938" lon="5.42738">
        <ele>317.6</ele>
        <time>2022-07-19T06:24:08Z</time>
      </trkpt>
      <trkpt lat="46.26944" lon="5.4274">
        <ele>317.8</ele>
        <time>2022-07-19T06:24:09Z</time>
      </trkpt>
      <trkpt lat="46.26987" lon="5.42752">
        <ele>318.2</ele>
        <time>2022-07-19T06:24:16Z</time>
      </trkpt>
      <trkpt lat="46.2704" lon="5.42763">
        <ele>318.2</ele>
        <time>2022-07-19T06:24:25Z</time>
      </trkpt>
      <trkpt lat="46.27072" lon="5.42768">
        <ele>318.8</ele>
        <time>2022-07-19T06:24:31Z</time>
      </trkpt>
      <trkpt lat="46.27082" lon="5.42768">
        <ele>319.4</ele>
        <time>2022-07-19T06:24:33Z</time>
      </trkpt>
      <trkpt lat="46.27092" lon="5.42768">
        <ele>319.8</ele>
        <time>2022-07-19T06:24:35Z</time>
      </trkpt>
      <trkpt lat="46.27125" lon="5.42771">
        <ele>320.8</ele>
        <time>2022-07-19T06:24:41Z</time>
      </trkpt>
      <trkpt lat="46.27131" lon="5.42772">
        <ele>321</ele>
        <time>2022-07-19T06:24:42Z</time>
      </trkpt>
      <trkpt lat="46.27159" lon="5.42781">
        <ele>322</ele>
        <time>2022-07-19T06:24:47Z</time>
      </trkpt>
      <trkpt lat="46.27175" lon="5.42789">
        <ele>322.2</ele>
        <time>2022-07-19T06:24:50Z</time>
      </trkpt>
      <trkpt lat="46.27229" lon="5.42819">
        <ele>322.4</ele>
        <time>2022-07-19T06:24:59Z</time>
      </trkpt>
      <trkpt lat="46.27273" lon="5.42849">
        <ele>321.8</ele>
        <time>2022-07-19T06:25:06Z</time>
      </trkpt>
      <trkpt lat="46.27316" lon="5.42877">
        <ele>320.8</ele>
        <time>2022-07-19T06:25:12Z</time>
      </trkpt>
      <trkpt lat="46.27323" lon="5.42881">
        <ele>320.8</ele>
        <time>2022-07-19T06:25:13Z</time>
      </trkpt>
      <trkpt lat="46.27348" lon="5.42891">
        <ele>319.6</ele>
        <time>2022-07-19T06:25:16Z</time>
      </trkpt>
      <trkpt lat="46.27364" lon="5.42897">
        <ele>319.2</ele>
        <time>2022-07-19T06:25:18Z</time>
      </trkpt>
      <trkpt lat="46.27387" lon="5.42905">
        <ele>318.4</ele>
        <time>2022-07-19T06:25:21Z</time>
      </trkpt>
      <trkpt lat="46.27425" lon="5.42918">
        <ele>317.8</ele>
        <time>2022-07-19T06:25:26Z</time>
      </trkpt>
      <trkpt lat="46.27483" lon="5.42936">
        <ele>317.6</ele>
        <time>2022-07-19T06:25:34Z</time>
      </trkpt>
      <trkpt lat="46.27539" lon="5.42953">
        <ele>318</ele>
        <time>2022-07-19T06:25:42Z</time>
      </trkpt>
      <trkpt lat="46.27541" lon="5.42954">
        <ele>318</ele>
        <time>2022-07-19T06:25:43Z</time>
      </trkpt>
      <trkpt lat="46.276" lon="5.42974">
        <ele>318.2</ele>
        <time>2022-07-19T06:25:51Z</time>
      </trkpt>
      <trkpt lat="46.27621" lon="5.42981">
        <ele>318.2</ele>
        <time>2022-07-19T06:25:54Z</time>
      </trkpt>
      <trkpt lat="46.27674" lon="5.42998">
        <ele>318.4</ele>
        <time>2022-07-19T06:26:02Z</time>
      </trkpt>
      <trkpt lat="46.27695" lon="5.43005">
        <ele>318.4</ele>
        <time>2022-07-19T06:26:05Z</time>
      </trkpt>
      <trkpt lat="46.27749" lon="5.43027">
        <ele>318.4</ele>
        <time>2022-07-19T06:26:13Z</time>
      </trkpt>
      <trkpt lat="46.27771" lon="5.43036">
        <ele>318.2</ele>
        <time>2022-07-19T06:26:16Z</time>
      </trkpt>
      <trkpt lat="46.27822" lon="5.43049">
        <ele>317.8</ele>
        <time>2022-07-19T06:26:23Z</time>
      </trkpt>
      <trkpt lat="46.27862" lon="5.43047">
        <ele>317.4</ele>
        <time>2022-07-19T06:26:28Z</time>
      </trkpt>
      <trkpt lat="46.27869" lon="5.43047">
        <ele>317.4</ele>
        <time>2022-07-19T06:26:29Z</time>
      </trkpt>
      <trkpt lat="46.27917" lon="5.43055">
        <ele>317.4</ele>
        <time>2022-07-19T06:26:36Z</time>
      </trkpt>
      <trkpt lat="46.27978" lon="5.43068">
        <ele>317.4</ele>
        <time>2022-07-19T06:26:45Z</time>
      </trkpt>
      <trkpt lat="46.28008" lon="5.43074">
        <ele>318</ele>
        <time>2022-07-19T06:26:49Z</time>
      </trkpt>
      <trkpt lat="46.28064" lon="5.43086">
        <ele>318.2</ele>
        <time>2022-07-19T06:26:57Z</time>
      </trkpt>
      <trkpt lat="46.28094" lon="5.43092">
        <ele>318.2</ele>
        <time>2022-07-19T06:27:01Z</time>
      </trkpt>
      <trkpt lat="46.28149" lon="5.43104">
        <ele>318.2</ele>
        <time>2022-07-19T06:27:09Z</time>
      </trkpt>
      <trkpt lat="46.28156" lon="5.43105">
        <ele>318.2</ele>
        <time>2022-07-19T06:27:10Z</time>
      </trkpt>
      <trkpt lat="46.28212" lon="5.43116">
        <ele>318.2</ele>
        <time>2022-07-19T06:27:18Z</time>
      </trkpt>
      <trkpt lat="46.28219" lon="5.43117">
        <ele>318.2</ele>
        <time>2022-07-19T06:27:19Z</time>
      </trkpt>
      <trkpt lat="46.28274" lon="5.43127">
        <ele>318.2</ele>
        <time>2022-07-19T06:27:27Z</time>
      </trkpt>
      <trkpt lat="46.28288" lon="5.43129">
        <ele>318.4</ele>
        <time>2022-07-19T06:27:29Z</time>
      </trkpt>
      <trkpt lat="46.28323" lon="5.43131">
        <ele>318.4</ele>
        <time>2022-07-19T06:27:34Z</time>
      </trkpt>
      <trkpt lat="46.28342" lon="5.43129">
        <ele>318.4</ele>
        <time>2022-07-19T06:27:37Z</time>
      </trkpt>
      <trkpt lat="46.28399" lon="5.43123">
        <ele>318.4</ele>
        <time>2022-07-19T06:27:45Z</time>
      </trkpt>
      <trkpt lat="46.28419" lon="5.4312">
        <ele>318.4</ele>
        <time>2022-07-19T06:27:48Z</time>
      </trkpt>
      <trkpt lat="46.28479" lon="5.43112">
        <ele>318.8</ele>
        <time>2022-07-19T06:27:57Z</time>
      </trkpt>
      <trkpt lat="46.28484" lon="5.43112">
        <ele>318.6</ele>
        <time>2022-07-19T06:27:58Z</time>
      </trkpt>
      <trkpt lat="46.28544" lon="5.43108">
        <ele>319.2</ele>
        <time>2022-07-19T06:28:07Z</time>
      </trkpt>
      <trkpt lat="46.28557" lon="5.43108">
        <ele>319.4</ele>
        <time>2022-07-19T06:28:09Z</time>
      </trkpt>
      <trkpt lat="46.28596" lon="5.43109">
        <ele>319.6</ele>
        <time>2022-07-19T06:28:15Z</time>
      </trkpt>
      <trkpt lat="46.28633" lon="5.43112">
        <ele>319.8</ele>
        <time>2022-07-19T06:28:21Z</time>
      </trkpt>
      <trkpt lat="46.28691" lon="5.43117">
        <ele>320</ele>
        <time>2022-07-19T06:28:30Z</time>
      </trkpt>
      <trkpt lat="46.28699" lon="5.43118">
        <ele>320.2</ele>
        <time>2022-07-19T06:28:31Z</time>
      </trkpt>
      <trkpt lat="46.28758" lon="5.43125">
        <ele>320.4</ele>
        <time>2022-07-19T06:28:40Z</time>
      </trkpt>
      <trkpt lat="46.28771" lon="5.43128">
        <ele>320.4</ele>
        <time>2022-07-19T06:28:42Z</time>
      </trkpt>
      <trkpt lat="46.28822" lon="5.43147">
        <ele>320.2</ele>
        <time>2022-07-19T06:28:50Z</time>
      </trkpt>
      <trkpt lat="46.28877" lon="5.4317">
        <ele>320.4</ele>
        <time>2022-07-19T06:28:59Z</time>
      </trkpt>
      <trkpt lat="46.28889" lon="5.43175">
        <ele>320.4</ele>
        <time>2022-07-19T06:29:01Z</time>
      </trkpt>
      <trkpt lat="46.28901" lon="5.4318">
        <ele>320.4</ele>
        <time>2022-07-19T06:29:03Z</time>
      </trkpt>
      <trkpt lat="46.28921" lon="5.43188">
        <ele>320.6</ele>
        <time>2022-07-19T06:29:06Z</time>
      </trkpt>
      <trkpt lat="46.28946" lon="5.43198">
        <ele>320.6</ele>
        <time>2022-07-19T06:29:10Z</time>
      </trkpt>
      <trkpt lat="46.29" lon="5.4323">
        <ele>320.6</ele>
        <time>2022-07-19T06:29:19Z</time>
      </trkpt>
      <trkpt lat="46.29044" lon="5.4327">
        <ele>320.6</ele>
        <time>2022-07-19T06:29:27Z</time>
      </trkpt>
      <trkpt lat="46.29092" lon="5.43314">
        <ele>320.8</ele>
        <time>2022-07-19T06:29:36Z</time>
      </trkpt>
      <trkpt lat="46.29104" lon="5.43325">
        <ele>320.8</ele>
        <time>2022-07-19T06:29:38Z</time>
      </trkpt>
      <trkpt lat="46.29146" lon="5.43359">
        <ele>321.2</ele>
        <time>2022-07-19T06:29:46Z</time>
      </trkpt>
      <trkpt lat="46.29197" lon="5.43393">
        <ele>321.6</ele>
        <time>2022-07-19T06:29:55Z</time>
      </trkpt>
      <trkpt lat="46.29203" lon="5.43397">
        <ele>321.6</ele>
        <time>2022-07-19T06:29:56Z</time>
      </trkpt>
      <trkpt lat="46.29215" lon="5.43403">
        <ele>321.6</ele>
        <time>2022-07-19T06:29:58Z</time>
      </trkpt>
      <trkpt lat="46.29254" lon="5.43415">
        <ele>321.8</ele>
        <time>2022-07-19T06:30:04Z</time>
      </trkpt>
      <trkpt lat="46.2926" lon="5.43417">
        <ele>321.8</ele>
        <time>2022-07-19T06:30:05Z</time>
      </trkpt>
      <trkpt lat="46.29311" lon="5.43439">
        <ele>322.2</ele>
        <time>2022-07-19T06:30:13Z</time>
      </trkpt>
      <trkpt lat="46.29352" lon="5.43462">
        <ele>322</ele>
        <time>2022-07-19T06:30:20Z</time>
      </trkpt>
      <trkpt lat="46.29387" lon="5.43485">
        <ele>322</ele>
        <time>2022-07-19T06:30:26Z</time>
      </trkpt>
      <trkpt lat="46.29426" lon="5.43511">
        <ele>322.6</ele>
        <time>2022-07-19T06:30:33Z</time>
      </trkpt>
      <trkpt lat="46.29479" lon="5.43541">
        <ele>324</ele>
        <time>2022-07-19T06:30:42Z</time>
      </trkpt>
      <trkpt lat="46.29491" lon="5.43547">
        <ele>324.2</ele>
        <time>2022-07-19T06:30:44Z</time>
      </trkpt>
      <trkpt lat="46.29539" lon="5.43572">
        <ele>324.2</ele>
        <time>2022-07-19T06:30:52Z</time>
      </trkpt>
      <trkpt lat="46.29593" lon="5.43601">
        <ele>324.4</ele>
        <time>2022-07-19T06:31:01Z</time>
      </trkpt>
      <trkpt lat="46.29611" lon="5.43611">
        <ele>324.8</ele>
        <time>2022-07-19T06:31:04Z</time>
      </trkpt>
      <trkpt lat="46.29664" lon="5.43638">
        <ele>325</ele>
        <time>2022-07-19T06:31:13Z</time>
      </trkpt>
      <trkpt lat="46.29719" lon="5.43667">
        <ele>325.2</ele>
        <time>2022-07-19T06:31:22Z</time>
      </trkpt>
      <trkpt lat="46.29768" lon="5.43692">
        <ele>325.2</ele>
        <time>2022-07-19T06:31:30Z</time>
      </trkpt>
      <trkpt lat="46.2982" lon="5.43718">
        <ele>325.4</ele>
        <time>2022-07-19T06:31:39Z</time>
      </trkpt>
      <trkpt lat="46.29827" lon="5.43721">
        <ele>325.4</ele>
        <time>2022-07-19T06:31:40Z</time>
      </trkpt>
      <trkpt lat="46.29881" lon="5.43745">
        <ele>325.6</ele>
        <time>2022-07-19T06:31:49Z</time>
      </trkpt>
      <trkpt lat="46.29899" lon="5.43753">
        <ele>325.6</ele>
        <time>2022-07-19T06:31:52Z</time>
      </trkpt>
      <trkpt lat="46.29947" lon="5.43773">
        <ele>326</ele>
        <time>2022-07-19T06:32:00Z</time>
      </trkpt>
      <trkpt lat="46.29953" lon="5.43775">
        <ele>326.2</ele>
        <time>2022-07-19T06:32:01Z</time>
      </trkpt>
      <trkpt lat="46.30002" lon="5.43797">
        <ele>326.4</ele>
        <time>2022-07-19T06:32:09Z</time>
      </trkpt>
      <trkpt lat="46.30056" lon="5.43825">
        <ele>326.4</ele>
        <time>2022-07-19T06:32:18Z</time>
      </trkpt>
      <trkpt lat="46.30112" lon="5.43854">
        <ele>326.6</ele>
        <time>2022-07-19T06:32:27Z</time>
      </trkpt>
      <trkpt lat="46.30122" lon="5.43859">
        <ele>326.8</ele>
        <time>2022-07-19T06:32:29Z</time>
      </trkpt>
      <trkpt lat="46.30165" lon="5.43882">
        <ele>327</ele>
        <time>2022-07-19T06:32:36Z</time>
      </trkpt>
      <trkpt lat="46.30199" lon="5.43899">
        <ele>327.6</ele>
        <time>2022-07-19T06:32:42Z</time>
      </trkpt>
      <trkpt lat="46.30254" lon="5.43927">
        <ele>328</ele>
        <time>2022-07-19T06:32:51Z</time>
      </trkpt>
      <trkpt lat="46.30262" lon="5.4393">
        <ele>327.8</ele>
        <time>2022-07-19T06:32:52Z</time>
      </trkpt>
      <trkpt lat="46.30305" lon="5.43952">
        <ele>327.8</ele>
        <time>2022-07-19T06:32:59Z</time>
      </trkpt>
      <trkpt lat="46.30356" lon="5.43976">
        <ele>327.2</ele>
        <time>2022-07-19T06:33:07Z</time>
      </trkpt>
      <trkpt lat="46.30361" lon="5.43979">
        <ele>327.4</ele>
        <time>2022-07-19T06:33:08Z</time>
      </trkpt>
      <trkpt lat="46.30404" lon="5.43999">
        <ele>327.4</ele>
        <time>2022-07-19T06:33:15Z</time>
      </trkpt>
      <trkpt lat="46.30463" lon="5.44016">
        <ele>327.2</ele>
        <time>2022-07-19T06:33:24Z</time>
      </trkpt>
      <trkpt lat="46.30504" lon="5.44028">
        <ele>327.8</ele>
        <time>2022-07-19T06:33:31Z</time>
      </trkpt>
      <trkpt lat="46.30516" lon="5.44031">
        <ele>328</ele>
        <time>2022-07-19T06:33:33Z</time>
      </trkpt>
      <trkpt lat="46.30556" lon="5.4404">
        <ele>329.2</ele>
        <time>2022-07-19T06:33:40Z</time>
      </trkpt>
      <trkpt lat="46.30581" lon="5.44042">
        <ele>330.4</ele>
        <time>2022-07-19T06:33:45Z</time>
      </trkpt>
      <trkpt lat="46.30594" lon="5.44043">
        <ele>330.6</ele>
        <time>2022-07-19T06:33:47Z</time>
      </trkpt>
      <trkpt lat="46.30629" lon="5.44048">
        <ele>331.4</ele>
        <time>2022-07-19T06:33:53Z</time>
      </trkpt>
      <trkpt lat="46.30652" lon="5.44051">
        <ele>331.8</ele>
        <time>2022-07-19T06:33:57Z</time>
      </trkpt>
      <trkpt lat="46.30694" lon="5.44052">
        <ele>332.4</ele>
        <time>2022-07-19T06:34:04Z</time>
      </trkpt>
      <trkpt lat="46.30733" lon="5.44041">
        <ele>332.2</ele>
        <time>2022-07-19T06:34:10Z</time>
      </trkpt>
      <trkpt lat="46.30786" lon="5.44022">
        <ele>331</ele>
        <time>2022-07-19T06:34:17Z</time>
      </trkpt>
      <trkpt lat="46.30795" lon="5.44021">
        <ele>330.6</ele>
        <time>2022-07-19T06:34:18Z</time>
      </trkpt>
      <trkpt lat="46.30804" lon="5.4402">
        <ele>330.4</ele>
        <time>2022-07-19T06:34:19Z</time>
      </trkpt>
      <trkpt lat="46.30822" lon="5.44023">
        <ele>329.6</ele>
        <time>2022-07-19T06:34:21Z</time>
      </trkpt>
      <trkpt lat="46.3083" lon="5.44024">
        <ele>329.2</ele>
        <time>2022-07-19T06:34:22Z</time>
      </trkpt>
      <trkpt lat="46.30847" lon="5.44028">
        <ele>328</ele>
        <time>2022-07-19T06:34:24Z</time>
      </trkpt>
      <trkpt lat="46.30872" lon="5.44036">
        <ele>326.8</ele>
        <time>2022-07-19T06:34:27Z</time>
      </trkpt>
      <trkpt lat="46.3091" lon="5.44053">
        <ele>326.4</ele>
        <time>2022-07-19T06:34:32Z</time>
      </trkpt>
      <trkpt lat="46.3096" lon="5.44085">
        <ele>326.6</ele>
        <time>2022-07-19T06:34:39Z</time>
      </trkpt>
      <trkpt lat="46.30966" lon="5.4409">
        <ele>326.6</ele>
        <time>2022-07-19T06:34:40Z</time>
      </trkpt>
      <trkpt lat="46.31001" lon="5.44114">
        <ele>327.4</ele>
        <time>2022-07-19T06:34:46Z</time>
      </trkpt>
      <trkpt lat="46.31024" lon="5.4413">
        <ele>327.8</ele>
        <time>2022-07-19T06:34:50Z</time>
      </trkpt>
      <trkpt lat="46.31035" lon="5.4414">
        <ele>328.4</ele>
        <time>2022-07-19T06:34:52Z</time>
      </trkpt>
      <trkpt lat="46.3105" lon="5.44153">
        <ele>328.8</ele>
        <time>2022-07-19T06:34:55Z</time>
      </trkpt>
      <trkpt lat="46.31065" lon="5.44167">
        <ele>329.6</ele>
        <time>2022-07-19T06:34:58Z</time>
      </trkpt>
      <trkpt lat="46.31075" lon="5.44175">
        <ele>330</ele>
        <time>2022-07-19T06:35:00Z</time>
      </trkpt>
      <trkpt lat="46.31103" lon="5.44199">
        <ele>331.2</ele>
        <time>2022-07-19T06:35:06Z</time>
      </trkpt>
      <trkpt lat="46.31148" lon="5.44238">
        <ele>331.6</ele>
        <time>2022-07-19T06:35:15Z</time>
      </trkpt>
      <trkpt lat="46.31189" lon="5.44271">
        <ele>331.6</ele>
        <time>2022-07-19T06:35:23Z</time>
      </trkpt>
      <trkpt lat="46.31224" lon="5.44288">
        <ele>332</ele>
        <time>2022-07-19T06:35:30Z</time>
      </trkpt>
      <trkpt lat="46.31263" lon="5.44302">
        <ele>333.2</ele>
        <time>2022-07-19T06:35:37Z</time>
      </trkpt>
      <trkpt lat="46.3128" lon="5.44309">
        <ele>333.4</ele>
        <time>2022-07-19T06:35:40Z</time>
      </trkpt>
      <trkpt lat="46.31333" lon="5.44331">
        <ele>333.2</ele>
        <time>2022-07-19T06:35:49Z</time>
      </trkpt>
      <trkpt lat="46.31345" lon="5.44337">
        <ele>333.2</ele>
        <time>2022-07-19T06:35:51Z</time>
      </trkpt>
      <trkpt lat="46.31401" lon="5.4436">
        <ele>332.6</ele>
        <time>2022-07-19T06:36:00Z</time>
      </trkpt>
      <trkpt lat="46.31408" lon="5.44363">
        <ele>332.4</ele>
        <time>2022-07-19T06:36:01Z</time>
      </trkpt>
      <trkpt lat="46.31428" lon="5.44371">
        <ele>332</ele>
        <time>2022-07-19T06:36:04Z</time>
      </trkpt>
      <trkpt lat="46.31468" lon="5.44387">
        <ele>331.4</ele>
        <time>2022-07-19T06:36:10Z</time>
      </trkpt>
      <trkpt lat="46.31495" lon="5.44398">
        <ele>330.8</ele>
        <time>2022-07-19T06:36:14Z</time>
      </trkpt>
      <trkpt lat="46.31547" lon="5.44415">
        <ele>330.4</ele>
        <time>2022-07-19T06:36:22Z</time>
      </trkpt>
      <trkpt lat="46.31607" lon="5.44424">
        <ele>330.6</ele>
        <time>2022-07-19T06:36:31Z</time>
      </trkpt>
      <trkpt lat="46.31661" lon="5.4443">
        <ele>330.8</ele>
        <time>2022-07-19T06:36:39Z</time>
      </trkpt>
      <trkpt lat="46.31667" lon="5.4443">
        <ele>331</ele>
        <time>2022-07-19T06:36:40Z</time>
      </trkpt>
      <trkpt lat="46.31725" lon="5.44428">
        <ele>331.4</ele>
        <time>2022-07-19T06:36:49Z</time>
      </trkpt>
      <trkpt lat="46.31761" lon="5.44415">
        <ele>331.8</ele>
        <time>2022-07-19T06:36:55Z</time>
      </trkpt>
      <trkpt lat="46.31816" lon="5.44391">
        <ele>332.4</ele>
        <time>2022-07-19T06:37:04Z</time>
      </trkpt>
      <trkpt lat="46.31856" lon="5.44375">
        <ele>332.8</ele>
        <time>2022-07-19T06:37:11Z</time>
      </trkpt>
      <trkpt lat="46.31872" lon="5.44367">
        <ele>333</ele>
        <time>2022-07-19T06:37:14Z</time>
      </trkpt>
      <trkpt lat="46.319" lon="5.44356">
        <ele>334</ele>
        <time>2022-07-19T06:37:19Z</time>
      </trkpt>
      <trkpt lat="46.31911" lon="5.44352">
        <ele>334.4</ele>
        <time>2022-07-19T06:37:21Z</time>
      </trkpt>
      <trkpt lat="46.31959" lon="5.44331">
        <ele>335</ele>
        <time>2022-07-19T06:37:30Z</time>
      </trkpt>
      <trkpt lat="46.31975" lon="5.44324">
        <ele>335.2</ele>
        <time>2022-07-19T06:37:33Z</time>
      </trkpt>
      <trkpt lat="46.32012" lon="5.44308">
        <ele>336</ele>
        <time>2022-07-19T06:37:40Z</time>
      </trkpt>
      <trkpt lat="46.32023" lon="5.44303">
        <ele>336.2</ele>
        <time>2022-07-19T06:37:42Z</time>
      </trkpt>
      <trkpt lat="46.32077" lon="5.44279">
        <ele>337</ele>
        <time>2022-07-19T06:37:52Z</time>
      </trkpt>
      <trkpt lat="46.32088" lon="5.44274">
        <ele>337.2</ele>
        <time>2022-07-19T06:37:54Z</time>
      </trkpt>
      <trkpt lat="46.32116" lon="5.44261">
        <ele>337.4</ele>
        <time>2022-07-19T06:37:59Z</time>
      </trkpt>
      <trkpt lat="46.32157" lon="5.44235">
        <ele>337.8</ele>
        <time>2022-07-19T06:38:07Z</time>
      </trkpt>
      <trkpt lat="46.32184" lon="5.44211">
        <ele>338.4</ele>
        <time>2022-07-19T06:38:12Z</time>
      </trkpt>
      <trkpt lat="46.32193" lon="5.44203">
        <ele>338.6</ele>
        <time>2022-07-19T06:38:15Z</time>
      </trkpt>
      <trkpt lat="46.32228" lon="5.44171">
        <ele>339.4</ele>
        <time>2022-07-19T06:38:22Z</time>
      </trkpt>
      <trkpt lat="46.32247" lon="5.44153">
        <ele>339.6</ele>
        <time>2022-07-19T06:38:26Z</time>
      </trkpt>
      <trkpt lat="46.32273" lon="5.4413">
        <ele>340.2</ele>
        <time>2022-07-19T06:38:32Z</time>
      </trkpt>
      <trkpt lat="46.32286" lon="5.44118">
        <ele>340.8</ele>
        <time>2022-07-19T06:38:35Z</time>
      </trkpt>
      <trkpt lat="46.32304" lon="5.44103">
        <ele>341.4</ele>
        <time>2022-07-19T06:38:39Z</time>
      </trkpt>
      <trkpt lat="46.32322" lon="5.44086">
        <ele>342</ele>
        <time>2022-07-19T06:38:43Z</time>
      </trkpt>
      <trkpt lat="46.32334" lon="5.44074">
        <ele>342.8</ele>
        <time>2022-07-19T06:38:46Z</time>
      </trkpt>
      <trkpt lat="46.32356" lon="5.44055">
        <ele>344</ele>
        <time>2022-07-19T06:38:51Z</time>
      </trkpt>
      <trkpt lat="46.3236" lon="5.44051">
        <ele>344.2</ele>
        <time>2022-07-19T06:38:52Z</time>
      </trkpt>
      <trkpt lat="46.32372" lon="5.4404">
        <ele>345</ele>
        <time>2022-07-19T06:38:55Z</time>
      </trkpt>
      <trkpt lat="46.324" lon="5.44014">
        <ele>346.4</ele>
        <time>2022-07-19T06:39:02Z</time>
      </trkpt>
      <trkpt lat="46.32423" lon="5.43993">
        <ele>347.4</ele>
        <time>2022-07-19T06:39:08Z</time>
      </trkpt>
      <trkpt lat="46.32434" lon="5.43983">
        <ele>348</ele>
        <time>2022-07-19T06:39:11Z</time>
      </trkpt>
      <trkpt lat="46.32448" lon="5.43971">
        <ele>348.6</ele>
        <time>2022-07-19T06:39:14Z</time>
      </trkpt>
      <trkpt lat="46.32468" lon="5.43952">
        <ele>349.6</ele>
        <time>2022-07-19T06:39:20Z</time>
      </trkpt>
      <trkpt lat="46.32472" lon="5.43949">
        <ele>349.8</ele>
        <time>2022-07-19T06:39:21Z</time>
      </trkpt>
      <trkpt lat="46.32496" lon="5.43927">
        <ele>350.6</ele>
        <time>2022-07-19T06:39:27Z</time>
      </trkpt>
      <trkpt lat="46.32505" lon="5.4392">
        <ele>351</ele>
        <time>2022-07-19T06:39:29Z</time>
      </trkpt>
      <trkpt lat="46.32529" lon="5.43899">
        <ele>351.8</ele>
        <time>2022-07-19T06:39:35Z</time>
      </trkpt>
      <trkpt lat="46.32546" lon="5.43884">
        <ele>352.2</ele>
        <time>2022-07-19T06:39:39Z</time>
      </trkpt>
      <trkpt lat="46.32554" lon="5.43879">
        <ele>352.8</ele>
        <time>2022-07-19T06:39:41Z</time>
      </trkpt>
      <trkpt lat="46.32591" lon="5.43852">
        <ele>353.6</ele>
        <time>2022-07-19T06:39:49Z</time>
      </trkpt>
      <trkpt lat="46.32596" lon="5.43848">
        <ele>353.6</ele>
        <time>2022-07-19T06:39:50Z</time>
      </trkpt>
      <trkpt lat="46.32606" lon="5.4384">
        <ele>353.8</ele>
        <time>2022-07-19T06:39:52Z</time>
      </trkpt>
      <trkpt lat="46.32609" lon="5.43838">
        <ele>353.8</ele>
        <time>2022-07-19T06:39:53Z</time>
      </trkpt>
      <trkpt lat="46.32612" lon="5.43834">
        <ele>353.8</ele>
        <time>2022-07-19T06:39:54Z</time>
      </trkpt>
      <trkpt lat="46.32613" lon="5.43829">
        <ele>354</ele>
        <time>2022-07-19T06:39:55Z</time>
      </trkpt>
      <trkpt lat="46.32611" lon="5.43827">
        <ele>354</ele>
        <time>2022-07-19T06:39:56Z</time>
      </trkpt>
      <trkpt lat="46.32605" lon="5.43827">
        <ele>354.2</ele>
        <time>2022-07-19T06:39:58Z</time>
      </trkpt>
      <trkpt lat="46.32601" lon="5.4383">
        <ele>354.2</ele>
        <time>2022-07-19T06:39:59Z</time>
      </trkpt>
      <trkpt lat="46.32581" lon="5.4384">
        <ele>354.4</ele>
        <time>2022-07-19T06:40:04Z</time>
      </trkpt>
      <trkpt lat="46.32574" lon="5.43839">
        <ele>354.8</ele>
        <time>2022-07-19T06:40:06Z</time>
      </trkpt>
      <trkpt lat="46.32563" lon="5.43834">
        <ele>355.4</ele>
        <time>2022-07-19T06:40:09Z</time>
      </trkpt>
      <trkpt lat="46.32554" lon="5.43826">
        <ele>356</ele>
        <time>2022-07-19T06:40:12Z</time>
      </trkpt>
      <trkpt lat="46.32546" lon="5.43816">
        <ele>356.4</ele>
        <time>2022-07-19T06:40:15Z</time>
      </trkpt>
      <trkpt lat="46.3254" lon="5.43808">
        <ele>357.2</ele>
        <time>2022-07-19T06:40:17Z</time>
      </trkpt>
      <trkpt lat="46.32525" lon="5.43801">
        <ele>358.2</ele>
        <time>2022-07-19T06:40:21Z</time>
      </trkpt>
      <trkpt lat="46.32516" lon="5.438">
        <ele>359.4</ele>
        <time>2022-07-19T06:40:24Z</time>
      </trkpt>
      <trkpt lat="46.32504" lon="5.43797">
        <ele>360.6</ele>
        <time>2022-07-19T06:40:28Z</time>
      </trkpt>
      <trkpt lat="46.32499" lon="5.43793">
        <ele>361.2</ele>
        <time>2022-07-19T06:40:30Z</time>
      </trkpt>
      <trkpt lat="46.32498" lon="5.4379">
        <ele>361.4</ele>
        <time>2022-07-19T06:40:31Z</time>
      </trkpt>
      <trkpt lat="46.32497" lon="5.43789">
        <ele>361.6</ele>
        <time>2022-07-19T06:40:32Z</time>
      </trkpt>
      <trkpt lat="46.32496" lon="5.4379">
        <ele>361.8</ele>
        <time>2022-07-19T06:40:33Z</time>
      </trkpt>
      <trkpt lat="46.32496" lon="5.43791">
        <ele>362</ele>
        <time>2022-07-19T06:40:34Z</time>
      </trkpt>
      <trkpt lat="46.32502" lon="5.43795">
        <ele>362.4</ele>
        <time>2022-07-19T06:40:39Z</time>
      </trkpt>
      <trkpt lat="46.32519" lon="5.43801">
        <ele>362.2</ele>
        <time>2022-07-19T06:40:46Z</time>
      </trkpt>
      <trkpt lat="46.32539" lon="5.43809">
        <ele>361.6</ele>
        <time>2022-07-19T06:40:52Z</time>
      </trkpt>
      <trkpt lat="46.32543" lon="5.43812">
        <ele>361.4</ele>
        <time>2022-07-19T06:40:53Z</time>
      </trkpt>
      <trkpt lat="46.32556" lon="5.43828">
        <ele>360.8</ele>
        <time>2022-07-19T06:40:56Z</time>
      </trkpt>
      <trkpt lat="46.32572" lon="5.4384">
        <ele>359.4</ele>
        <time>2022-07-19T06:40:59Z</time>
      </trkpt>
      <trkpt lat="46.32577" lon="5.43842">
        <ele>358.6</ele>
        <time>2022-07-19T06:41:00Z</time>
      </trkpt>
      <trkpt lat="46.32581" lon="5.43842">
        <ele>358.2</ele>
        <time>2022-07-19T06:41:01Z</time>
      </trkpt>
      <trkpt lat="46.3259" lon="5.43839">
        <ele>357.2</ele>
        <time>2022-07-19T06:41:03Z</time>
      </trkpt>
      <trkpt lat="46.32595" lon="5.43836">
        <ele>357</ele>
        <time>2022-07-19T06:41:04Z</time>
      </trkpt>
      <trkpt lat="46.32603" lon="5.43832">
        <ele>356</ele>
        <time>2022-07-19T06:41:06Z</time>
      </trkpt>
      <trkpt lat="46.32606" lon="5.43832">
        <ele>355.6</ele>
        <time>2022-07-19T06:41:07Z</time>
      </trkpt>
      <trkpt lat="46.32609" lon="5.43833">
        <ele>355.2</ele>
        <time>2022-07-19T06:41:08Z</time>
      </trkpt>
      <trkpt lat="46.32616" lon="5.43838">
        <ele>355</ele>
        <time>2022-07-19T06:41:10Z</time>
      </trkpt>
      <trkpt lat="46.32626" lon="5.43837">
        <ele>354.8</ele>
        <time>2022-07-19T06:41:12Z</time>
      </trkpt>
      <trkpt lat="46.32632" lon="5.43835">
        <ele>354.6</ele>
        <time>2022-07-19T06:41:13Z</time>
      </trkpt>
      <trkpt lat="46.32651" lon="5.43828">
        <ele>354</ele>
        <time>2022-07-19T06:41:16Z</time>
      </trkpt>
      <trkpt lat="46.32673" lon="5.43822">
        <ele>353.4</ele>
        <time>2022-07-19T06:41:19Z</time>
      </trkpt>
      <trkpt lat="46.32694" lon="5.43817">
        <ele>352.8</ele>
        <time>2022-07-19T06:41:22Z</time>
      </trkpt>
      <trkpt lat="46.32713" lon="5.43812">
        <ele>352.4</ele>
        <time>2022-07-19T06:41:25Z</time>
      </trkpt>
      <trkpt lat="46.32759" lon="5.438">
        <ele>352.2</ele>
        <time>2022-07-19T06:41:32Z</time>
      </trkpt>
      <trkpt lat="46.32766" lon="5.43799">
        <ele>352.2</ele>
        <time>2022-07-19T06:41:33Z</time>
      </trkpt>
      <trkpt lat="46.32799" lon="5.43791">
        <ele>352.4</ele>
        <time>2022-07-19T06:41:38Z</time>
      </trkpt>
      <trkpt lat="46.32821" lon="5.43785">
        <ele>352.4</ele>
        <time>2022-07-19T06:41:41Z</time>
      </trkpt>
      <trkpt lat="46.32835" lon="5.43782">
        <ele>352.6</ele>
        <time>2022-07-19T06:41:44Z</time>
      </trkpt>
      <trkpt lat="46.32884" lon="5.43767">
        <ele>353</ele>
        <time>2022-07-19T06:41:52Z</time>
      </trkpt>
      <trkpt lat="46.329" lon="5.43766">
        <ele>353.2</ele>
        <time>2022-07-19T06:41:55Z</time>
      </trkpt>
      <trkpt lat="46.32905" lon="5.43764">
        <ele>353.2</ele>
        <time>2022-07-19T06:41:56Z</time>
      </trkpt>
      <trkpt lat="46.32916" lon="5.4376">
        <ele>353.6</ele>
        <time>2022-07-19T06:41:58Z</time>
      </trkpt>
      <trkpt lat="46.32927" lon="5.43757">
        <ele>353.8</ele>
        <time>2022-07-19T06:42:00Z</time>
      </trkpt>
      <trkpt lat="46.32937" lon="5.4376">
        <ele>353.8</ele>
        <time>2022-07-19T06:42:02Z</time>
      </trkpt>
      <trkpt lat="46.32948" lon="5.43766">
        <ele>353.8</ele>
        <time>2022-07-19T06:42:04Z</time>
      </trkpt>
      <trkpt lat="46.32962" lon="5.43769">
        <ele>353.8</ele>
        <time>2022-07-19T06:42:06Z</time>
      </trkpt>
      <trkpt lat="46.32976" lon="5.43768">
        <ele>353.4</ele>
        <time>2022-07-19T06:42:08Z</time>
      </trkpt>
      <trkpt lat="46.33007" lon="5.43763">
        <ele>352.4</ele>
        <time>2022-07-19T06:42:12Z</time>
      </trkpt>
      <trkpt lat="46.33029" lon="5.43754">
        <ele>350.6</ele>
        <time>2022-07-19T06:42:15Z</time>
      </trkpt>
      <trkpt lat="46.33037" lon="5.43754">
        <ele>350.4</ele>
        <time>2022-07-19T06:42:16Z</time>
      </trkpt>
      <trkpt lat="46.33043" lon="5.43758">
        <ele>350</ele>
        <time>2022-07-19T06:42:17Z</time>
      </trkpt>
      <trkpt lat="46.33046" lon="5.43768">
        <ele>349.6</ele>
        <time>2022-07-19T06:42:18Z</time>
      </trkpt>
      <trkpt lat="46.33047" lon="5.43779">
        <ele>349.2</ele>
        <time>2022-07-19T06:42:19Z</time>
      </trkpt>
      <trkpt lat="46.33045" lon="5.4379">
        <ele>349</ele>
        <time>2022-07-19T06:42:20Z</time>
      </trkpt>
      <trkpt lat="46.33041" lon="5.438">
        <ele>348.4</ele>
        <time>2022-07-19T06:42:21Z</time>
      </trkpt>
      <trkpt lat="46.33029" lon="5.4383">
        <ele>346.8</ele>
        <time>2022-07-19T06:42:24Z</time>
      </trkpt>
      <trkpt lat="46.33025" lon="5.43841">
        <ele>346.4</ele>
        <time>2022-07-19T06:42:25Z</time>
      </trkpt>
      <trkpt lat="46.3302" lon="5.43851">
        <ele>345.8</ele>
        <time>2022-07-19T06:42:26Z</time>
      </trkpt>
      <trkpt lat="46.3301" lon="5.43873">
        <ele>344.6</ele>
        <time>2022-07-19T06:42:28Z</time>
      </trkpt>
      <trkpt lat="46.32998" lon="5.43895">
        <ele>343.6</ele>
        <time>2022-07-19T06:42:30Z</time>
      </trkpt>
      <trkpt lat="46.32991" lon="5.43905">
        <ele>343.2</ele>
        <time>2022-07-19T06:42:31Z</time>
      </trkpt>
      <trkpt lat="46.32977" lon="5.43924">
        <ele>342.4</ele>
        <time>2022-07-19T06:42:33Z</time>
      </trkpt>
      <trkpt lat="46.32953" lon="5.43948">
        <ele>340.8</ele>
        <time>2022-07-19T06:42:36Z</time>
      </trkpt>
      <trkpt lat="46.32939" lon="5.43965">
        <ele>339.6</ele>
        <time>2022-07-19T06:42:38Z</time>
      </trkpt>
      <trkpt lat="46.32928" lon="5.43986">
        <ele>338.2</ele>
        <time>2022-07-19T06:42:40Z</time>
      </trkpt>
      <trkpt lat="46.32919" lon="5.44027">
        <ele>337.2</ele>
        <time>2022-07-19T06:42:43Z</time>
      </trkpt>
      <trkpt lat="46.32914" lon="5.44056">
        <ele>336</ele>
        <time>2022-07-19T06:42:45Z</time>
      </trkpt>
      <trkpt lat="46.32912" lon="5.44084">
        <ele>334.4</ele>
        <time>2022-07-19T06:42:47Z</time>
      </trkpt>
      <trkpt lat="46.32914" lon="5.44112">
        <ele>333.8</ele>
        <time>2022-07-19T06:42:49Z</time>
      </trkpt>
      <trkpt lat="46.32918" lon="5.44138">
        <ele>332.8</ele>
        <time>2022-07-19T06:42:51Z</time>
      </trkpt>
      <trkpt lat="46.32926" lon="5.44175">
        <ele>332</ele>
        <time>2022-07-19T06:42:54Z</time>
      </trkpt>
      <trkpt lat="46.3293" lon="5.44186">
        <ele>331.8</ele>
        <time>2022-07-19T06:42:55Z</time>
      </trkpt>
      <trkpt lat="46.32948" lon="5.44238">
        <ele>331.4</ele>
        <time>2022-07-19T06:43:00Z</time>
      </trkpt>
      <trkpt lat="46.32964" lon="5.44275">
        <ele>331.6</ele>
        <time>2022-07-19T06:43:04Z</time>
      </trkpt>
      <trkpt lat="46.32968" lon="5.44283">
        <ele>331.8</ele>
        <time>2022-07-19T06:43:05Z</time>
      </trkpt>
      <trkpt lat="46.3299" lon="5.44324">
        <ele>333</ele>
        <time>2022-07-19T06:43:10Z</time>
      </trkpt>
      <trkpt lat="46.32995" lon="5.44331">
        <ele>333</ele>
        <time>2022-07-19T06:43:11Z</time>
      </trkpt>
      <trkpt lat="46.33011" lon="5.44348">
        <ele>333</ele>
        <time>2022-07-19T06:43:14Z</time>
      </trkpt>
      <trkpt lat="46.3303" lon="5.4437">
        <ele>332.4</ele>
        <time>2022-07-19T06:43:17Z</time>
      </trkpt>
      <trkpt lat="46.33042" lon="5.44376">
        <ele>331.6</ele>
        <time>2022-07-19T06:43:19Z</time>
      </trkpt>
      <trkpt lat="46.33061" lon="5.44376">
        <ele>330.6</ele>
        <time>2022-07-19T06:43:22Z</time>
      </trkpt>
      <trkpt lat="46.33068" lon="5.44376">
        <ele>330.6</ele>
        <time>2022-07-19T06:43:23Z</time>
      </trkpt>
      <trkpt lat="46.33103" lon="5.4438">
        <ele>330</ele>
        <time>2022-07-19T06:43:28Z</time>
      </trkpt>
      <trkpt lat="46.33117" lon="5.44384">
        <ele>330</ele>
        <time>2022-07-19T06:43:30Z</time>
      </trkpt>
      <trkpt lat="46.3313" lon="5.44394">
        <ele>330</ele>
        <time>2022-07-19T06:43:32Z</time>
      </trkpt>
      <trkpt lat="46.33134" lon="5.444">
        <ele>329.8</ele>
        <time>2022-07-19T06:43:33Z</time>
      </trkpt>
      <trkpt lat="46.33143" lon="5.44418">
        <ele>329.8</ele>
        <time>2022-07-19T06:43:35Z</time>
      </trkpt>
      <trkpt lat="46.3315" lon="5.44446">
        <ele>329.4</ele>
        <time>2022-07-19T06:43:38Z</time>
      </trkpt>
      <trkpt lat="46.33151" lon="5.44457">
        <ele>329.4</ele>
        <time>2022-07-19T06:43:39Z</time>
      </trkpt>
      <trkpt lat="46.33156" lon="5.44509">
        <ele>329.2</ele>
        <time>2022-07-19T06:43:44Z</time>
      </trkpt>
      <trkpt lat="46.33158" lon="5.44516">
        <ele>329.2</ele>
        <time>2022-07-19T06:43:45Z</time>
      </trkpt>
      <trkpt lat="46.33161" lon="5.44525">
        <ele>329.2</ele>
        <time>2022-07-19T06:43:46Z</time>
      </trkpt>
      <trkpt lat="46.33172" lon="5.44546">
        <ele>329.4</ele>
        <time>2022-07-19T06:43:49Z</time>
      </trkpt>
      <trkpt lat="46.33192" lon="5.44582">
        <ele>330.6</ele>
        <time>2022-07-19T06:43:55Z</time>
      </trkpt>
      <trkpt lat="46.33199" lon="5.446">
        <ele>331.6</ele>
        <time>2022-07-19T06:43:58Z</time>
      </trkpt>
      <trkpt lat="46.33205" lon="5.44615">
        <ele>333.2</ele>
        <time>2022-07-19T06:44:01Z</time>
      </trkpt>
      <trkpt lat="46.3322" lon="5.44634">
        <ele>334.4</ele>
        <time>2022-07-19T06:44:06Z</time>
      </trkpt>
      <trkpt lat="46.33223" lon="5.44638">
        <ele>334.8</ele>
        <time>2022-07-19T06:44:07Z</time>
      </trkpt>
      <trkpt lat="46.33226" lon="5.44641">
        <ele>335.6</ele>
        <time>2022-07-19T06:44:08Z</time>
      </trkpt>
      <trkpt lat="46.33242" lon="5.44656">
        <ele>336.4</ele>
        <time>2022-07-19T06:44:12Z</time>
      </trkpt>
      <trkpt lat="46.33245" lon="5.4466">
        <ele>336.8</ele>
        <time>2022-07-19T06:44:13Z</time>
      </trkpt>
      <trkpt lat="46.33248" lon="5.44663">
        <ele>337.2</ele>
        <time>2022-07-19T06:44:15Z</time>
      </trkpt>
      <trkpt lat="46.33257" lon="5.44672">
        <ele>337.8</ele>
        <time>2022-07-19T06:44:17Z</time>
      </trkpt>
      <trkpt lat="46.33272" lon="5.4469">
        <ele>338.8</ele>
        <time>2022-07-19T06:44:22Z</time>
      </trkpt>
      <trkpt lat="46.33281" lon="5.44702">
        <ele>339.6</ele>
        <time>2022-07-19T06:44:25Z</time>
      </trkpt>
      <trkpt lat="46.33284" lon="5.44705">
        <ele>340</ele>
        <time>2022-07-19T06:44:26Z</time>
      </trkpt>
      <trkpt lat="46.33308" lon="5.44733">
        <ele>341.4</ele>
        <time>2022-07-19T06:44:34Z</time>
      </trkpt>
      <trkpt lat="46.33311" lon="5.44736">
        <ele>341.4</ele>
        <time>2022-07-19T06:44:35Z</time>
      </trkpt>
      <trkpt lat="46.3332" lon="5.44747">
        <ele>342.6</ele>
        <time>2022-07-19T06:44:38Z</time>
      </trkpt>
      <trkpt lat="46.33334" lon="5.44767">
        <ele>343.6</ele>
        <time>2022-07-19T06:44:43Z</time>
      </trkpt>
      <trkpt lat="46.3334" lon="5.44775">
        <ele>344</ele>
        <time>2022-07-19T06:44:45Z</time>
      </trkpt>
      <trkpt lat="46.33369" lon="5.44823">
        <ele>344.6</ele>
        <time>2022-07-19T06:44:55Z</time>
      </trkpt>
      <trkpt lat="46.33371" lon="5.44828">
        <ele>344.6</ele>
        <time>2022-07-19T06:44:56Z</time>
      </trkpt>
      <trkpt lat="46.33384" lon="5.44854">
        <ele>345.6</ele>
        <time>2022-07-19T06:45:02Z</time>
      </trkpt>
      <trkpt lat="46.33386" lon="5.44858">
        <ele>346</ele>
        <time>2022-07-19T06:45:03Z</time>
      </trkpt>
      <trkpt lat="46.33393" lon="5.4487">
        <ele>347</ele>
        <time>2022-07-19T06:45:06Z</time>
      </trkpt>
      <trkpt lat="46.33396" lon="5.44874">
        <ele>347.2</ele>
        <time>2022-07-19T06:45:07Z</time>
      </trkpt>
      <trkpt lat="46.33413" lon="5.44895">
        <ele>348.4</ele>
        <time>2022-07-19T06:45:13Z</time>
      </trkpt>
      <trkpt lat="46.33415" lon="5.44897">
        <ele>348.6</ele>
        <time>2022-07-19T06:45:15Z</time>
      </trkpt>
      <trkpt lat="46.33415" lon="5.44898">
        <ele>349</ele>
        <time>2022-07-19T06:45:18Z</time>
      </trkpt>
      <trkpt lat="46.3342" lon="5.44902">
        <ele>350</ele>
        <time>2022-07-19T06:47:08Z</time>
      </trkpt>
      <trkpt lat="46.33434" lon="5.4492">
        <ele>349.8</ele>
        <time>2022-07-19T06:47:12Z</time>
      </trkpt>
      <trkpt lat="46.33467" lon="5.44958">
        <ele>349.6</ele>
        <time>2022-07-19T06:47:19Z</time>
      </trkpt>
      <trkpt lat="46.33486" lon="5.44982">
        <ele>349</ele>
        <time>2022-07-19T06:47:23Z</time>
      </trkpt>
      <trkpt lat="46.33509" lon="5.45013">
        <ele>348.4</ele>
        <time>2022-07-19T06:47:28Z</time>
      </trkpt>
      <trkpt lat="46.33514" lon="5.45021">
        <ele>348.6</ele>
        <time>2022-07-19T06:47:29Z</time>
      </trkpt>
      <trkpt lat="46.33521" lon="5.45045">
        <ele>348.8</ele>
        <time>2022-07-19T06:47:32Z</time>
      </trkpt>
      <trkpt lat="46.33529" lon="5.45104">
        <ele>349.2</ele>
        <time>2022-07-19T06:47:39Z</time>
      </trkpt>
      <trkpt lat="46.33529" lon="5.45164">
        <ele>349.2</ele>
        <time>2022-07-19T06:47:46Z</time>
      </trkpt>
      <trkpt lat="46.33523" lon="5.45234">
        <ele>349.6</ele>
        <time>2022-07-19T06:47:54Z</time>
      </trkpt>
      <trkpt lat="46.33518" lon="5.45297">
        <ele>349.4</ele>
        <time>2022-07-19T06:48:01Z</time>
      </trkpt>
      <trkpt lat="46.33525" lon="5.45334">
        <ele>349.4</ele>
        <time>2022-07-19T06:48:05Z</time>
      </trkpt>
      <trkpt lat="46.33547" lon="5.45398">
        <ele>349</ele>
        <time>2022-07-19T06:48:12Z</time>
      </trkpt>
      <trkpt lat="46.33566" lon="5.4546">
        <ele>348.6</ele>
        <time>2022-07-19T06:48:19Z</time>
      </trkpt>
      <trkpt lat="46.3358" lon="5.45499">
        <ele>348.8</ele>
        <time>2022-07-19T06:48:24Z</time>
      </trkpt>
      <trkpt lat="46.33591" lon="5.45526">
        <ele>350.2</ele>
        <time>2022-07-19T06:48:28Z</time>
      </trkpt>
      <trkpt lat="46.33599" lon="5.45544">
        <ele>351</ele>
        <time>2022-07-19T06:48:31Z</time>
      </trkpt>
      <trkpt lat="46.33604" lon="5.45555">
        <ele>351.2</ele>
        <time>2022-07-19T06:48:33Z</time>
      </trkpt>
      <trkpt lat="46.33608" lon="5.45572">
        <ele>352.2</ele>
        <time>2022-07-19T06:48:36Z</time>
      </trkpt>
      <trkpt lat="46.33611" lon="5.45587">
        <ele>352.8</ele>
        <time>2022-07-19T06:48:38Z</time>
      </trkpt>
      <trkpt lat="46.33612" lon="5.45594">
        <ele>353.4</ele>
        <time>2022-07-19T06:48:39Z</time>
      </trkpt>
      <trkpt lat="46.33614" lon="5.45611">
        <ele>354.4</ele>
        <time>2022-07-19T06:48:43Z</time>
      </trkpt>
      <trkpt lat="46.33613" lon="5.45616">
        <ele>354.8</ele>
        <time>2022-07-19T06:48:44Z</time>
      </trkpt>
      <trkpt lat="46.33611" lon="5.45632">
        <ele>355.4</ele>
        <time>2022-07-19T06:48:47Z</time>
      </trkpt>
      <trkpt lat="46.33608" lon="5.45641">
        <ele>355.8</ele>
        <time>2022-07-19T06:48:49Z</time>
      </trkpt>
      <trkpt lat="46.33604" lon="5.4565">
        <ele>356.6</ele>
        <time>2022-07-19T06:48:51Z</time>
      </trkpt>
      <trkpt lat="46.33595" lon="5.45664">
        <ele>358</ele>
        <time>2022-07-19T06:48:55Z</time>
      </trkpt>
      <trkpt lat="46.33579" lon="5.45679">
        <ele>359.2</ele>
        <time>2022-07-19T06:49:00Z</time>
      </trkpt>
      <trkpt lat="46.33573" lon="5.45684">
        <ele>359.6</ele>
        <time>2022-07-19T06:49:02Z</time>
      </trkpt>
      <trkpt lat="46.33563" lon="5.45689">
        <ele>360.4</ele>
        <time>2022-07-19T06:49:05Z</time>
      </trkpt>
      <trkpt lat="46.33546" lon="5.45696">
        <ele>361.6</ele>
        <time>2022-07-19T06:49:10Z</time>
      </trkpt>
      <trkpt lat="46.33539" lon="5.45699">
        <ele>362.2</ele>
        <time>2022-07-19T06:49:12Z</time>
      </trkpt>
      <trkpt lat="46.33537" lon="5.457">
        <ele>362.4</ele>
        <time>2022-07-19T06:49:13Z</time>
      </trkpt>
      <trkpt lat="46.33527" lon="5.45706">
        <ele>363.4</ele>
        <time>2022-07-19T06:49:16Z</time>
      </trkpt>
      <trkpt lat="46.33514" lon="5.45713">
        <ele>364.6</ele>
        <time>2022-07-19T06:49:20Z</time>
      </trkpt>
      <trkpt lat="46.33508" lon="5.45718">
        <ele>364.6</ele>
        <time>2022-07-19T06:49:22Z</time>
      </trkpt>
      <trkpt lat="46.33492" lon="5.45732">
        <ele>365.8</ele>
        <time>2022-07-19T06:49:27Z</time>
      </trkpt>
      <trkpt lat="46.33483" lon="5.45741">
        <ele>366.4</ele>
        <time>2022-07-19T06:49:30Z</time>
      </trkpt>
      <trkpt lat="46.33477" lon="5.45748">
        <ele>367</ele>
        <time>2022-07-19T06:49:32Z</time>
      </trkpt>
      <trkpt lat="46.33462" lon="5.4577">
        <ele>368</ele>
        <time>2022-07-19T06:49:38Z</time>
      </trkpt>
      <trkpt lat="46.3346" lon="5.45775">
        <ele>368</ele>
        <time>2022-07-19T06:49:39Z</time>
      </trkpt>
      <trkpt lat="46.33456" lon="5.45801">
        <ele>368.8</ele>
        <time>2022-07-19T06:49:43Z</time>
      </trkpt>
      <trkpt lat="46.33456" lon="5.45801">
        <ele>369.2</ele>
        <time>2022-07-19T06:49:44Z</time>
      </trkpt>
      <trkpt lat="46.33459" lon="5.45822">
        <ele>369.6</ele>
        <time>2022-07-19T06:49:47Z</time>
      </trkpt>
      <trkpt lat="46.33465" lon="5.45835">
        <ele>369.8</ele>
        <time>2022-07-19T06:49:49Z</time>
      </trkpt>
      <trkpt lat="46.33472" lon="5.45851">
        <ele>370.2</ele>
        <time>2022-07-19T06:49:52Z</time>
      </trkpt>
      <trkpt lat="46.33483" lon="5.45871">
        <ele>370.8</ele>
        <time>2022-07-19T06:49:56Z</time>
      </trkpt>
      <trkpt lat="46.33496" lon="5.45896">
        <ele>371</ele>
        <time>2022-07-19T06:50:01Z</time>
      </trkpt>
      <trkpt lat="46.33499" lon="5.459">
        <ele>371.2</ele>
        <time>2022-07-19T06:50:02Z</time>
      </trkpt>
      <trkpt lat="46.33505" lon="5.45909">
        <ele>371.2</ele>
        <time>2022-07-19T06:50:04Z</time>
      </trkpt>
      <trkpt lat="46.33514" lon="5.45922">
        <ele>372.2</ele>
        <time>2022-07-19T06:50:07Z</time>
      </trkpt>
      <trkpt lat="46.3353" lon="5.4594">
        <ele>373.2</ele>
        <time>2022-07-19T06:50:12Z</time>
      </trkpt>
      <trkpt lat="46.33537" lon="5.45946">
        <ele>373.4</ele>
        <time>2022-07-19T06:50:14Z</time>
      </trkpt>
      <trkpt lat="46.33544" lon="5.45951">
        <ele>374</ele>
        <time>2022-07-19T06:50:16Z</time>
      </trkpt>
      <trkpt lat="46.33552" lon="5.45955">
        <ele>374.4</ele>
        <time>2022-07-19T06:50:18Z</time>
      </trkpt>
      <trkpt lat="46.3357" lon="5.45962">
        <ele>375.4</ele>
        <time>2022-07-19T06:50:22Z</time>
      </trkpt>
      <trkpt lat="46.33579" lon="5.45965">
        <ele>375.8</ele>
        <time>2022-07-19T06:50:24Z</time>
      </trkpt>
      <trkpt lat="46.33583" lon="5.45967">
        <ele>376.2</ele>
        <time>2022-07-19T06:50:25Z</time>
      </trkpt>
      <trkpt lat="46.33594" lon="5.45971">
        <ele>376.4</ele>
        <time>2022-07-19T06:50:28Z</time>
      </trkpt>
      <trkpt lat="46.33616" lon="5.45982">
        <ele>377.4</ele>
        <time>2022-07-19T06:50:33Z</time>
      </trkpt>
      <trkpt lat="46.33623" lon="5.45986">
        <ele>377.6</ele>
        <time>2022-07-19T06:50:35Z</time>
      </trkpt>
      <trkpt lat="46.3365" lon="5.46002">
        <ele>379</ele>
        <time>2022-07-19T06:50:42Z</time>
      </trkpt>
      <trkpt lat="46.33655" lon="5.46005">
        <ele>379.6</ele>
        <time>2022-07-19T06:50:44Z</time>
      </trkpt>
      <trkpt lat="46.33663" lon="5.46009">
        <ele>380.2</ele>
        <time>2022-07-19T06:50:46Z</time>
      </trkpt>
      <trkpt lat="46.33677" lon="5.46018">
        <ele>380.8</ele>
        <time>2022-07-19T06:50:50Z</time>
      </trkpt>
      <trkpt lat="46.33681" lon="5.4602">
        <ele>381.2</ele>
        <time>2022-07-19T06:50:51Z</time>
      </trkpt>
      <trkpt lat="46.33693" lon="5.4603">
        <ele>382.4</ele>
        <time>2022-07-19T06:50:55Z</time>
      </trkpt>
      <trkpt lat="46.33705" lon="5.46039">
        <ele>383.2</ele>
        <time>2022-07-19T06:50:59Z</time>
      </trkpt>
      <trkpt lat="46.33708" lon="5.46041">
        <ele>383.6</ele>
        <time>2022-07-19T06:51:00Z</time>
      </trkpt>
      <trkpt lat="46.33727" lon="5.46048">
        <ele>384.4</ele>
        <time>2022-07-19T06:51:06Z</time>
      </trkpt>
      <trkpt lat="46.33734" lon="5.46051">
        <ele>384.8</ele>
        <time>2022-07-19T06:51:08Z</time>
      </trkpt>
      <trkpt lat="46.33744" lon="5.46052">
        <ele>386</ele>
        <time>2022-07-19T06:51:12Z</time>
      </trkpt>
      <trkpt lat="46.33767" lon="5.4605">
        <ele>387.4</ele>
        <time>2022-07-19T06:51:17Z</time>
      </trkpt>
      <trkpt lat="46.33788" lon="5.46044">
        <ele>388.4</ele>
        <time>2022-07-19T06:51:23Z</time>
      </trkpt>
      <trkpt lat="46.33791" lon="5.46043">
        <ele>388.4</ele>
        <time>2022-07-19T06:51:24Z</time>
      </trkpt>
      <trkpt lat="46.33809" lon="5.46041">
        <ele>388.8</ele>
        <time>2022-07-19T06:51:28Z</time>
      </trkpt>
      <trkpt lat="46.33814" lon="5.46041">
        <ele>389</ele>
        <time>2022-07-19T06:51:29Z</time>
      </trkpt>
      <trkpt lat="46.33819" lon="5.46041">
        <ele>389.2</ele>
        <time>2022-07-19T06:51:30Z</time>
      </trkpt>
      <trkpt lat="46.33823" lon="5.46041">
        <ele>389.4</ele>
        <time>2022-07-19T06:51:31Z</time>
      </trkpt>
      <trkpt lat="46.33841" lon="5.46041">
        <ele>390</ele>
        <time>2022-07-19T06:51:35Z</time>
      </trkpt>
      <trkpt lat="46.33849" lon="5.4604">
        <ele>390.2</ele>
        <time>2022-07-19T06:51:37Z</time>
      </trkpt>
      <trkpt lat="46.33858" lon="5.46039">
        <ele>390.8</ele>
        <time>2022-07-19T06:51:39Z</time>
      </trkpt>
      <trkpt lat="46.33866" lon="5.46037">
        <ele>391.2</ele>
        <time>2022-07-19T06:51:41Z</time>
      </trkpt>
      <trkpt lat="46.3387" lon="5.46035">
        <ele>391.6</ele>
        <time>2022-07-19T06:51:42Z</time>
      </trkpt>
      <trkpt lat="46.33893" lon="5.4603">
        <ele>392.8</ele>
        <time>2022-07-19T06:51:47Z</time>
      </trkpt>
      <trkpt lat="46.33902" lon="5.46028">
        <ele>393.4</ele>
        <time>2022-07-19T06:51:49Z</time>
      </trkpt>
      <trkpt lat="46.33916" lon="5.46026">
        <ele>393.8</ele>
        <time>2022-07-19T06:51:52Z</time>
      </trkpt>
      <trkpt lat="46.33926" lon="5.46025">
        <ele>394.4</ele>
        <time>2022-07-19T06:51:54Z</time>
      </trkpt>
      <trkpt lat="46.33939" lon="5.46023">
        <ele>395</ele>
        <time>2022-07-19T06:51:57Z</time>
      </trkpt>
      <trkpt lat="46.33962" lon="5.46022">
        <ele>395.8</ele>
        <time>2022-07-19T06:52:02Z</time>
      </trkpt>
      <trkpt lat="46.33971" lon="5.46024">
        <ele>396</ele>
        <time>2022-07-19T06:52:04Z</time>
      </trkpt>
      <trkpt lat="46.33993" lon="5.46032">
        <ele>396.6</ele>
        <time>2022-07-19T06:52:09Z</time>
      </trkpt>
      <trkpt lat="46.33999" lon="5.46037">
        <ele>397</ele>
        <time>2022-07-19T06:52:10Z</time>
      </trkpt>
      <trkpt lat="46.34014" lon="5.46054">
        <ele>398.2</ele>
        <time>2022-07-19T06:52:15Z</time>
      </trkpt>
      <trkpt lat="46.34028" lon="5.46069">
        <ele>398.8</ele>
        <time>2022-07-19T06:52:19Z</time>
      </trkpt>
      <trkpt lat="46.34035" lon="5.46075">
        <ele>399.4</ele>
        <time>2022-07-19T06:52:21Z</time>
      </trkpt>
      <trkpt lat="46.3404" lon="5.46078">
        <ele>399.8</ele>
        <time>2022-07-19T06:52:22Z</time>
      </trkpt>
      <trkpt lat="46.34043" lon="5.46079">
        <ele>399.8</ele>
        <time>2022-07-19T06:52:23Z</time>
      </trkpt>
      <trkpt lat="46.34055" lon="5.46077">
        <ele>400.6</ele>
        <time>2022-07-19T06:52:26Z</time>
      </trkpt>
      <trkpt lat="46.3406" lon="5.46075">
        <ele>400.8</ele>
        <time>2022-07-19T06:52:27Z</time>
      </trkpt>
      <trkpt lat="46.34074" lon="5.46059">
        <ele>401.6</ele>
        <time>2022-07-19T06:52:32Z</time>
      </trkpt>
      <trkpt lat="46.34078" lon="5.46055">
        <ele>402</ele>
        <time>2022-07-19T06:52:33Z</time>
      </trkpt>
      <trkpt lat="46.34087" lon="5.46043">
        <ele>403.2</ele>
        <time>2022-07-19T06:52:36Z</time>
      </trkpt>
      <trkpt lat="46.34099" lon="5.46032">
        <ele>404</ele>
        <time>2022-07-19T06:52:40Z</time>
      </trkpt>
      <trkpt lat="46.34103" lon="5.46029">
        <ele>404.2</ele>
        <time>2022-07-19T06:52:41Z</time>
      </trkpt>
      <trkpt lat="46.34125" lon="5.46019">
        <ele>405.2</ele>
        <time>2022-07-19T06:52:47Z</time>
      </trkpt>
      <trkpt lat="46.3413" lon="5.46018">
        <ele>405.4</ele>
        <time>2022-07-19T06:52:48Z</time>
      </trkpt>
      <trkpt lat="46.34145" lon="5.46015">
        <ele>406.6</ele>
        <time>2022-07-19T06:52:52Z</time>
      </trkpt>
      <trkpt lat="46.34168" lon="5.46011">
        <ele>407.6</ele>
        <time>2022-07-19T06:52:58Z</time>
      </trkpt>
      <trkpt lat="46.34188" lon="5.4601">
        <ele>408.8</ele>
        <time>2022-07-19T06:53:03Z</time>
      </trkpt>
      <trkpt lat="46.34199" lon="5.4601">
        <ele>409.4</ele>
        <time>2022-07-19T06:53:06Z</time>
      </trkpt>
      <trkpt lat="46.34202" lon="5.4601">
        <ele>409.6</ele>
        <time>2022-07-19T06:53:07Z</time>
      </trkpt>
      <trkpt lat="46.34206" lon="5.4601">
        <ele>409.8</ele>
        <time>2022-07-19T06:53:08Z</time>
      </trkpt>
      <trkpt lat="46.34224" lon="5.4601">
        <ele>410.8</ele>
        <time>2022-07-19T06:53:14Z</time>
      </trkpt>
      <trkpt lat="46.34227" lon="5.4601">
        <ele>411</ele>
        <time>2022-07-19T06:53:15Z</time>
      </trkpt>
      <trkpt lat="46.34254" lon="5.4601">
        <ele>412</ele>
        <time>2022-07-19T06:53:21Z</time>
      </trkpt>
      <trkpt lat="46.34266" lon="5.4601">
        <ele>412.6</ele>
        <time>2022-07-19T06:53:24Z</time>
      </trkpt>
      <trkpt lat="46.34275" lon="5.46011">
        <ele>413.4</ele>
        <time>2022-07-19T06:53:26Z</time>
      </trkpt>
      <trkpt lat="46.34298" lon="5.46011">
        <ele>414.4</ele>
        <time>2022-07-19T06:53:32Z</time>
      </trkpt>
      <trkpt lat="46.34305" lon="5.46011">
        <ele>414.8</ele>
        <time>2022-07-19T06:53:34Z</time>
      </trkpt>
      <trkpt lat="46.34314" lon="5.46011">
        <ele>415.6</ele>
        <time>2022-07-19T06:53:36Z</time>
      </trkpt>
      <trkpt lat="46.34339" lon="5.46012">
        <ele>416.6</ele>
        <time>2022-07-19T06:53:43Z</time>
      </trkpt>
      <trkpt lat="46.34346" lon="5.46012">
        <ele>417.2</ele>
        <time>2022-07-19T06:53:45Z</time>
      </trkpt>
      <trkpt lat="46.34353" lon="5.46013">
        <ele>418</ele>
        <time>2022-07-19T06:53:47Z</time>
      </trkpt>
      <trkpt lat="46.34368" lon="5.46013">
        <ele>419</ele>
        <time>2022-07-19T06:53:51Z</time>
      </trkpt>
      <trkpt lat="46.34387" lon="5.46014">
        <ele>419.6</ele>
        <time>2022-07-19T06:53:56Z</time>
      </trkpt>
      <trkpt lat="46.34399" lon="5.46014">
        <ele>419.8</ele>
        <time>2022-07-19T06:53:59Z</time>
      </trkpt>
      <trkpt lat="46.34412" lon="5.46015">
        <ele>420.6</ele>
        <time>2022-07-19T06:54:02Z</time>
      </trkpt>
      <trkpt lat="46.34421" lon="5.46016">
        <ele>420.8</ele>
        <time>2022-07-19T06:54:04Z</time>
      </trkpt>
      <trkpt lat="46.34433" lon="5.46018">
        <ele>421.2</ele>
        <time>2022-07-19T06:54:07Z</time>
      </trkpt>
      <trkpt lat="46.34453" lon="5.46022">
        <ele>422.2</ele>
        <time>2022-07-19T06:54:12Z</time>
      </trkpt>
      <trkpt lat="46.34471" lon="5.46026">
        <ele>423</ele>
        <time>2022-07-19T06:54:17Z</time>
      </trkpt>
      <trkpt lat="46.3449" lon="5.4603">
        <ele>424</ele>
        <time>2022-07-19T06:54:22Z</time>
      </trkpt>
      <trkpt lat="46.34509" lon="5.4604">
        <ele>425.2</ele>
        <time>2022-07-19T06:54:27Z</time>
      </trkpt>
      <trkpt lat="46.34512" lon="5.46043">
        <ele>425.2</ele>
        <time>2022-07-19T06:54:28Z</time>
      </trkpt>
      <trkpt lat="46.3452" lon="5.46053">
        <ele>425.8</ele>
        <time>2022-07-19T06:54:31Z</time>
      </trkpt>
      <trkpt lat="46.34523" lon="5.46054">
        <ele>426</ele>
        <time>2022-07-19T06:54:32Z</time>
      </trkpt>
      <trkpt lat="46.34526" lon="5.46054">
        <ele>426.2</ele>
        <time>2022-07-19T06:54:33Z</time>
      </trkpt>
      <trkpt lat="46.34541" lon="5.46048">
        <ele>427</ele>
        <time>2022-07-19T06:54:36Z</time>
      </trkpt>
      <trkpt lat="46.34545" lon="5.46047">
        <ele>427</ele>
        <time>2022-07-19T06:54:37Z</time>
      </trkpt>
      <trkpt lat="46.34569" lon="5.46046">
        <ele>426.8</ele>
        <time>2022-07-19T06:54:41Z</time>
      </trkpt>
      <trkpt lat="46.34607" lon="5.46041">
        <ele>425.8</ele>
        <time>2022-07-19T06:54:46Z</time>
      </trkpt>
      <trkpt lat="46.34616" lon="5.46039">
        <ele>425.2</ele>
        <time>2022-07-19T06:54:47Z</time>
      </trkpt>
      <trkpt lat="46.34636" lon="5.46037">
        <ele>423.8</ele>
        <time>2022-07-19T06:54:49Z</time>
      </trkpt>
      <trkpt lat="46.34646" lon="5.46035">
        <ele>422.8</ele>
        <time>2022-07-19T06:54:50Z</time>
      </trkpt>
      <trkpt lat="46.34656" lon="5.46034">
        <ele>422.4</ele>
        <time>2022-07-19T06:54:51Z</time>
      </trkpt>
      <trkpt lat="46.34677" lon="5.4603">
        <ele>421.6</ele>
        <time>2022-07-19T06:54:53Z</time>
      </trkpt>
      <trkpt lat="46.347" lon="5.46025">
        <ele>420.2</ele>
        <time>2022-07-19T06:54:55Z</time>
      </trkpt>
      <trkpt lat="46.34719" lon="5.46022">
        <ele>418.6</ele>
        <time>2022-07-19T06:54:57Z</time>
      </trkpt>
      <trkpt lat="46.34733" lon="5.46019">
        <ele>418.2</ele>
        <time>2022-07-19T06:54:58Z</time>
      </trkpt>
      <trkpt lat="46.34745" lon="5.46017">
        <ele>417.4</ele>
        <time>2022-07-19T06:54:59Z</time>
      </trkpt>
      <trkpt lat="46.34767" lon="5.46012">
        <ele>415.6</ele>
        <time>2022-07-19T06:55:01Z</time>
      </trkpt>
      <trkpt lat="46.34791" lon="5.46008">
        <ele>414.4</ele>
        <time>2022-07-19T06:55:03Z</time>
      </trkpt>
      <trkpt lat="46.34803" lon="5.46005">
        <ele>413.6</ele>
        <time>2022-07-19T06:55:04Z</time>
      </trkpt>
      <trkpt lat="46.34816" lon="5.46003">
        <ele>413</ele>
        <time>2022-07-19T06:55:05Z</time>
      </trkpt>
      <trkpt lat="46.34828" lon="5.46001">
        <ele>411.8</ele>
        <time>2022-07-19T06:55:06Z</time>
      </trkpt>
      <trkpt lat="46.34856" lon="5.45998">
        <ele>409.8</ele>
        <time>2022-07-19T06:55:08Z</time>
      </trkpt>
      <trkpt lat="46.34879" lon="5.45996">
        <ele>407.4</ele>
        <time>2022-07-19T06:55:10Z</time>
      </trkpt>
      <trkpt lat="46.34894" lon="5.45995">
        <ele>405.6</ele>
        <time>2022-07-19T06:55:11Z</time>
      </trkpt>
      <trkpt lat="46.34925" lon="5.45992">
        <ele>403.6</ele>
        <time>2022-07-19T06:55:13Z</time>
      </trkpt>
      <trkpt lat="46.34938" lon="5.45992">
        <ele>402.4</ele>
        <time>2022-07-19T06:55:15Z</time>
      </trkpt>
      <trkpt lat="46.3497" lon="5.45989">
        <ele>401.2</ele>
        <time>2022-07-19T06:55:17Z</time>
      </trkpt>
      <trkpt lat="46.34996" lon="5.45988">
        <ele>400</ele>
        <time>2022-07-19T06:55:19Z</time>
      </trkpt>
      <trkpt lat="46.35009" lon="5.45986">
        <ele>398.6</ele>
        <time>2022-07-19T06:55:20Z</time>
      </trkpt>
      <trkpt lat="46.35035" lon="5.45984">
        <ele>396.8</ele>
        <time>2022-07-19T06:55:22Z</time>
      </trkpt>
      <trkpt lat="46.35061" lon="5.45981">
        <ele>395</ele>
        <time>2022-07-19T06:55:24Z</time>
      </trkpt>
      <trkpt lat="46.35088" lon="5.45978">
        <ele>393.6</ele>
        <time>2022-07-19T06:55:26Z</time>
      </trkpt>
      <trkpt lat="46.35104" lon="5.45977">
        <ele>392.2</ele>
        <time>2022-07-19T06:55:27Z</time>
      </trkpt>
      <trkpt lat="46.35129" lon="5.45974">
        <ele>391.4</ele>
        <time>2022-07-19T06:55:29Z</time>
      </trkpt>
      <trkpt lat="46.35142" lon="5.45973">
        <ele>391</ele>
        <time>2022-07-19T06:55:30Z</time>
      </trkpt>
      <trkpt lat="46.35156" lon="5.45972">
        <ele>389.2</ele>
        <time>2022-07-19T06:55:31Z</time>
      </trkpt>
      <trkpt lat="46.35182" lon="5.45971">
        <ele>387</ele>
        <time>2022-07-19T06:55:33Z</time>
      </trkpt>
      <trkpt lat="46.35196" lon="5.4597">
        <ele>385.8</ele>
        <time>2022-07-19T06:55:34Z</time>
      </trkpt>
      <trkpt lat="46.35223" lon="5.45969">
        <ele>384</ele>
        <time>2022-07-19T06:55:36Z</time>
      </trkpt>
      <trkpt lat="46.3525" lon="5.45968">
        <ele>381.8</ele>
        <time>2022-07-19T06:55:38Z</time>
      </trkpt>
      <trkpt lat="46.3528" lon="5.45969">
        <ele>379.6</ele>
        <time>2022-07-19T06:55:40Z</time>
      </trkpt>
      <trkpt lat="46.35305" lon="5.45971">
        <ele>378.4</ele>
        <time>2022-07-19T06:55:42Z</time>
      </trkpt>
      <trkpt lat="46.35319" lon="5.45972">
        <ele>377.6</ele>
        <time>2022-07-19T06:55:43Z</time>
      </trkpt>
      <trkpt lat="46.35333" lon="5.45973">
        <ele>377</ele>
        <time>2022-07-19T06:55:44Z</time>
      </trkpt>
      <trkpt lat="46.3536" lon="5.45974">
        <ele>376</ele>
        <time>2022-07-19T06:55:46Z</time>
      </trkpt>
      <trkpt lat="46.35374" lon="5.45975">
        <ele>375</ele>
        <time>2022-07-19T06:55:47Z</time>
      </trkpt>
      <trkpt lat="46.35388" lon="5.45976">
        <ele>373.6</ele>
        <time>2022-07-19T06:55:48Z</time>
      </trkpt>
      <trkpt lat="46.35416" lon="5.45974">
        <ele>371.2</ele>
        <time>2022-07-19T06:55:50Z</time>
      </trkpt>
      <trkpt lat="46.35443" lon="5.4597">
        <ele>369.6</ele>
        <time>2022-07-19T06:55:52Z</time>
      </trkpt>
      <trkpt lat="46.35472" lon="5.45966">
        <ele>368.2</ele>
        <time>2022-07-19T06:55:54Z</time>
      </trkpt>
      <trkpt lat="46.35485" lon="5.45965">
        <ele>367.2</ele>
        <time>2022-07-19T06:55:55Z</time>
      </trkpt>
      <trkpt lat="46.35499" lon="5.45964">
        <ele>366.4</ele>
        <time>2022-07-19T06:55:56Z</time>
      </trkpt>
      <trkpt lat="46.35523" lon="5.45964">
        <ele>364.8</ele>
        <time>2022-07-19T06:55:58Z</time>
      </trkpt>
      <trkpt lat="46.3554" lon="5.45965">
        <ele>363.6</ele>
        <time>2022-07-19T06:55:59Z</time>
      </trkpt>
      <trkpt lat="46.35553" lon="5.45967">
        <ele>363</ele>
        <time>2022-07-19T06:56:00Z</time>
      </trkpt>
      <trkpt lat="46.35566" lon="5.4597">
        <ele>361.6</ele>
        <time>2022-07-19T06:56:01Z</time>
      </trkpt>
      <trkpt lat="46.35578" lon="5.45974">
        <ele>360.4</ele>
        <time>2022-07-19T06:56:02Z</time>
      </trkpt>
      <trkpt lat="46.3559" lon="5.45978">
        <ele>359</ele>
        <time>2022-07-19T06:56:03Z</time>
      </trkpt>
      <trkpt lat="46.356" lon="5.45983">
        <ele>358</ele>
        <time>2022-07-19T06:56:04Z</time>
      </trkpt>
      <trkpt lat="46.35608" lon="5.45987">
        <ele>357.6</ele>
        <time>2022-07-19T06:56:05Z</time>
      </trkpt>
      <trkpt lat="46.3562" lon="5.45992">
        <ele>356.6</ele>
        <time>2022-07-19T06:56:06Z</time>
      </trkpt>
      <trkpt lat="46.3563" lon="5.45993">
        <ele>356.4</ele>
        <time>2022-07-19T06:56:07Z</time>
      </trkpt>
      <trkpt lat="46.3564" lon="5.45991">
        <ele>355.8</ele>
        <time>2022-07-19T06:56:08Z</time>
      </trkpt>
      <trkpt lat="46.35659" lon="5.45985">
        <ele>354.8</ele>
        <time>2022-07-19T06:56:10Z</time>
      </trkpt>
      <trkpt lat="46.35669" lon="5.45983">
        <ele>354</ele>
        <time>2022-07-19T06:56:11Z</time>
      </trkpt>
      <trkpt lat="46.35691" lon="5.4598">
        <ele>352.8</ele>
        <time>2022-07-19T06:56:14Z</time>
      </trkpt>
      <trkpt lat="46.3571" lon="5.4598">
        <ele>351.8</ele>
        <time>2022-07-19T06:56:16Z</time>
      </trkpt>
      <trkpt lat="46.35724" lon="5.45982">
        <ele>351.4</ele>
        <time>2022-07-19T06:56:18Z</time>
      </trkpt>
      <trkpt lat="46.35752" lon="5.45988">
        <ele>351.4</ele>
        <time>2022-07-19T06:56:22Z</time>
      </trkpt>
      <trkpt lat="46.35757" lon="5.45991">
        <ele>351.4</ele>
        <time>2022-07-19T06:56:23Z</time>
      </trkpt>
      <trkpt lat="46.3576" lon="5.45997">
        <ele>351.4</ele>
        <time>2022-07-19T06:56:24Z</time>
      </trkpt>
      <trkpt lat="46.35762" lon="5.46012">
        <ele>351.6</ele>
        <time>2022-07-19T06:56:26Z</time>
      </trkpt>
      <trkpt lat="46.35762" lon="5.4606">
        <ele>351.6</ele>
        <time>2022-07-19T06:56:31Z</time>
      </trkpt>
      <trkpt lat="46.35763" lon="5.46088">
        <ele>352</ele>
        <time>2022-07-19T06:56:34Z</time>
      </trkpt>
      <trkpt lat="46.35765" lon="5.46106">
        <ele>352</ele>
        <time>2022-07-19T06:56:36Z</time>
      </trkpt>
      <trkpt lat="46.35771" lon="5.4614">
        <ele>352.6</ele>
        <time>2022-07-19T06:56:40Z</time>
      </trkpt>
      <trkpt lat="46.35772" lon="5.46148">
        <ele>352.8</ele>
        <time>2022-07-19T06:56:41Z</time>
      </trkpt>
      <trkpt lat="46.35773" lon="5.46155">
        <ele>352.8</ele>
        <time>2022-07-19T06:56:42Z</time>
      </trkpt>
      <trkpt lat="46.35774" lon="5.46179">
        <ele>353.4</ele>
        <time>2022-07-19T06:56:45Z</time>
      </trkpt>
      <trkpt lat="46.35775" lon="5.46192">
        <ele>353.8</ele>
        <time>2022-07-19T06:56:47Z</time>
      </trkpt>
      <trkpt lat="46.35778" lon="5.46215">
        <ele>354.4</ele>
        <time>2022-07-19T06:56:50Z</time>
      </trkpt>
      <trkpt lat="46.35781" lon="5.46227">
        <ele>354.6</ele>
        <time>2022-07-19T06:56:52Z</time>
      </trkpt>
      <trkpt lat="46.35783" lon="5.46234">
        <ele>354.8</ele>
        <time>2022-07-19T06:56:53Z</time>
      </trkpt>
      <trkpt lat="46.35786" lon="5.4624">
        <ele>355</ele>
        <time>2022-07-19T06:56:54Z</time>
      </trkpt>
      <trkpt lat="46.35789" lon="5.46245">
        <ele>355.2</ele>
        <time>2022-07-19T06:56:55Z</time>
      </trkpt>
      <trkpt lat="46.35793" lon="5.46249">
        <ele>355.2</ele>
        <time>2022-07-19T06:56:56Z</time>
      </trkpt>
      <trkpt lat="46.35798" lon="5.46252">
        <ele>355.2</ele>
        <time>2022-07-19T06:56:57Z</time>
      </trkpt>
      <trkpt lat="46.35816" lon="5.46262">
        <ele>355.4</ele>
        <time>2022-07-19T06:57:01Z</time>
      </trkpt>
      <trkpt lat="46.35822" lon="5.46266">
        <ele>355.6</ele>
        <time>2022-07-19T06:57:02Z</time>
      </trkpt>
      <trkpt lat="46.35835" lon="5.46278">
        <ele>355.4</ele>
        <time>2022-07-19T06:57:05Z</time>
      </trkpt>
      <trkpt lat="46.35845" lon="5.46303">
        <ele>355.6</ele>
        <time>2022-07-19T06:57:08Z</time>
      </trkpt>
      <trkpt lat="46.35851" lon="5.46328">
        <ele>355.8</ele>
        <time>2022-07-19T06:57:11Z</time>
      </trkpt>
      <trkpt lat="46.35853" lon="5.46344">
        <ele>355.8</ele>
        <time>2022-07-19T06:57:13Z</time>
      </trkpt>
      <trkpt lat="46.35854" lon="5.46362">
        <ele>356</ele>
        <time>2022-07-19T06:57:15Z</time>
      </trkpt>
      <trkpt lat="46.35851" lon="5.46386">
        <ele>356</ele>
        <time>2022-07-19T06:57:18Z</time>
      </trkpt>
      <trkpt lat="46.35843" lon="5.46452">
        <ele>356.2</ele>
        <time>2022-07-19T06:57:26Z</time>
      </trkpt>
      <trkpt lat="46.35838" lon="5.46476">
        <ele>356.2</ele>
        <time>2022-07-19T06:57:29Z</time>
      </trkpt>
      <trkpt lat="46.35837" lon="5.46491">
        <ele>356.2</ele>
        <time>2022-07-19T06:57:31Z</time>
      </trkpt>
      <trkpt lat="46.35842" lon="5.46503">
        <ele>356</ele>
        <time>2022-07-19T06:57:33Z</time>
      </trkpt>
      <trkpt lat="46.35846" lon="5.46509">
        <ele>356.2</ele>
        <time>2022-07-19T06:57:34Z</time>
      </trkpt>
      <trkpt lat="46.35851" lon="5.46514">
        <ele>355.8</ele>
        <time>2022-07-19T06:57:35Z</time>
      </trkpt>
      <trkpt lat="46.35867" lon="5.46524">
        <ele>356.2</ele>
        <time>2022-07-19T06:57:38Z</time>
      </trkpt>
      <trkpt lat="46.35887" lon="5.46541">
        <ele>356.4</ele>
        <time>2022-07-19T06:57:42Z</time>
      </trkpt>
      <trkpt lat="46.3589" lon="5.46546">
        <ele>357</ele>
        <time>2022-07-19T06:57:43Z</time>
      </trkpt>
      <trkpt lat="46.35894" lon="5.46551">
        <ele>357.2</ele>
        <time>2022-07-19T06:57:44Z</time>
      </trkpt>
      <trkpt lat="46.35898" lon="5.46557">
        <ele>357.2</ele>
        <time>2022-07-19T06:57:45Z</time>
      </trkpt>
      <trkpt lat="46.35916" lon="5.46592">
        <ele>357.6</ele>
        <time>2022-07-19T06:57:50Z</time>
      </trkpt>
      <trkpt lat="46.35927" lon="5.46611">
        <ele>357.6</ele>
        <time>2022-07-19T06:57:53Z</time>
      </trkpt>
      <trkpt lat="46.35939" lon="5.46627">
        <ele>357.6</ele>
        <time>2022-07-19T06:57:56Z</time>
      </trkpt>
      <trkpt lat="46.35967" lon="5.46653">
        <ele>357.8</ele>
        <time>2022-07-19T06:58:02Z</time>
      </trkpt>
      <trkpt lat="46.35977" lon="5.46661">
        <ele>358</ele>
        <time>2022-07-19T06:58:04Z</time>
      </trkpt>
      <trkpt lat="46.36003" lon="5.46679">
        <ele>358.8</ele>
        <time>2022-07-19T06:58:09Z</time>
      </trkpt>
      <trkpt lat="46.36007" lon="5.46681">
        <ele>359.2</ele>
        <time>2022-07-19T06:58:11Z</time>
      </trkpt>
      <trkpt lat="46.36018" lon="5.46687">
        <ele>359.4</ele>
        <time>2022-07-19T06:58:13Z</time>
      </trkpt>
      <trkpt lat="46.36031" lon="5.46697">
        <ele>360.2</ele>
        <time>2022-07-19T06:58:16Z</time>
      </trkpt>
      <trkpt lat="46.36043" lon="5.46706">
        <ele>360.4</ele>
        <time>2022-07-19T06:58:19Z</time>
      </trkpt>
      <trkpt lat="46.36056" lon="5.46718">
        <ele>361</ele>
        <time>2022-07-19T06:58:22Z</time>
      </trkpt>
      <trkpt lat="46.36065" lon="5.46725">
        <ele>361.2</ele>
        <time>2022-07-19T06:58:24Z</time>
      </trkpt>
      <trkpt lat="46.36096" lon="5.46759">
        <ele>362.6</ele>
        <time>2022-07-19T06:58:32Z</time>
      </trkpt>
      <trkpt lat="46.36114" lon="5.46784">
        <ele>363.6</ele>
        <time>2022-07-19T06:58:37Z</time>
      </trkpt>
      <trkpt lat="46.36121" lon="5.46794">
        <ele>364</ele>
        <time>2022-07-19T06:58:39Z</time>
      </trkpt>
      <trkpt lat="46.36125" lon="5.46798">
        <ele>364</ele>
        <time>2022-07-19T06:58:40Z</time>
      </trkpt>
      <trkpt lat="46.36132" lon="5.46807">
        <ele>364.6</ele>
        <time>2022-07-19T06:58:42Z</time>
      </trkpt>
      <trkpt lat="46.36142" lon="5.46816">
        <ele>365.6</ele>
        <time>2022-07-19T06:58:45Z</time>
      </trkpt>
      <trkpt lat="46.3615" lon="5.46825">
        <ele>366.8</ele>
        <time>2022-07-19T06:58:48Z</time>
      </trkpt>
      <trkpt lat="46.36159" lon="5.46833">
        <ele>368</ele>
        <time>2022-07-19T06:58:51Z</time>
      </trkpt>
      <trkpt lat="46.36168" lon="5.46843">
        <ele>369.2</ele>
        <time>2022-07-19T06:58:54Z</time>
      </trkpt>
      <trkpt lat="46.36177" lon="5.46852">
        <ele>370</ele>
        <time>2022-07-19T06:58:57Z</time>
      </trkpt>
      <trkpt lat="46.36187" lon="5.46865">
        <ele>370.4</ele>
        <time>2022-07-19T06:59:00Z</time>
      </trkpt>
      <trkpt lat="46.36194" lon="5.46873">
        <ele>370.8</ele>
        <time>2022-07-19T06:59:02Z</time>
      </trkpt>
      <trkpt lat="46.36212" lon="5.46888">
        <ele>371.6</ele>
        <time>2022-07-19T06:59:07Z</time>
      </trkpt>
      <trkpt lat="46.3622" lon="5.46893">
        <ele>372</ele>
        <time>2022-07-19T06:59:09Z</time>
      </trkpt>
      <trkpt lat="46.3624" lon="5.46905">
        <ele>372.6</ele>
        <time>2022-07-19T06:59:14Z</time>
      </trkpt>
      <trkpt lat="46.36244" lon="5.46907">
        <ele>372.6</ele>
        <time>2022-07-19T06:59:15Z</time>
      </trkpt>
      <trkpt lat="46.36275" lon="5.46925">
        <ele>373.4</ele>
        <time>2022-07-19T06:59:21Z</time>
      </trkpt>
      <trkpt lat="46.36307" lon="5.46942">
        <ele>373.6</ele>
        <time>2022-07-19T06:59:27Z</time>
      </trkpt>
      <trkpt lat="46.36336" lon="5.46953">
        <ele>373.6</ele>
        <time>2022-07-19T06:59:32Z</time>
      </trkpt>
      <trkpt lat="46.36371" lon="5.46967">
        <ele>373.6</ele>
        <time>2022-07-19T06:59:38Z</time>
      </trkpt>
      <trkpt lat="46.36424" lon="5.4699">
        <ele>372.8</ele>
        <time>2022-07-19T06:59:46Z</time>
      </trkpt>
      <trkpt lat="46.36431" lon="5.46994">
        <ele>372.8</ele>
        <time>2022-07-19T06:59:47Z</time>
      </trkpt>
      <trkpt lat="46.3645" lon="5.47005">
        <ele>372.4</ele>
        <time>2022-07-19T06:59:50Z</time>
      </trkpt>
      <trkpt lat="46.36477" lon="5.47021">
        <ele>371.8</ele>
        <time>2022-07-19T06:59:54Z</time>
      </trkpt>
      <trkpt lat="46.36518" lon="5.47048">
        <ele>372.2</ele>
        <time>2022-07-19T07:00:01Z</time>
      </trkpt>
      <trkpt lat="46.36549" lon="5.47067">
        <ele>373.4</ele>
        <time>2022-07-19T07:00:07Z</time>
      </trkpt>
      <trkpt lat="46.36572" lon="5.4708">
        <ele>374.4</ele>
        <time>2022-07-19T07:00:11Z</time>
      </trkpt>
      <trkpt lat="46.36578" lon="5.47083">
        <ele>374.4</ele>
        <time>2022-07-19T07:00:12Z</time>
      </trkpt>
      <trkpt lat="46.36584" lon="5.47086">
        <ele>374.6</ele>
        <time>2022-07-19T07:00:13Z</time>
      </trkpt>
      <trkpt lat="46.36602" lon="5.47096">
        <ele>375.2</ele>
        <time>2022-07-19T07:00:16Z</time>
      </trkpt>
      <trkpt lat="46.3663" lon="5.47112">
        <ele>375.4</ele>
        <time>2022-07-19T07:00:21Z</time>
      </trkpt>
      <trkpt lat="46.36641" lon="5.47119">
        <ele>375.6</ele>
        <time>2022-07-19T07:00:23Z</time>
      </trkpt>
      <trkpt lat="46.36694" lon="5.4715">
        <ele>376</ele>
        <time>2022-07-19T07:00:32Z</time>
      </trkpt>
      <trkpt lat="46.36699" lon="5.47153">
        <ele>376</ele>
        <time>2022-07-19T07:00:33Z</time>
      </trkpt>
      <trkpt lat="46.3671" lon="5.47159">
        <ele>376.6</ele>
        <time>2022-07-19T07:00:35Z</time>
      </trkpt>
      <trkpt lat="46.36744" lon="5.47186">
        <ele>377.2</ele>
        <time>2022-07-19T07:00:41Z</time>
      </trkpt>
      <trkpt lat="46.36775" lon="5.47214">
        <ele>377.6</ele>
        <time>2022-07-19T07:00:48Z</time>
      </trkpt>
      <trkpt lat="46.36794" lon="5.4723">
        <ele>378.4</ele>
        <time>2022-07-19T07:00:52Z</time>
      </trkpt>
      <trkpt lat="46.36798" lon="5.47233">
        <ele>378.8</ele>
        <time>2022-07-19T07:00:53Z</time>
      </trkpt>
      <trkpt lat="46.36813" lon="5.47243">
        <ele>379.4</ele>
        <time>2022-07-19T07:00:56Z</time>
      </trkpt>
      <trkpt lat="46.36827" lon="5.47249">
        <ele>379.6</ele>
        <time>2022-07-19T07:00:59Z</time>
      </trkpt>
      <trkpt lat="46.36837" lon="5.47254">
        <ele>379.8</ele>
        <time>2022-07-19T07:01:01Z</time>
      </trkpt>
      <trkpt lat="46.36843" lon="5.47256">
        <ele>379.8</ele>
        <time>2022-07-19T07:01:02Z</time>
      </trkpt>
      <trkpt lat="46.36848" lon="5.4726">
        <ele>379.8</ele>
        <time>2022-07-19T07:01:03Z</time>
      </trkpt>
      <trkpt lat="46.36854" lon="5.47263">
        <ele>379.8</ele>
        <time>2022-07-19T07:01:04Z</time>
      </trkpt>
      <trkpt lat="46.36859" lon="5.47266">
        <ele>380</ele>
        <time>2022-07-19T07:01:05Z</time>
      </trkpt>
      <trkpt lat="46.36872" lon="5.47276">
        <ele>380.4</ele>
        <time>2022-07-19T07:01:08Z</time>
      </trkpt>
      <trkpt lat="46.3688" lon="5.47285">
        <ele>380.4</ele>
        <time>2022-07-19T07:01:10Z</time>
      </trkpt>
      <trkpt lat="46.36896" lon="5.47303">
        <ele>381</ele>
        <time>2022-07-19T07:01:14Z</time>
      </trkpt>
      <trkpt lat="46.369" lon="5.47307">
        <ele>381</ele>
        <time>2022-07-19T07:01:15Z</time>
      </trkpt>
      <trkpt lat="46.36912" lon="5.47318">
        <ele>382</ele>
        <time>2022-07-19T07:01:18Z</time>
      </trkpt>
      <trkpt lat="46.36927" lon="5.47329">
        <ele>382.8</ele>
        <time>2022-07-19T07:01:21Z</time>
      </trkpt>
      <trkpt lat="46.36934" lon="5.47333">
        <ele>382.8</ele>
        <time>2022-07-19T07:01:22Z</time>
      </trkpt>
      <trkpt lat="46.36944" lon="5.47338">
        <ele>383.2</ele>
        <time>2022-07-19T07:01:24Z</time>
      </trkpt>
      <trkpt lat="46.36951" lon="5.47342">
        <ele>383.6</ele>
        <time>2022-07-19T07:01:26Z</time>
      </trkpt>
      <trkpt lat="46.36966" lon="5.47348">
        <ele>384.2</ele>
        <time>2022-07-19T07:01:30Z</time>
      </trkpt>
      <trkpt lat="46.3697" lon="5.47349">
        <ele>384.4</ele>
        <time>2022-07-19T07:01:31Z</time>
      </trkpt>
      <trkpt lat="46.36987" lon="5.4736">
        <ele>385.4</ele>
        <time>2022-07-19T07:01:36Z</time>
      </trkpt>
      <trkpt lat="46.36991" lon="5.47361">
        <ele>385.8</ele>
        <time>2022-07-19T07:01:37Z</time>
      </trkpt>
      <trkpt lat="46.36998" lon="5.47363">
        <ele>386.4</ele>
        <time>2022-07-19T07:01:39Z</time>
      </trkpt>
      <trkpt lat="46.3702" lon="5.47373">
        <ele>387.6</ele>
        <time>2022-07-19T07:01:44Z</time>
      </trkpt>
      <trkpt lat="46.37027" lon="5.47377">
        <ele>388</ele>
        <time>2022-07-19T07:01:46Z</time>
      </trkpt>
      <trkpt lat="46.37036" lon="5.4738">
        <ele>388.8</ele>
        <time>2022-07-19T07:01:49Z</time>
      </trkpt>
      <trkpt lat="46.3705" lon="5.47386">
        <ele>389.4</ele>
        <time>2022-07-19T07:01:52Z</time>
      </trkpt>
      <trkpt lat="46.37059" lon="5.47389">
        <ele>389.8</ele>
        <time>2022-07-19T07:01:54Z</time>
      </trkpt>
      <trkpt lat="46.37074" lon="5.47396">
        <ele>390.8</ele>
        <time>2022-07-19T07:01:58Z</time>
      </trkpt>
      <trkpt lat="46.37079" lon="5.47397">
        <ele>391</ele>
        <time>2022-07-19T07:01:59Z</time>
      </trkpt>
      <trkpt lat="46.37093" lon="5.47403">
        <ele>391.8</ele>
        <time>2022-07-19T07:02:02Z</time>
      </trkpt>
      <trkpt lat="46.37101" lon="5.47411">
        <ele>392.2</ele>
        <time>2022-07-19T07:02:05Z</time>
      </trkpt>
      <trkpt lat="46.37113" lon="5.47418">
        <ele>393</ele>
        <time>2022-07-19T07:02:09Z</time>
      </trkpt>
      <trkpt lat="46.37121" lon="5.47423">
        <ele>393.4</ele>
        <time>2022-07-19T07:02:11Z</time>
      </trkpt>
      <trkpt lat="46.37129" lon="5.47427">
        <ele>394.2</ele>
        <time>2022-07-19T07:02:13Z</time>
      </trkpt>
      <trkpt lat="46.37146" lon="5.47438">
        <ele>395.2</ele>
        <time>2022-07-19T07:02:18Z</time>
      </trkpt>
      <trkpt lat="46.37149" lon="5.4744">
        <ele>395.2</ele>
        <time>2022-07-19T07:02:19Z</time>
      </trkpt>
      <trkpt lat="46.37153" lon="5.47442">
        <ele>395.4</ele>
        <time>2022-07-19T07:02:20Z</time>
      </trkpt>
      <trkpt lat="46.3716" lon="5.47455">
        <ele>396.4</ele>
        <time>2022-07-19T07:02:23Z</time>
      </trkpt>
      <trkpt lat="46.37164" lon="5.47478">
        <ele>397</ele>
        <time>2022-07-19T07:02:27Z</time>
      </trkpt>
      <trkpt lat="46.37169" lon="5.47494">
        <ele>397.4</ele>
        <time>2022-07-19T07:02:30Z</time>
      </trkpt>
      <trkpt lat="46.37176" lon="5.47507">
        <ele>398</ele>
        <time>2022-07-19T07:02:33Z</time>
      </trkpt>
      <trkpt lat="46.37184" lon="5.47524">
        <ele>398.6</ele>
        <time>2022-07-19T07:02:37Z</time>
      </trkpt>
      <trkpt lat="46.37187" lon="5.47532">
        <ele>398.6</ele>
        <time>2022-07-19T07:02:38Z</time>
      </trkpt>
      <trkpt lat="46.37193" lon="5.47549">
        <ele>399.4</ele>
        <time>2022-07-19T07:02:42Z</time>
      </trkpt>
      <trkpt lat="46.37195" lon="5.47556">
        <ele>399.6</ele>
        <time>2022-07-19T07:02:43Z</time>
      </trkpt>
      <trkpt lat="46.37201" lon="5.47577">
        <ele>400.6</ele>
        <time>2022-07-19T07:02:47Z</time>
      </trkpt>
      <trkpt lat="46.37202" lon="5.47582">
        <ele>400.8</ele>
        <time>2022-07-19T07:02:48Z</time>
      </trkpt>
      <trkpt lat="46.37206" lon="5.47594">
        <ele>401.4</ele>
        <time>2022-07-19T07:02:50Z</time>
      </trkpt>
      <trkpt lat="46.37208" lon="5.476">
        <ele>401.6</ele>
        <time>2022-07-19T07:02:51Z</time>
      </trkpt>
      <trkpt lat="46.37212" lon="5.47612">
        <ele>402</ele>
        <time>2022-07-19T07:02:53Z</time>
      </trkpt>
      <trkpt lat="46.37219" lon="5.47627">
        <ele>402.6</ele>
        <time>2022-07-19T07:02:56Z</time>
      </trkpt>
      <trkpt lat="46.3723" lon="5.47643">
        <ele>404</ele>
        <time>2022-07-19T07:03:00Z</time>
      </trkpt>
      <trkpt lat="46.37248" lon="5.47666">
        <ele>405.2</ele>
        <time>2022-07-19T07:03:06Z</time>
      </trkpt>
      <trkpt lat="46.37251" lon="5.47671">
        <ele>405.2</ele>
        <time>2022-07-19T07:03:07Z</time>
      </trkpt>
      <trkpt lat="46.3726" lon="5.4768">
        <ele>406</ele>
        <time>2022-07-19T07:03:10Z</time>
      </trkpt>
      <trkpt lat="46.37263" lon="5.47682">
        <ele>406.2</ele>
        <time>2022-07-19T07:03:11Z</time>
      </trkpt>
      <trkpt lat="46.37268" lon="5.47693">
        <ele>406.8</ele>
        <time>2022-07-19T07:03:13Z</time>
      </trkpt>
      <trkpt lat="46.37273" lon="5.477">
        <ele>407.4</ele>
        <time>2022-07-19T07:03:15Z</time>
      </trkpt>
      <trkpt lat="46.37283" lon="5.47711">
        <ele>408.4</ele>
        <time>2022-07-19T07:03:19Z</time>
      </trkpt>
      <trkpt lat="46.37286" lon="5.47714">
        <ele>408.6</ele>
        <time>2022-07-19T07:03:20Z</time>
      </trkpt>
      <trkpt lat="46.37297" lon="5.47724">
        <ele>409.6</ele>
        <time>2022-07-19T07:03:24Z</time>
      </trkpt>
      <trkpt lat="46.37299" lon="5.47725">
        <ele>409.6</ele>
        <time>2022-07-19T07:03:25Z</time>
      </trkpt>
      <trkpt lat="46.37306" lon="5.47733">
        <ele>410.6</ele>
        <time>2022-07-19T07:03:28Z</time>
      </trkpt>
      <trkpt lat="46.37313" lon="5.47737">
        <ele>411.2</ele>
        <time>2022-07-19T07:03:30Z</time>
      </trkpt>
      <trkpt lat="46.37318" lon="5.47746">
        <ele>411.8</ele>
        <time>2022-07-19T07:03:33Z</time>
      </trkpt>
      <trkpt lat="46.37322" lon="5.47749">
        <ele>412</ele>
        <time>2022-07-19T07:03:34Z</time>
      </trkpt>
      <trkpt lat="46.37326" lon="5.47753">
        <ele>412.4</ele>
        <time>2022-07-19T07:03:35Z</time>
      </trkpt>
      <trkpt lat="46.37333" lon="5.47758">
        <ele>413</ele>
        <time>2022-07-19T07:03:37Z</time>
      </trkpt>
      <trkpt lat="46.37352" lon="5.47766">
        <ele>413.6</ele>
        <time>2022-07-19T07:03:41Z</time>
      </trkpt>
      <trkpt lat="46.37358" lon="5.47773">
        <ele>414.2</ele>
        <time>2022-07-19T07:03:43Z</time>
      </trkpt>
      <trkpt lat="46.37366" lon="5.47779">
        <ele>414.6</ele>
        <time>2022-07-19T07:03:45Z</time>
      </trkpt>
      <trkpt lat="46.37377" lon="5.47784">
        <ele>415.2</ele>
        <time>2022-07-19T07:03:48Z</time>
      </trkpt>
      <trkpt lat="46.37393" lon="5.47792">
        <ele>416.2</ele>
        <time>2022-07-19T07:03:52Z</time>
      </trkpt>
      <trkpt lat="46.37397" lon="5.47792">
        <ele>416.4</ele>
        <time>2022-07-19T07:03:53Z</time>
      </trkpt>
      <trkpt lat="46.37409" lon="5.47793">
        <ele>417.4</ele>
        <time>2022-07-19T07:03:56Z</time>
      </trkpt>
      <trkpt lat="46.37418" lon="5.47792">
        <ele>418</ele>
        <time>2022-07-19T07:03:58Z</time>
      </trkpt>
      <trkpt lat="46.37429" lon="5.47787">
        <ele>418.6</ele>
        <time>2022-07-19T07:04:01Z</time>
      </trkpt>
      <trkpt lat="46.37438" lon="5.47785">
        <ele>418.8</ele>
        <time>2022-07-19T07:04:04Z</time>
      </trkpt>
      <trkpt lat="46.37452" lon="5.47791">
        <ele>419.4</ele>
        <time>2022-07-19T07:04:07Z</time>
      </trkpt>
      <trkpt lat="46.37456" lon="5.47793">
        <ele>419.8</ele>
        <time>2022-07-19T07:04:08Z</time>
      </trkpt>
      <trkpt lat="46.37467" lon="5.47799">
        <ele>420.4</ele>
        <time>2022-07-19T07:04:12Z</time>
      </trkpt>
      <trkpt lat="46.37475" lon="5.47802">
        <ele>420.8</ele>
        <time>2022-07-19T07:04:14Z</time>
      </trkpt>
      <trkpt lat="46.37492" lon="5.47807">
        <ele>421.2</ele>
        <time>2022-07-19T07:04:18Z</time>
      </trkpt>
      <trkpt lat="46.37504" lon="5.47809">
        <ele>421.6</ele>
        <time>2022-07-19T07:04:20Z</time>
      </trkpt>
      <trkpt lat="46.37509" lon="5.4781">
        <ele>421.6</ele>
        <time>2022-07-19T07:04:21Z</time>
      </trkpt>
      <trkpt lat="46.37525" lon="5.47813">
        <ele>422</ele>
        <time>2022-07-19T07:04:24Z</time>
      </trkpt>
      <trkpt lat="46.37546" lon="5.4782">
        <ele>422.2</ele>
        <time>2022-07-19T07:04:28Z</time>
      </trkpt>
      <trkpt lat="46.37577" lon="5.47826">
        <ele>422.6</ele>
        <time>2022-07-19T07:04:33Z</time>
      </trkpt>
      <trkpt lat="46.37583" lon="5.47827">
        <ele>422.8</ele>
        <time>2022-07-19T07:04:35Z</time>
      </trkpt>
      <trkpt lat="46.37598" lon="5.47837">
        <ele>423.4</ele>
        <time>2022-07-19T07:04:40Z</time>
      </trkpt>
      <trkpt lat="46.3762" lon="5.47847">
        <ele>424</ele>
        <time>2022-07-19T07:04:44Z</time>
      </trkpt>
      <trkpt lat="46.37626" lon="5.4785">
        <ele>424.6</ele>
        <time>2022-07-19T07:04:45Z</time>
      </trkpt>
      <trkpt lat="46.37637" lon="5.47853">
        <ele>425.2</ele>
        <time>2022-07-19T07:04:47Z</time>
      </trkpt>
      <trkpt lat="46.3766" lon="5.47866">
        <ele>426.2</ele>
        <time>2022-07-19T07:04:52Z</time>
      </trkpt>
      <trkpt lat="46.37666" lon="5.47866">
        <ele>426.2</ele>
        <time>2022-07-19T07:04:53Z</time>
      </trkpt>
      <trkpt lat="46.37675" lon="5.4787">
        <ele>427</ele>
        <time>2022-07-19T07:04:56Z</time>
      </trkpt>
      <trkpt lat="46.37679" lon="5.47876">
        <ele>427.6</ele>
        <time>2022-07-19T07:04:58Z</time>
      </trkpt>
      <trkpt lat="46.37697" lon="5.47891">
        <ele>428.2</ele>
        <time>2022-07-19T07:05:03Z</time>
      </trkpt>
      <trkpt lat="46.37703" lon="5.47896">
        <ele>428.4</ele>
        <time>2022-07-19T07:05:05Z</time>
      </trkpt>
      <trkpt lat="46.37718" lon="5.47903">
        <ele>428.8</ele>
        <time>2022-07-19T07:05:07Z</time>
      </trkpt>
      <trkpt lat="46.37734" lon="5.4791">
        <ele>429.4</ele>
        <time>2022-07-19T07:05:11Z</time>
      </trkpt>
      <trkpt lat="46.37746" lon="5.47921">
        <ele>430.8</ele>
        <time>2022-07-19T07:05:14Z</time>
      </trkpt>
      <trkpt lat="46.37765" lon="5.47943">
        <ele>431.6</ele>
        <time>2022-07-19T07:05:19Z</time>
      </trkpt>
      <trkpt lat="46.37769" lon="5.47947">
        <ele>431.6</ele>
        <time>2022-07-19T07:05:20Z</time>
      </trkpt>
      <trkpt lat="46.37778" lon="5.47962">
        <ele>432.2</ele>
        <time>2022-07-19T07:05:23Z</time>
      </trkpt>
      <trkpt lat="46.37782" lon="5.47966">
        <ele>432.4</ele>
        <time>2022-07-19T07:05:24Z</time>
      </trkpt>
      <trkpt lat="46.37789" lon="5.47975">
        <ele>432.8</ele>
        <time>2022-07-19T07:05:26Z</time>
      </trkpt>
      <trkpt lat="46.37804" lon="5.47991">
        <ele>433.2</ele>
        <time>2022-07-19T07:05:30Z</time>
      </trkpt>
      <trkpt lat="46.37823" lon="5.48009">
        <ele>433.8</ele>
        <time>2022-07-19T07:05:35Z</time>
      </trkpt>
      <trkpt lat="46.3783" lon="5.48017">
        <ele>434.2</ele>
        <time>2022-07-19T07:05:37Z</time>
      </trkpt>
      <trkpt lat="46.37849" lon="5.4804">
        <ele>434.8</ele>
        <time>2022-07-19T07:05:42Z</time>
      </trkpt>
      <trkpt lat="46.37856" lon="5.48047">
        <ele>435.2</ele>
        <time>2022-07-19T07:05:45Z</time>
      </trkpt>
      <trkpt lat="46.3786" lon="5.48053">
        <ele>435.4</ele>
        <time>2022-07-19T07:05:46Z</time>
      </trkpt>
      <trkpt lat="46.37865" lon="5.48063">
        <ele>436</ele>
        <time>2022-07-19T07:05:48Z</time>
      </trkpt>
      <trkpt lat="46.37873" lon="5.48079">
        <ele>436.8</ele>
        <time>2022-07-19T07:05:51Z</time>
      </trkpt>
      <trkpt lat="46.37876" lon="5.48085">
        <ele>437</ele>
        <time>2022-07-19T07:05:52Z</time>
      </trkpt>
      <trkpt lat="46.37882" lon="5.48105">
        <ele>437.8</ele>
        <time>2022-07-19T07:05:55Z</time>
      </trkpt>
      <trkpt lat="46.37884" lon="5.48112">
        <ele>437.8</ele>
        <time>2022-07-19T07:05:56Z</time>
      </trkpt>
      <trkpt lat="46.37888" lon="5.48123">
        <ele>438.2</ele>
        <time>2022-07-19T07:05:58Z</time>
      </trkpt>
      <trkpt lat="46.37893" lon="5.48133">
        <ele>438.4</ele>
        <time>2022-07-19T07:06:00Z</time>
      </trkpt>
      <trkpt lat="46.37895" lon="5.48137">
        <ele>438.8</ele>
        <time>2022-07-19T07:06:01Z</time>
      </trkpt>
      <trkpt lat="46.37898" lon="5.48142">
        <ele>439.2</ele>
        <time>2022-07-19T07:06:02Z</time>
      </trkpt>
      <trkpt lat="46.37905" lon="5.48152">
        <ele>440.2</ele>
        <time>2022-07-19T07:06:05Z</time>
      </trkpt>
      <trkpt lat="46.37922" lon="5.48172">
        <ele>441.4</ele>
        <time>2022-07-19T07:06:10Z</time>
      </trkpt>
      <trkpt lat="46.37925" lon="5.48178">
        <ele>441.6</ele>
        <time>2022-07-19T07:06:11Z</time>
      </trkpt>
      <trkpt lat="46.37929" lon="5.48183">
        <ele>441.8</ele>
        <time>2022-07-19T07:06:12Z</time>
      </trkpt>
      <trkpt lat="46.37939" lon="5.48196">
        <ele>442.4</ele>
        <time>2022-07-19T07:06:15Z</time>
      </trkpt>
      <trkpt lat="46.37943" lon="5.482">
        <ele>442.6</ele>
        <time>2022-07-19T07:06:16Z</time>
      </trkpt>
      <trkpt lat="46.37946" lon="5.48203">
        <ele>442.8</ele>
        <time>2022-07-19T07:06:17Z</time>
      </trkpt>
      <trkpt lat="46.37953" lon="5.48209">
        <ele>443.4</ele>
        <time>2022-07-19T07:06:19Z</time>
      </trkpt>
      <trkpt lat="46.37955" lon="5.48212">
        <ele>443.6</ele>
        <time>2022-07-19T07:06:20Z</time>
      </trkpt>
      <trkpt lat="46.37957" lon="5.48214">
        <ele>443.8</ele>
        <time>2022-07-19T07:06:21Z</time>
      </trkpt>
      <trkpt lat="46.37968" lon="5.4822">
        <ele>444.4</ele>
        <time>2022-07-19T07:06:24Z</time>
      </trkpt>
      <trkpt lat="46.37975" lon="5.48226">
        <ele>445</ele>
        <time>2022-07-19T07:06:26Z</time>
      </trkpt>
      <trkpt lat="46.37991" lon="5.48235">
        <ele>445.6</ele>
        <time>2022-07-19T07:06:30Z</time>
      </trkpt>
      <trkpt lat="46.38" lon="5.48241">
        <ele>445.8</ele>
        <time>2022-07-19T07:06:32Z</time>
      </trkpt>
      <trkpt lat="46.38013" lon="5.48246">
        <ele>446.4</ele>
        <time>2022-07-19T07:06:35Z</time>
      </trkpt>
      <trkpt lat="46.38035" lon="5.48255">
        <ele>446.6</ele>
        <time>2022-07-19T07:06:39Z</time>
      </trkpt>
      <trkpt lat="46.38076" lon="5.48271">
        <ele>446.8</ele>
        <time>2022-07-19T07:06:46Z</time>
      </trkpt>
      <trkpt lat="46.38093" lon="5.48278">
        <ele>447</ele>
        <time>2022-07-19T07:06:50Z</time>
      </trkpt>
      <trkpt lat="46.38096" lon="5.4828">
        <ele>447.4</ele>
        <time>2022-07-19T07:06:51Z</time>
      </trkpt>
      <trkpt lat="46.38103" lon="5.48282">
        <ele>448</ele>
        <time>2022-07-19T07:06:53Z</time>
      </trkpt>
      <trkpt lat="46.38116" lon="5.48284">
        <ele>448.8</ele>
        <time>2022-07-19T07:06:56Z</time>
      </trkpt>
      <trkpt lat="46.38121" lon="5.48284">
        <ele>449</ele>
        <time>2022-07-19T07:06:57Z</time>
      </trkpt>
      <trkpt lat="46.38138" lon="5.48285">
        <ele>450</ele>
        <time>2022-07-19T07:07:02Z</time>
      </trkpt>
      <trkpt lat="46.38144" lon="5.48286">
        <ele>450.2</ele>
        <time>2022-07-19T07:07:03Z</time>
      </trkpt>
      <trkpt lat="46.38161" lon="5.4829">
        <ele>450.6</ele>
        <time>2022-07-19T07:07:07Z</time>
      </trkpt>
      <trkpt lat="46.38165" lon="5.48293">
        <ele>450.8</ele>
        <time>2022-07-19T07:07:08Z</time>
      </trkpt>
      <trkpt lat="46.38179" lon="5.48298">
        <ele>451.2</ele>
        <time>2022-07-19T07:07:11Z</time>
      </trkpt>
      <trkpt lat="46.38184" lon="5.48299">
        <ele>451.4</ele>
        <time>2022-07-19T07:07:12Z</time>
      </trkpt>
      <trkpt lat="46.38199" lon="5.48305">
        <ele>452.4</ele>
        <time>2022-07-19T07:07:15Z</time>
      </trkpt>
      <trkpt lat="46.38207" lon="5.48308">
        <ele>452.8</ele>
        <time>2022-07-19T07:07:17Z</time>
      </trkpt>
      <trkpt lat="46.38211" lon="5.48309">
        <ele>452.8</ele>
        <time>2022-07-19T07:07:18Z</time>
      </trkpt>
      <trkpt lat="46.3823" lon="5.48312">
        <ele>453.6</ele>
        <time>2022-07-19T07:07:22Z</time>
      </trkpt>
      <trkpt lat="46.38256" lon="5.48313">
        <ele>454.4</ele>
        <time>2022-07-19T07:07:27Z</time>
      </trkpt>
      <trkpt lat="46.38269" lon="5.48312">
        <ele>454.6</ele>
        <time>2022-07-19T07:07:29Z</time>
      </trkpt>
      <trkpt lat="46.38297" lon="5.48312">
        <ele>454.4</ele>
        <time>2022-07-19T07:07:33Z</time>
      </trkpt>
      <trkpt lat="46.38316" lon="5.48313">
        <ele>454.4</ele>
        <time>2022-07-19T07:07:37Z</time>
      </trkpt>
      <trkpt lat="46.38336" lon="5.48318">
        <ele>454.2</ele>
        <time>2022-07-19T07:07:40Z</time>
      </trkpt>
      <trkpt lat="46.38374" lon="5.48331">
        <ele>453.6</ele>
        <time>2022-07-19T07:07:45Z</time>
      </trkpt>
      <trkpt lat="46.38392" lon="5.48335">
        <ele>453.2</ele>
        <time>2022-07-19T07:07:47Z</time>
      </trkpt>
      <trkpt lat="46.38407" lon="5.48337">
        <ele>452</ele>
        <time>2022-07-19T07:07:49Z</time>
      </trkpt>
      <trkpt lat="46.38418" lon="5.48338">
        <ele>451.6</ele>
        <time>2022-07-19T07:07:50Z</time>
      </trkpt>
      <trkpt lat="46.38435" lon="5.4834">
        <ele>450.6</ele>
        <time>2022-07-19T07:07:52Z</time>
      </trkpt>
      <trkpt lat="46.38462" lon="5.48339">
        <ele>449.8</ele>
        <time>2022-07-19T07:07:55Z</time>
      </trkpt>
      <trkpt lat="46.3847" lon="5.48339">
        <ele>449.4</ele>
        <time>2022-07-19T07:07:56Z</time>
      </trkpt>
      <trkpt lat="46.38496" lon="5.4834">
        <ele>448.6</ele>
        <time>2022-07-19T07:07:59Z</time>
      </trkpt>
      <trkpt lat="46.3851" lon="5.48345">
        <ele>448.4</ele>
        <time>2022-07-19T07:08:01Z</time>
      </trkpt>
      <trkpt lat="46.38516" lon="5.4835">
        <ele>448.4</ele>
        <time>2022-07-19T07:08:02Z</time>
      </trkpt>
      <trkpt lat="46.38534" lon="5.48368">
        <ele>448.4</ele>
        <time>2022-07-19T07:08:05Z</time>
      </trkpt>
      <trkpt lat="46.38572" lon="5.48403">
        <ele>448.6</ele>
        <time>2022-07-19T07:08:11Z</time>
      </trkpt>
      <trkpt lat="46.38572" lon="5.48403">
        <ele>448.8</ele>
        <time>2022-07-19T07:08:12Z</time>
      </trkpt>
      <trkpt lat="46.38609" lon="5.48422">
        <ele>449</ele>
        <time>2022-07-19T07:08:18Z</time>
      </trkpt>
      <trkpt lat="46.38619" lon="5.48428">
        <ele>449.4</ele>
        <time>2022-07-19T07:08:20Z</time>
      </trkpt>
      <trkpt lat="46.38642" lon="5.48444">
        <ele>450.4</ele>
        <time>2022-07-19T07:08:25Z</time>
      </trkpt>
      <trkpt lat="46.38647" lon="5.48448">
        <ele>450.6</ele>
        <time>2022-07-19T07:08:26Z</time>
      </trkpt>
      <trkpt lat="46.38669" lon="5.48461">
        <ele>451.4</ele>
        <time>2022-07-19T07:08:30Z</time>
      </trkpt>
      <trkpt lat="46.38684" lon="5.48471">
        <ele>452</ele>
        <time>2022-07-19T07:08:33Z</time>
      </trkpt>
      <trkpt lat="46.38688" lon="5.48474">
        <ele>452.2</ele>
        <time>2022-07-19T07:08:34Z</time>
      </trkpt>
      <trkpt lat="46.38701" lon="5.48481">
        <ele>452.4</ele>
        <time>2022-07-19T07:08:36Z</time>
      </trkpt>
      <trkpt lat="46.38733" lon="5.48498">
        <ele>453</ele>
        <time>2022-07-19T07:08:42Z</time>
      </trkpt>
      <trkpt lat="46.38738" lon="5.485">
        <ele>453.6</ele>
        <time>2022-07-19T07:08:43Z</time>
      </trkpt>
      <trkpt lat="46.38756" lon="5.48508">
        <ele>454.2</ele>
        <time>2022-07-19T07:08:47Z</time>
      </trkpt>
      <trkpt lat="46.38766" lon="5.48512">
        <ele>454.6</ele>
        <time>2022-07-19T07:08:49Z</time>
      </trkpt>
      <trkpt lat="46.3879" lon="5.4852">
        <ele>455.8</ele>
        <time>2022-07-19T07:08:54Z</time>
      </trkpt>
      <trkpt lat="46.38794" lon="5.48522">
        <ele>456.2</ele>
        <time>2022-07-19T07:08:55Z</time>
      </trkpt>
      <trkpt lat="46.38804" lon="5.48527">
        <ele>457</ele>
        <time>2022-07-19T07:08:57Z</time>
      </trkpt>
      <trkpt lat="46.38823" lon="5.48537">
        <ele>458.2</ele>
        <time>2022-07-19T07:09:01Z</time>
      </trkpt>
      <trkpt lat="46.38827" lon="5.4854">
        <ele>458.6</ele>
        <time>2022-07-19T07:09:02Z</time>
      </trkpt>
      <trkpt lat="46.38835" lon="5.48545">
        <ele>459.2</ele>
        <time>2022-07-19T07:09:04Z</time>
      </trkpt>
      <trkpt lat="46.38851" lon="5.48554">
        <ele>460.6</ele>
        <time>2022-07-19T07:09:08Z</time>
      </trkpt>
      <trkpt lat="46.38855" lon="5.48556">
        <ele>460.6</ele>
        <time>2022-07-19T07:09:09Z</time>
      </trkpt>
      <trkpt lat="46.38859" lon="5.48558">
        <ele>461.2</ele>
        <time>2022-07-19T07:09:10Z</time>
      </trkpt>
      <trkpt lat="46.38866" lon="5.48561">
        <ele>461.8</ele>
        <time>2022-07-19T07:09:12Z</time>
      </trkpt>
      <trkpt lat="46.38885" lon="5.48572">
        <ele>462.8</ele>
        <time>2022-07-19T07:09:17Z</time>
      </trkpt>
      <trkpt lat="46.38897" lon="5.48578">
        <ele>463.8</ele>
        <time>2022-07-19T07:09:20Z</time>
      </trkpt>
      <trkpt lat="46.389" lon="5.4858">
        <ele>464</ele>
        <time>2022-07-19T07:09:21Z</time>
      </trkpt>
      <trkpt lat="46.38911" lon="5.48589">
        <ele>465.2</ele>
        <time>2022-07-19T07:09:24Z</time>
      </trkpt>
      <trkpt lat="46.38915" lon="5.48593">
        <ele>465.4</ele>
        <time>2022-07-19T07:09:25Z</time>
      </trkpt>
      <trkpt lat="46.38918" lon="5.48597">
        <ele>465.6</ele>
        <time>2022-07-19T07:09:26Z</time>
      </trkpt>
      <trkpt lat="46.38924" lon="5.48605">
        <ele>465.8</ele>
        <time>2022-07-19T07:09:28Z</time>
      </trkpt>
      <trkpt lat="46.38929" lon="5.48614">
        <ele>466.2</ele>
        <time>2022-07-19T07:09:30Z</time>
      </trkpt>
      <trkpt lat="46.38934" lon="5.48621">
        <ele>466.6</ele>
        <time>2022-07-19T07:09:32Z</time>
      </trkpt>
      <trkpt lat="46.38942" lon="5.48633">
        <ele>467.4</ele>
        <time>2022-07-19T07:09:35Z</time>
      </trkpt>
      <trkpt lat="46.38952" lon="5.48647">
        <ele>468.6</ele>
        <time>2022-07-19T07:09:39Z</time>
      </trkpt>
      <trkpt lat="46.38962" lon="5.48659">
        <ele>469.4</ele>
        <time>2022-07-19T07:09:42Z</time>
      </trkpt>
      <trkpt lat="46.38965" lon="5.48662">
        <ele>469.6</ele>
        <time>2022-07-19T07:09:43Z</time>
      </trkpt>
      <trkpt lat="46.38992" lon="5.48685">
        <ele>470.8</ele>
        <time>2022-07-19T07:09:50Z</time>
      </trkpt>
      <trkpt lat="46.38996" lon="5.48688">
        <ele>470.8</ele>
        <time>2022-07-19T07:09:51Z</time>
      </trkpt>
      <trkpt lat="46.3901" lon="5.48693">
        <ele>471.2</ele>
        <time>2022-07-19T07:09:54Z</time>
      </trkpt>
      <trkpt lat="46.39021" lon="5.48697">
        <ele>471.2</ele>
        <time>2022-07-19T07:09:56Z</time>
      </trkpt>
      <trkpt lat="46.39052" lon="5.48716">
        <ele>470.6</ele>
        <time>2022-07-19T07:10:01Z</time>
      </trkpt>
      <trkpt lat="46.39061" lon="5.48722">
        <ele>469.4</ele>
        <time>2022-07-19T07:10:03Z</time>
      </trkpt>
      <trkpt lat="46.3907" lon="5.48727">
        <ele>468.4</ele>
        <time>2022-07-19T07:10:05Z</time>
      </trkpt>
      <trkpt lat="46.39075" lon="5.48727">
        <ele>468.2</ele>
        <time>2022-07-19T07:10:06Z</time>
      </trkpt>
      <trkpt lat="46.391" lon="5.48722">
        <ele>467.6</ele>
        <time>2022-07-19T07:10:10Z</time>
      </trkpt>
      <trkpt lat="46.39127" lon="5.48716">
        <ele>467</ele>
        <time>2022-07-19T07:10:13Z</time>
      </trkpt>
      <trkpt lat="46.39144" lon="5.48707">
        <ele>466.6</ele>
        <time>2022-07-19T07:10:15Z</time>
      </trkpt>
      <trkpt lat="46.39151" lon="5.48699">
        <ele>466</ele>
        <time>2022-07-19T07:10:16Z</time>
      </trkpt>
      <trkpt lat="46.39157" lon="5.48689">
        <ele>465.6</ele>
        <time>2022-07-19T07:10:17Z</time>
      </trkpt>
      <trkpt lat="46.39162" lon="5.48678">
        <ele>465.2</ele>
        <time>2022-07-19T07:10:18Z</time>
      </trkpt>
      <trkpt lat="46.39173" lon="5.48654">
        <ele>464</ele>
        <time>2022-07-19T07:10:20Z</time>
      </trkpt>
      <trkpt lat="46.39184" lon="5.4863">
        <ele>463</ele>
        <time>2022-07-19T07:10:22Z</time>
      </trkpt>
      <trkpt lat="46.39196" lon="5.48605">
        <ele>461.6</ele>
        <time>2022-07-19T07:10:24Z</time>
      </trkpt>
      <trkpt lat="46.39203" lon="5.48593">
        <ele>461.2</ele>
        <time>2022-07-19T07:10:25Z</time>
      </trkpt>
      <trkpt lat="46.39216" lon="5.48568">
        <ele>460</ele>
        <time>2022-07-19T07:10:27Z</time>
      </trkpt>
      <trkpt lat="46.39235" lon="5.48528">
        <ele>458.4</ele>
        <time>2022-07-19T07:10:30Z</time>
      </trkpt>
      <trkpt lat="46.39246" lon="5.48505">
        <ele>457</ele>
        <time>2022-07-19T07:10:32Z</time>
      </trkpt>
      <trkpt lat="46.3926" lon="5.48475">
        <ele>455.8</ele>
        <time>2022-07-19T07:10:34Z</time>
      </trkpt>
      <trkpt lat="46.39272" lon="5.48448">
        <ele>455.2</ele>
        <time>2022-07-19T07:10:36Z</time>
      </trkpt>
      <trkpt lat="46.39277" lon="5.48438">
        <ele>454.8</ele>
        <time>2022-07-19T07:10:37Z</time>
      </trkpt>
      <trkpt lat="46.3931" lon="5.48386">
        <ele>453.6</ele>
        <time>2022-07-19T07:10:41Z</time>
      </trkpt>
      <trkpt lat="46.3931" lon="5.48386">
        <ele>453.4</ele>
        <time>2022-07-19T07:10:42Z</time>
      </trkpt>
      <trkpt lat="46.39344" lon="5.48352">
        <ele>453.2</ele>
        <time>2022-07-19T07:10:46Z</time>
      </trkpt>
      <trkpt lat="46.39377" lon="5.48326">
        <ele>454.6</ele>
        <time>2022-07-19T07:10:51Z</time>
      </trkpt>
      <trkpt lat="46.39404" lon="5.48302">
        <ele>455.8</ele>
        <time>2022-07-19T07:10:56Z</time>
      </trkpt>
      <trkpt lat="46.39415" lon="5.48293">
        <ele>456.6</ele>
        <time>2022-07-19T07:10:58Z</time>
      </trkpt>
      <trkpt lat="46.3942" lon="5.48289">
        <ele>456.8</ele>
        <time>2022-07-19T07:10:59Z</time>
      </trkpt>
      <trkpt lat="46.39435" lon="5.48276">
        <ele>458</ele>
        <time>2022-07-19T07:11:02Z</time>
      </trkpt>
      <trkpt lat="46.39449" lon="5.48263">
        <ele>458.8</ele>
        <time>2022-07-19T07:11:05Z</time>
      </trkpt>
      <trkpt lat="46.39454" lon="5.48259">
        <ele>459.4</ele>
        <time>2022-07-19T07:11:06Z</time>
      </trkpt>
      <trkpt lat="46.39467" lon="5.48247">
        <ele>460.4</ele>
        <time>2022-07-19T07:11:09Z</time>
      </trkpt>
      <trkpt lat="46.3948" lon="5.48235">
        <ele>461.4</ele>
        <time>2022-07-19T07:11:12Z</time>
      </trkpt>
      <trkpt lat="46.39485" lon="5.48232">
        <ele>461.6</ele>
        <time>2022-07-19T07:11:13Z</time>
      </trkpt>
      <trkpt lat="46.39492" lon="5.48225">
        <ele>462.2</ele>
        <time>2022-07-19T07:11:15Z</time>
      </trkpt>
      <trkpt lat="46.39504" lon="5.48216">
        <ele>463.2</ele>
        <time>2022-07-19T07:11:18Z</time>
      </trkpt>
      <trkpt lat="46.39508" lon="5.48211">
        <ele>463.4</ele>
        <time>2022-07-19T07:11:19Z</time>
      </trkpt>
      <trkpt lat="46.39519" lon="5.48199">
        <ele>464.4</ele>
        <time>2022-07-19T07:11:22Z</time>
      </trkpt>
      <trkpt lat="46.39532" lon="5.4818">
        <ele>465.6</ele>
        <time>2022-07-19T07:11:26Z</time>
      </trkpt>
      <trkpt lat="46.39536" lon="5.48173">
        <ele>465.8</ele>
        <time>2022-07-19T07:11:27Z</time>
      </trkpt>
      <trkpt lat="46.39542" lon="5.48157">
        <ele>466.8</ele>
        <time>2022-07-19T07:11:30Z</time>
      </trkpt>
      <trkpt lat="46.39544" lon="5.4815">
        <ele>467</ele>
        <time>2022-07-19T07:11:31Z</time>
      </trkpt>
      <trkpt lat="46.39545" lon="5.48145">
        <ele>467.2</ele>
        <time>2022-07-19T07:11:32Z</time>
      </trkpt>
      <trkpt lat="46.3955" lon="5.48128">
        <ele>468</ele>
        <time>2022-07-19T07:11:35Z</time>
      </trkpt>
      <trkpt lat="46.39554" lon="5.48108">
        <ele>468.4</ele>
        <time>2022-07-19T07:11:38Z</time>
      </trkpt>
      <trkpt lat="46.39557" lon="5.48081">
        <ele>469.2</ele>
        <time>2022-07-19T07:11:42Z</time>
      </trkpt>
      <trkpt lat="46.39561" lon="5.48052">
        <ele>470.6</ele>
        <time>2022-07-19T07:11:46Z</time>
      </trkpt>
      <trkpt lat="46.39565" lon="5.48026">
        <ele>471.2</ele>
        <time>2022-07-19T07:11:50Z</time>
      </trkpt>
      <trkpt lat="46.39569" lon="5.48007">
        <ele>471.8</ele>
        <time>2022-07-19T07:11:53Z</time>
      </trkpt>
      <trkpt lat="46.39573" lon="5.47975">
        <ele>472.8</ele>
        <time>2022-07-19T07:11:58Z</time>
      </trkpt>
      <trkpt lat="46.39573" lon="5.47954">
        <ele>473.2</ele>
        <time>2022-07-19T07:12:01Z</time>
      </trkpt>
      <trkpt lat="46.39573" lon="5.4794">
        <ele>474</ele>
        <time>2022-07-19T07:12:03Z</time>
      </trkpt>
      <trkpt lat="46.39574" lon="5.47926">
        <ele>474.4</ele>
        <time>2022-07-19T07:12:05Z</time>
      </trkpt>
      <trkpt lat="46.39576" lon="5.47914">
        <ele>474.8</ele>
        <time>2022-07-19T07:12:07Z</time>
      </trkpt>
      <trkpt lat="46.39579" lon="5.47905">
        <ele>474.8</ele>
        <time>2022-07-19T07:12:08Z</time>
      </trkpt>
      <trkpt lat="46.39581" lon="5.479">
        <ele>475</ele>
        <time>2022-07-19T07:12:09Z</time>
      </trkpt>
      <trkpt lat="46.39585" lon="5.47894">
        <ele>475</ele>
        <time>2022-07-19T07:12:10Z</time>
      </trkpt>
      <trkpt lat="46.39589" lon="5.47889">
        <ele>475</ele>
        <time>2022-07-19T07:12:11Z</time>
      </trkpt>
      <trkpt lat="46.39594" lon="5.47886">
        <ele>475.2</ele>
        <time>2022-07-19T07:12:12Z</time>
      </trkpt>
      <trkpt lat="46.39599" lon="5.47883">
        <ele>475.2</ele>
        <time>2022-07-19T07:12:13Z</time>
      </trkpt>
      <trkpt lat="46.39614" lon="5.4788">
        <ele>475.4</ele>
        <time>2022-07-19T07:12:16Z</time>
      </trkpt>
      <trkpt lat="46.3965" lon="5.47877">
        <ele>476.2</ele>
        <time>2022-07-19T07:12:23Z</time>
      </trkpt>
      <trkpt lat="46.39673" lon="5.47874">
        <ele>476.6</ele>
        <time>2022-07-19T07:12:27Z</time>
      </trkpt>
      <trkpt lat="46.39705" lon="5.47873">
        <ele>476.6</ele>
        <time>2022-07-19T07:12:32Z</time>
      </trkpt>
      <trkpt lat="46.39747" lon="5.4787">
        <ele>476.4</ele>
        <time>2022-07-19T07:12:38Z</time>
      </trkpt>
      <trkpt lat="46.39755" lon="5.47868">
        <ele>476.4</ele>
        <time>2022-07-19T07:12:39Z</time>
      </trkpt>
      <trkpt lat="46.39779" lon="5.4785">
        <ele>476.2</ele>
        <time>2022-07-19T07:12:41Z</time>
      </trkpt>
      <trkpt lat="46.39805" lon="5.47817">
        <ele>475.2</ele>
        <time>2022-07-19T07:12:46Z</time>
      </trkpt>
      <trkpt lat="46.39826" lon="5.47789">
        <ele>473.6</ele>
        <time>2022-07-19T07:12:49Z</time>
      </trkpt>
      <trkpt lat="46.39841" lon="5.4777">
        <ele>472.4</ele>
        <time>2022-07-19T07:12:51Z</time>
      </trkpt>
      <trkpt lat="46.39855" lon="5.47751">
        <ele>471.4</ele>
        <time>2022-07-19T07:12:53Z</time>
      </trkpt>
      <trkpt lat="46.39863" lon="5.47741">
        <ele>470.6</ele>
        <time>2022-07-19T07:12:54Z</time>
      </trkpt>
      <trkpt lat="46.39886" lon="5.47714">
        <ele>469.8</ele>
        <time>2022-07-19T07:12:57Z</time>
      </trkpt>
      <trkpt lat="46.39895" lon="5.47706">
        <ele>469.6</ele>
        <time>2022-07-19T07:12:58Z</time>
      </trkpt>
      <trkpt lat="46.39905" lon="5.47701">
        <ele>469.4</ele>
        <time>2022-07-19T07:12:59Z</time>
      </trkpt>
      <trkpt lat="46.39926" lon="5.47696">
        <ele>468</ele>
        <time>2022-07-19T07:13:01Z</time>
      </trkpt>
      <trkpt lat="46.39947" lon="5.47699">
        <ele>466.8</ele>
        <time>2022-07-19T07:13:03Z</time>
      </trkpt>
      <trkpt lat="46.3997" lon="5.47704">
        <ele>465.2</ele>
        <time>2022-07-19T07:13:05Z</time>
      </trkpt>
      <trkpt lat="46.3999" lon="5.47711">
        <ele>464</ele>
        <time>2022-07-19T07:13:07Z</time>
      </trkpt>
      <trkpt lat="46.40022" lon="5.47718">
        <ele>463</ele>
        <time>2022-07-19T07:13:10Z</time>
      </trkpt>
      <trkpt lat="46.40032" lon="5.47703">
        <ele>462</ele>
        <time>2022-07-19T07:13:12Z</time>
      </trkpt>
      <trkpt lat="46.40034" lon="5.47689">
        <ele>461.8</ele>
        <time>2022-07-19T07:13:13Z</time>
      </trkpt>
      <trkpt lat="46.40033" lon="5.47661">
        <ele>460.4</ele>
        <time>2022-07-19T07:13:15Z</time>
      </trkpt>
      <trkpt lat="46.40028" lon="5.47632">
        <ele>458.8</ele>
        <time>2022-07-19T07:13:17Z</time>
      </trkpt>
      <trkpt lat="46.4002" lon="5.47619">
        <ele>458.2</ele>
        <time>2022-07-19T07:13:18Z</time>
      </trkpt>
      <trkpt lat="46.40009" lon="5.47609">
        <ele>456.8</ele>
        <time>2022-07-19T07:13:19Z</time>
      </trkpt>
      <trkpt lat="46.39988" lon="5.47589">
        <ele>455.2</ele>
        <time>2022-07-19T07:13:21Z</time>
      </trkpt>
      <trkpt lat="46.39967" lon="5.47569">
        <ele>454.2</ele>
        <time>2022-07-19T07:13:23Z</time>
      </trkpt>
      <trkpt lat="46.39958" lon="5.47557">
        <ele>453.6</ele>
        <time>2022-07-19T07:13:24Z</time>
      </trkpt>
      <trkpt lat="46.39949" lon="5.47544">
        <ele>452.8</ele>
        <time>2022-07-19T07:13:25Z</time>
      </trkpt>
      <trkpt lat="46.39941" lon="5.47531">
        <ele>451.6</ele>
        <time>2022-07-19T07:13:26Z</time>
      </trkpt>
      <trkpt lat="46.39927" lon="5.47503">
        <ele>450</ele>
        <time>2022-07-19T07:13:28Z</time>
      </trkpt>
      <trkpt lat="46.3992" lon="5.47489">
        <ele>449.2</ele>
        <time>2022-07-19T07:13:29Z</time>
      </trkpt>
      <trkpt lat="46.39909" lon="5.47461">
        <ele>448.2</ele>
        <time>2022-07-19T07:13:31Z</time>
      </trkpt>
      <trkpt lat="46.39897" lon="5.47434">
        <ele>447</ele>
        <time>2022-07-19T07:13:33Z</time>
      </trkpt>
      <trkpt lat="46.39882" lon="5.47393">
        <ele>445.8</ele>
        <time>2022-07-19T07:13:36Z</time>
      </trkpt>
      <trkpt lat="46.39877" lon="5.47379">
        <ele>445.4</ele>
        <time>2022-07-19T07:13:37Z</time>
      </trkpt>
      <trkpt lat="46.39866" lon="5.47351">
        <ele>444</ele>
        <time>2022-07-19T07:13:39Z</time>
      </trkpt>
      <trkpt lat="46.39861" lon="5.47336">
        <ele>443</ele>
        <time>2022-07-19T07:13:40Z</time>
      </trkpt>
      <trkpt lat="46.39848" lon="5.47299">
        <ele>441.8</ele>
        <time>2022-07-19T07:13:42Z</time>
      </trkpt>
      <trkpt lat="46.39843" lon="5.47284">
        <ele>440.2</ele>
        <time>2022-07-19T07:13:45Z</time>
      </trkpt>
      <trkpt lat="46.3983" lon="5.47247">
        <ele>438.8</ele>
        <time>2022-07-19T07:13:47Z</time>
      </trkpt>
      <trkpt lat="46.3982" lon="5.47216">
        <ele>437.6</ele>
        <time>2022-07-19T07:13:49Z</time>
      </trkpt>
      <trkpt lat="46.3981" lon="5.4718">
        <ele>436.2</ele>
        <time>2022-07-19T07:13:51Z</time>
      </trkpt>
      <trkpt lat="46.39802" lon="5.47151">
        <ele>435.2</ele>
        <time>2022-07-19T07:13:53Z</time>
      </trkpt>
      <trkpt lat="46.39794" lon="5.47119">
        <ele>433.4</ele>
        <time>2022-07-19T07:13:55Z</time>
      </trkpt>
      <trkpt lat="46.39786" lon="5.47087">
        <ele>431.8</ele>
        <time>2022-07-19T07:13:57Z</time>
      </trkpt>
      <trkpt lat="46.39778" lon="5.47054">
        <ele>430.6</ele>
        <time>2022-07-19T07:13:59Z</time>
      </trkpt>
      <trkpt lat="46.39774" lon="5.47038">
        <ele>429.6</ele>
        <time>2022-07-19T07:14:00Z</time>
      </trkpt>
      <trkpt lat="46.39769" lon="5.47022">
        <ele>428.8</ele>
        <time>2022-07-19T07:14:01Z</time>
      </trkpt>
      <trkpt lat="46.39765" lon="5.47006">
        <ele>427.8</ele>
        <time>2022-07-19T07:14:02Z</time>
      </trkpt>
      <trkpt lat="46.39753" lon="5.46958">
        <ele>426.4</ele>
        <time>2022-07-19T07:14:05Z</time>
      </trkpt>
      <trkpt lat="46.39745" lon="5.46926">
        <ele>425.2</ele>
        <time>2022-07-19T07:14:07Z</time>
      </trkpt>
      <trkpt lat="46.39734" lon="5.46878">
        <ele>424</ele>
        <time>2022-07-19T07:14:10Z</time>
      </trkpt>
      <trkpt lat="46.39723" lon="5.46831">
        <ele>421.8</ele>
        <time>2022-07-19T07:14:13Z</time>
      </trkpt>
      <trkpt lat="46.39712" lon="5.46785">
        <ele>420.4</ele>
        <time>2022-07-19T07:14:16Z</time>
      </trkpt>
      <trkpt lat="46.39705" lon="5.46754">
        <ele>419.4</ele>
        <time>2022-07-19T07:14:18Z</time>
      </trkpt>
      <trkpt lat="46.39696" lon="5.46722">
        <ele>418.2</ele>
        <time>2022-07-19T07:14:20Z</time>
      </trkpt>
      <trkpt lat="46.39692" lon="5.4671">
        <ele>417.6</ele>
        <time>2022-07-19T07:14:21Z</time>
      </trkpt>
      <trkpt lat="46.39682" lon="5.46684">
        <ele>417</ele>
        <time>2022-07-19T07:14:23Z</time>
      </trkpt>
      <trkpt lat="46.3966" lon="5.46632">
        <ele>415.6</ele>
        <time>2022-07-19T07:14:27Z</time>
      </trkpt>
      <trkpt lat="46.39654" lon="5.4662">
        <ele>415</ele>
        <time>2022-07-19T07:14:28Z</time>
      </trkpt>
      <trkpt lat="46.39639" lon="5.46598">
        <ele>414.2</ele>
        <time>2022-07-19T07:14:30Z</time>
      </trkpt>
      <trkpt lat="46.39631" lon="5.46589">
        <ele>414</ele>
        <time>2022-07-19T07:14:31Z</time>
      </trkpt>
      <trkpt lat="46.39605" lon="5.4656">
        <ele>412.6</ele>
        <time>2022-07-19T07:14:34Z</time>
      </trkpt>
      <trkpt lat="46.39594" lon="5.46548">
        <ele>411.6</ele>
        <time>2022-07-19T07:14:35Z</time>
      </trkpt>
      <trkpt lat="46.39578" lon="5.4653">
        <ele>410</ele>
        <time>2022-07-19T07:14:37Z</time>
      </trkpt>
      <trkpt lat="46.39558" lon="5.46507">
        <ele>408.8</ele>
        <time>2022-07-19T07:14:39Z</time>
      </trkpt>
      <trkpt lat="46.3954" lon="5.46486">
        <ele>407.4</ele>
        <time>2022-07-19T07:14:41Z</time>
      </trkpt>
      <trkpt lat="46.39531" lon="5.46477">
        <ele>406.4</ele>
        <time>2022-07-19T07:14:42Z</time>
      </trkpt>
      <trkpt lat="46.39509" lon="5.46451">
        <ele>405.2</ele>
        <time>2022-07-19T07:14:44Z</time>
      </trkpt>
      <trkpt lat="46.39501" lon="5.4644">
        <ele>404.2</ele>
        <time>2022-07-19T07:14:46Z</time>
      </trkpt>
      <trkpt lat="46.39478" lon="5.46399">
        <ele>402.6</ele>
        <time>2022-07-19T07:14:49Z</time>
      </trkpt>
      <trkpt lat="46.39465" lon="5.46375">
        <ele>402</ele>
        <time>2022-07-19T07:14:51Z</time>
      </trkpt>
      <trkpt lat="46.3946" lon="5.46363">
        <ele>401.4</ele>
        <time>2022-07-19T07:14:52Z</time>
      </trkpt>
      <trkpt lat="46.39449" lon="5.46338">
        <ele>400.4</ele>
        <time>2022-07-19T07:14:54Z</time>
      </trkpt>
      <trkpt lat="46.39445" lon="5.46325">
        <ele>399.6</ele>
        <time>2022-07-19T07:14:55Z</time>
      </trkpt>
      <trkpt lat="46.39442" lon="5.46311">
        <ele>399.2</ele>
        <time>2022-07-19T07:14:56Z</time>
      </trkpt>
      <trkpt lat="46.3944" lon="5.46296">
        <ele>399</ele>
        <time>2022-07-19T07:14:57Z</time>
      </trkpt>
      <trkpt lat="46.3944" lon="5.46266">
        <ele>398.2</ele>
        <time>2022-07-19T07:14:59Z</time>
      </trkpt>
      <trkpt lat="46.39441" lon="5.46251">
        <ele>397.8</ele>
        <time>2022-07-19T07:15:00Z</time>
      </trkpt>
      <trkpt lat="46.39445" lon="5.4621">
        <ele>396.6</ele>
        <time>2022-07-19T07:15:03Z</time>
      </trkpt>
      <trkpt lat="46.39447" lon="5.46192">
        <ele>396.4</ele>
        <time>2022-07-19T07:15:04Z</time>
      </trkpt>
      <trkpt lat="46.39453" lon="5.46151">
        <ele>395.2</ele>
        <time>2022-07-19T07:15:07Z</time>
      </trkpt>
      <trkpt lat="46.3946" lon="5.46107">
        <ele>394.2</ele>
        <time>2022-07-19T07:15:10Z</time>
      </trkpt>
      <trkpt lat="46.39465" lon="5.46063">
        <ele>392.8</ele>
        <time>2022-07-19T07:15:13Z</time>
      </trkpt>
      <trkpt lat="46.39466" lon="5.46033">
        <ele>391.6</ele>
        <time>2022-07-19T07:15:15Z</time>
      </trkpt>
      <trkpt lat="46.39465" lon="5.45999">
        <ele>390.4</ele>
        <time>2022-07-19T07:15:17Z</time>
      </trkpt>
      <trkpt lat="46.39461" lon="5.45956">
        <ele>389.4</ele>
        <time>2022-07-19T07:15:20Z</time>
      </trkpt>
      <trkpt lat="46.39455" lon="5.45921">
        <ele>388.2</ele>
        <time>2022-07-19T07:15:22Z</time>
      </trkpt>
      <trkpt lat="46.39447" lon="5.45895">
        <ele>387.2</ele>
        <time>2022-07-19T07:15:24Z</time>
      </trkpt>
      <trkpt lat="46.3944" lon="5.45878">
        <ele>386.4</ele>
        <time>2022-07-19T07:15:25Z</time>
      </trkpt>
      <trkpt lat="46.39434" lon="5.45867">
        <ele>385.2</ele>
        <time>2022-07-19T07:15:26Z</time>
      </trkpt>
      <trkpt lat="46.39418" lon="5.45844">
        <ele>383.6</ele>
        <time>2022-07-19T07:15:28Z</time>
      </trkpt>
      <trkpt lat="46.39409" lon="5.45832">
        <ele>383.2</ele>
        <time>2022-07-19T07:15:29Z</time>
      </trkpt>
      <trkpt lat="46.3939" lon="5.45806">
        <ele>382</ele>
        <time>2022-07-19T07:15:31Z</time>
      </trkpt>
      <trkpt lat="46.39382" lon="5.45795">
        <ele>380.8</ele>
        <time>2022-07-19T07:15:32Z</time>
      </trkpt>
      <trkpt lat="46.39364" lon="5.45772">
        <ele>379.6</ele>
        <time>2022-07-19T07:15:34Z</time>
      </trkpt>
      <trkpt lat="46.39347" lon="5.45749">
        <ele>378.6</ele>
        <time>2022-07-19T07:15:36Z</time>
      </trkpt>
      <trkpt lat="46.39339" lon="5.45737">
        <ele>378</ele>
        <time>2022-07-19T07:15:37Z</time>
      </trkpt>
      <trkpt lat="46.39332" lon="5.45724">
        <ele>377.4</ele>
        <time>2022-07-19T07:15:38Z</time>
      </trkpt>
      <trkpt lat="46.39324" lon="5.45694">
        <ele>376</ele>
        <time>2022-07-19T07:15:40Z</time>
      </trkpt>
      <trkpt lat="46.39323" lon="5.4565">
        <ele>374.8</ele>
        <time>2022-07-19T07:15:42Z</time>
      </trkpt>
      <trkpt lat="46.39323" lon="5.45644">
        <ele>374.6</ele>
        <time>2022-07-19T07:15:43Z</time>
      </trkpt>
      <trkpt lat="46.39329" lon="5.45588">
        <ele>374.4</ele>
        <time>2022-07-19T07:15:48Z</time>
      </trkpt>
      <trkpt lat="46.39333" lon="5.45553">
        <ele>375.6</ele>
        <time>2022-07-19T07:15:51Z</time>
      </trkpt>
      <trkpt lat="46.39336" lon="5.45531">
        <ele>376.6</ele>
        <time>2022-07-19T07:15:53Z</time>
      </trkpt>
      <trkpt lat="46.39338" lon="5.4552">
        <ele>377</ele>
        <time>2022-07-19T07:15:54Z</time>
      </trkpt>
      <trkpt lat="46.39346" lon="5.45502">
        <ele>377.6</ele>
        <time>2022-07-19T07:15:56Z</time>
      </trkpt>
      <trkpt lat="46.3935" lon="5.45492">
        <ele>377.6</ele>
        <time>2022-07-19T07:15:57Z</time>
      </trkpt>
      <trkpt lat="46.39354" lon="5.45484">
        <ele>378.2</ele>
        <time>2022-07-19T07:15:58Z</time>
      </trkpt>
      <trkpt lat="46.39363" lon="5.45472">
        <ele>379.4</ele>
        <time>2022-07-19T07:16:00Z</time>
      </trkpt>
      <trkpt lat="46.39372" lon="5.45463">
        <ele>380.6</ele>
        <time>2022-07-19T07:16:02Z</time>
      </trkpt>
      <trkpt lat="46.39384" lon="5.45448">
        <ele>382</ele>
        <time>2022-07-19T07:16:05Z</time>
      </trkpt>
      <trkpt lat="46.3939" lon="5.45431">
        <ele>383.4</ele>
        <time>2022-07-19T07:16:08Z</time>
      </trkpt>
      <trkpt lat="46.39391" lon="5.45425">
        <ele>383.6</ele>
        <time>2022-07-19T07:16:09Z</time>
      </trkpt>
      <trkpt lat="46.39389" lon="5.45412">
        <ele>384.4</ele>
        <time>2022-07-19T07:16:11Z</time>
      </trkpt>
      <trkpt lat="46.39388" lon="5.45405">
        <ele>384.8</ele>
        <time>2022-07-19T07:16:12Z</time>
      </trkpt>
      <trkpt lat="46.39387" lon="5.45398">
        <ele>384.8</ele>
        <time>2022-07-19T07:16:13Z</time>
      </trkpt>
      <trkpt lat="46.39386" lon="5.45391">
        <ele>385.2</ele>
        <time>2022-07-19T07:16:14Z</time>
      </trkpt>
      <trkpt lat="46.39383" lon="5.45375">
        <ele>385.6</ele>
        <time>2022-07-19T07:16:16Z</time>
      </trkpt>
      <trkpt lat="46.39381" lon="5.4537">
        <ele>385.8</ele>
        <time>2022-07-19T07:16:17Z</time>
      </trkpt>
      <trkpt lat="46.39377" lon="5.45364">
        <ele>385.8</ele>
        <time>2022-07-19T07:16:18Z</time>
      </trkpt>
      <trkpt lat="46.39358" lon="5.45349">
        <ele>386</ele>
        <time>2022-07-19T07:16:22Z</time>
      </trkpt>
      <trkpt lat="46.39326" lon="5.45326">
        <ele>385.4</ele>
        <time>2022-07-19T07:16:27Z</time>
      </trkpt>
      <trkpt lat="46.39316" lon="5.45317">
        <ele>385</ele>
        <time>2022-07-19T07:16:29Z</time>
      </trkpt>
      <trkpt lat="46.39312" lon="5.45311">
        <ele>384.8</ele>
        <time>2022-07-19T07:16:30Z</time>
      </trkpt>
      <trkpt lat="46.39309" lon="5.45305">
        <ele>384.2</ele>
        <time>2022-07-19T07:16:31Z</time>
      </trkpt>
      <trkpt lat="46.39313" lon="5.45295">
        <ele>383.2</ele>
        <time>2022-07-19T07:16:33Z</time>
      </trkpt>
      <trkpt lat="46.39319" lon="5.45291">
        <ele>383</ele>
        <time>2022-07-19T07:16:34Z</time>
      </trkpt>
      <trkpt lat="46.3933" lon="5.45286">
        <ele>382</ele>
        <time>2022-07-19T07:16:36Z</time>
      </trkpt>
      <trkpt lat="46.39346" lon="5.45284">
        <ele>380.8</ele>
        <time>2022-07-19T07:16:38Z</time>
      </trkpt>
      <trkpt lat="46.39363" lon="5.45277">
        <ele>379.8</ele>
        <time>2022-07-19T07:16:41Z</time>
      </trkpt>
      <trkpt lat="46.39383" lon="5.45267">
        <ele>378.6</ele>
        <time>2022-07-19T07:16:43Z</time>
      </trkpt>
      <trkpt lat="46.39397" lon="5.45257">
        <ele>377.6</ele>
        <time>2022-07-19T07:16:45Z</time>
      </trkpt>
      <trkpt lat="46.39418" lon="5.45247">
        <ele>376.6</ele>
        <time>2022-07-19T07:16:47Z</time>
      </trkpt>
      <trkpt lat="46.39429" lon="5.45242">
        <ele>376.2</ele>
        <time>2022-07-19T07:16:48Z</time>
      </trkpt>
      <trkpt lat="46.39447" lon="5.45234">
        <ele>375</ele>
        <time>2022-07-19T07:16:50Z</time>
      </trkpt>
      <trkpt lat="46.39475" lon="5.45221">
        <ele>373.6</ele>
        <time>2022-07-19T07:16:53Z</time>
      </trkpt>
      <trkpt lat="46.39485" lon="5.45216">
        <ele>372.4</ele>
        <time>2022-07-19T07:16:54Z</time>
      </trkpt>
      <trkpt lat="46.39508" lon="5.45206">
        <ele>371.4</ele>
        <time>2022-07-19T07:16:56Z</time>
      </trkpt>
      <trkpt lat="46.39517" lon="5.45203">
        <ele>370.4</ele>
        <time>2022-07-19T07:16:57Z</time>
      </trkpt>
      <trkpt lat="46.39541" lon="5.45195">
        <ele>369.2</ele>
        <time>2022-07-19T07:16:59Z</time>
      </trkpt>
      <trkpt lat="46.39563" lon="5.45192">
        <ele>368.2</ele>
        <time>2022-07-19T07:17:01Z</time>
      </trkpt>
      <trkpt lat="46.39574" lon="5.45193">
        <ele>367.8</ele>
        <time>2022-07-19T07:17:02Z</time>
      </trkpt>
      <trkpt lat="46.39583" lon="5.45195">
        <ele>367.2</ele>
        <time>2022-07-19T07:17:03Z</time>
      </trkpt>
      <trkpt lat="46.39593" lon="5.45198">
        <ele>366.6</ele>
        <time>2022-07-19T07:17:04Z</time>
      </trkpt>
      <trkpt lat="46.39627" lon="5.45212">
        <ele>365</ele>
        <time>2022-07-19T07:17:07Z</time>
      </trkpt>
      <trkpt lat="46.39638" lon="5.45216">
        <ele>364</ele>
        <time>2022-07-19T07:17:08Z</time>
      </trkpt>
      <trkpt lat="46.39666" lon="5.4523">
        <ele>362.8</ele>
        <time>2022-07-19T07:17:11Z</time>
      </trkpt>
      <trkpt lat="46.39699" lon="5.45247">
        <ele>361.6</ele>
        <time>2022-07-19T07:17:14Z</time>
      </trkpt>
      <trkpt lat="46.39709" lon="5.45253">
        <ele>361.2</ele>
        <time>2022-07-19T07:17:15Z</time>
      </trkpt>
      <trkpt lat="46.39719" lon="5.45258">
        <ele>361</ele>
        <time>2022-07-19T07:17:16Z</time>
      </trkpt>
      <trkpt lat="46.39729" lon="5.45263">
        <ele>360.4</ele>
        <time>2022-07-19T07:17:17Z</time>
      </trkpt>
      <trkpt lat="46.3976" lon="5.45279">
        <ele>358.8</ele>
        <time>2022-07-19T07:17:20Z</time>
      </trkpt>
      <trkpt lat="46.39771" lon="5.45284">
        <ele>357.4</ele>
        <time>2022-07-19T07:17:22Z</time>
      </trkpt>
      <trkpt lat="46.39792" lon="5.45292">
        <ele>357.2</ele>
        <time>2022-07-19T07:17:23Z</time>
      </trkpt>
      <trkpt lat="46.39814" lon="5.45296">
        <ele>356</ele>
        <time>2022-07-19T07:17:25Z</time>
      </trkpt>
      <trkpt lat="46.39824" lon="5.45296">
        <ele>355.6</ele>
        <time>2022-07-19T07:17:26Z</time>
      </trkpt>
      <trkpt lat="46.39835" lon="5.45295">
        <ele>355.2</ele>
        <time>2022-07-19T07:17:27Z</time>
      </trkpt>
      <trkpt lat="46.39846" lon="5.45294">
        <ele>354.8</ele>
        <time>2022-07-19T07:17:28Z</time>
      </trkpt>
      <trkpt lat="46.39876" lon="5.4529">
        <ele>353.4</ele>
        <time>2022-07-19T07:17:31Z</time>
      </trkpt>
      <trkpt lat="46.39908" lon="5.45287">
        <ele>352.4</ele>
        <time>2022-07-19T07:17:34Z</time>
      </trkpt>
      <trkpt lat="46.39963" lon="5.45281">
        <ele>351.8</ele>
        <time>2022-07-19T07:17:40Z</time>
      </trkpt>
      <trkpt lat="46.40023" lon="5.45274">
        <ele>351.6</ele>
        <time>2022-07-19T07:17:47Z</time>
      </trkpt>
      <trkpt lat="46.40083" lon="5.45266">
        <ele>351.6</ele>
        <time>2022-07-19T07:17:54Z</time>
      </trkpt>
      <trkpt lat="46.40091" lon="5.45265">
        <ele>351.6</ele>
        <time>2022-07-19T07:17:55Z</time>
      </trkpt>
      <trkpt lat="46.40123" lon="5.45261">
        <ele>351.6</ele>
        <time>2022-07-19T07:17:59Z</time>
      </trkpt>
      <trkpt lat="46.40138" lon="5.45255">
        <ele>351.6</ele>
        <time>2022-07-19T07:18:01Z</time>
      </trkpt>
      <trkpt lat="46.4016" lon="5.45243">
        <ele>351.6</ele>
        <time>2022-07-19T07:18:04Z</time>
      </trkpt>
      <trkpt lat="46.40167" lon="5.4524">
        <ele>351.6</ele>
        <time>2022-07-19T07:18:05Z</time>
      </trkpt>
      <trkpt lat="46.40177" lon="5.45238">
        <ele>351.8</ele>
        <time>2022-07-19T07:18:06Z</time>
      </trkpt>
      <trkpt lat="46.40206" lon="5.45236">
        <ele>351.8</ele>
        <time>2022-07-19T07:18:10Z</time>
      </trkpt>
      <trkpt lat="46.40229" lon="5.4523">
        <ele>351.8</ele>
        <time>2022-07-19T07:18:13Z</time>
      </trkpt>
      <trkpt lat="46.40236" lon="5.45227">
        <ele>351.8</ele>
        <time>2022-07-19T07:18:14Z</time>
      </trkpt>
      <trkpt lat="46.40277" lon="5.45205">
        <ele>352.2</ele>
        <time>2022-07-19T07:18:20Z</time>
      </trkpt>
      <trkpt lat="46.4033" lon="5.45175">
        <ele>352.2</ele>
        <time>2022-07-19T07:18:28Z</time>
      </trkpt>
      <trkpt lat="46.40384" lon="5.45146">
        <ele>352.2</ele>
        <time>2022-07-19T07:18:36Z</time>
      </trkpt>
      <trkpt lat="46.4039" lon="5.45142">
        <ele>352.2</ele>
        <time>2022-07-19T07:18:37Z</time>
      </trkpt>
      <trkpt lat="46.40436" lon="5.45118">
        <ele>353.2</ele>
        <time>2022-07-19T07:18:45Z</time>
      </trkpt>
      <trkpt lat="46.40461" lon="5.45105">
        <ele>353.8</ele>
        <time>2022-07-19T07:18:49Z</time>
      </trkpt>
      <trkpt lat="46.40489" lon="5.45089">
        <ele>354.8</ele>
        <time>2022-07-19T07:18:54Z</time>
      </trkpt>
      <trkpt lat="46.40495" lon="5.45086">
        <ele>355</ele>
        <time>2022-07-19T07:18:55Z</time>
      </trkpt>
      <trkpt lat="46.40549" lon="5.45057">
        <ele>355.4</ele>
        <time>2022-07-19T07:19:04Z</time>
      </trkpt>
      <trkpt lat="46.40561" lon="5.45051">
        <ele>355.4</ele>
        <time>2022-07-19T07:19:06Z</time>
      </trkpt>
      <trkpt lat="46.40613" lon="5.45022">
        <ele>355.4</ele>
        <time>2022-07-19T07:19:14Z</time>
      </trkpt>
      <trkpt lat="46.4062" lon="5.45018">
        <ele>355.4</ele>
        <time>2022-07-19T07:19:15Z</time>
      </trkpt>
      <trkpt lat="46.40671" lon="5.44998">
        <ele>355</ele>
        <time>2022-07-19T07:19:22Z</time>
      </trkpt>
      <trkpt lat="46.40715" lon="5.44998">
        <ele>355</ele>
        <time>2022-07-19T07:19:28Z</time>
      </trkpt>
      <trkpt lat="46.40764" lon="5.45014">
        <ele>355.4</ele>
        <time>2022-07-19T07:19:35Z</time>
      </trkpt>
      <trkpt lat="46.40816" lon="5.45036">
        <ele>356</ele>
        <time>2022-07-19T07:19:43Z</time>
      </trkpt>
      <trkpt lat="46.40822" lon="5.45039">
        <ele>356.2</ele>
        <time>2022-07-19T07:19:44Z</time>
      </trkpt>
      <trkpt lat="46.40831" lon="5.45044">
        <ele>356.2</ele>
        <time>2022-07-19T07:19:45Z</time>
      </trkpt>
      <trkpt lat="46.40862" lon="5.45065">
        <ele>357</ele>
        <time>2022-07-19T07:19:50Z</time>
      </trkpt>
      <trkpt lat="46.40868" lon="5.4507">
        <ele>357</ele>
        <time>2022-07-19T07:19:51Z</time>
      </trkpt>
      <trkpt lat="46.40896" lon="5.45093">
        <ele>358.2</ele>
        <time>2022-07-19T07:19:56Z</time>
      </trkpt>
      <trkpt lat="46.40912" lon="5.45106">
        <ele>359.2</ele>
        <time>2022-07-19T07:19:59Z</time>
      </trkpt>
      <trkpt lat="46.4094" lon="5.4513">
        <ele>360.4</ele>
        <time>2022-07-19T07:20:04Z</time>
      </trkpt>
      <trkpt lat="46.4097" lon="5.4515">
        <ele>361.2</ele>
        <time>2022-07-19T07:20:09Z</time>
      </trkpt>
      <trkpt lat="46.40982" lon="5.45157">
        <ele>361.4</ele>
        <time>2022-07-19T07:20:11Z</time>
      </trkpt>
      <trkpt lat="46.41018" lon="5.45175">
        <ele>362</ele>
        <time>2022-07-19T07:20:17Z</time>
      </trkpt>
      <trkpt lat="46.41031" lon="5.45179">
        <ele>362.2</ele>
        <time>2022-07-19T07:20:19Z</time>
      </trkpt>
      <trkpt lat="46.41061" lon="5.45188">
        <ele>362.6</ele>
        <time>2022-07-19T07:20:24Z</time>
      </trkpt>
      <trkpt lat="46.41072" lon="5.45191">
        <ele>362.8</ele>
        <time>2022-07-19T07:20:26Z</time>
      </trkpt>
      <trkpt lat="46.41127" lon="5.45203">
        <ele>363.6</ele>
        <time>2022-07-19T07:20:35Z</time>
      </trkpt>
      <trkpt lat="46.41145" lon="5.45207">
        <ele>364</ele>
        <time>2022-07-19T07:20:38Z</time>
      </trkpt>
      <trkpt lat="46.41173" lon="5.45212">
        <ele>364.6</ele>
        <time>2022-07-19T07:20:42Z</time>
      </trkpt>
      <trkpt lat="46.41198" lon="5.45216">
        <ele>365</ele>
        <time>2022-07-19T07:20:46Z</time>
      </trkpt>
      <trkpt lat="46.41254" lon="5.45227">
        <ele>365.6</ele>
        <time>2022-07-19T07:20:54Z</time>
      </trkpt>
      <trkpt lat="46.41261" lon="5.45229">
        <ele>365.6</ele>
        <time>2022-07-19T07:20:55Z</time>
      </trkpt>
      <trkpt lat="46.41315" lon="5.45241">
        <ele>365.4</ele>
        <time>2022-07-19T07:21:02Z</time>
      </trkpt>
      <trkpt lat="46.4133" lon="5.45245">
        <ele>365.4</ele>
        <time>2022-07-19T07:21:04Z</time>
      </trkpt>
      <trkpt lat="46.41391" lon="5.45259">
        <ele>365.2</ele>
        <time>2022-07-19T07:21:12Z</time>
      </trkpt>
      <trkpt lat="46.41406" lon="5.45263">
        <ele>365.2</ele>
        <time>2022-07-19T07:21:14Z</time>
      </trkpt>
      <trkpt lat="46.41461" lon="5.45277">
        <ele>365.6</ele>
        <time>2022-07-19T07:21:21Z</time>
      </trkpt>
      <trkpt lat="46.41484" lon="5.45282">
        <ele>365.6</ele>
        <time>2022-07-19T07:21:24Z</time>
      </trkpt>
      <trkpt lat="46.41543" lon="5.45297">
        <ele>365.4</ele>
        <time>2022-07-19T07:21:32Z</time>
      </trkpt>
      <trkpt lat="46.41557" lon="5.453">
        <ele>365.6</ele>
        <time>2022-07-19T07:21:34Z</time>
      </trkpt>
      <trkpt lat="46.41615" lon="5.45315">
        <ele>366.2</ele>
        <time>2022-07-19T07:21:42Z</time>
      </trkpt>
      <trkpt lat="46.41666" lon="5.45327">
        <ele>366.8</ele>
        <time>2022-07-19T07:21:50Z</time>
      </trkpt>
      <trkpt lat="46.41699" lon="5.45338">
        <ele>368</ele>
        <time>2022-07-19T07:21:55Z</time>
      </trkpt>
      <trkpt lat="46.41726" lon="5.45344">
        <ele>368.6</ele>
        <time>2022-07-19T07:21:59Z</time>
      </trkpt>
      <trkpt lat="46.41745" lon="5.45348">
        <ele>368.8</ele>
        <time>2022-07-19T07:22:02Z</time>
      </trkpt>
      <trkpt lat="46.41785" lon="5.45356">
        <ele>369.8</ele>
        <time>2022-07-19T07:22:08Z</time>
      </trkpt>
      <trkpt lat="46.41839" lon="5.45369">
        <ele>369.8</ele>
        <time>2022-07-19T07:22:16Z</time>
      </trkpt>
      <trkpt lat="46.41885" lon="5.4538">
        <ele>370</ele>
        <time>2022-07-19T07:22:23Z</time>
      </trkpt>
      <trkpt lat="46.41944" lon="5.45396">
        <ele>370</ele>
        <time>2022-07-19T07:22:32Z</time>
      </trkpt>
      <trkpt lat="46.41992" lon="5.45416">
        <ele>371</ele>
        <time>2022-07-19T07:22:40Z</time>
      </trkpt>
      <trkpt lat="46.42019" lon="5.45427">
        <ele>372.2</ele>
        <time>2022-07-19T07:22:45Z</time>
      </trkpt>
      <trkpt lat="46.42052" lon="5.45441">
        <ele>372.6</ele>
        <time>2022-07-19T07:22:50Z</time>
      </trkpt>
      <trkpt lat="46.42107" lon="5.45464">
        <ele>372.6</ele>
        <time>2022-07-19T07:22:58Z</time>
      </trkpt>
      <trkpt lat="46.42165" lon="5.45485">
        <ele>372</ele>
        <time>2022-07-19T07:23:06Z</time>
      </trkpt>
      <trkpt lat="46.42172" lon="5.45488">
        <ele>372</ele>
        <time>2022-07-19T07:23:07Z</time>
      </trkpt>
      <trkpt lat="46.4223" lon="5.45508">
        <ele>371.8</ele>
        <time>2022-07-19T07:23:15Z</time>
      </trkpt>
      <trkpt lat="46.42245" lon="5.45512">
        <ele>371.8</ele>
        <time>2022-07-19T07:23:17Z</time>
      </trkpt>
      <trkpt lat="46.42301" lon="5.45531">
        <ele>371.8</ele>
        <time>2022-07-19T07:23:25Z</time>
      </trkpt>
      <trkpt lat="46.4233" lon="5.45539">
        <ele>371.8</ele>
        <time>2022-07-19T07:23:29Z</time>
      </trkpt>
      <trkpt lat="46.42384" lon="5.45556">
        <ele>371.2</ele>
        <time>2022-07-19T07:23:36Z</time>
      </trkpt>
      <trkpt lat="46.42392" lon="5.45559">
        <ele>371.2</ele>
        <time>2022-07-19T07:23:37Z</time>
      </trkpt>
      <trkpt lat="46.42438" lon="5.45573">
        <ele>370.2</ele>
        <time>2022-07-19T07:23:42Z</time>
      </trkpt>
      <trkpt lat="46.42441" lon="5.45575">
        <ele>369.8</ele>
        <time>2022-07-19T07:23:43Z</time>
      </trkpt>
      <trkpt lat="46.4249" lon="5.4559">
        <ele>368.2</ele>
        <time>2022-07-19T07:23:48Z</time>
      </trkpt>
      <trkpt lat="46.42499" lon="5.45593">
        <ele>368</ele>
        <time>2022-07-19T07:23:49Z</time>
      </trkpt>
      <trkpt lat="46.42542" lon="5.45607">
        <ele>367.2</ele>
        <time>2022-07-19T07:23:54Z</time>
      </trkpt>
      <trkpt lat="46.42551" lon="5.45609">
        <ele>367</ele>
        <time>2022-07-19T07:23:55Z</time>
      </trkpt>
      <trkpt lat="46.42583" lon="5.4562">
        <ele>366.6</ele>
        <time>2022-07-19T07:23:59Z</time>
      </trkpt>
      <trkpt lat="46.42636" lon="5.45637">
        <ele>367</ele>
        <time>2022-07-19T07:24:06Z</time>
      </trkpt>
      <trkpt lat="46.42644" lon="5.45639">
        <ele>367</ele>
        <time>2022-07-19T07:24:07Z</time>
      </trkpt>
      <trkpt lat="46.42701" lon="5.45657">
        <ele>368.2</ele>
        <time>2022-07-19T07:24:15Z</time>
      </trkpt>
      <trkpt lat="46.42708" lon="5.45659">
        <ele>368.4</ele>
        <time>2022-07-19T07:24:16Z</time>
      </trkpt>
      <trkpt lat="46.42767" lon="5.45675">
        <ele>369.2</ele>
        <time>2022-07-19T07:24:24Z</time>
      </trkpt>
      <trkpt lat="46.4279" lon="5.45679">
        <ele>369.4</ele>
        <time>2022-07-19T07:24:27Z</time>
      </trkpt>
      <trkpt lat="46.42847" lon="5.45682">
        <ele>369</ele>
        <time>2022-07-19T07:24:34Z</time>
      </trkpt>
      <trkpt lat="46.42855" lon="5.45682">
        <ele>369</ele>
        <time>2022-07-19T07:24:35Z</time>
      </trkpt>
      <trkpt lat="46.42872" lon="5.45682">
        <ele>368.4</ele>
        <time>2022-07-19T07:24:37Z</time>
      </trkpt>
      <trkpt lat="46.42922" lon="5.45683">
        <ele>367.6</ele>
        <time>2022-07-19T07:24:43Z</time>
      </trkpt>
      <trkpt lat="46.42931" lon="5.45683">
        <ele>367.4</ele>
        <time>2022-07-19T07:24:44Z</time>
      </trkpt>
      <trkpt lat="46.42972" lon="5.45684">
        <ele>366</ele>
        <time>2022-07-19T07:24:48Z</time>
      </trkpt>
      <trkpt lat="46.42999" lon="5.45685">
        <ele>365.4</ele>
        <time>2022-07-19T07:24:51Z</time>
      </trkpt>
      <trkpt lat="46.43016" lon="5.45685">
        <ele>364.8</ele>
        <time>2022-07-19T07:24:53Z</time>
      </trkpt>
      <trkpt lat="46.4307" lon="5.45686">
        <ele>363.8</ele>
        <time>2022-07-19T07:24:59Z</time>
      </trkpt>
      <trkpt lat="46.43079" lon="5.45686">
        <ele>363.6</ele>
        <time>2022-07-19T07:25:00Z</time>
      </trkpt>
      <trkpt lat="46.43125" lon="5.45687">
        <ele>362.8</ele>
        <time>2022-07-19T07:25:05Z</time>
      </trkpt>
      <trkpt lat="46.43154" lon="5.45687">
        <ele>361.6</ele>
        <time>2022-07-19T07:25:08Z</time>
      </trkpt>
      <trkpt lat="46.43163" lon="5.45688">
        <ele>361.2</ele>
        <time>2022-07-19T07:25:09Z</time>
      </trkpt>
      <trkpt lat="46.432" lon="5.45688">
        <ele>360.2</ele>
        <time>2022-07-19T07:25:13Z</time>
      </trkpt>
      <trkpt lat="46.43235" lon="5.45689">
        <ele>360</ele>
        <time>2022-07-19T07:25:17Z</time>
      </trkpt>
      <trkpt lat="46.43261" lon="5.4569">
        <ele>359.8</ele>
        <time>2022-07-19T07:25:20Z</time>
      </trkpt>
      <trkpt lat="46.43319" lon="5.45692">
        <ele>360</ele>
        <time>2022-07-19T07:25:27Z</time>
      </trkpt>
      <trkpt lat="46.43327" lon="5.45692">
        <ele>360</ele>
        <time>2022-07-19T07:25:28Z</time>
      </trkpt>
      <trkpt lat="46.43383" lon="5.45693">
        <ele>359.6</ele>
        <time>2022-07-19T07:25:35Z</time>
      </trkpt>
      <trkpt lat="46.43407" lon="5.45693">
        <ele>359.6</ele>
        <time>2022-07-19T07:25:38Z</time>
      </trkpt>
      <trkpt lat="46.43462" lon="5.45694">
        <ele>359.6</ele>
        <time>2022-07-19T07:25:45Z</time>
      </trkpt>
      <trkpt lat="46.43484" lon="5.45695">
        <ele>359.8</ele>
        <time>2022-07-19T07:25:48Z</time>
      </trkpt>
      <trkpt lat="46.43544" lon="5.45696">
        <ele>360.2</ele>
        <time>2022-07-19T07:25:56Z</time>
      </trkpt>
      <trkpt lat="46.43559" lon="5.45697">
        <ele>360.2</ele>
        <time>2022-07-19T07:25:58Z</time>
      </trkpt>
      <trkpt lat="46.43619" lon="5.45698">
        <ele>360</ele>
        <time>2022-07-19T07:26:06Z</time>
      </trkpt>
      <trkpt lat="46.43642" lon="5.45699">
        <ele>360</ele>
        <time>2022-07-19T07:26:09Z</time>
      </trkpt>
      <trkpt lat="46.43694" lon="5.457">
        <ele>360.4</ele>
        <time>2022-07-19T07:26:16Z</time>
      </trkpt>
      <trkpt lat="46.43754" lon="5.457">
        <ele>360.8</ele>
        <time>2022-07-19T07:26:24Z</time>
      </trkpt>
      <trkpt lat="46.43776" lon="5.45701">
        <ele>360.8</ele>
        <time>2022-07-19T07:26:27Z</time>
      </trkpt>
      <trkpt lat="46.43835" lon="5.45702">
        <ele>361.2</ele>
        <time>2022-07-19T07:26:35Z</time>
      </trkpt>
      <trkpt lat="46.43863" lon="5.457">
        <ele>361.4</ele>
        <time>2022-07-19T07:26:39Z</time>
      </trkpt>
      <trkpt lat="46.43904" lon="5.45694">
        <ele>361.6</ele>
        <time>2022-07-19T07:26:45Z</time>
      </trkpt>
      <trkpt lat="46.43921" lon="5.45692">
        <ele>361.6</ele>
        <time>2022-07-19T07:26:47Z</time>
      </trkpt>
      <trkpt lat="46.43977" lon="5.45681">
        <ele>361.4</ele>
        <time>2022-07-19T07:26:55Z</time>
      </trkpt>
      <trkpt lat="46.43984" lon="5.4568">
        <ele>361.4</ele>
        <time>2022-07-19T07:26:56Z</time>
      </trkpt>
      <trkpt lat="46.44039" lon="5.45669">
        <ele>361.6</ele>
        <time>2022-07-19T07:27:04Z</time>
      </trkpt>
      <trkpt lat="46.44052" lon="5.45667">
        <ele>361.8</ele>
        <time>2022-07-19T07:27:06Z</time>
      </trkpt>
      <trkpt lat="46.44111" lon="5.45657">
        <ele>362.4</ele>
        <time>2022-07-19T07:27:15Z</time>
      </trkpt>
      <trkpt lat="46.44123" lon="5.45655">
        <ele>362.4</ele>
        <time>2022-07-19T07:27:17Z</time>
      </trkpt>
      <trkpt lat="46.44177" lon="5.45643">
        <ele>362.8</ele>
        <time>2022-07-19T07:27:25Z</time>
      </trkpt>
      <trkpt lat="46.44184" lon="5.45642">
        <ele>362.8</ele>
        <time>2022-07-19T07:27:26Z</time>
      </trkpt>
      <trkpt lat="46.44198" lon="5.4564">
        <ele>362.8</ele>
        <time>2022-07-19T07:27:28Z</time>
      </trkpt>
      <trkpt lat="46.44242" lon="5.45632">
        <ele>363.8</ele>
        <time>2022-07-19T07:27:35Z</time>
      </trkpt>
      <trkpt lat="46.44254" lon="5.4563">
        <ele>364.2</ele>
        <time>2022-07-19T07:27:37Z</time>
      </trkpt>
      <trkpt lat="46.4429" lon="5.4563">
        <ele>364.8</ele>
        <time>2022-07-19T07:27:43Z</time>
      </trkpt>
      <trkpt lat="46.44303" lon="5.45632">
        <ele>365</ele>
        <time>2022-07-19T07:27:45Z</time>
      </trkpt>
      <trkpt lat="46.44333" lon="5.45635">
        <ele>365.4</ele>
        <time>2022-07-19T07:27:50Z</time>
      </trkpt>
      <trkpt lat="46.44356" lon="5.45638">
        <ele>366</ele>
        <time>2022-07-19T07:27:54Z</time>
      </trkpt>
      <trkpt lat="46.44396" lon="5.45643">
        <ele>366.6</ele>
        <time>2022-07-19T07:28:01Z</time>
      </trkpt>
      <trkpt lat="46.44423" lon="5.45647">
        <ele>367</ele>
        <time>2022-07-19T07:28:06Z</time>
      </trkpt>
      <trkpt lat="46.4445" lon="5.4565">
        <ele>367.8</ele>
        <time>2022-07-19T07:28:11Z</time>
      </trkpt>
      <trkpt lat="46.44458" lon="5.45651">
        <ele>368</ele>
        <time>2022-07-19T07:28:13Z</time>
      </trkpt>
      <trkpt lat="46.44489" lon="5.45654">
        <ele>368.8</ele>
        <time>2022-07-19T07:28:18Z</time>
      </trkpt>
      <trkpt lat="46.445" lon="5.45656">
        <ele>369.2</ele>
        <time>2022-07-19T07:28:20Z</time>
      </trkpt>
      <trkpt lat="46.44538" lon="5.45666">
        <ele>369.4</ele>
        <time>2022-07-19T07:28:26Z</time>
      </trkpt>
      <trkpt lat="46.44591" lon="5.45682">
        <ele>369</ele>
        <time>2022-07-19T07:28:34Z</time>
      </trkpt>
      <trkpt lat="46.44604" lon="5.45687">
        <ele>369</ele>
        <time>2022-07-19T07:28:36Z</time>
      </trkpt>
      <trkpt lat="46.44662" lon="5.45706">
        <ele>368.6</ele>
        <time>2022-07-19T07:28:45Z</time>
      </trkpt>
      <trkpt lat="46.44674" lon="5.4571">
        <ele>368.6</ele>
        <time>2022-07-19T07:28:47Z</time>
      </trkpt>
      <trkpt lat="46.44716" lon="5.45727">
        <ele>368.4</ele>
        <time>2022-07-19T07:28:54Z</time>
      </trkpt>
      <trkpt lat="46.44768" lon="5.45754">
        <ele>368.8</ele>
        <time>2022-07-19T07:29:03Z</time>
      </trkpt>
      <trkpt lat="46.44774" lon="5.45757">
        <ele>369</ele>
        <time>2022-07-19T07:29:04Z</time>
      </trkpt>
      <trkpt lat="46.44829" lon="5.45789">
        <ele>369.8</ele>
        <time>2022-07-19T07:29:14Z</time>
      </trkpt>
      <trkpt lat="46.44843" lon="5.45797">
        <ele>370</ele>
        <time>2022-07-19T07:29:16Z</time>
      </trkpt>
      <trkpt lat="46.44855" lon="5.45804">
        <ele>370.2</ele>
        <time>2022-07-19T07:29:18Z</time>
      </trkpt>
      <trkpt lat="46.44861" lon="5.45807">
        <ele>370.2</ele>
        <time>2022-07-19T07:29:19Z</time>
      </trkpt>
      <trkpt lat="46.44897" lon="5.45828">
        <ele>370.4</ele>
        <time>2022-07-19T07:29:25Z</time>
      </trkpt>
      <trkpt lat="46.4495" lon="5.45859">
        <ele>370</ele>
        <time>2022-07-19T07:29:33Z</time>
      </trkpt>
      <trkpt lat="46.44957" lon="5.45864">
        <ele>369.8</ele>
        <time>2022-07-19T07:29:34Z</time>
      </trkpt>
      <trkpt lat="46.44986" lon="5.45881">
        <ele>369.2</ele>
        <time>2022-07-19T07:29:38Z</time>
      </trkpt>
      <trkpt lat="46.45016" lon="5.45899">
        <ele>368.4</ele>
        <time>2022-07-19T07:29:42Z</time>
      </trkpt>
      <trkpt lat="46.45031" lon="5.45908">
        <ele>367.8</ele>
        <time>2022-07-19T07:29:44Z</time>
      </trkpt>
      <trkpt lat="46.45076" lon="5.45933">
        <ele>366.6</ele>
        <time>2022-07-19T07:29:50Z</time>
      </trkpt>
      <trkpt lat="46.45083" lon="5.45936">
        <ele>366.6</ele>
        <time>2022-07-19T07:29:51Z</time>
      </trkpt>
      <trkpt lat="46.45124" lon="5.45958">
        <ele>366.4</ele>
        <time>2022-07-19T07:29:57Z</time>
      </trkpt>
      <trkpt lat="46.4517" lon="5.45994">
        <ele>367.2</ele>
        <time>2022-07-19T07:30:05Z</time>
      </trkpt>
      <trkpt lat="46.4518" lon="5.46001">
        <ele>367.8</ele>
        <time>2022-07-19T07:30:07Z</time>
      </trkpt>
      <trkpt lat="46.45196" lon="5.46012">
        <ele>369</ele>
        <time>2022-07-19T07:30:11Z</time>
      </trkpt>
      <trkpt lat="46.45207" lon="5.46021">
        <ele>369</ele>
        <time>2022-07-19T07:30:12Z</time>
      </trkpt>
      <trkpt lat="46.4522" lon="5.46034">
        <ele>369.6</ele>
        <time>2022-07-19T07:30:15Z</time>
      </trkpt>
      <trkpt lat="46.4523" lon="5.4604">
        <ele>369.8</ele>
        <time>2022-07-19T07:30:17Z</time>
      </trkpt>
      <trkpt lat="46.45235" lon="5.46042">
        <ele>370</ele>
        <time>2022-07-19T07:30:18Z</time>
      </trkpt>
      <trkpt lat="46.4524" lon="5.46042">
        <ele>370.2</ele>
        <time>2022-07-19T07:30:19Z</time>
      </trkpt>
      <trkpt lat="46.45246" lon="5.46042">
        <ele>370.2</ele>
        <time>2022-07-19T07:30:20Z</time>
      </trkpt>
      <trkpt lat="46.45262" lon="5.46035">
        <ele>371</ele>
        <time>2022-07-19T07:30:23Z</time>
      </trkpt>
      <trkpt lat="46.45266" lon="5.46026">
        <ele>371.2</ele>
        <time>2022-07-19T07:30:24Z</time>
      </trkpt>
      <trkpt lat="46.4528" lon="5.45985">
        <ele>371.4</ele>
        <time>2022-07-19T07:30:28Z</time>
      </trkpt>
      <trkpt lat="46.45282" lon="5.45974">
        <ele>371.4</ele>
        <time>2022-07-19T07:30:29Z</time>
      </trkpt>
      <trkpt lat="46.45291" lon="5.45923">
        <ele>369.8</ele>
        <time>2022-07-19T07:30:33Z</time>
      </trkpt>
      <trkpt lat="46.45294" lon="5.4591">
        <ele>369.4</ele>
        <time>2022-07-19T07:30:34Z</time>
      </trkpt>
      <trkpt lat="46.45297" lon="5.45897">
        <ele>368.6</ele>
        <time>2022-07-19T07:30:35Z</time>
      </trkpt>
      <trkpt lat="46.45304" lon="5.4587">
        <ele>367.6</ele>
        <time>2022-07-19T07:30:37Z</time>
      </trkpt>
      <trkpt lat="46.45315" lon="5.45827">
        <ele>366.4</ele>
        <time>2022-07-19T07:30:40Z</time>
      </trkpt>
      <trkpt lat="46.45324" lon="5.4579">
        <ele>365.4</ele>
        <time>2022-07-19T07:30:43Z</time>
      </trkpt>
      <trkpt lat="46.45327" lon="5.45766">
        <ele>365</ele>
        <time>2022-07-19T07:30:45Z</time>
      </trkpt>
      <trkpt lat="46.45336" lon="5.45707">
        <ele>364.6</ele>
        <time>2022-07-19T07:30:50Z</time>
      </trkpt>
      <trkpt lat="46.45346" lon="5.45639">
        <ele>364.8</ele>
        <time>2022-07-19T07:30:56Z</time>
      </trkpt>
      <trkpt lat="46.4535" lon="5.45629">
        <ele>364.8</ele>
        <time>2022-07-19T07:30:57Z</time>
      </trkpt>
      <trkpt lat="46.45354" lon="5.4562">
        <ele>364.8</ele>
        <time>2022-07-19T07:30:58Z</time>
      </trkpt>
      <trkpt lat="46.45366" lon="5.45606">
        <ele>365</ele>
        <time>2022-07-19T07:31:00Z</time>
      </trkpt>
      <trkpt lat="46.45379" lon="5.45599">
        <ele>365.2</ele>
        <time>2022-07-19T07:31:02Z</time>
      </trkpt>
      <trkpt lat="46.45393" lon="5.45596">
        <ele>365.2</ele>
        <time>2022-07-19T07:31:04Z</time>
      </trkpt>
      <trkpt lat="46.45407" lon="5.45599">
        <ele>365.2</ele>
        <time>2022-07-19T07:31:06Z</time>
      </trkpt>
      <trkpt lat="46.45414" lon="5.45603">
        <ele>365.2</ele>
        <time>2022-07-19T07:31:07Z</time>
      </trkpt>
      <trkpt lat="46.45448" lon="5.4563">
        <ele>365.8</ele>
        <time>2022-07-19T07:31:13Z</time>
      </trkpt>
      <trkpt lat="46.45481" lon="5.45655">
        <ele>366.6</ele>
        <time>2022-07-19T07:31:19Z</time>
      </trkpt>
      <trkpt lat="46.45487" lon="5.45659">
        <ele>366.8</ele>
        <time>2022-07-19T07:31:20Z</time>
      </trkpt>
      <trkpt lat="46.45492" lon="5.45662">
        <ele>367</ele>
        <time>2022-07-19T07:31:21Z</time>
      </trkpt>
      <trkpt lat="46.45517" lon="5.45677">
        <ele>367.8</ele>
        <time>2022-07-19T07:31:26Z</time>
      </trkpt>
      <trkpt lat="46.45541" lon="5.45692">
        <ele>368.6</ele>
        <time>2022-07-19T07:31:31Z</time>
      </trkpt>
      <trkpt lat="46.45545" lon="5.45694">
        <ele>369</ele>
        <time>2022-07-19T07:31:32Z</time>
      </trkpt>
      <trkpt lat="46.45558" lon="5.457">
        <ele>370.2</ele>
        <time>2022-07-19T07:31:35Z</time>
      </trkpt>
      <trkpt lat="46.45577" lon="5.45705">
        <ele>371.4</ele>
        <time>2022-07-19T07:31:39Z</time>
      </trkpt>
      <trkpt lat="46.45593" lon="5.45706">
        <ele>372.6</ele>
        <time>2022-07-19T07:31:43Z</time>
      </trkpt>
      <trkpt lat="46.45603" lon="5.45706">
        <ele>373</ele>
        <time>2022-07-19T07:31:45Z</time>
      </trkpt>
      <trkpt lat="46.45609" lon="5.45705">
        <ele>373.4</ele>
        <time>2022-07-19T07:31:46Z</time>
      </trkpt>
      <trkpt lat="46.45614" lon="5.45703">
        <ele>373.6</ele>
        <time>2022-07-19T07:31:47Z</time>
      </trkpt>
      <trkpt lat="46.45643" lon="5.45689">
        <ele>374.2</ele>
        <time>2022-07-19T07:31:53Z</time>
      </trkpt>
      <trkpt lat="46.45648" lon="5.45686">
        <ele>374.8</ele>
        <time>2022-07-19T07:31:54Z</time>
      </trkpt>
      <trkpt lat="46.45681" lon="5.45666">
        <ele>375.8</ele>
        <time>2022-07-19T07:32:01Z</time>
      </trkpt>
      <trkpt lat="46.45685" lon="5.45663">
        <ele>375.8</ele>
        <time>2022-07-19T07:32:02Z</time>
      </trkpt>
      <trkpt lat="46.45735" lon="5.45633">
        <ele>376.8</ele>
        <time>2022-07-19T07:32:12Z</time>
      </trkpt>
      <trkpt lat="46.4574" lon="5.4563">
        <ele>376.8</ele>
        <time>2022-07-19T07:32:13Z</time>
      </trkpt>
      <trkpt lat="46.45793" lon="5.45599">
        <ele>377.8</ele>
        <time>2022-07-19T07:32:23Z</time>
      </trkpt>
      <trkpt lat="46.45799" lon="5.45596">
        <ele>377.8</ele>
        <time>2022-07-19T07:32:24Z</time>
      </trkpt>
      <trkpt lat="46.4585" lon="5.45567">
        <ele>377.4</ele>
        <time>2022-07-19T07:32:32Z</time>
      </trkpt>
      <trkpt lat="46.45902" lon="5.45537">
        <ele>376.6</ele>
        <time>2022-07-19T07:32:39Z</time>
      </trkpt>
      <trkpt lat="46.45938" lon="5.45517">
        <ele>375.8</ele>
        <time>2022-07-19T07:32:44Z</time>
      </trkpt>
      <trkpt lat="46.45979" lon="5.45494">
        <ele>374.6</ele>
        <time>2022-07-19T07:32:49Z</time>
      </trkpt>
      <trkpt lat="46.46018" lon="5.45472">
        <ele>373.4</ele>
        <time>2022-07-19T07:32:54Z</time>
      </trkpt>
      <trkpt lat="46.46041" lon="5.45458">
        <ele>372.8</ele>
        <time>2022-07-19T07:32:57Z</time>
      </trkpt>
      <trkpt lat="46.46057" lon="5.45448">
        <ele>372.4</ele>
        <time>2022-07-19T07:32:59Z</time>
      </trkpt>
      <trkpt lat="46.46104" lon="5.45419">
        <ele>371.4</ele>
        <time>2022-07-19T07:33:05Z</time>
      </trkpt>
      <trkpt lat="46.4612" lon="5.45409">
        <ele>371.4</ele>
        <time>2022-07-19T07:33:07Z</time>
      </trkpt>
      <trkpt lat="46.46174" lon="5.45372">
        <ele>370.4</ele>
        <time>2022-07-19T07:33:14Z</time>
      </trkpt>
      <trkpt lat="46.46182" lon="5.45366">
        <ele>370.2</ele>
        <time>2022-07-19T07:33:15Z</time>
      </trkpt>
      <trkpt lat="46.46225" lon="5.45334">
        <ele>369.2</ele>
        <time>2022-07-19T07:33:21Z</time>
      </trkpt>
      <trkpt lat="46.46246" lon="5.45319">
        <ele>369.2</ele>
        <time>2022-07-19T07:33:24Z</time>
      </trkpt>
      <trkpt lat="46.46294" lon="5.4528">
        <ele>369.2</ele>
        <time>2022-07-19T07:33:31Z</time>
      </trkpt>
      <trkpt lat="46.46308" lon="5.45268">
        <ele>369.2</ele>
        <time>2022-07-19T07:33:33Z</time>
      </trkpt>
      <trkpt lat="46.46359" lon="5.45231">
        <ele>369</ele>
        <time>2022-07-19T07:33:40Z</time>
      </trkpt>
      <trkpt lat="46.46394" lon="5.45211">
        <ele>369</ele>
        <time>2022-07-19T07:33:45Z</time>
      </trkpt>
      <trkpt lat="46.46414" lon="5.45193">
        <ele>369.2</ele>
        <time>2022-07-19T07:33:48Z</time>
      </trkpt>
      <trkpt lat="46.46424" lon="5.45178">
        <ele>369.2</ele>
        <time>2022-07-19T07:33:50Z</time>
      </trkpt>
      <trkpt lat="46.46431" lon="5.45162">
        <ele>369.2</ele>
        <time>2022-07-19T07:33:52Z</time>
      </trkpt>
      <trkpt lat="46.46435" lon="5.45144">
        <ele>369.2</ele>
        <time>2022-07-19T07:33:54Z</time>
      </trkpt>
      <trkpt lat="46.46436" lon="5.45126">
        <ele>369.6</ele>
        <time>2022-07-19T07:33:56Z</time>
      </trkpt>
      <trkpt lat="46.46433" lon="5.45098">
        <ele>370.4</ele>
        <time>2022-07-19T07:33:59Z</time>
      </trkpt>
      <trkpt lat="46.4643" lon="5.45079">
        <ele>371</ele>
        <time>2022-07-19T07:34:01Z</time>
      </trkpt>
      <trkpt lat="46.46424" lon="5.4505">
        <ele>371.4</ele>
        <time>2022-07-19T07:34:04Z</time>
      </trkpt>
      <trkpt lat="46.46415" lon="5.4502">
        <ele>371.4</ele>
        <time>2022-07-19T07:34:07Z</time>
      </trkpt>
      <trkpt lat="46.46408" lon="5.45">
        <ele>371.4</ele>
        <time>2022-07-19T07:34:09Z</time>
      </trkpt>
      <trkpt lat="46.46401" lon="5.44969">
        <ele>371.2</ele>
        <time>2022-07-19T07:34:12Z</time>
      </trkpt>
      <trkpt lat="46.46388" lon="5.44926">
        <ele>371.4</ele>
        <time>2022-07-19T07:34:17Z</time>
      </trkpt>
      <trkpt lat="46.46385" lon="5.44918">
        <ele>371.6</ele>
        <time>2022-07-19T07:34:18Z</time>
      </trkpt>
      <trkpt lat="46.46366" lon="5.44881">
        <ele>372.2</ele>
        <time>2022-07-19T07:34:23Z</time>
      </trkpt>
      <trkpt lat="46.46361" lon="5.44866">
        <ele>372.6</ele>
        <time>2022-07-19T07:34:25Z</time>
      </trkpt>
      <trkpt lat="46.46357" lon="5.44847">
        <ele>372.8</ele>
        <time>2022-07-19T07:34:27Z</time>
      </trkpt>
      <trkpt lat="46.46353" lon="5.44784">
        <ele>373</ele>
        <time>2022-07-19T07:34:34Z</time>
      </trkpt>
      <trkpt lat="46.46352" lon="5.44757">
        <ele>373.8</ele>
        <time>2022-07-19T07:34:38Z</time>
      </trkpt>
      <trkpt lat="46.46352" lon="5.44751">
        <ele>374</ele>
        <time>2022-07-19T07:34:39Z</time>
      </trkpt>
      <trkpt lat="46.46352" lon="5.44732">
        <ele>374.8</ele>
        <time>2022-07-19T07:34:42Z</time>
      </trkpt>
      <trkpt lat="46.46352" lon="5.44727">
        <ele>375.6</ele>
        <time>2022-07-19T07:34:43Z</time>
      </trkpt>
      <trkpt lat="46.4635" lon="5.44716">
        <ele>376.2</ele>
        <time>2022-07-19T07:34:45Z</time>
      </trkpt>
      <trkpt lat="46.46343" lon="5.44708">
        <ele>376.6</ele>
        <time>2022-07-19T07:34:47Z</time>
      </trkpt>
      <trkpt lat="46.46339" lon="5.44705">
        <ele>377</ele>
        <time>2022-07-19T07:34:48Z</time>
      </trkpt>
      <trkpt lat="46.4633" lon="5.44701">
        <ele>377.8</ele>
        <time>2022-07-19T07:34:50Z</time>
      </trkpt>
      <trkpt lat="46.46308" lon="5.4469">
        <ele>378.8</ele>
        <time>2022-07-19T07:34:55Z</time>
      </trkpt>
      <trkpt lat="46.46273" lon="5.44672">
        <ele>379.8</ele>
        <time>2022-07-19T07:35:04Z</time>
      </trkpt>
      <trkpt lat="46.46265" lon="5.44668">
        <ele>380.4</ele>
        <time>2022-07-19T07:35:06Z</time>
      </trkpt>
      <trkpt lat="46.46258" lon="5.44665">
        <ele>381</ele>
        <time>2022-07-19T07:35:08Z</time>
      </trkpt>
      <trkpt lat="46.46241" lon="5.44655">
        <ele>382.2</ele>
        <time>2022-07-19T07:35:13Z</time>
      </trkpt>
      <trkpt lat="46.46229" lon="5.44648">
        <ele>383.2</ele>
        <time>2022-07-19T07:35:16Z</time>
      </trkpt>
      <trkpt lat="46.46225" lon="5.44645">
        <ele>383.4</ele>
        <time>2022-07-19T07:35:17Z</time>
      </trkpt>
      <trkpt lat="46.46211" lon="5.44627">
        <ele>384.2</ele>
        <time>2022-07-19T07:35:22Z</time>
      </trkpt>
      <trkpt lat="46.46206" lon="5.44618">
        <ele>384.4</ele>
        <time>2022-07-19T07:35:24Z</time>
      </trkpt>
      <trkpt lat="46.46201" lon="5.44604">
        <ele>385.2</ele>
        <time>2022-07-19T07:35:27Z</time>
      </trkpt>
      <trkpt lat="46.462" lon="5.446">
        <ele>385.6</ele>
        <time>2022-07-19T07:35:28Z</time>
      </trkpt>
      <trkpt lat="46.46196" lon="5.44575">
        <ele>386.6</ele>
        <time>2022-07-19T07:35:33Z</time>
      </trkpt>
      <trkpt lat="46.46195" lon="5.44554">
        <ele>387.6</ele>
        <time>2022-07-19T07:35:37Z</time>
      </trkpt>
      <trkpt lat="46.46194" lon="5.44523">
        <ele>388.6</ele>
        <time>2022-07-19T07:35:43Z</time>
      </trkpt>
      <trkpt lat="46.46192" lon="5.44489">
        <ele>389.6</ele>
        <time>2022-07-19T07:35:50Z</time>
      </trkpt>
      <trkpt lat="46.46193" lon="5.44479">
        <ele>390.2</ele>
        <time>2022-07-19T07:35:52Z</time>
      </trkpt>
      <trkpt lat="46.46192" lon="5.44469">
        <ele>390.8</ele>
        <time>2022-07-19T07:35:54Z</time>
      </trkpt>
      <trkpt lat="46.46192" lon="5.44447">
        <ele>391.8</ele>
        <time>2022-07-19T07:35:58Z</time>
      </trkpt>
      <trkpt lat="46.46192" lon="5.44437">
        <ele>392</ele>
        <time>2022-07-19T07:36:00Z</time>
      </trkpt>
      <trkpt lat="46.46191" lon="5.44404">
        <ele>393</ele>
        <time>2022-07-19T07:36:06Z</time>
      </trkpt>
      <trkpt lat="46.46191" lon="5.44383">
        <ele>394</ele>
        <time>2022-07-19T07:36:10Z</time>
      </trkpt>
      <trkpt lat="46.46192" lon="5.44378">
        <ele>394.2</ele>
        <time>2022-07-19T07:36:11Z</time>
      </trkpt>
      <trkpt lat="46.46193" lon="5.4435">
        <ele>395.2</ele>
        <time>2022-07-19T07:36:16Z</time>
      </trkpt>
      <trkpt lat="46.46193" lon="5.44335">
        <ele>395.8</ele>
        <time>2022-07-19T07:36:19Z</time>
      </trkpt>
      <trkpt lat="46.46194" lon="5.44315">
        <ele>396.4</ele>
        <time>2022-07-19T07:36:23Z</time>
      </trkpt>
      <trkpt lat="46.46193" lon="5.44295">
        <ele>397.4</ele>
        <time>2022-07-19T07:36:27Z</time>
      </trkpt>
      <trkpt lat="46.46192" lon="5.44289">
        <ele>397.6</ele>
        <time>2022-07-19T07:36:28Z</time>
      </trkpt>
      <trkpt lat="46.46186" lon="5.44256">
        <ele>398.8</ele>
        <time>2022-07-19T07:36:34Z</time>
      </trkpt>
      <trkpt lat="46.46184" lon="5.44251">
        <ele>399</ele>
        <time>2022-07-19T07:36:35Z</time>
      </trkpt>
      <trkpt lat="46.46178" lon="5.44225">
        <ele>400</ele>
        <time>2022-07-19T07:36:40Z</time>
      </trkpt>
      <trkpt lat="46.46174" lon="5.44215">
        <ele>400.4</ele>
        <time>2022-07-19T07:36:42Z</time>
      </trkpt>
      <trkpt lat="46.46168" lon="5.44197">
        <ele>401</ele>
        <time>2022-07-19T07:36:46Z</time>
      </trkpt>
      <trkpt lat="46.46165" lon="5.44187">
        <ele>401.4</ele>
        <time>2022-07-19T07:36:48Z</time>
      </trkpt>
      <trkpt lat="46.4616" lon="5.44173">
        <ele>402.4</ele>
        <time>2022-07-19T07:36:51Z</time>
      </trkpt>
      <trkpt lat="46.46148" lon="5.44138">
        <ele>403.4</ele>
        <time>2022-07-19T07:36:58Z</time>
      </trkpt>
      <trkpt lat="46.46139" lon="5.44104">
        <ele>404.6</ele>
        <time>2022-07-19T07:37:05Z</time>
      </trkpt>
      <trkpt lat="46.46138" lon="5.44099">
        <ele>404.8</ele>
        <time>2022-07-19T07:37:06Z</time>
      </trkpt>
      <trkpt lat="46.46135" lon="5.44079">
        <ele>405.6</ele>
        <time>2022-07-19T07:37:10Z</time>
      </trkpt>
      <trkpt lat="46.46131" lon="5.44061">
        <ele>406.4</ele>
        <time>2022-07-19T07:37:14Z</time>
      </trkpt>
      <trkpt lat="46.46129" lon="5.44049">
        <ele>406.8</ele>
        <time>2022-07-19T07:37:16Z</time>
      </trkpt>
      <trkpt lat="46.46127" lon="5.44021">
        <ele>408</ele>
        <time>2022-07-19T07:37:21Z</time>
      </trkpt>
      <trkpt lat="46.46127" lon="5.44015">
        <ele>408.2</ele>
        <time>2022-07-19T07:37:22Z</time>
      </trkpt>
      <trkpt lat="46.4613" lon="5.43982">
        <ele>409</ele>
        <time>2022-07-19T07:37:28Z</time>
      </trkpt>
      <trkpt lat="46.46133" lon="5.43967">
        <ele>409.8</ele>
        <time>2022-07-19T07:37:31Z</time>
      </trkpt>
      <trkpt lat="46.46135" lon="5.43956">
        <ele>410.4</ele>
        <time>2022-07-19T07:37:33Z</time>
      </trkpt>
      <trkpt lat="46.46137" lon="5.43947">
        <ele>410.4</ele>
        <time>2022-07-19T07:37:35Z</time>
      </trkpt>
      <trkpt lat="46.46144" lon="5.43926">
        <ele>411.4</ele>
        <time>2022-07-19T07:37:39Z</time>
      </trkpt>
      <trkpt lat="46.46145" lon="5.43921">
        <ele>411.8</ele>
        <time>2022-07-19T07:37:40Z</time>
      </trkpt>
      <trkpt lat="46.4615" lon="5.43899">
        <ele>412.4</ele>
        <time>2022-07-19T07:37:44Z</time>
      </trkpt>
      <trkpt lat="46.46156" lon="5.43878">
        <ele>413.2</ele>
        <time>2022-07-19T07:37:48Z</time>
      </trkpt>
      <trkpt lat="46.46159" lon="5.43869">
        <ele>413.6</ele>
        <time>2022-07-19T07:37:50Z</time>
      </trkpt>
      <trkpt lat="46.46166" lon="5.43849">
        <ele>414.2</ele>
        <time>2022-07-19T07:37:54Z</time>
      </trkpt>
      <trkpt lat="46.4617" lon="5.43836">
        <ele>414.6</ele>
        <time>2022-07-19T07:37:57Z</time>
      </trkpt>
      <trkpt lat="46.46176" lon="5.43816">
        <ele>415.6</ele>
        <time>2022-07-19T07:38:01Z</time>
      </trkpt>
      <trkpt lat="46.46178" lon="5.43812">
        <ele>415.6</ele>
        <time>2022-07-19T07:38:02Z</time>
      </trkpt>
      <trkpt lat="46.46183" lon="5.43794">
        <ele>416.6</ele>
        <time>2022-07-19T07:38:06Z</time>
      </trkpt>
      <trkpt lat="46.46185" lon="5.43785">
        <ele>417.2</ele>
        <time>2022-07-19T07:38:08Z</time>
      </trkpt>
      <trkpt lat="46.46188" lon="5.4377">
        <ele>418</ele>
        <time>2022-07-19T07:38:11Z</time>
      </trkpt>
      <trkpt lat="46.4619" lon="5.43752">
        <ele>419</ele>
        <time>2022-07-19T07:38:15Z</time>
      </trkpt>
      <trkpt lat="46.46191" lon="5.43718">
        <ele>420.2</ele>
        <time>2022-07-19T07:38:21Z</time>
      </trkpt>
      <trkpt lat="46.46191" lon="5.43712">
        <ele>420.4</ele>
        <time>2022-07-19T07:38:22Z</time>
      </trkpt>
      <trkpt lat="46.46186" lon="5.43677">
        <ele>421.2</ele>
        <time>2022-07-19T07:38:28Z</time>
      </trkpt>
      <trkpt lat="46.46184" lon="5.43672">
        <ele>421.4</ele>
        <time>2022-07-19T07:38:29Z</time>
      </trkpt>
      <trkpt lat="46.46173" lon="5.43638">
        <ele>421.6</ele>
        <time>2022-07-19T07:38:35Z</time>
      </trkpt>
      <trkpt lat="46.46171" lon="5.43632">
        <ele>421.8</ele>
        <time>2022-07-19T07:38:36Z</time>
      </trkpt>
      <trkpt lat="46.46169" lon="5.43627">
        <ele>421.8</ele>
        <time>2022-07-19T07:38:37Z</time>
      </trkpt>
      <trkpt lat="46.46159" lon="5.43612">
        <ele>422.6</ele>
        <time>2022-07-19T07:38:40Z</time>
      </trkpt>
      <trkpt lat="46.46152" lon="5.43603">
        <ele>422.6</ele>
        <time>2022-07-19T07:38:42Z</time>
      </trkpt>
      <trkpt lat="46.46118" lon="5.43575">
        <ele>422.6</ele>
        <time>2022-07-19T07:38:50Z</time>
      </trkpt>
      <trkpt lat="46.46089" lon="5.43566">
        <ele>421.8</ele>
        <time>2022-07-19T07:38:55Z</time>
      </trkpt>
      <trkpt lat="46.46077" lon="5.43565">
        <ele>421.4</ele>
        <time>2022-07-19T07:38:57Z</time>
      </trkpt>
      <trkpt lat="46.46056" lon="5.43566">
        <ele>421.2</ele>
        <time>2022-07-19T07:39:00Z</time>
      </trkpt>
      <trkpt lat="46.46019" lon="5.43558">
        <ele>420.2</ele>
        <time>2022-07-19T07:39:05Z</time>
      </trkpt>
      <trkpt lat="46.45988" lon="5.43544">
        <ele>418.8</ele>
        <time>2022-07-19T07:39:09Z</time>
      </trkpt>
      <trkpt lat="46.45975" lon="5.43534">
        <ele>417.8</ele>
        <time>2022-07-19T07:39:11Z</time>
      </trkpt>
      <trkpt lat="46.45963" lon="5.43525">
        <ele>416.6</ele>
        <time>2022-07-19T07:39:13Z</time>
      </trkpt>
      <trkpt lat="46.45921" lon="5.43493">
        <ele>415.4</ele>
        <time>2022-07-19T07:39:18Z</time>
      </trkpt>
      <trkpt lat="46.45904" lon="5.4348">
        <ele>414.2</ele>
        <time>2022-07-19T07:39:20Z</time>
      </trkpt>
      <trkpt lat="46.45879" lon="5.43461">
        <ele>413</ele>
        <time>2022-07-19T07:39:23Z</time>
      </trkpt>
      <trkpt lat="46.45845" lon="5.43435">
        <ele>411.4</ele>
        <time>2022-07-19T07:39:27Z</time>
      </trkpt>
      <trkpt lat="46.45809" lon="5.43408">
        <ele>409.8</ele>
        <time>2022-07-19T07:39:31Z</time>
      </trkpt>
      <trkpt lat="46.45785" lon="5.43388">
        <ele>408.4</ele>
        <time>2022-07-19T07:39:34Z</time>
      </trkpt>
      <trkpt lat="46.45751" lon="5.43356">
        <ele>407</ele>
        <time>2022-07-19T07:39:38Z</time>
      </trkpt>
      <trkpt lat="46.45734" lon="5.43335">
        <ele>406</ele>
        <time>2022-07-19T07:39:40Z</time>
      </trkpt>
      <trkpt lat="46.45715" lon="5.43306">
        <ele>404.6</ele>
        <time>2022-07-19T07:39:43Z</time>
      </trkpt>
      <trkpt lat="46.45703" lon="5.43283">
        <ele>403.8</ele>
        <time>2022-07-19T07:39:45Z</time>
      </trkpt>
      <trkpt lat="46.45688" lon="5.43248">
        <ele>403.6</ele>
        <time>2022-07-19T07:39:48Z</time>
      </trkpt>
      <trkpt lat="46.45657" lon="5.43179">
        <ele>403</ele>
        <time>2022-07-19T07:39:54Z</time>
      </trkpt>
      <trkpt lat="46.45642" lon="5.43146">
        <ele>402.2</ele>
        <time>2022-07-19T07:39:57Z</time>
      </trkpt>
      <trkpt lat="46.45618" lon="5.43092">
        <ele>401</ele>
        <time>2022-07-19T07:40:02Z</time>
      </trkpt>
      <trkpt lat="46.45599" lon="5.43051">
        <ele>401.4</ele>
        <time>2022-07-19T07:40:06Z</time>
      </trkpt>
      <trkpt lat="46.45576" lon="5.43007">
        <ele>401.2</ele>
        <time>2022-07-19T07:40:11Z</time>
      </trkpt>
      <trkpt lat="46.45541" lon="5.42958">
        <ele>401.4</ele>
        <time>2022-07-19T07:40:18Z</time>
      </trkpt>
      <trkpt lat="46.45531" lon="5.42946">
        <ele>402</ele>
        <time>2022-07-19T07:40:20Z</time>
      </trkpt>
      <trkpt lat="46.45513" lon="5.42924">
        <ele>403.4</ele>
        <time>2022-07-19T07:40:24Z</time>
      </trkpt>
      <trkpt lat="46.45491" lon="5.42896">
        <ele>404.4</ele>
        <time>2022-07-19T07:40:29Z</time>
      </trkpt>
      <trkpt lat="46.45487" lon="5.42891">
        <ele>404.6</ele>
        <time>2022-07-19T07:40:30Z</time>
      </trkpt>
      <trkpt lat="46.45479" lon="5.42881">
        <ele>405</ele>
        <time>2022-07-19T07:40:32Z</time>
      </trkpt>
      <trkpt lat="46.45462" lon="5.42861">
        <ele>405.4</ele>
        <time>2022-07-19T07:40:36Z</time>
      </trkpt>
      <trkpt lat="46.45458" lon="5.42856">
        <ele>405.8</ele>
        <time>2022-07-19T07:40:37Z</time>
      </trkpt>
      <trkpt lat="46.45441" lon="5.42838">
        <ele>407</ele>
        <time>2022-07-19T07:40:41Z</time>
      </trkpt>
      <trkpt lat="46.45425" lon="5.42823">
        <ele>407.8</ele>
        <time>2022-07-19T07:40:45Z</time>
      </trkpt>
      <trkpt lat="46.45415" lon="5.42812">
        <ele>408.2</ele>
        <time>2022-07-19T07:40:47Z</time>
      </trkpt>
      <trkpt lat="46.45381" lon="5.42774">
        <ele>408.8</ele>
        <time>2022-07-19T07:40:55Z</time>
      </trkpt>
      <trkpt lat="46.45369" lon="5.42757">
        <ele>409</ele>
        <time>2022-07-19T07:40:58Z</time>
      </trkpt>
      <trkpt lat="46.45347" lon="5.42722">
        <ele>410.2</ele>
        <time>2022-07-19T07:41:04Z</time>
      </trkpt>
      <trkpt lat="46.45341" lon="5.42709">
        <ele>410.6</ele>
        <time>2022-07-19T07:41:06Z</time>
      </trkpt>
      <trkpt lat="46.45329" lon="5.42691">
        <ele>411.4</ele>
        <time>2022-07-19T07:41:09Z</time>
      </trkpt>
      <trkpt lat="46.45314" lon="5.42665">
        <ele>412.2</ele>
        <time>2022-07-19T07:41:13Z</time>
      </trkpt>
      <trkpt lat="46.45304" lon="5.42644">
        <ele>412.4</ele>
        <time>2022-07-19T07:41:16Z</time>
      </trkpt>
      <trkpt lat="46.45283" lon="5.42605">
        <ele>413.6</ele>
        <time>2022-07-19T07:41:22Z</time>
      </trkpt>
      <trkpt lat="46.45276" lon="5.42592">
        <ele>414</ele>
        <time>2022-07-19T07:41:24Z</time>
      </trkpt>
      <trkpt lat="46.45266" lon="5.42573">
        <ele>414.8</ele>
        <time>2022-07-19T07:41:27Z</time>
      </trkpt>
      <trkpt lat="46.45239" lon="5.42524">
        <ele>416</ele>
        <time>2022-07-19T07:41:35Z</time>
      </trkpt>
      <trkpt lat="46.45235" lon="5.42518">
        <ele>416.2</ele>
        <time>2022-07-19T07:41:36Z</time>
      </trkpt>
      <trkpt lat="46.45225" lon="5.42499">
        <ele>416.8</ele>
        <time>2022-07-19T07:41:39Z</time>
      </trkpt>
      <trkpt lat="46.45219" lon="5.42486">
        <ele>417.4</ele>
        <time>2022-07-19T07:41:41Z</time>
      </trkpt>
      <trkpt lat="46.4521" lon="5.4247">
        <ele>418.6</ele>
        <time>2022-07-19T07:41:44Z</time>
      </trkpt>
      <trkpt lat="46.45176" lon="5.42411">
        <ele>419.4</ele>
        <time>2022-07-19T07:41:53Z</time>
      </trkpt>
      <trkpt lat="46.45169" lon="5.42401">
        <ele>419.6</ele>
        <time>2022-07-19T07:41:55Z</time>
      </trkpt>
      <trkpt lat="46.45156" lon="5.42378">
        <ele>420.2</ele>
        <time>2022-07-19T07:41:59Z</time>
      </trkpt>
      <trkpt lat="46.45152" lon="5.42373">
        <ele>420.2</ele>
        <time>2022-07-19T07:42:00Z</time>
      </trkpt>
      <trkpt lat="46.4514" lon="5.42359">
        <ele>420.6</ele>
        <time>2022-07-19T07:42:03Z</time>
      </trkpt>
      <trkpt lat="46.45136" lon="5.42355">
        <ele>421</ele>
        <time>2022-07-19T07:42:04Z</time>
      </trkpt>
      <trkpt lat="46.45132" lon="5.4235">
        <ele>421.2</ele>
        <time>2022-07-19T07:42:05Z</time>
      </trkpt>
      <trkpt lat="46.45121" lon="5.42336">
        <ele>421.6</ele>
        <time>2022-07-19T07:42:08Z</time>
      </trkpt>
      <trkpt lat="46.45116" lon="5.42326">
        <ele>422</ele>
        <time>2022-07-19T07:42:10Z</time>
      </trkpt>
      <trkpt lat="46.45112" lon="5.42321">
        <ele>422.4</ele>
        <time>2022-07-19T07:42:11Z</time>
      </trkpt>
      <trkpt lat="46.45094" lon="5.42298">
        <ele>423.4</ele>
        <time>2022-07-19T07:42:16Z</time>
      </trkpt>
      <trkpt lat="46.45091" lon="5.42293">
        <ele>423.6</ele>
        <time>2022-07-19T07:42:17Z</time>
      </trkpt>
      <trkpt lat="46.45087" lon="5.42281">
        <ele>424</ele>
        <time>2022-07-19T07:42:19Z</time>
      </trkpt>
      <trkpt lat="46.45086" lon="5.42274">
        <ele>423.8</ele>
        <time>2022-07-19T07:42:20Z</time>
      </trkpt>
      <trkpt lat="46.45084" lon="5.42261">
        <ele>424.6</ele>
        <time>2022-07-19T07:42:22Z</time>
      </trkpt>
      <trkpt lat="46.45081" lon="5.42227">
        <ele>425.4</ele>
        <time>2022-07-19T07:42:27Z</time>
      </trkpt>
      <trkpt lat="46.4508" lon="5.42213">
        <ele>426</ele>
        <time>2022-07-19T07:42:29Z</time>
      </trkpt>
      <trkpt lat="46.45079" lon="5.42205">
        <ele>426</ele>
        <time>2022-07-19T07:42:30Z</time>
      </trkpt>
      <trkpt lat="46.45077" lon="5.42194">
        <ele>426.6</ele>
        <time>2022-07-19T07:42:32Z</time>
      </trkpt>
      <trkpt lat="46.45075" lon="5.42181">
        <ele>427</ele>
        <time>2022-07-19T07:42:34Z</time>
      </trkpt>
      <trkpt lat="46.45074" lon="5.42174">
        <ele>427.6</ele>
        <time>2022-07-19T07:42:35Z</time>
      </trkpt>
      <trkpt lat="46.45072" lon="5.42167">
        <ele>427.8</ele>
        <time>2022-07-19T07:42:36Z</time>
      </trkpt>
      <trkpt lat="46.45059" lon="5.42132">
        <ele>428.8</ele>
        <time>2022-07-19T07:42:41Z</time>
      </trkpt>
      <trkpt lat="46.45056" lon="5.42124">
        <ele>429</ele>
        <time>2022-07-19T07:42:42Z</time>
      </trkpt>
      <trkpt lat="46.45029" lon="5.42066">
        <ele>429</ele>
        <time>2022-07-19T07:42:50Z</time>
      </trkpt>
      <trkpt lat="46.45003" lon="5.42022">
        <ele>429.4</ele>
        <time>2022-07-19T07:42:57Z</time>
      </trkpt>
      <trkpt lat="46.44991" lon="5.42003">
        <ele>430</ele>
        <time>2022-07-19T07:43:00Z</time>
      </trkpt>
      <trkpt lat="46.4498" lon="5.41987">
        <ele>431.2</ele>
        <time>2022-07-19T07:43:03Z</time>
      </trkpt>
      <trkpt lat="46.44973" lon="5.41974">
        <ele>431.4</ele>
        <time>2022-07-19T07:43:05Z</time>
      </trkpt>
      <trkpt lat="46.44959" lon="5.4194">
        <ele>431.8</ele>
        <time>2022-07-19T07:43:11Z</time>
      </trkpt>
      <trkpt lat="46.44957" lon="5.41929">
        <ele>432</ele>
        <time>2022-07-19T07:43:12Z</time>
      </trkpt>
      <trkpt lat="46.44957" lon="5.41916">
        <ele>432.4</ele>
        <time>2022-07-19T07:43:14Z</time>
      </trkpt>
      <trkpt lat="46.44958" lon="5.41908">
        <ele>432.8</ele>
        <time>2022-07-19T07:43:15Z</time>
      </trkpt>
      <trkpt lat="46.44962" lon="5.41884">
        <ele>433.4</ele>
        <time>2022-07-19T07:43:18Z</time>
      </trkpt>
      <trkpt lat="46.44964" lon="5.41876">
        <ele>433.6</ele>
        <time>2022-07-19T07:43:19Z</time>
      </trkpt>
      <trkpt lat="46.44967" lon="5.41868">
        <ele>433.8</ele>
        <time>2022-07-19T07:43:20Z</time>
      </trkpt>
      <trkpt lat="46.44978" lon="5.4184">
        <ele>434.6</ele>
        <time>2022-07-19T07:43:24Z</time>
      </trkpt>
      <trkpt lat="46.44985" lon="5.41828">
        <ele>435</ele>
        <time>2022-07-19T07:43:26Z</time>
      </trkpt>
      <trkpt lat="46.44999" lon="5.41813">
        <ele>435.4</ele>
        <time>2022-07-19T07:43:29Z</time>
      </trkpt>
      <trkpt lat="46.45009" lon="5.41807">
        <ele>435.6</ele>
        <time>2022-07-19T07:43:31Z</time>
      </trkpt>
      <trkpt lat="46.45015" lon="5.41805">
        <ele>435.8</ele>
        <time>2022-07-19T07:43:32Z</time>
      </trkpt>
      <trkpt lat="46.45021" lon="5.41804">
        <ele>436</ele>
        <time>2022-07-19T07:43:33Z</time>
      </trkpt>
      <trkpt lat="46.45032" lon="5.41804">
        <ele>436.2</ele>
        <time>2022-07-19T07:43:35Z</time>
      </trkpt>
      <trkpt lat="46.45069" lon="5.41813">
        <ele>436.4</ele>
        <time>2022-07-19T07:43:41Z</time>
      </trkpt>
      <trkpt lat="46.45105" lon="5.41812">
        <ele>436.2</ele>
        <time>2022-07-19T07:43:46Z</time>
      </trkpt>
      <trkpt lat="46.45149" lon="5.41797">
        <ele>435.8</ele>
        <time>2022-07-19T07:43:52Z</time>
      </trkpt>
      <trkpt lat="46.45179" lon="5.41769">
        <ele>435.8</ele>
        <time>2022-07-19T07:43:57Z</time>
      </trkpt>
      <trkpt lat="46.45204" lon="5.41721">
        <ele>436.4</ele>
        <time>2022-07-19T07:44:03Z</time>
      </trkpt>
      <trkpt lat="46.45217" lon="5.41687">
        <ele>436.8</ele>
        <time>2022-07-19T07:44:08Z</time>
      </trkpt>
      <trkpt lat="46.45228" lon="5.41645">
        <ele>437.2</ele>
        <time>2022-07-19T07:44:12Z</time>
      </trkpt>
      <trkpt lat="46.45234" lon="5.41612">
        <ele>437.8</ele>
        <time>2022-07-19T07:44:16Z</time>
      </trkpt>
      <trkpt lat="46.45241" lon="5.41581">
        <ele>438.8</ele>
        <time>2022-07-19T07:44:20Z</time>
      </trkpt>
      <trkpt lat="46.45244" lon="5.41571">
        <ele>439</ele>
        <time>2022-07-19T07:44:21Z</time>
      </trkpt>
      <trkpt lat="46.45258" lon="5.41548">
        <ele>439.2</ele>
        <time>2022-07-19T07:44:24Z</time>
      </trkpt>
      <trkpt lat="46.45275" lon="5.41533">
        <ele>439.8</ele>
        <time>2022-07-19T07:44:27Z</time>
      </trkpt>
      <trkpt lat="46.45281" lon="5.4153">
        <ele>439.8</ele>
        <time>2022-07-19T07:44:28Z</time>
      </trkpt>
      <trkpt lat="46.45287" lon="5.41528">
        <ele>440</ele>
        <time>2022-07-19T07:44:29Z</time>
      </trkpt>
      <trkpt lat="46.45293" lon="5.41528">
        <ele>440</ele>
        <time>2022-07-19T07:44:30Z</time>
      </trkpt>
      <trkpt lat="46.45305" lon="5.41529">
        <ele>440.4</ele>
        <time>2022-07-19T07:44:32Z</time>
      </trkpt>
      <trkpt lat="46.45338" lon="5.41535">
        <ele>441.2</ele>
        <time>2022-07-19T07:44:38Z</time>
      </trkpt>
      <trkpt lat="46.45372" lon="5.41536">
        <ele>442.2</ele>
        <time>2022-07-19T07:44:44Z</time>
      </trkpt>
      <trkpt lat="46.45408" lon="5.41528">
        <ele>443.2</ele>
        <time>2022-07-19T07:44:51Z</time>
      </trkpt>
      <trkpt lat="46.45414" lon="5.41526">
        <ele>443.4</ele>
        <time>2022-07-19T07:44:52Z</time>
      </trkpt>
      <trkpt lat="46.45452" lon="5.41511">
        <ele>444.4</ele>
        <time>2022-07-19T07:45:00Z</time>
      </trkpt>
      <trkpt lat="46.45461" lon="5.41507">
        <ele>444.6</ele>
        <time>2022-07-19T07:45:02Z</time>
      </trkpt>
      <trkpt lat="46.45487" lon="5.41496">
        <ele>445.4</ele>
        <time>2022-07-19T07:45:07Z</time>
      </trkpt>
      <trkpt lat="46.45506" lon="5.41486">
        <ele>446.6</ele>
        <time>2022-07-19T07:45:11Z</time>
      </trkpt>
      <trkpt lat="46.45552" lon="5.41461">
        <ele>447.6</ele>
        <time>2022-07-19T07:45:19Z</time>
      </trkpt>
      <trkpt lat="46.45585" lon="5.41433">
        <ele>447.6</ele>
        <time>2022-07-19T07:45:25Z</time>
      </trkpt>
      <trkpt lat="46.45591" lon="5.41426">
        <ele>447.6</ele>
        <time>2022-07-19T07:45:26Z</time>
      </trkpt>
      <trkpt lat="46.45599" lon="5.41414">
        <ele>447.8</ele>
        <time>2022-07-19T07:45:28Z</time>
      </trkpt>
      <trkpt lat="46.45608" lon="5.41398">
        <ele>448</ele>
        <time>2022-07-19T07:45:30Z</time>
      </trkpt>
      <trkpt lat="46.45633" lon="5.41349">
        <ele>448.2</ele>
        <time>2022-07-19T07:45:37Z</time>
      </trkpt>
      <trkpt lat="46.45662" lon="5.41302">
        <ele>448.8</ele>
        <time>2022-07-19T07:45:44Z</time>
      </trkpt>
      <trkpt lat="46.45702" lon="5.41256">
        <ele>448.8</ele>
        <time>2022-07-19T07:45:51Z</time>
      </trkpt>
      <trkpt lat="46.45746" lon="5.41203">
        <ele>448.2</ele>
        <time>2022-07-19T07:45:59Z</time>
      </trkpt>
      <trkpt lat="46.45755" lon="5.41187">
        <ele>448.4</ele>
        <time>2022-07-19T07:46:01Z</time>
      </trkpt>
      <trkpt lat="46.45762" lon="5.4117">
        <ele>448.6</ele>
        <time>2022-07-19T07:46:03Z</time>
      </trkpt>
      <trkpt lat="46.45777" lon="5.41116">
        <ele>448.6</ele>
        <time>2022-07-19T07:46:09Z</time>
      </trkpt>
      <trkpt lat="46.45796" lon="5.41044">
        <ele>449.8</ele>
        <time>2022-07-19T07:46:17Z</time>
      </trkpt>
      <trkpt lat="46.45814" lon="5.40983">
        <ele>450.8</ele>
        <time>2022-07-19T07:46:24Z</time>
      </trkpt>
      <trkpt lat="46.45829" lon="5.40914">
        <ele>451.8</ele>
        <time>2022-07-19T07:46:32Z</time>
      </trkpt>
      <trkpt lat="46.4583" lon="5.40905">
        <ele>451.8</ele>
        <time>2022-07-19T07:46:33Z</time>
      </trkpt>
      <trkpt lat="46.45841" lon="5.40845">
        <ele>452</ele>
        <time>2022-07-19T07:46:39Z</time>
      </trkpt>
      <trkpt lat="46.45848" lon="5.40764">
        <ele>452.2</ele>
        <time>2022-07-19T07:46:47Z</time>
      </trkpt>
      <trkpt lat="46.45858" lon="5.40707">
        <ele>452.2</ele>
        <time>2022-07-19T07:46:53Z</time>
      </trkpt>
      <trkpt lat="46.45869" lon="5.40678">
        <ele>452.4</ele>
        <time>2022-07-19T07:46:57Z</time>
      </trkpt>
      <trkpt lat="46.45871" lon="5.40672">
        <ele>453</ele>
        <time>2022-07-19T07:46:58Z</time>
      </trkpt>
      <trkpt lat="46.45883" lon="5.40644">
        <ele>454</ele>
        <time>2022-07-19T07:47:03Z</time>
      </trkpt>
      <trkpt lat="46.45885" lon="5.40639">
        <ele>454.2</ele>
        <time>2022-07-19T07:47:04Z</time>
      </trkpt>
      <trkpt lat="46.4589" lon="5.4063">
        <ele>455.2</ele>
        <time>2022-07-19T07:47:06Z</time>
      </trkpt>
      <trkpt lat="46.45897" lon="5.40617">
        <ele>456.4</ele>
        <time>2022-07-19T07:47:09Z</time>
      </trkpt>
      <trkpt lat="46.45898" lon="5.40614">
        <ele>457</ele>
        <time>2022-07-19T07:47:10Z</time>
      </trkpt>
      <trkpt lat="46.459" lon="5.40609">
        <ele>457.4</ele>
        <time>2022-07-19T07:47:12Z</time>
      </trkpt>
      <trkpt lat="46.45907" lon="5.40593">
        <ele>458.6</ele>
        <time>2022-07-19T07:47:15Z</time>
      </trkpt>
      <trkpt lat="46.45909" lon="5.40587">
        <ele>458.8</ele>
        <time>2022-07-19T07:47:16Z</time>
      </trkpt>
      <trkpt lat="46.45916" lon="5.40569">
        <ele>460</ele>
        <time>2022-07-19T07:47:20Z</time>
      </trkpt>
      <trkpt lat="46.45918" lon="5.40563">
        <ele>460.2</ele>
        <time>2022-07-19T07:47:21Z</time>
      </trkpt>
      <trkpt lat="46.45923" lon="5.40549">
        <ele>461.4</ele>
        <time>2022-07-19T07:47:24Z</time>
      </trkpt>
      <trkpt lat="46.45934" lon="5.40528">
        <ele>462.4</ele>
        <time>2022-07-19T07:47:29Z</time>
      </trkpt>
      <trkpt lat="46.45937" lon="5.40524">
        <ele>462.6</ele>
        <time>2022-07-19T07:47:30Z</time>
      </trkpt>
      <trkpt lat="46.4595" lon="5.40506">
        <ele>463.8</ele>
        <time>2022-07-19T07:47:36Z</time>
      </trkpt>
      <trkpt lat="46.45952" lon="5.40504">
        <ele>464</ele>
        <time>2022-07-19T07:47:37Z</time>
      </trkpt>
      <trkpt lat="46.45957" lon="5.40498">
        <ele>464.8</ele>
        <time>2022-07-19T07:47:39Z</time>
      </trkpt>
      <trkpt lat="46.45967" lon="5.40486">
        <ele>466.2</ele>
        <time>2022-07-19T07:47:43Z</time>
      </trkpt>
      <trkpt lat="46.45973" lon="5.40477">
        <ele>466.8</ele>
        <time>2022-07-19T07:47:46Z</time>
      </trkpt>
      <trkpt lat="46.45978" lon="5.4047">
        <ele>467.6</ele>
        <time>2022-07-19T07:47:48Z</time>
      </trkpt>
      <trkpt lat="46.45988" lon="5.4045">
        <ele>468.4</ele>
        <time>2022-07-19T07:47:53Z</time>
      </trkpt>
      <trkpt lat="46.4599" lon="5.40446">
        <ele>468.6</ele>
        <time>2022-07-19T07:47:54Z</time>
      </trkpt>
      <trkpt lat="46.45997" lon="5.40429">
        <ele>469.8</ele>
        <time>2022-07-19T07:47:58Z</time>
      </trkpt>
      <trkpt lat="46.46003" lon="5.40416">
        <ele>470.6</ele>
        <time>2022-07-19T07:48:01Z</time>
      </trkpt>
      <trkpt lat="46.46005" lon="5.40412">
        <ele>471</ele>
        <time>2022-07-19T07:48:02Z</time>
      </trkpt>
      <trkpt lat="46.46013" lon="5.40391">
        <ele>471.8</ele>
        <time>2022-07-19T07:48:07Z</time>
      </trkpt>
      <trkpt lat="46.46018" lon="5.40378">
        <ele>472.4</ele>
        <time>2022-07-19T07:48:10Z</time>
      </trkpt>
      <trkpt lat="46.4602" lon="5.40373">
        <ele>472.8</ele>
        <time>2022-07-19T07:48:11Z</time>
      </trkpt>
      <trkpt lat="46.46026" lon="5.40358">
        <ele>474</ele>
        <time>2022-07-19T07:48:15Z</time>
      </trkpt>
      <trkpt lat="46.46032" lon="5.4035">
        <ele>474.6</ele>
        <time>2022-07-19T07:48:17Z</time>
      </trkpt>
      <trkpt lat="46.46037" lon="5.40338">
        <ele>475.2</ele>
        <time>2022-07-19T07:48:20Z</time>
      </trkpt>
      <trkpt lat="46.46053" lon="5.40337">
        <ele>475.8</ele>
        <time>2022-07-19T07:48:24Z</time>
      </trkpt>
      <trkpt lat="46.46059" lon="5.40333">
        <ele>476.2</ele>
        <time>2022-07-19T07:48:26Z</time>
      </trkpt>
      <trkpt lat="46.46078" lon="5.40324">
        <ele>477.4</ele>
        <time>2022-07-19T07:48:32Z</time>
      </trkpt>
      <trkpt lat="46.46087" lon="5.4032">
        <ele>478</ele>
        <time>2022-07-19T07:48:35Z</time>
      </trkpt>
      <trkpt lat="46.46094" lon="5.40317">
        <ele>478.6</ele>
        <time>2022-07-19T07:48:37Z</time>
      </trkpt>
      <trkpt lat="46.46109" lon="5.40307">
        <ele>479.6</ele>
        <time>2022-07-19T07:48:42Z</time>
      </trkpt>
      <trkpt lat="46.46112" lon="5.40305">
        <ele>479.6</ele>
        <time>2022-07-19T07:48:43Z</time>
      </trkpt>
      <trkpt lat="46.46127" lon="5.40289">
        <ele>480.8</ele>
        <time>2022-07-19T07:48:48Z</time>
      </trkpt>
      <trkpt lat="46.46141" lon="5.40264">
        <ele>482</ele>
        <time>2022-07-19T07:48:53Z</time>
      </trkpt>
      <trkpt lat="46.46149" lon="5.4025">
        <ele>482.6</ele>
        <time>2022-07-19T07:48:56Z</time>
      </trkpt>
      <trkpt lat="46.46159" lon="5.40231">
        <ele>483</ele>
        <time>2022-07-19T07:49:00Z</time>
      </trkpt>
      <trkpt lat="46.46173" lon="5.40204">
        <ele>484</ele>
        <time>2022-07-19T07:49:06Z</time>
      </trkpt>
      <trkpt lat="46.46176" lon="5.40199">
        <ele>484.2</ele>
        <time>2022-07-19T07:49:07Z</time>
      </trkpt>
      <trkpt lat="46.46185" lon="5.40181">
        <ele>485.2</ele>
        <time>2022-07-19T07:49:11Z</time>
      </trkpt>
      <trkpt lat="46.46196" lon="5.40157">
        <ele>486</ele>
        <time>2022-07-19T07:49:16Z</time>
      </trkpt>
      <trkpt lat="46.46203" lon="5.40148">
        <ele>486.4</ele>
        <time>2022-07-19T07:49:18Z</time>
      </trkpt>
      <trkpt lat="46.46215" lon="5.40133">
        <ele>486.6</ele>
        <time>2022-07-19T07:49:21Z</time>
      </trkpt>
      <trkpt lat="46.46232" lon="5.40114">
        <ele>487</ele>
        <time>2022-07-19T07:49:25Z</time>
      </trkpt>
      <trkpt lat="46.46242" lon="5.40105">
        <ele>487</ele>
        <time>2022-07-19T07:49:27Z</time>
      </trkpt>
      <trkpt lat="46.46251" lon="5.40098">
        <ele>487.2</ele>
        <time>2022-07-19T07:49:29Z</time>
      </trkpt>
      <trkpt lat="46.46256" lon="5.40096">
        <ele>487.4</ele>
        <time>2022-07-19T07:49:30Z</time>
      </trkpt>
      <trkpt lat="46.46261" lon="5.40094">
        <ele>487.4</ele>
        <time>2022-07-19T07:49:31Z</time>
      </trkpt>
      <trkpt lat="46.46266" lon="5.40092">
        <ele>487.6</ele>
        <time>2022-07-19T07:49:32Z</time>
      </trkpt>
      <trkpt lat="46.46271" lon="5.40092">
        <ele>487.6</ele>
        <time>2022-07-19T07:49:33Z</time>
      </trkpt>
      <trkpt lat="46.4629" lon="5.40093">
        <ele>487.8</ele>
        <time>2022-07-19T07:49:37Z</time>
      </trkpt>
      <trkpt lat="46.46307" lon="5.40096">
        <ele>488.6</ele>
        <time>2022-07-19T07:49:41Z</time>
      </trkpt>
      <trkpt lat="46.4632" lon="5.40096">
        <ele>489.6</ele>
        <time>2022-07-19T07:49:44Z</time>
      </trkpt>
      <trkpt lat="46.46334" lon="5.40095">
        <ele>490.8</ele>
        <time>2022-07-19T07:49:47Z</time>
      </trkpt>
      <trkpt lat="46.46358" lon="5.40091">
        <ele>491.4</ele>
        <time>2022-07-19T07:49:52Z</time>
      </trkpt>
      <trkpt lat="46.46373" lon="5.40089">
        <ele>491.8</ele>
        <time>2022-07-19T07:49:55Z</time>
      </trkpt>
      <trkpt lat="46.46406" lon="5.40083">
        <ele>492.8</ele>
        <time>2022-07-19T07:50:02Z</time>
      </trkpt>
      <trkpt lat="46.46411" lon="5.40082">
        <ele>492.8</ele>
        <time>2022-07-19T07:50:03Z</time>
      </trkpt>
      <trkpt lat="46.46444" lon="5.40075">
        <ele>494</ele>
        <time>2022-07-19T07:50:10Z</time>
      </trkpt>
      <trkpt lat="46.46465" lon="5.40072">
        <ele>495</ele>
        <time>2022-07-19T07:50:15Z</time>
      </trkpt>
      <trkpt lat="46.46487" lon="5.40071">
        <ele>496</ele>
        <time>2022-07-19T07:50:19Z</time>
      </trkpt>
      <trkpt lat="46.4652" lon="5.40079">
        <ele>497</ele>
        <time>2022-07-19T07:50:26Z</time>
      </trkpt>
      <trkpt lat="46.46529" lon="5.40084">
        <ele>497.2</ele>
        <time>2022-07-19T07:50:28Z</time>
      </trkpt>
      <trkpt lat="46.46561" lon="5.401">
        <ele>498.6</ele>
        <time>2022-07-19T07:50:35Z</time>
      </trkpt>
      <trkpt lat="46.46582" lon="5.40111">
        <ele>499.6</ele>
        <time>2022-07-19T07:50:40Z</time>
      </trkpt>
      <trkpt lat="46.46608" lon="5.40124">
        <ele>500.2</ele>
        <time>2022-07-19T07:50:46Z</time>
      </trkpt>
      <trkpt lat="46.46626" lon="5.40133">
        <ele>500.4</ele>
        <time>2022-07-19T07:50:50Z</time>
      </trkpt>
      <trkpt lat="46.4663" lon="5.40135">
        <ele>500.8</ele>
        <time>2022-07-19T07:50:51Z</time>
      </trkpt>
      <trkpt lat="46.46638" lon="5.40139">
        <ele>501.2</ele>
        <time>2022-07-19T07:50:53Z</time>
      </trkpt>
      <trkpt lat="46.46647" lon="5.40143">
        <ele>501.4</ele>
        <time>2022-07-19T07:50:55Z</time>
      </trkpt>
      <trkpt lat="46.46658" lon="5.4015">
        <ele>502</ele>
        <time>2022-07-19T07:50:58Z</time>
      </trkpt>
      <trkpt lat="46.46663" lon="5.40152">
        <ele>502.4</ele>
        <time>2022-07-19T07:50:59Z</time>
      </trkpt>
      <trkpt lat="46.46671" lon="5.40158">
        <ele>503</ele>
        <time>2022-07-19T07:51:01Z</time>
      </trkpt>
      <trkpt lat="46.4669" lon="5.40169">
        <ele>504.2</ele>
        <time>2022-07-19T07:51:06Z</time>
      </trkpt>
      <trkpt lat="46.46697" lon="5.40172">
        <ele>504.6</ele>
        <time>2022-07-19T07:51:08Z</time>
      </trkpt>
      <trkpt lat="46.46708" lon="5.40177">
        <ele>505.2</ele>
        <time>2022-07-19T07:51:11Z</time>
      </trkpt>
      <trkpt lat="46.46726" lon="5.40185">
        <ele>506.4</ele>
        <time>2022-07-19T07:51:16Z</time>
      </trkpt>
      <trkpt lat="46.4674" lon="5.40192">
        <ele>507.4</ele>
        <time>2022-07-19T07:51:20Z</time>
      </trkpt>
      <trkpt lat="46.46755" lon="5.40201">
        <ele>508.4</ele>
        <time>2022-07-19T07:51:24Z</time>
      </trkpt>
      <trkpt lat="46.46759" lon="5.40203">
        <ele>508.6</ele>
        <time>2022-07-19T07:51:25Z</time>
      </trkpt>
      <trkpt lat="46.46777" lon="5.40213">
        <ele>509.6</ele>
        <time>2022-07-19T07:51:30Z</time>
      </trkpt>
      <trkpt lat="46.46783" lon="5.40216">
        <ele>510.4</ele>
        <time>2022-07-19T07:51:32Z</time>
      </trkpt>
      <trkpt lat="46.46791" lon="5.4022">
        <ele>510.8</ele>
        <time>2022-07-19T07:51:34Z</time>
      </trkpt>
      <trkpt lat="46.46807" lon="5.40228">
        <ele>511.8</ele>
        <time>2022-07-19T07:51:38Z</time>
      </trkpt>
      <trkpt lat="46.46827" lon="5.40237">
        <ele>513</ele>
        <time>2022-07-19T07:51:43Z</time>
      </trkpt>
      <trkpt lat="46.46847" lon="5.40247">
        <ele>513.8</ele>
        <time>2022-07-19T07:51:48Z</time>
      </trkpt>
      <trkpt lat="46.46851" lon="5.40249">
        <ele>514</ele>
        <time>2022-07-19T07:51:49Z</time>
      </trkpt>
      <trkpt lat="46.46864" lon="5.40255">
        <ele>515</ele>
        <time>2022-07-19T07:51:53Z</time>
      </trkpt>
      <trkpt lat="46.46879" lon="5.40262">
        <ele>515.6</ele>
        <time>2022-07-19T07:51:56Z</time>
      </trkpt>
      <trkpt lat="46.46888" lon="5.40267">
        <ele>516</ele>
        <time>2022-07-19T07:51:58Z</time>
      </trkpt>
      <trkpt lat="46.46916" lon="5.40281">
        <ele>517</ele>
        <time>2022-07-19T07:52:04Z</time>
      </trkpt>
      <trkpt lat="46.46926" lon="5.40287">
        <ele>517</ele>
        <time>2022-07-19T07:52:06Z</time>
      </trkpt>
      <trkpt lat="46.46956" lon="5.40303">
        <ele>518.2</ele>
        <time>2022-07-19T07:52:13Z</time>
      </trkpt>
      <trkpt lat="46.4696" lon="5.40305">
        <ele>518.4</ele>
        <time>2022-07-19T07:52:14Z</time>
      </trkpt>
      <trkpt lat="46.4698" lon="5.40313">
        <ele>519.2</ele>
        <time>2022-07-19T07:52:18Z</time>
      </trkpt>
      <trkpt lat="46.46989" lon="5.40316">
        <ele>519.8</ele>
        <time>2022-07-19T07:52:20Z</time>
      </trkpt>
      <trkpt lat="46.46993" lon="5.40317">
        <ele>520</ele>
        <time>2022-07-19T07:52:21Z</time>
      </trkpt>
      <trkpt lat="46.47009" lon="5.40321">
        <ele>520.4</ele>
        <time>2022-07-19T07:52:24Z</time>
      </trkpt>
      <trkpt lat="46.47036" lon="5.40324">
        <ele>521.2</ele>
        <time>2022-07-19T07:52:29Z</time>
      </trkpt>
      <trkpt lat="46.47047" lon="5.40324">
        <ele>521.2</ele>
        <time>2022-07-19T07:52:31Z</time>
      </trkpt>
      <trkpt lat="46.47077" lon="5.40328">
        <ele>521.2</ele>
        <time>2022-07-19T07:52:35Z</time>
      </trkpt>
      <trkpt lat="46.47108" lon="5.40331">
        <ele>520</ele>
        <time>2022-07-19T07:52:39Z</time>
      </trkpt>
      <trkpt lat="46.47131" lon="5.40336">
        <ele>518.4</ele>
        <time>2022-07-19T07:52:42Z</time>
      </trkpt>
      <trkpt lat="46.47155" lon="5.40343">
        <ele>517.4</ele>
        <time>2022-07-19T07:52:45Z</time>
      </trkpt>
      <trkpt lat="46.47174" lon="5.40351">
        <ele>516.6</ele>
        <time>2022-07-19T07:52:47Z</time>
      </trkpt>
      <trkpt lat="46.47184" lon="5.40358">
        <ele>516.2</ele>
        <time>2022-07-19T07:52:48Z</time>
      </trkpt>
      <trkpt lat="46.47202" lon="5.40374">
        <ele>515.4</ele>
        <time>2022-07-19T07:52:50Z</time>
      </trkpt>
      <trkpt lat="46.47211" lon="5.40384">
        <ele>515</ele>
        <time>2022-07-19T07:52:51Z</time>
      </trkpt>
      <trkpt lat="46.47232" lon="5.40406">
        <ele>514.4</ele>
        <time>2022-07-19T07:52:53Z</time>
      </trkpt>
      <trkpt lat="46.47243" lon="5.40415">
        <ele>514.2</ele>
        <time>2022-07-19T07:52:54Z</time>
      </trkpt>
      <trkpt lat="46.47254" lon="5.40421">
        <ele>513.8</ele>
        <time>2022-07-19T07:52:55Z</time>
      </trkpt>
      <trkpt lat="46.47265" lon="5.40426">
        <ele>512.4</ele>
        <time>2022-07-19T07:52:56Z</time>
      </trkpt>
      <trkpt lat="46.47285" lon="5.40435">
        <ele>511.2</ele>
        <time>2022-07-19T07:52:58Z</time>
      </trkpt>
      <trkpt lat="46.47308" lon="5.40442">
        <ele>509.6</ele>
        <time>2022-07-19T07:53:00Z</time>
      </trkpt>
      <trkpt lat="46.47319" lon="5.40444">
        <ele>509.2</ele>
        <time>2022-07-19T07:53:01Z</time>
      </trkpt>
      <trkpt lat="46.47332" lon="5.40445">
        <ele>508.4</ele>
        <time>2022-07-19T07:53:02Z</time>
      </trkpt>
      <trkpt lat="46.47343" lon="5.40446">
        <ele>508</ele>
        <time>2022-07-19T07:53:03Z</time>
      </trkpt>
      <trkpt lat="46.47364" lon="5.40448">
        <ele>507.4</ele>
        <time>2022-07-19T07:53:05Z</time>
      </trkpt>
      <trkpt lat="46.47401" lon="5.4045">
        <ele>505.8</ele>
        <time>2022-07-19T07:53:08Z</time>
      </trkpt>
      <trkpt lat="46.47435" lon="5.40448">
        <ele>504.6</ele>
        <time>2022-07-19T07:53:11Z</time>
      </trkpt>
      <trkpt lat="46.47447" lon="5.40448">
        <ele>503.8</ele>
        <time>2022-07-19T07:53:13Z</time>
      </trkpt>
      <trkpt lat="46.47465" lon="5.40451">
        <ele>503.2</ele>
        <time>2022-07-19T07:53:14Z</time>
      </trkpt>
      <trkpt lat="46.4749" lon="5.40459">
        <ele>502.2</ele>
        <time>2022-07-19T07:53:16Z</time>
      </trkpt>
      <trkpt lat="46.47498" lon="5.40465">
        <ele>501.8</ele>
        <time>2022-07-19T07:53:17Z</time>
      </trkpt>
      <trkpt lat="46.47505" lon="5.40474">
        <ele>501</ele>
        <time>2022-07-19T07:53:18Z</time>
      </trkpt>
      <trkpt lat="46.4752" lon="5.40487">
        <ele>500</ele>
        <time>2022-07-19T07:53:20Z</time>
      </trkpt>
      <trkpt lat="46.47529" lon="5.40488">
        <ele>499.4</ele>
        <time>2022-07-19T07:53:21Z</time>
      </trkpt>
      <trkpt lat="46.47537" lon="5.40483">
        <ele>499.2</ele>
        <time>2022-07-19T07:53:22Z</time>
      </trkpt>
      <trkpt lat="46.47544" lon="5.40459">
        <ele>498.4</ele>
        <time>2022-07-19T07:53:24Z</time>
      </trkpt>
      <trkpt lat="46.47544" lon="5.40444">
        <ele>497.4</ele>
        <time>2022-07-19T07:53:25Z</time>
      </trkpt>
      <trkpt lat="46.47543" lon="5.40429">
        <ele>496.6</ele>
        <time>2022-07-19T07:53:26Z</time>
      </trkpt>
      <trkpt lat="46.4754" lon="5.40415">
        <ele>496.2</ele>
        <time>2022-07-19T07:53:27Z</time>
      </trkpt>
      <trkpt lat="46.47537" lon="5.40402">
        <ele>495.6</ele>
        <time>2022-07-19T07:53:28Z</time>
      </trkpt>
      <trkpt lat="46.47527" lon="5.40375">
        <ele>494.4</ele>
        <time>2022-07-19T07:53:30Z</time>
      </trkpt>
      <trkpt lat="46.47525" lon="5.40345">
        <ele>493.6</ele>
        <time>2022-07-19T07:53:32Z</time>
      </trkpt>
      <trkpt lat="46.47527" lon="5.4033">
        <ele>493.2</ele>
        <time>2022-07-19T07:53:33Z</time>
      </trkpt>
      <trkpt lat="46.47531" lon="5.40319">
        <ele>493</ele>
        <time>2022-07-19T07:53:34Z</time>
      </trkpt>
      <trkpt lat="46.47538" lon="5.40303">
        <ele>492.6</ele>
        <time>2022-07-19T07:53:35Z</time>
      </trkpt>
      <trkpt lat="46.47546" lon="5.40291">
        <ele>492.4</ele>
        <time>2022-07-19T07:53:36Z</time>
      </trkpt>
      <trkpt lat="46.47554" lon="5.40281">
        <ele>491.4</ele>
        <time>2022-07-19T07:53:37Z</time>
      </trkpt>
      <trkpt lat="46.47563" lon="5.40271">
        <ele>491</ele>
        <time>2022-07-19T07:53:38Z</time>
      </trkpt>
      <trkpt lat="46.47573" lon="5.40263">
        <ele>490</ele>
        <time>2022-07-19T07:53:39Z</time>
      </trkpt>
      <trkpt lat="46.47583" lon="5.40257">
        <ele>489</ele>
        <time>2022-07-19T07:53:40Z</time>
      </trkpt>
      <trkpt lat="46.47594" lon="5.40254">
        <ele>488.6</ele>
        <time>2022-07-19T07:53:41Z</time>
      </trkpt>
      <trkpt lat="46.47603" lon="5.40253">
        <ele>487.6</ele>
        <time>2022-07-19T07:53:42Z</time>
      </trkpt>
      <trkpt lat="46.47627" lon="5.40247">
        <ele>486.2</ele>
        <time>2022-07-19T07:53:44Z</time>
      </trkpt>
      <trkpt lat="46.47648" lon="5.40244">
        <ele>485.2</ele>
        <time>2022-07-19T07:53:46Z</time>
      </trkpt>
      <trkpt lat="46.47661" lon="5.40244">
        <ele>484.6</ele>
        <time>2022-07-19T07:53:47Z</time>
      </trkpt>
      <trkpt lat="46.47683" lon="5.40244">
        <ele>483.4</ele>
        <time>2022-07-19T07:53:49Z</time>
      </trkpt>
      <trkpt lat="46.47702" lon="5.40236">
        <ele>482.2</ele>
        <time>2022-07-19T07:53:51Z</time>
      </trkpt>
      <trkpt lat="46.47716" lon="5.40216">
        <ele>481.4</ele>
        <time>2022-07-19T07:53:53Z</time>
      </trkpt>
      <trkpt lat="46.47722" lon="5.402">
        <ele>481</ele>
        <time>2022-07-19T07:53:54Z</time>
      </trkpt>
      <trkpt lat="46.47727" lon="5.40186">
        <ele>480.8</ele>
        <time>2022-07-19T07:53:55Z</time>
      </trkpt>
      <trkpt lat="46.47734" lon="5.40175">
        <ele>480.6</ele>
        <time>2022-07-19T07:53:56Z</time>
      </trkpt>
      <trkpt lat="46.47752" lon="5.40154">
        <ele>480</ele>
        <time>2022-07-19T07:53:58Z</time>
      </trkpt>
      <trkpt lat="46.47757" lon="5.40143">
        <ele>479.4</ele>
        <time>2022-07-19T07:53:59Z</time>
      </trkpt>
      <trkpt lat="46.47762" lon="5.40129">
        <ele>479.2</ele>
        <time>2022-07-19T07:54:00Z</time>
      </trkpt>
      <trkpt lat="46.47767" lon="5.4011">
        <ele>478.6</ele>
        <time>2022-07-19T07:54:01Z</time>
      </trkpt>
      <trkpt lat="46.47768" lon="5.40095">
        <ele>478</ele>
        <time>2022-07-19T07:54:02Z</time>
      </trkpt>
      <trkpt lat="46.47768" lon="5.40079">
        <ele>477</ele>
        <time>2022-07-19T07:54:03Z</time>
      </trkpt>
      <trkpt lat="46.47766" lon="5.40044">
        <ele>475.6</ele>
        <time>2022-07-19T07:54:05Z</time>
      </trkpt>
      <trkpt lat="46.47773" lon="5.40017">
        <ele>474.8</ele>
        <time>2022-07-19T07:54:07Z</time>
      </trkpt>
      <trkpt lat="46.4778" lon="5.40008">
        <ele>474.2</ele>
        <time>2022-07-19T07:54:08Z</time>
      </trkpt>
      <trkpt lat="46.47799" lon="5.39991">
        <ele>473</ele>
        <time>2022-07-19T07:54:10Z</time>
      </trkpt>
      <trkpt lat="46.47828" lon="5.39975">
        <ele>472</ele>
        <time>2022-07-19T07:54:13Z</time>
      </trkpt>
      <trkpt lat="46.47849" lon="5.39963">
        <ele>470.6</ele>
        <time>2022-07-19T07:54:15Z</time>
      </trkpt>
      <trkpt lat="46.4786" lon="5.39956">
        <ele>470.2</ele>
        <time>2022-07-19T07:54:16Z</time>
      </trkpt>
      <trkpt lat="46.4787" lon="5.39951">
        <ele>469.2</ele>
        <time>2022-07-19T07:54:17Z</time>
      </trkpt>
      <trkpt lat="46.47892" lon="5.39939">
        <ele>467.6</ele>
        <time>2022-07-19T07:54:19Z</time>
      </trkpt>
      <trkpt lat="46.47907" lon="5.3993">
        <ele>466.2</ele>
        <time>2022-07-19T07:54:21Z</time>
      </trkpt>
      <trkpt lat="46.47928" lon="5.39914">
        <ele>465</ele>
        <time>2022-07-19T07:54:23Z</time>
      </trkpt>
      <trkpt lat="46.47943" lon="5.39907">
        <ele>464</ele>
        <time>2022-07-19T07:54:24Z</time>
      </trkpt>
      <trkpt lat="46.47976" lon="5.39892">
        <ele>462.8</ele>
        <time>2022-07-19T07:54:27Z</time>
      </trkpt>
      <trkpt lat="46.47997" lon="5.39883">
        <ele>461</ele>
        <time>2022-07-19T07:54:29Z</time>
      </trkpt>
      <trkpt lat="46.48007" lon="5.3988">
        <ele>460.6</ele>
        <time>2022-07-19T07:54:30Z</time>
      </trkpt>
      <trkpt lat="46.48018" lon="5.39879">
        <ele>460.2</ele>
        <time>2022-07-19T07:54:31Z</time>
      </trkpt>
      <trkpt lat="46.48028" lon="5.39881">
        <ele>460.2</ele>
        <time>2022-07-19T07:54:32Z</time>
      </trkpt>
      <trkpt lat="46.48047" lon="5.39892">
        <ele>460</ele>
        <time>2022-07-19T07:54:34Z</time>
      </trkpt>
      <trkpt lat="46.48066" lon="5.39903">
        <ele>460</ele>
        <time>2022-07-19T07:54:36Z</time>
      </trkpt>
      <trkpt lat="46.48085" lon="5.39906">
        <ele>459.8</ele>
        <time>2022-07-19T07:54:38Z</time>
      </trkpt>
      <trkpt lat="46.48143" lon="5.39895">
        <ele>460.4</ele>
        <time>2022-07-19T07:54:44Z</time>
      </trkpt>
      <trkpt lat="46.48187" lon="5.39865">
        <ele>460.4</ele>
        <time>2022-07-19T07:54:49Z</time>
      </trkpt>
      <trkpt lat="46.48198" lon="5.39844">
        <ele>460.6</ele>
        <time>2022-07-19T07:54:51Z</time>
      </trkpt>
      <trkpt lat="46.48196" lon="5.39817">
        <ele>460.6</ele>
        <time>2022-07-19T07:54:53Z</time>
      </trkpt>
      <trkpt lat="46.48182" lon="5.39745">
        <ele>459.8</ele>
        <time>2022-07-19T07:54:59Z</time>
      </trkpt>
      <trkpt lat="46.48177" lon="5.39694">
        <ele>459.2</ele>
        <time>2022-07-19T07:55:03Z</time>
      </trkpt>
      <trkpt lat="46.48177" lon="5.39684">
        <ele>459.2</ele>
        <time>2022-07-19T07:55:04Z</time>
      </trkpt>
      <trkpt lat="46.48177" lon="5.39672">
        <ele>459.2</ele>
        <time>2022-07-19T07:55:05Z</time>
      </trkpt>
      <trkpt lat="46.48182" lon="5.39646">
        <ele>459</ele>
        <time>2022-07-19T07:55:07Z</time>
      </trkpt>
      <trkpt lat="46.48185" lon="5.39632">
        <ele>458.8</ele>
        <time>2022-07-19T07:55:08Z</time>
      </trkpt>
      <trkpt lat="46.4819" lon="5.39619">
        <ele>458.6</ele>
        <time>2022-07-19T07:55:09Z</time>
      </trkpt>
      <trkpt lat="46.48201" lon="5.39593">
        <ele>457.6</ele>
        <time>2022-07-19T07:55:11Z</time>
      </trkpt>
      <trkpt lat="46.48207" lon="5.3958">
        <ele>457.4</ele>
        <time>2022-07-19T07:55:12Z</time>
      </trkpt>
      <trkpt lat="46.48211" lon="5.39565">
        <ele>456.2</ele>
        <time>2022-07-19T07:55:13Z</time>
      </trkpt>
      <trkpt lat="46.48218" lon="5.39537">
        <ele>454.6</ele>
        <time>2022-07-19T07:55:15Z</time>
      </trkpt>
      <trkpt lat="46.48221" lon="5.3952">
        <ele>453.8</ele>
        <time>2022-07-19T07:55:16Z</time>
      </trkpt>
      <trkpt lat="46.48225" lon="5.3951">
        <ele>452.6</ele>
        <time>2022-07-19T07:55:17Z</time>
      </trkpt>
      <trkpt lat="46.48229" lon="5.39499">
        <ele>451.6</ele>
        <time>2022-07-19T07:55:18Z</time>
      </trkpt>
      <trkpt lat="46.48236" lon="5.39486">
        <ele>451.2</ele>
        <time>2022-07-19T07:55:19Z</time>
      </trkpt>
      <trkpt lat="46.48241" lon="5.3948">
        <ele>450.2</ele>
        <time>2022-07-19T07:55:20Z</time>
      </trkpt>
      <trkpt lat="46.48248" lon="5.39474">
        <ele>449.2</ele>
        <time>2022-07-19T07:55:21Z</time>
      </trkpt>
      <trkpt lat="46.48255" lon="5.3947">
        <ele>447.8</ele>
        <time>2022-07-19T07:55:22Z</time>
      </trkpt>
      <trkpt lat="46.48271" lon="5.3947">
        <ele>446.4</ele>
        <time>2022-07-19T07:55:24Z</time>
      </trkpt>
      <trkpt lat="46.4829" lon="5.39467">
        <ele>445.6</ele>
        <time>2022-07-19T07:55:26Z</time>
      </trkpt>
      <trkpt lat="46.48299" lon="5.3946">
        <ele>444.6</ele>
        <time>2022-07-19T07:55:27Z</time>
      </trkpt>
      <trkpt lat="46.48304" lon="5.3945">
        <ele>444.2</ele>
        <time>2022-07-19T07:55:28Z</time>
      </trkpt>
      <trkpt lat="46.48307" lon="5.39436">
        <ele>443.6</ele>
        <time>2022-07-19T07:55:29Z</time>
      </trkpt>
      <trkpt lat="46.48309" lon="5.39422">
        <ele>443.2</ele>
        <time>2022-07-19T07:55:30Z</time>
      </trkpt>
      <trkpt lat="46.48315" lon="5.39391">
        <ele>442</ele>
        <time>2022-07-19T07:55:32Z</time>
      </trkpt>
      <trkpt lat="46.48319" lon="5.39376">
        <ele>441.8</ele>
        <time>2022-07-19T07:55:33Z</time>
      </trkpt>
      <trkpt lat="46.48325" lon="5.39363">
        <ele>441.2</ele>
        <time>2022-07-19T07:55:34Z</time>
      </trkpt>
      <trkpt lat="46.48332" lon="5.39352">
        <ele>440.8</ele>
        <time>2022-07-19T07:55:35Z</time>
      </trkpt>
      <trkpt lat="46.48347" lon="5.39329">
        <ele>439</ele>
        <time>2022-07-19T07:55:37Z</time>
      </trkpt>
      <trkpt lat="46.48355" lon="5.39319">
        <ele>437.8</ele>
        <time>2022-07-19T07:55:38Z</time>
      </trkpt>
      <trkpt lat="46.48374" lon="5.39307">
        <ele>436.6</ele>
        <time>2022-07-19T07:55:40Z</time>
      </trkpt>
      <trkpt lat="46.48398" lon="5.39314">
        <ele>435</ele>
        <time>2022-07-19T07:55:42Z</time>
      </trkpt>
      <trkpt lat="46.48403" lon="5.39315">
        <ele>433.4</ele>
        <time>2022-07-19T07:55:43Z</time>
      </trkpt>
      <trkpt lat="46.48414" lon="5.39318">
        <ele>431.8</ele>
        <time>2022-07-19T07:55:44Z</time>
      </trkpt>
      <trkpt lat="46.48425" lon="5.39319">
        <ele>431</ele>
        <time>2022-07-19T07:55:45Z</time>
      </trkpt>
      <trkpt lat="46.48441" lon="5.39317">
        <ele>430.2</ele>
        <time>2022-07-19T07:55:46Z</time>
      </trkpt>
      <trkpt lat="46.48468" lon="5.39308">
        <ele>428.6</ele>
        <time>2022-07-19T07:55:48Z</time>
      </trkpt>
      <trkpt lat="46.48491" lon="5.39304">
        <ele>426.6</ele>
        <time>2022-07-19T07:55:50Z</time>
      </trkpt>
      <trkpt lat="46.48516" lon="5.39299">
        <ele>425.4</ele>
        <time>2022-07-19T07:55:52Z</time>
      </trkpt>
      <trkpt lat="46.48542" lon="5.39292">
        <ele>423.6</ele>
        <time>2022-07-19T07:55:54Z</time>
      </trkpt>
      <trkpt lat="46.48556" lon="5.3929">
        <ele>421.8</ele>
        <time>2022-07-19T07:55:55Z</time>
      </trkpt>
      <trkpt lat="46.48583" lon="5.39285">
        <ele>419.8</ele>
        <time>2022-07-19T07:55:57Z</time>
      </trkpt>
      <trkpt lat="46.48596" lon="5.39283">
        <ele>418.6</ele>
        <time>2022-07-19T07:55:58Z</time>
      </trkpt>
      <trkpt lat="46.48622" lon="5.39277">
        <ele>416.6</ele>
        <time>2022-07-19T07:56:00Z</time>
      </trkpt>
      <trkpt lat="46.48647" lon="5.39274">
        <ele>414.2</ele>
        <time>2022-07-19T07:56:02Z</time>
      </trkpt>
      <trkpt lat="46.48671" lon="5.39277">
        <ele>412.8</ele>
        <time>2022-07-19T07:56:04Z</time>
      </trkpt>
      <trkpt lat="46.48682" lon="5.3928">
        <ele>411.2</ele>
        <time>2022-07-19T07:56:05Z</time>
      </trkpt>
      <trkpt lat="46.48692" lon="5.39285">
        <ele>410.6</ele>
        <time>2022-07-19T07:56:06Z</time>
      </trkpt>
      <trkpt lat="46.48701" lon="5.39291">
        <ele>409.2</ele>
        <time>2022-07-19T07:56:07Z</time>
      </trkpt>
      <trkpt lat="46.48718" lon="5.39302">
        <ele>408</ele>
        <time>2022-07-19T07:56:09Z</time>
      </trkpt>
      <trkpt lat="46.48726" lon="5.39304">
        <ele>407.6</ele>
        <time>2022-07-19T07:56:10Z</time>
      </trkpt>
      <trkpt lat="46.48734" lon="5.39305">
        <ele>406.6</ele>
        <time>2022-07-19T07:56:11Z</time>
      </trkpt>
      <trkpt lat="46.48736" lon="5.39286">
        <ele>405.4</ele>
        <time>2022-07-19T07:56:13Z</time>
      </trkpt>
      <trkpt lat="46.48722" lon="5.39264">
        <ele>404.8</ele>
        <time>2022-07-19T07:56:15Z</time>
      </trkpt>
      <trkpt lat="46.48708" lon="5.39244">
        <ele>404.2</ele>
        <time>2022-07-19T07:56:17Z</time>
      </trkpt>
      <trkpt lat="46.48701" lon="5.39233">
        <ele>402.8</ele>
        <time>2022-07-19T07:56:18Z</time>
      </trkpt>
      <trkpt lat="46.48693" lon="5.39222">
        <ele>401.8</ele>
        <time>2022-07-19T07:56:19Z</time>
      </trkpt>
      <trkpt lat="46.48677" lon="5.39199">
        <ele>399.6</ele>
        <time>2022-07-19T07:56:21Z</time>
      </trkpt>
      <trkpt lat="46.48661" lon="5.39176">
        <ele>397.4</ele>
        <time>2022-07-19T07:56:23Z</time>
      </trkpt>
      <trkpt lat="46.48645" lon="5.39152">
        <ele>396</ele>
        <time>2022-07-19T07:56:25Z</time>
      </trkpt>
      <trkpt lat="46.48625" lon="5.39131">
        <ele>395</ele>
        <time>2022-07-19T07:56:27Z</time>
      </trkpt>
      <trkpt lat="46.48602" lon="5.39112">
        <ele>394</ele>
        <time>2022-07-19T07:56:29Z</time>
      </trkpt>
      <trkpt lat="46.4859" lon="5.39104">
        <ele>392</ele>
        <time>2022-07-19T07:56:30Z</time>
      </trkpt>
      <trkpt lat="46.48566" lon="5.39087">
        <ele>389.6</ele>
        <time>2022-07-19T07:56:32Z</time>
      </trkpt>
      <trkpt lat="46.48554" lon="5.39079">
        <ele>388</ele>
        <time>2022-07-19T07:56:33Z</time>
      </trkpt>
      <trkpt lat="46.4853" lon="5.39065">
        <ele>386</ele>
        <time>2022-07-19T07:56:35Z</time>
      </trkpt>
      <trkpt lat="46.48519" lon="5.39055">
        <ele>385</ele>
        <time>2022-07-19T07:56:36Z</time>
      </trkpt>
      <trkpt lat="46.48509" lon="5.39044">
        <ele>383.4</ele>
        <time>2022-07-19T07:56:37Z</time>
      </trkpt>
      <trkpt lat="46.485" lon="5.39029">
        <ele>382.8</ele>
        <time>2022-07-19T07:56:38Z</time>
      </trkpt>
      <trkpt lat="46.48494" lon="5.39012">
        <ele>381</ele>
        <time>2022-07-19T07:56:39Z</time>
      </trkpt>
      <trkpt lat="46.4849" lon="5.38993">
        <ele>379.6</ele>
        <time>2022-07-19T07:56:40Z</time>
      </trkpt>
      <trkpt lat="46.48484" lon="5.38974">
        <ele>379.2</ele>
        <time>2022-07-19T07:56:41Z</time>
      </trkpt>
      <trkpt lat="46.48477" lon="5.38957">
        <ele>378</ele>
        <time>2022-07-19T07:56:42Z</time>
      </trkpt>
      <trkpt lat="46.48462" lon="5.38928">
        <ele>375.4</ele>
        <time>2022-07-19T07:56:44Z</time>
      </trkpt>
      <trkpt lat="46.48456" lon="5.38915">
        <ele>374.6</ele>
        <time>2022-07-19T07:56:45Z</time>
      </trkpt>
      <trkpt lat="46.48453" lon="5.38901">
        <ele>373.8</ele>
        <time>2022-07-19T07:56:46Z</time>
      </trkpt>
      <trkpt lat="46.48452" lon="5.38887">
        <ele>373.2</ele>
        <time>2022-07-19T07:56:47Z</time>
      </trkpt>
      <trkpt lat="46.4846" lon="5.3886">
        <ele>372.2</ele>
        <time>2022-07-19T07:56:49Z</time>
      </trkpt>
      <trkpt lat="46.48478" lon="5.38844">
        <ele>371.2</ele>
        <time>2022-07-19T07:56:51Z</time>
      </trkpt>
      <trkpt lat="46.48488" lon="5.38838">
        <ele>371</ele>
        <time>2022-07-19T07:56:52Z</time>
      </trkpt>
      <trkpt lat="46.48507" lon="5.38826">
        <ele>370.2</ele>
        <time>2022-07-19T07:56:54Z</time>
      </trkpt>
      <trkpt lat="46.48536" lon="5.38806">
        <ele>368.8</ele>
        <time>2022-07-19T07:56:57Z</time>
      </trkpt>
      <trkpt lat="46.48555" lon="5.38794">
        <ele>367.4</ele>
        <time>2022-07-19T07:56:59Z</time>
      </trkpt>
      <trkpt lat="46.48573" lon="5.38782">
        <ele>365.8</ele>
        <time>2022-07-19T07:57:01Z</time>
      </trkpt>
      <trkpt lat="46.48581" lon="5.38778">
        <ele>365.4</ele>
        <time>2022-07-19T07:57:02Z</time>
      </trkpt>
      <trkpt lat="46.48589" lon="5.38775">
        <ele>364.6</ele>
        <time>2022-07-19T07:57:03Z</time>
      </trkpt>
      <trkpt lat="46.48597" lon="5.38776">
        <ele>364.2</ele>
        <time>2022-07-19T07:57:04Z</time>
      </trkpt>
      <trkpt lat="46.48604" lon="5.38778">
        <ele>362.8</ele>
        <time>2022-07-19T07:57:05Z</time>
      </trkpt>
      <trkpt lat="46.4861" lon="5.38778">
        <ele>362</ele>
        <time>2022-07-19T07:57:06Z</time>
      </trkpt>
      <trkpt lat="46.48616" lon="5.38774">
        <ele>360.8</ele>
        <time>2022-07-19T07:57:07Z</time>
      </trkpt>
      <trkpt lat="46.48621" lon="5.38766">
        <ele>359.8</ele>
        <time>2022-07-19T07:57:08Z</time>
      </trkpt>
      <trkpt lat="46.48631" lon="5.38748">
        <ele>358.8</ele>
        <time>2022-07-19T07:57:10Z</time>
      </trkpt>
      <trkpt lat="46.48636" lon="5.38736">
        <ele>358.6</ele>
        <time>2022-07-19T07:57:11Z</time>
      </trkpt>
      <trkpt lat="46.48639" lon="5.38724">
        <ele>358</ele>
        <time>2022-07-19T07:57:12Z</time>
      </trkpt>
      <trkpt lat="46.48643" lon="5.38697">
        <ele>357</ele>
        <time>2022-07-19T07:57:14Z</time>
      </trkpt>
      <trkpt lat="46.48644" lon="5.38683">
        <ele>356</ele>
        <time>2022-07-19T07:57:15Z</time>
      </trkpt>
      <trkpt lat="46.48643" lon="5.38668">
        <ele>355.6</ele>
        <time>2022-07-19T07:57:16Z</time>
      </trkpt>
      <trkpt lat="46.48641" lon="5.38653">
        <ele>354.6</ele>
        <time>2022-07-19T07:57:17Z</time>
      </trkpt>
      <trkpt lat="46.48638" lon="5.38639">
        <ele>354</ele>
        <time>2022-07-19T07:57:18Z</time>
      </trkpt>
      <trkpt lat="46.48634" lon="5.38624">
        <ele>353.2</ele>
        <time>2022-07-19T07:57:19Z</time>
      </trkpt>
      <trkpt lat="46.48626" lon="5.38596">
        <ele>351.4</ele>
        <time>2022-07-19T07:57:21Z</time>
      </trkpt>
      <trkpt lat="46.48623" lon="5.38581">
        <ele>350.4</ele>
        <time>2022-07-19T07:57:22Z</time>
      </trkpt>
      <trkpt lat="46.48614" lon="5.38551">
        <ele>349.2</ele>
        <time>2022-07-19T07:57:24Z</time>
      </trkpt>
      <trkpt lat="46.48606" lon="5.38521">
        <ele>347.8</ele>
        <time>2022-07-19T07:57:26Z</time>
      </trkpt>
    </trkseg>
  </trk>
</gpx>